# Wetter Temperatur Luftdruck Luftfeuchtigkeit Sichtweite Windgeschwindigkeit Windrichtung Zeit
1 Clear 17 1028 45 16093 1.5 250 10:39 08.04.2020
2 Clear 17 1028 45 16093 1.5 250 10:20 08.04.2020
3 Clear 17 1028 45 16093 1.5 260 09:57 08.04.2020
4 Clear 17 1028 45 16093 1.5 260 09:39 08.04.2020
5 Clear 16 1028 45 16093 1.5 260 09:18 08.04.2020
6 Clear 18 1028 42 16093 2.1 290 08:56 08.04.2020
7 Clear 18 1028 42 16093 2.1 290 08:38 08.04.2020
8 Clear 18 1028 42 16093 2.1 290 08:20 08.04.2020
9 Clear 19 1028 37 16093 1.5 10 07:42 08.04.2020
10 Clear 19 1028 37 16093 1.5 10 07:20 08.04.2020
11 Clouds 19 1028 37 16093 3.1 20 06:22 08.04.2020
12 Clouds 23 1026 23 16093 2.6 190 04:44 08.04.2020
13 Clouds 26 1025 24 12874 4.1 170 02:49 08.04.2020
14 Clouds 26 1025 24 12874 4.1 170 02:21 08.04.2020
15 Clouds 25 1025 27 12874 4.1 120 01:51 08.04.2020
16 Clouds 25 1025 27 12874 4.1 120 01:27 08.04.2020
17 Thunderstorm 25 1025 27 12874 7.2 120 00:41 08.04.2020
18 Thunderstorm 26 1025 24 12874 5.7 240 00:22 08.04.2020
19 Clouds 26 1026 24 11265 3.1 260 23:40 07.04.2020
20 Clouds 26 1026 24 11265 3.1 260 23:22 07.04.2020
21 Clouds 26 1027 24 11265 2.1 270 22:58 07.04.2020
22 Clouds 26 1027 24 11265 2.1 270 22:40 07.04.2020
23 Clouds 26 1027 24 11265 2.1 270 22:20 07.04.2020
24 Clouds 26 1029 26 11265 3.6 110 21:57 07.04.2020
25 Clouds 26 1029 26 11265 3.6 110 21:39 07.04.2020
26 Clouds 26 1029 26 11265 3.6 110 21:20 07.04.2020
27 Clouds 25 1030 27 12874 1.5 190 20:57 07.04.2020
28 Clouds 25 1030 27 12874 1.5 190 20:38 07.04.2020
29 Clouds 25 1030 27 12874 1.5 190 20:20 07.04.2020
30 Clouds 24 1031 35 12874 2.1 120 19:57 07.04.2020
31 Clouds 22 1031 35 12874 2.1 120 19:36 07.04.2020
32 Clouds 22 1031 37 12874 2.1 30 19:18 07.04.2020
33 Clouds 21 1031 37 12874 2.1 30 18:54 07.04.2020
34 Clouds 21 1031 37 12874 2.1 30 18:36 07.04.2020
35 Clouds 21 1031 45 12874 1.5 50 18:18 07.04.2020
36 Clouds 20 1031 45 12874 1.5 50 17:44 07.04.2020
37 Clouds 20 1031 45 12874 1.5 50 17:20 07.04.2020
38 Clouds 17 1030 52 14484 2.1 80 16:46 07.04.2020
39 Clouds 16 1029 59 14484 2.1 60 16:27 07.04.2020
40 Clouds 15 1029 59 14484 2.1 60 15:56 07.04.2020
41 Clouds 15 1029 59 14484 2.1 60 15:38 07.04.2020
42 Clouds 16 1028 45 16093 1 20 15:19 07.04.2020
43 Clouds 16 1028 45 16093 1 20 14:41 07.04.2020
44 Clouds 16 1028 45 16093 1 20 14:22 07.04.2020
45 Clouds 16 1028 39 16093 2.1 310 13:56 07.04.2020
46 Clouds 16 1028 39 16093 2.1 310 13:37 07.04.2020
47 Clouds 16 1028 39 16093 2.1 310 13:18 07.04.2020
48 Clouds 16 1027 45 16093 0.41 56 12:54 07.04.2020
49 Clouds 16 1027 45 16093 0.41 56 12:36 07.04.2020
50 Clouds 16 1027 45 16093 1.01 137 12:18 07.04.2020
51 Ash 16 1028 45 16093 2.1 130 11:42 07.04.2020
52 Ash 16 1028 45 16093 2.1 130 11:22 07.04.2020
53 Smoke 17 1028 34 16093 1.5 300 10:57 07.04.2020
54 Smoke 17 1028 34 16093 1.5 300 10:37 07.04.2020
55 Smoke 17 1028 34 16093 1.5 300 10:18 07.04.2020
56 Clear 17 1029 45 16093 2.6 300 09:44 07.04.2020
57 Clear 17 1029 45 16093 2.6 300 09:18 07.04.2020
58 Clear 18 1029 42 16093 2.1 320 08:43 07.04.2020
59 Clear 18 1029 42 16093 2.1 320 08:25 07.04.2020
60 Clouds 18 1029 42 16093 4.1 300 07:59 07.04.2020
61 Clouds 18 1029 42 16093 4.1 300 07:40 07.04.2020
62 Clouds 18 1029 42 16093 4.1 300 07:40 07.04.2020
63 Clouds 18 1029 42 16093 4.1 300 07:21 07.04.2020
64 Clouds 19 1028 37 16093 3.6 360 06:49 07.04.2020
65 Clouds 19 1028 37 16093 3.6 360 06:21 07.04.2020
66 Clouds 20 1027 35 19312 4.1 40 05:38 07.04.2020
67 Clouds 23 1025 29 19312 4.1 200 04:40 07.04.2020
68 Clouds 25 1024 23 19312 3.6 180 03:25 07.04.2020
69 Clouds 25 1023 24 12874 2.1 180 02:48 07.04.2020
70 Clouds 26 1023 24 12874 4.1 200 01:48 07.04.2020
71 Clouds 25 1023 24 12874 4.1 200 01:24 07.04.2020
72 Clouds 26 1024 27 12874 2.1 100 00:28 07.04.2020
73 Clouds 26 1024 26 11265 5.1 70 23:50 06.04.2020
74 Clouds 26 1024 26 11265 5.1 70 23:24 06.04.2020
75 Clouds 26 1024 26 11265 5.1 70 23:24 06.04.2020
76 Clouds 27 1025 22 11265 3.1 130 22:58 06.04.2020
77 Clouds 27 1025 22 11265 3.1 130 22:38 06.04.2020
78 Clouds 27 1025 22 11265 3.1 130 22:20 06.04.2020
79 Clouds 26 1026 26 11265 1.97 156 21:57 06.04.2020
80 Clouds 26 1026 26 11265 1.97 156 21:38 06.04.2020
81 Clouds 26 1026 26 11265 1.08 244 21:18 06.04.2020
82 Clouds 25 1027 25 11265 1.08 244 20:54 06.04.2020
83 Clouds 25 1027 25 11265 1.08 244 20:36 06.04.2020
84 Clouds 25 1027 25 11265 1.08 244 20:18 06.04.2020
85 Clouds 25 1027 25 11265 1.08 244 20:18 06.04.2020
86 Clouds 23 1028 35 11265 1.08 244 19:41 06.04.2020
87 Clouds 22 1028 35 11265 1.08 244 19:22 06.04.2020
88 Clouds 21 1028 40 11265 3.1 70 18:57 06.04.2020
89 Clouds 21 1028 40 11265 3.1 70 18:57 06.04.2020
90 Clouds 21 1028 40 11265 3.1 70 18:39 06.04.2020
91 Clouds 20 1028 40 11265 3.1 70 18:20 06.04.2020
92 Clouds 19 1028 52 12874 2.1 70 17:42 06.04.2020
93 Clouds 19 1028 52 12874 2.1 70 17:20 06.04.2020
94 Clear 17 1027 55 14484 3.1 50 16:50 06.04.2020
95 Clear 17 1027 55 14484 3.1 50 16:31 06.04.2020
96 Clouds 14 1026 59 14484 1.5 30 15:41 06.04.2020
97 Clouds 12 1025 59 16093 2.1 130 13:46 06.04.2020
98 Clouds 12 1025 59 16093 2.1 130 13:24 06.04.2020
99 Clouds 13 1025 59 16093 2.1 130 13:02 06.04.2020
100 Clouds 13 1025 55 16093 1.49 171 12:22 06.04.2020
101 Clouds 14 1025 63 16093 1.67 174 11:55 06.04.2020
102 Clouds 14 1025 63 16093 1.67 174 11:33 06.04.2020
103 Clouds 14 1025 63 16093 1.67 174 11:33 06.04.2020
104 Clouds 14 1025 63 16093 1.67 174 11:33 06.04.2020
105 Clouds 14 1025 63 16093 1.67 174 11:33 06.04.2020
106 Clouds 14 1025 63 16093 1.67 174 11:33 06.04.2020
107 Clouds 15 1026 55 12874 1.67 174 10:52 06.04.2020
108 Clouds 15 1026 55 12874 1.67 174 10:52 06.04.2020
109 Clouds 15 1026 55 12874 1.67 174 10:52 06.04.2020
110 Clouds 15 1026 55 12874 1.67 174 10:52 06.04.2020
111 Clouds 15 1026 55 12874 1.67 174 10:21 06.04.2020
112 Clouds 17 1026 48 12874 1.67 174 09:47 06.04.2020
113 Clouds 17 1026 48 12874 1.67 174 09:47 06.04.2020
114 Clouds 17 1026 48 12874 1.67 174 09:47 06.04.2020
115 Clouds 15 1026 48 12874 1.67 174 09:21 06.04.2020
116 Clouds 16 1026 52 12874 2.6 290 08:54 06.04.2020
117 Clouds 16 1026 52 12874 2.6 290 08:30 06.04.2020
118 Clouds 18 1026 49 12874 4.1 30 07:37 06.04.2020
119 Clouds 18 1026 49 12874 4.1 30 07:37 06.04.2020
120 Clouds 19 1026 52 16093 2.6 30 06:42 06.04.2020
121 Clouds 18 1026 52 16093 2.6 30 06:23 06.04.2020
122 Clouds 23 1024 25 16093 1.5 240 04:20 06.04.2020
123 Clouds 26 1022 21 12874 4.1 240 02:58 06.04.2020
124 Clouds 26 1022 21 12874 4.1 240 02:36 06.04.2020
125 Clouds 27 1021 20 12874 4.1 190 01:26 06.04.2020
126 Clouds 28 1021 20 12874 5.1 190 00:41 06.04.2020
127 Clouds 28 1021 20 12874 5.1 190 00:23 06.04.2020
128 Clouds 27 1022 24 12874 3.6 140 23:43 05.04.2020
129 Clouds 27 1022 24 12874 3.6 140 23:25 05.04.2020
130 Clouds 27 1022 24 12874 3.6 140 23:25 05.04.2020
131 Clouds 27 1022 24 12874 3.6 140 23:25 05.04.2020
132 Clouds 27 1023 24 12874 3.1 150 22:55 05.04.2020
133 Clouds 27 1023 24 12874 3.1 150 22:55 05.04.2020
134 Clouds 27 1023 24 12874 3.1 150 22:37 05.04.2020
135 Clouds 27 1023 24 12874 3.1 150 22:18 05.04.2020
136 Clouds 26 1024 26 12874 1.5 140 21:45 05.04.2020
137 Clouds 26 1024 26 12874 1.5 140 21:24 05.04.2020
138 Clouds 26 1024 26 12874 1.5 140 21:24 05.04.2020
139 Clouds 26 1024 26 12874 1.5 140 21:24 05.04.2020
140 Clouds 25 1025 27 12874 2.6 110 20:26 05.04.2020
141 Clear 24 1025 33 12874 1.97 206 20:00 05.04.2020
142 Clear 24 1025 33 12874 1.97 206 20:00 05.04.2020
143 Clear 24 1025 33 12874 1.97 206 19:37 05.04.2020
144 Clear 23 1025 33 12874 1.97 206 19:19 05.04.2020
145 Clear 22 1026 37 12874 2.6 20 18:43 05.04.2020
146 Clear 22 1026 37 12874 2.6 20 18:43 05.04.2020
147 Clear 22 1026 37 12874 2.6 20 18:43 05.04.2020
148 Clear 22 1026 37 12874 2.6 20 18:43 05.04.2020
149 Clear 22 1026 37 12874 2.6 20 18:42 05.04.2020
150 Clear 18 1026 52 12874 2.6 60 17:51 05.04.2020
151 Clear 18 1026 52 12874 2.6 60 17:51 05.04.2020
152 Clear 18 1026 52 12874 2.6 60 17:51 05.04.2020
153 Clear 18 1026 52 12874 2.6 60 17:51 05.04.2020
154 Clear 18 1026 52 12874 2.6 60 17:51 05.04.2020
155 Clear 18 1026 52 12874 2.6 60 17:23 05.04.2020
156 Clear 16 1025 55 12874 3.1 60 16:47 05.04.2020
157 Clouds 15 1025 67 16093 3.6 60 16:20 05.04.2020
158 Clouds 15 1025 67 16093 3.6 60 16:20 05.04.2020
159 Clouds 13 1024 59 16093 0.83 154 15:48 05.04.2020
160 Clouds 13 1024 59 16093 0.83 154 15:30 05.04.2020
161 Clouds 13 1024 59 16093 2.1 180 14:48 05.04.2020
162 Clouds 13 1024 59 16093 2.1 180 14:24 05.04.2020
163 Clouds 13 1024 59 16093 2.1 180 14:24 05.04.2020
164 Clouds 13 1024 59 16093 2.1 180 14:23 05.04.2020
165 Clouds 13 1024 59 16093 2.1 180 14:23 05.04.2020
166 Clouds 13 1024 59 16093 2.1 180 14:23 05.04.2020
167 Clear 12 1024 59 16093 0.49 105 13:41 05.04.2020
168 Clouds 14 1024 63 16093 0.49 105 12:44 05.04.2020
169 Clouds 14 1024 63 16093 0.49 105 12:44 05.04.2020
170 Clouds 14 1024 63 16093 0.49 105 12:42 05.04.2020
171 Clouds 14 1024 63 16093 0.49 105 12:42 05.04.2020
172 Clouds 14 1024 63 16093 0.49 105 12:41 05.04.2020
173 Clouds 14 1024 63 16093 2.1 130 11:41 05.04.2020
174 Clouds 14 1024 63 16093 2.1 130 11:20 05.04.2020
175 Clouds 16 1025 55 16093 3.1 250 10:48 05.04.2020
176 Clouds 16 1025 55 16093 3.1 250 10:24 05.04.2020
177 Clouds 16 1025 55 16093 3.1 250 10:24 05.04.2020
178 Clouds 16 1025 55 16093 3.1 250 10:24 05.04.2020
179 Clouds 16 1025 55 16093 3.1 250 10:24 05.04.2020
180 Clouds 16 1025 55 16093 3.1 250 10:24 05.04.2020
181 Thunderstorm 17 1025 52 16093 6.7 360 09:56 05.04.2020
182 Thunderstorm 17 1025 52 16093 6.7 360 09:56 05.04.2020
183 Thunderstorm 17 1025 52 16093 6.7 360 09:30 05.04.2020
184 Thunderstorm 17 1025 52 16093 6.7 360 09:30 05.04.2020
185 Clouds 16 1026 55 16093 5.1 360 08:34 05.04.2020
186 Rain 20 1025 43 16093 2.6 20 07:21 05.04.2020
187 Clouds 22 1023 35 14484 2.6 180 04:32 05.04.2020
188 Clouds 23 1022 35 14484 4.1 190 03:29 05.04.2020
189 Clouds 23 1022 35 14484 4.1 190 03:29 05.04.2020
190 Clouds 24 1021 38 12874 4.1 220 02:46 05.04.2020
191 Clouds 25 1021 33 11265 7.2 220 01:45 05.04.2020
192 Clouds 25 1021 33 11265 7.2 220 01:23 05.04.2020
193 Clouds 25 1021 31 11265 6.7 200 00:42 05.04.2020
194 Clouds 26 1021 23 11265 2.1 120 00:21 05.04.2020
195 Clouds 27 1022 24 11265 2.6 140 23:42 04.04.2020
196 Clouds 27 1022 24 11265 2.6 140 23:22 04.04.2020
197 Clouds 26 1023 27 11265 3.1 200 22:57 04.04.2020
198 Clouds 26 1023 27 11265 3.1 200 22:39 04.04.2020
199 Clouds 26 1023 27 11265 3.1 200 22:20 04.04.2020
200 Clouds 25 1024 31 11265 2.6 100 21:58 04.04.2020
201 Clouds 25 1024 31 11265 2.6 100 21:39 04.04.2020
202 Clouds 25 1024 31 11265 2.6 100 21:19 04.04.2020
203 Clouds 24 1025 36 11265 2.6 70 20:56 04.04.2020
204 Clouds 24 1025 36 11265 2.6 70 20:37 04.04.2020
205 Clouds 22 1026 40 11265 2.6 50 20:19 04.04.2020
206 Clouds 21 1026 46 11265 1.5 50 19:55 04.04.2020
207 Clouds 21 1026 46 11265 1.5 50 19:36 04.04.2020
208 Clouds 21 1026 46 11265 1.5 50 19:18 04.04.2020
209 Clouds 19 1026 49 11265 1.5 70 18:54 04.04.2020
210 Clouds 19 1026 49 11265 1.5 70 18:36 04.04.2020
211 Clouds 18 1026 55 11265 2.6 80 18:18 04.04.2020
212 Clouds 16 1026 63 14484 1.5 40 17:39 04.04.2020
213 Clouds 16 1026 63 14484 1.5 40 17:20 04.04.2020
214 Clouds 14 1025 76 14484 2.1 60 16:46 04.04.2020
215 Clouds 14 1025 76 14484 2.1 60 16:28 04.04.2020
216 Clouds 13 1025 76 14484 2.1 60 15:59 04.04.2020
217 Clouds 11 1024 82 14484 0.85 268 15:40 04.04.2020
218 Clouds 11 1024 82 14484 0.86 159 15:22 04.04.2020
219 Clouds 10 1024 87 16093 0.68 156 14:56 04.04.2020
220 Clouds 10 1024 87 16093 0.68 156 14:38 04.04.2020
221 Clouds 10 1024 87 16093 0.86 159 14:20 04.04.2020
222 Clouds 11 1023 82 16093 0.68 156 13:54 04.04.2020
223 Clouds 11 1023 82 16093 0.68 156 13:36 04.04.2020
224 Clouds 11 1023 82 16093 0.68 156 13:18 04.04.2020
225 Clouds 12 1023 76 16093 2.1 360 12:42 04.04.2020
226 Clouds 12 1023 76 16093 2.1 360 12:23 04.04.2020
227 Clouds 13 1023 72 16093 3.6 110 11:54 04.04.2020
228 Clouds 13 1023 72 16093 3.6 110 11:36 04.04.2020
229 Clouds 13 1023 72 16093 3.6 110 11:18 04.04.2020
230 Clouds 14 1024 59 16093 2.1 280 10:55 04.04.2020
231 Clouds 14 1024 59 16093 2.1 280 10:37 04.04.2020
232 Clouds 14 1024 59 16093 2.1 280 10:18 04.04.2020
233 Clouds 14 1025 67 16093 1.5 240 09:42 04.04.2020
234 Clouds 14 1025 67 16093 1.5 240 09:24 04.04.2020
235 Clouds 13 1028 58 9656 2.6 100 08:56 04.04.2020
236 Clouds 13 1028 58 9656 2.6 100 08:37 04.04.2020
237 Clouds 13 1028 58 9656 2.6 100 08:19 04.04.2020
238 Clouds 14 1028 76 16093 4.1 210 07:40 04.04.2020
239 Clouds 14 1028 76 16093 4.1 210 07:22 04.04.2020
240 Clouds 14 1028 76 16093 4.1 210 07:22 04.04.2020
241 Clouds 14 1028 76 16093 6.2 210 06:40 04.04.2020
242 Thunderstorm 13 1027 81 11265 6.2 60 05:54 04.04.2020
243 Thunderstorm 13 1027 81 11265 6.2 60 05:33 04.04.2020
244 Clouds 13 1025 76 3219 8.2 360 04:40 04.04.2020
245 Rain 21 1022 40 12874 7.7 130 04:20 04.04.2020
246 Clouds 22 1022 35 14484 3.1 170 03:45 04.04.2020
247 Clouds 22 1021 35 12874 3.1 230 02:49 04.04.2020
248 Clouds 22 1021 35 12874 3.1 230 02:30 04.04.2020
249 Clouds 22 1020 38 12874 5.1 220 01:48 04.04.2020
250 Clouds 22 1020 38 12874 5.1 220 01:21 04.04.2020
251 Clouds 24 1021 33 12874 6.2 180 00:45 04.04.2020
252 Clouds 25 1021 27 11265 4.1 210 00:26 04.04.2020
253 Clouds 27 1021 26 11265 3.1 210 23:39 03.04.2020
254 Clouds 27 1021 26 11265 3.1 210 23:20 03.04.2020
255 Clouds 26 1023 27 11265 3.1 190 22:55 03.04.2020
256 Clouds 26 1023 27 11265 3.1 190 22:36 03.04.2020
257 Clouds 26 1023 27 11265 3.1 190 22:18 03.04.2020
258 Clouds 25 1024 31 11265 3.1 70 21:42 03.04.2020
259 Clouds 25 1024 31 11265 3.1 70 21:22 03.04.2020
260 Clouds 24 1025 36 11265 3.1 30 20:56 03.04.2020
261 Clouds 24 1025 36 11265 3.1 30 20:36 03.04.2020
262 Clouds 24 1025 36 11265 3.1 30 20:36 03.04.2020
263 Clouds 24 1025 36 11265 3.1 30 20:18 03.04.2020
264 Clouds 23 1025 35 12874 3.1 350 19:56 03.04.2020
265 Clouds 23 1025 35 12874 3.1 350 19:37 03.04.2020
266 Clouds 23 1025 35 12874 3.1 350 19:19 03.04.2020
267 Clouds 21 1026 45 12874 1.14 346 18:58 03.04.2020
268 Clouds 20 1026 45 12874 1.14 346 18:40 03.04.2020
269 Clouds 20 1026 45 12874 0.92 184 18:21 03.04.2020
270 Clear 17 1026 55 14484 2.1 80 17:43 03.04.2020
271 Clear 17 1026 55 14484 2.1 80 17:20 03.04.2020
272 Clear 15 1025 71 16093 2.1 50 16:57 03.04.2020
273 Clear 14 1025 71 16093 2.1 50 16:38 03.04.2020
274 Clear 14 1025 71 16093 2.1 50 16:20 03.04.2020
275 Clear 11 1024 76 16093 1 80 15:56 03.04.2020
276 Clear 11 1024 76 16093 1 80 15:37 03.04.2020
277 Clear 11 1024 76 16093 1 80 15:19 03.04.2020
278 Clouds 17 1013 29 0 0.41 124 14:41 03.04.2020
279 Clouds 17 1014 32 0 0.34 105 14:22 03.04.2020
280 Clear 11 1023 76 19312 1.5 80 13:57 03.04.2020
281 Clear 11 1023 76 19312 1.5 80 13:37 03.04.2020
282 Clear 11 1023 76 19312 1.5 80 13:18 03.04.2020
283 Clear 12 1023 62 19312 1 30 12:43 03.04.2020
284 Clear 12 1023 62 19312 1 30 12:20 03.04.2020
285 Clear 13 1024 62 19312 1 20 11:56 03.04.2020
286 Clear 13 1024 62 19312 1 20 11:37 03.04.2020
287 Clear 13 1024 62 19312 1 20 11:18 03.04.2020
288 Clear 14 1024 59 19312 1.5 180 10:57 03.04.2020
289 Clear 14 1024 59 19312 1.5 180 10:38 03.04.2020
290 Clear 14 1024 59 19312 1.5 180 10:20 03.04.2020
291 Clear 14 1024 59 19312 1.5 180 10:20 03.04.2020
292 Clear 15 1024 59 19312 3.1 70 09:57 03.04.2020
293 Clear 15 1024 59 19312 3.1 70 09:39 03.04.2020
294 Clear 15 1024 59 19312 3.1 70 09:39 03.04.2020
295 Clear 15 1024 59 19312 3.1 70 09:21 03.04.2020
296 Clouds 16 1025 48 19312 3.1 320 08:55 03.04.2020
297 Clouds 17 1025 48 19312 3.1 320 08:36 03.04.2020
298 Clouds 17 1025 48 19312 3.1 320 08:18 03.04.2020
299 Clouds 16 1026 59 19312 5.7 230 07:41 03.04.2020
300 Clouds 17 1026 59 19312 5.7 230 07:23 03.04.2020
301 Rain 17 1027 52 12874 5.1 140 06:33 03.04.2020
302 Thunderstorm 16 1027 55 14484 6.2 100 05:43 03.04.2020
303 Thunderstorm 20 1024 35 14484 7.7 120 04:30 03.04.2020
304 Thunderstorm 22 1023 43 16093 6.2 120 03:35 03.04.2020
305 Clouds 23 1022 36 9656 5.7 150 02:40 03.04.2020
306 Clouds 23 1021 33 9656 4.1 170 01:27 03.04.2020
307 Clouds 25 1021 36 9656 8.7 150 00:52 03.04.2020
308 Clouds 25 1021 36 9656 8.7 150 00:33 03.04.2020
309 Clouds 26 1021 22 9656 2.6 70 23:57 02.04.2020
310 Clouds 26 1021 22 9656 2.6 70 23:38 02.04.2020
311 Clouds 26 1021 22 9656 2.6 70 23:18 02.04.2020
312 Clouds 26 1022 22 8047 2.6 160 22:42 02.04.2020
313 Clouds 26 1022 22 8047 2.6 160 22:42 02.04.2020
314 Clouds 26 1022 22 8047 2.6 160 22:23 02.04.2020
315 Clouds 26 1022 22 8047 2.6 160 21:59 02.04.2020
316 Clear 25 1024 29 9656 2.1 30 21:37 02.04.2020
317 Clear 25 1024 29 9656 2.1 30 21:18 02.04.2020
318 Clear 24 1025 36 9656 2.1 120 20:45 02.04.2020
319 Clear 24 1025 36 9656 2.1 120 20:25 02.04.2020
320 Clear 23 1026 38 8047 1.32 337 19:59 02.04.2020
321 Clear 24 1025 36 9656 2.1 120 19:59 02.04.2020
322 Clear 23 1026 38 8047 1.32 337 19:40 02.04.2020
323 Clear 23 1026 38 8047 1.32 337 19:20 02.04.2020
324 Clear 23 1026 38 8047 1.32 337 19:20 02.04.2020
325 Clear 21 1027 46 8047 1.32 337 18:56 02.04.2020
326 Clear 20 1027 46 8047 1.32 337 18:37 02.04.2020
327 Clear 20 1027 46 8047 1.74 347 18:18 02.04.2020
328 Clear 20 1027 46 8047 1.74 347 18:18 02.04.2020
329 Clear 19 1027 49 8047 1.74 347 17:42 02.04.2020
330 Clear 18 1027 59 8047 3.1 50 17:24 02.04.2020
331 Clear 16 1026 63 8047 2.6 70 16:58 02.04.2020
332 Clear 16 1026 63 8047 2.6 70 16:40 02.04.2020
333 Clear 16 1026 63 8047 2.6 70 16:21 02.04.2020
334 Clouds 15 1026 63 9656 1.5 360 15:56 02.04.2020
335 Clouds 15 1026 63 9656 1.5 360 15:38 02.04.2020
336 Clouds 14 1025 67 9656 0.99 44 15:18 02.04.2020
337 Clouds 14 1025 67 9656 0.99 44 15:18 02.04.2020
338 Clouds 13 1025 72 12874 0.99 44 14:56 02.04.2020
339 Clouds 13 1025 72 12874 0.99 44 14:37 02.04.2020
340 Clouds 13 1025 72 12874 1.1 50 14:18 02.04.2020
341 Clouds 14 1024 67 16093 2.1 50 13:54 02.04.2020
342 Clouds 14 1024 67 16093 2.1 50 13:36 02.04.2020
343 Clouds 14 1024 67 16093 2.1 50 13:18 02.04.2020
344 Clouds 15 1024 59 16093 1.1 50 12:41 02.04.2020
345 Clouds 15 1024 59 16093 2.08 360 12:19 02.04.2020
346 Clouds 16 1024 55 12874 2.1 350 11:57 02.04.2020
347 Clouds 16 1024 55 12874 2.1 350 11:38 02.04.2020
348 Clouds 16 1024 55 12874 2.1 350 11:19 02.04.2020
349 Clouds 17 1025 55 11265 3.6 290 10:56 02.04.2020
350 Clouds 17 1025 55 11265 3.6 290 10:37 02.04.2020
351 Clouds 17 1025 55 11265 3.6 290 10:19 02.04.2020
352 Clouds 17 1025 55 11265 3.6 290 10:19 02.04.2020
353 Clouds 18 1025 52 12874 3.1 300 09:58 02.04.2020
354 Clouds 18 1025 52 12874 3.1 300 09:39 02.04.2020
355 Clouds 18 1025 52 12874 3.1 300 09:19 02.04.2020
356 Clouds 18 1026 48 12874 2.6 40 08:47 02.04.2020
357 Clouds 18 1026 48 12874 2.6 40 08:27 02.04.2020
358 Clouds 19 1025 45 11265 3.1 310 07:45 02.04.2020
359 Clouds 19 1025 45 11265 3.1 310 07:21 02.04.2020
360 Clouds 19 1025 40 11265 2.6 350 06:59 02.04.2020
361 Clouds 19 1025 40 11265 2.6 350 06:22 02.04.2020
362 Clouds 20 1024 37 9656 3.6 10 05:45 02.04.2020
363 Thunderstorm 21 1023 33 9656 4.6 100 04:47 02.04.2020
364 Clouds 26 1021 31 9656 4.6 180 02:18 02.04.2020
365 Clouds 26 1021 21 11265 4.6 80 00:54 02.04.2020
366 Clouds 26 1021 21 11265 4.6 80 00:31 02.04.2020
367 Clouds 26 1022 21 11265 3.6 30 23:59 01.04.2020
368 Clouds 26 1022 21 11265 3.6 30 23:38 01.04.2020
369 Clouds 26 1022 21 11265 3.6 30 23:18 01.04.2020
370 Clouds 26 1023 21 11265 4.1 50 22:41 01.04.2020
371 Clouds 26 1023 21 11265 4.1 50 22:22 01.04.2020
372 Clouds 26 1024 24 11265 2.6 120 21:58 01.04.2020
373 Clouds 25 1024 24 11265 2.6 120 21:39 01.04.2020
374 Clouds 25 1024 24 11265 2.6 120 21:19 01.04.2020
375 Clouds 25 1024 24 11265 2.6 120 21:19 01.04.2020
376 Clouds 25 1024 25 11265 1.5 240 20:56 01.04.2020
377 Clouds 24 1024 25 11265 1.5 240 20:38 01.04.2020
378 Clear 23 1025 31 9656 1.06 272 20:18 01.04.2020
379 Clear 22 1026 37 9656 2.1 140 19:55 01.04.2020
380 Clear 21 1026 37 9656 2.1 140 19:37 01.04.2020
381 Clear 21 1026 37 9656 2.1 140 19:19 01.04.2020
382 Clear 20 1026 40 9656 1.5 50 18:41 01.04.2020
383 Clear 19 1026 45 9656 0.36 179 18:21 01.04.2020
384 Clouds 18 1027 59 9656 2.6 90 17:56 01.04.2020
385 Clouds 17 1027 59 9656 2.6 90 17:37 01.04.2020
386 Clouds 17 1027 59 9656 2.6 90 17:18 01.04.2020
387 Clouds 15 1027 67 8047 0.36 179 16:54 01.04.2020
388 Clouds 15 1027 67 8047 0.36 179 16:36 01.04.2020
389 Clouds 14 1026 71 8047 3.1 80 16:18 01.04.2020
390 Clouds 11 1025 81 8047 2.6 70 15:42 01.04.2020
391 Clouds 10 1025 81 8047 2.6 70 15:22 01.04.2020
392 Clear 10 1025 76 9656 2.6 80 14:58 01.04.2020
393 Clear 10 1025 76 9656 2.6 80 14:39 01.04.2020
394 -273 0 0 0 0 0 14:20 01.04.2020
395 Clear 10 1025 76 11265 2.6 60 13:58 01.04.2020
396 Clear 10 1025 76 11265 2.6 60 13:38 01.04.2020
397 Clear 10 1025 76 11265 2.6 60 13:19 01.04.2020
398 Clear 12 1025 67 12874 2.1 70 12:56 01.04.2020
399 Clear 13 1025 67 12874 2.1 70 12:37 01.04.2020
400 Clear 13 1025 67 12874 2.1 70 12:18 01.04.2020
401 Clouds 14 1025 62 12874 2.6 80 11:54 01.04.2020
402 Clouds 14 1025 62 12874 2.6 80 11:36 01.04.2020
403 Clouds 14 1025 62 12874 2.6 80 11:18 01.04.2020
404 Clouds 15 1025 59 16093 5.1 310 10:38 01.04.2020
405 Clouds 15 1025 59 16093 5.1 310 10:38 01.04.2020
406 Clouds 15 1025 59 16093 5.1 310 10:20 01.04.2020
407 Clear 15 1026 55 12874 4.1 300 09:58 01.04.2020
408 Clear 16 1026 55 12874 4.1 300 09:39 01.04.2020
409 Clear 16 1026 55 12874 4.1 300 09:19 01.04.2020
410 Clouds 16 1026 48 12874 3.6 360 08:43 01.04.2020
411 Clouds 16 1026 48 12874 3.6 360 08:18 01.04.2020
412 Clouds 17 1026 45 12874 5.1 10 07:48 01.04.2020
413 Clouds 17 1026 45 12874 5.1 10 07:22 01.04.2020
414 Clouds 18 1026 42 12874 5.1 330 06:58 01.04.2020
415 Clouds 18 1026 42 12874 5.1 330 06:27 01.04.2020
416 Clouds 19 1025 40 12874 7.7 30 05:59 01.04.2020
417 Clouds 20 1024 32 12874 6.7 30 04:36 01.04.2020
418 Clouds 22 1023 33 12874 8.2 20 03:33 01.04.2020
419 Clouds 25 1022 23 12874 9.3 360 02:57 01.04.2020
420 Clouds 26 1021 21 12874 8.2 60 01:59 01.04.2020
421 Clouds 26 1021 21 12874 8.2 60 01:40 01.04.2020
422 Clouds 26 1021 21 12874 8.2 60 01:40 01.04.2020
423 Clouds 27 1021 14 12874 7.2 360 01:20 01.04.2020
424 Clouds 30 1021 9 14484 4.1 40 00:46 01.04.2020
425 Clouds 30 1021 9 14484 4.1 40 00:21 01.04.2020
426 Clouds 29 1021 10 14484 7.2 20 23:48 31.03.2020
427 Clouds 29 1021 10 14484 7.2 20 23:28 31.03.2020
428 Clouds 28 1023 8 16093 3.6 280 22:59 31.03.2020
429 Clouds 28 1023 8 16093 3.6 280 22:37 31.03.2020
430 Clouds 28 1023 8 16093 3.6 280 22:19 31.03.2020
431 Clear 27 1023 9 16093 3.1 10 21:57 31.03.2020
432 Clear 26 1024 12 14484 6.2 320 21:39 31.03.2020
433 Clear 26 1024 12 14484 6.2 320 21:20 31.03.2020
434 Clear 24 1025 9 12874 4.1 340 20:55 31.03.2020
435 Clear 24 1025 9 12874 4.1 340 20:36 31.03.2020
436 Clear 24 1025 9 12874 4.1 340 20:36 31.03.2020
437 Clear 24 1025 9 12874 4.1 340 20:36 31.03.2020
438 Clear 24 1025 9 12874 4.1 340 20:18 31.03.2020
439 Clear 23 1026 23 11265 3.1 20 19:42 31.03.2020
440 Clear 23 1026 23 11265 3.1 20 19:24 31.03.2020
441 Clouds 21 1026 35 11265 2.9 30 18:59 31.03.2020
442 Clouds 21 1026 35 11265 2.9 30 18:59 31.03.2020
443 Clouds 21 1026 35 11265 2.9 30 18:40 31.03.2020
444 Clouds 21 1026 35 11265 1.4 21 18:19 31.03.2020
445 Clouds 18 1026 34 11265 1.4 21 17:55 31.03.2020
446 Clouds 18 1026 34 11265 1.4 21 17:37 31.03.2020
447 Clouds 18 1026 34 11265 1.4 21 17:19 31.03.2020
448 Clouds 15 1026 41 12874 3.1 90 16:41 31.03.2020
449 Clouds 15 1026 41 12874 3.1 90 16:20 31.03.2020
450 Clouds 13 1025 47 11265 1.5 80 15:58 31.03.2020
451 Clouds 12 1025 47 11265 1.5 80 15:40 31.03.2020
452 Clouds 11 1025 47 11265 1.5 80 15:22 31.03.2020
453 Clear 12 1025 47 11265 1.58 16 14:57 31.03.2020
454 Clear 12 1025 47 11265 1.58 16 14:39 31.03.2020
455 Clear 12 1025 47 11265 1.47 22 14:20 31.03.2020
456 Clear 12 1024 47 12874 2.6 60 13:43 31.03.2020
457 Clear 12 1024 47 12874 2.6 60 13:20 31.03.2020
458 Clear 13 1024 38 16093 1 80 12:57 31.03.2020
459 Clear 13 1024 38 16093 1 80 12:39 31.03.2020
460 Clear 13 1024 38 16093 1 80 12:19 31.03.2020
461 Clear 14 1025 36 16093 1.5 50 11:40 31.03.2020
462 Clear 14 1025 36 16093 1.5 50 11:20 31.03.2020
463 Clear 17 1025 32 16093 1.06 10 10:58 31.03.2020
464 Clear 17 1025 32 16093 1.06 10 10:58 31.03.2020
465 Clear 18 1025 32 16093 1.06 10 10:40 31.03.2020
466 Clear 18 1025 32 16093 1.06 10 10:21 31.03.2020
467 Clear 18 1025 20 16093 1.5 30 09:57 31.03.2020
468 Clear 18 1025 20 16093 1.5 30 09:39 31.03.2020
469 Clear 18 1025 20 16093 1.5 30 09:21 31.03.2020
470 Clear 19 1026 21 16093 3.6 360 08:57 31.03.2020
471 Clear 19 1026 21 16093 3.6 360 08:38 31.03.2020
472 Clear 19 1026 21 16093 3.6 360 08:19 31.03.2020
473 Clear 20 1026 21 16093 4.1 350 07:56 31.03.2020
474 Clear 20 1026 21 16093 4.1 350 07:37 31.03.2020
475 Clear 20 1026 21 16093 4.1 350 07:18 31.03.2020
476 Clouds 20 1025 19 16093 3.6 360 06:43 31.03.2020
477 Clear 21 1025 33 16093 3.6 60 05:59 31.03.2020
478 Clear 21 1025 33 16093 3.6 60 05:39 31.03.2020
479 Clouds 25 1022 26 9656 7.2 120 03:28 31.03.2020
480 Clear 29 1021 13 9656 3.6 290 01:52 31.03.2020
481 Clear 29 1021 13 9656 3.6 290 01:33 31.03.2020
482 Clear 29 1022 13 11265 4.1 270 00:46 31.03.2020
483 Clear 29 1022 13 11265 4.1 270 00:25 31.03.2020
484 Clear 29 1023 13 11265 3.1 200 23:41 30.03.2020
485 Clear 29 1023 13 11265 3.1 200 23:20 30.03.2020
486 Clear 28 1024 15 11265 2.6 70 22:58 30.03.2020
487 Clear 27 1024 15 11265 2.6 70 22:39 30.03.2020
488 -273 0 0 0 0 0 22:20 30.03.2020
489 Clear 26 1025 16 11265 1.84 320 21:58 30.03.2020
490 Clear 26 1025 16 11265 1.84 320 21:39 30.03.2020
491 Clear 26 1025 16 11265 1.43 353 21:20 30.03.2020
492 Clear 26 1025 16 11265 1.43 353 21:20 30.03.2020
493 Clear 25 1027 15 9656 1.43 353 20:59 30.03.2020
494 Clear 25 1027 15 9656 1.43 353 20:39 30.03.2020
495 Clear 25 1027 15 9656 1.43 353 20:39 30.03.2020
496 Clear 25 1027 15 9656 1.43 353 20:20 30.03.2020
497 Clear 25 1027 15 9656 1.43 353 20:20 30.03.2020
498 Clear 24 1028 35 8047 2.1 160 19:56 30.03.2020
499 Clear 23 1028 35 8047 2.1 160 19:38 30.03.2020
500 Clear 23 1028 35 8047 2.1 160 19:38 30.03.2020
501 Clear 23 1028 35 8047 2.1 160 19:20 30.03.2020
502 Clear 21 1028 40 8047 2.1 140 18:43 30.03.2020
503 Clear 20 1028 49 8047 1 190 18:25 30.03.2020
504 Clear 19 1028 59 8047 0.45 17 17:58 30.03.2020
505 Clear 18 1028 59 8047 0.45 17 17:39 30.03.2020
506 Clear 18 1028 59 8047 0.45 17 17:20 30.03.2020
507 Clear 16 1028 63 8047 2.1 60 16:58 30.03.2020
508 Clear 16 1028 63 8047 2.1 60 16:39 30.03.2020
509 Clear 15 1028 72 8047 2.1 60 16:20 30.03.2020
510 Clear 15 1028 72 8047 2.1 60 16:20 30.03.2020
511 Clear 11 1027 76 8047 1.5 50 15:55 30.03.2020
512 Clear 11 1027 76 8047 1.5 50 15:37 30.03.2020
513 Clear 10 1027 76 8047 1.5 50 15:19 30.03.2020
514 Clear 10 1027 76 8047 1.5 50 15:19 30.03.2020
515 Clear 12 1027 71 8047 2.1 80 14:55 30.03.2020
516 Clear 12 1027 71 8047 2.1 80 14:37 30.03.2020
517 Clear 12 1027 71 8047 2.1 80 14:18 30.03.2020
518 Clear 12 1026 71 8047 1.5 80 13:55 30.03.2020
519 Clear 12 1026 71 8047 1.5 80 13:37 30.03.2020
520 Clear 12 1026 71 8047 1.5 80 13:18 30.03.2020
521 Clear 12 1026 71 8047 2.6 70 12:43 30.03.2020
522 Clear 11 1026 71 8047 2.6 70 12:20 30.03.2020
523 Clear 13 1027 67 9656 2.6 270 11:57 30.03.2020
524 Clear 14 1027 67 9656 2.6 270 11:39 30.03.2020
525 Clear 14 1027 67 9656 2.6 270 11:21 30.03.2020
526 Clear 15 1027 63 9656 3.6 290 10:41 30.03.2020
527 Clear 15 1027 63 9656 3.6 290 10:22 30.03.2020
528 Clear 16 1027 59 9656 3.1 290 09:58 30.03.2020
529 Clear 16 1027 59 9656 3.1 290 09:39 30.03.2020
530 Clear 16 1027 59 9656 3.1 290 09:19 30.03.2020
531 Clear 17 1027 59 9656 3.1 310 08:43 30.03.2020
532 Clear 17 1027 59 9656 3.1 310 08:23 30.03.2020
533 Clouds 17 1027 59 9656 5.1 290 07:53 30.03.2020
534 Clouds 17 1027 59 9656 5.1 290 07:34 30.03.2020
535 Clouds 17 1027 55 9656 4.6 310 06:57 30.03.2020
536 Clouds 18 1027 55 9656 4.6 310 06:33 30.03.2020
537 Clouds 19 1027 49 9656 3.6 10 05:55 30.03.2020
538 Clouds 19 1027 49 9656 3.6 10 05:33 30.03.2020
539 Clouds 20 1025 46 9656 5.1 360 04:24 30.03.2020
540 Clouds 22 1024 43 8047 6.7 20 03:44 30.03.2020
541 Clouds 24 1023 40 8047 5.7 20 02:42 30.03.2020
542 Clouds 27 1022 20 9656 6.2 150 01:44 30.03.2020
543 Clouds 28 1022 16 9656 6.2 120 00:50 30.03.2020
544 Clouds 28 1022 16 9656 6.2 120 00:23 30.03.2020
545 Clear 29 1022 18 9656 6.2 110 23:42 29.03.2020
546 Clear 29 1022 18 9656 6.2 110 23:24 29.03.2020
547 Clear 29 1022 18 9656 6.2 110 22:59 29.03.2020
548 Clear 28 1024 21 9656 3.1 120 22:39 29.03.2020
549 Clear 28 1024 21 9656 3.1 120 22:19 29.03.2020
550 Clear 27 1025 22 9656 1.87 175 21:57 29.03.2020
551 Clear 26 1025 22 9656 1.87 175 21:36 29.03.2020
552 Clear 26 1025 22 9656 0.78 271 21:18 29.03.2020
553 Clear 26 1025 24 9656 2.6 160 20:55 29.03.2020
554 Clear 25 1026 31 9656 0.78 271 20:36 29.03.2020
555 Clear 25 1026 31 9656 0.78 271 20:18 29.03.2020
556 Clear 23 1027 38 8047 0.78 271 19:42 29.03.2020
557 Clear 23 1027 38 8047 0.78 271 19:24 29.03.2020
558 Clear 23 1027 38 9656 0.78 271 18:58 29.03.2020
559 Clear 23 1027 38 9656 0.78 271 18:58 29.03.2020
560 Clear 23 1027 38 9656 0.78 271 18:40 29.03.2020
561 Clear 20 1027 43 9656 1.12 22 18:20 29.03.2020
562 Clear 19 1027 48 9656 1.12 22 17:58 29.03.2020
563 Clear 18 1027 48 9656 1.12 22 17:40 29.03.2020
564 Clear 18 1027 48 9656 1.12 22 17:22 29.03.2020
565 Clear 16 1027 55 9656 1.5 80 16:58 29.03.2020
566 Clear 16 1027 55 9656 1.5 80 16:39 29.03.2020
567 Clear 15 1027 62 11265 2.6 80 16:20 29.03.2020
568 Clear 11 1026 71 11265 2.6 60 15:56 29.03.2020
569 Clear 11 1026 71 11265 2.6 60 15:37 29.03.2020
570 Clear 11 1026 71 11265 2.6 60 15:19 29.03.2020
571 Clear 11 1025 67 9656 1.5 60 14:55 29.03.2020
572 Clear 11 1025 67 9656 1.5 60 14:36 29.03.2020
573 Clear 12 1025 59 11265 2.1 320 14:18 29.03.2020
574 Clear 15 1024 55 11265 3.6 290 13:41 29.03.2020
575 Clear 15 1024 55 11265 3.6 290 13:22 29.03.2020
576 Clear 15 1024 55 11265 3.1 300 12:58 29.03.2020
577 Clear 15 1024 55 11265 3.1 300 12:39 29.03.2020
578 Clear 15 1024 55 11265 3.1 300 12:19 29.03.2020
579 Clear 15 1024 48 11265 3.6 280 11:58 29.03.2020
580 Clear 16 1024 48 11265 3.6 280 11:37 29.03.2020
581 Clear 16 1024 48 11265 3.6 280 11:19 29.03.2020
582 Clouds 17 1025 42 12874 2.6 270 10:39 29.03.2020
583 Clouds 17 1025 42 12874 2.6 270 10:20 29.03.2020
584 Clouds 18 1025 34 12874 3.1 350 09:55 29.03.2020
585 Clouds 18 1025 34 12874 3.1 350 09:37 29.03.2020
586 Clouds 18 1025 34 12874 3.1 350 09:18 29.03.2020
587 Clouds 18 1025 34 12874 2.6 320 08:43 29.03.2020
588 Clouds 18 1025 34 12874 2.6 320 08:24 29.03.2020
589 Clouds 19 1025 30 11265 6.7 30 07:47 29.03.2020
590 Clouds 19 1025 30 11265 6.7 30 07:23 29.03.2020
591 Clouds 20 1025 35 11265 5.1 50 05:59 29.03.2020
592 Clouds 22 1024 28 12874 7.2 80 04:56 29.03.2020
593 Smoke 25 1022 15 16093 2.6 190 03:41 29.03.2020
594 Clear 26 1021 14 12874 5.1 190 01:57 29.03.2020
595 Clear 26 1021 14 12874 5.1 190 01:39 29.03.2020
596 Clear 27 1020 11 12874 5.7 190 01:19 29.03.2020
597 Clear 29 1020 6 12874 4.1 190 00:39 29.03.2020
598 Clear 29 1020 6 12874 7.2 160 23:59 28.03.2020
599 Clear 30 1020 6 12874 7.2 160 23:40 28.03.2020
600 Clear 30 1020 6 12874 7.2 160 23:40 28.03.2020
601 Clear 30 1020 6 12874 7.2 160 23:22 28.03.2020
602 Clear 30 1020 6 11265 5.7 160 22:42 28.03.2020
603 Clear 30 1020 6 11265 5.7 160 22:22 28.03.2020
604 Clear 30 1020 6 11265 3.6 120 21:57 28.03.2020
605 Clear 30 1020 6 11265 3.6 120 21:39 28.03.2020
606 Clear 29 1021 8 9656 3.1 170 21:19 28.03.2020
607 Clouds 28 1022 13 9656 2.6 180 20:55 28.03.2020
608 Clouds 28 1022 13 9656 2.6 180 20:37 28.03.2020
609 Clouds 27 1023 11 9656 2.1 170 20:18 28.03.2020
610 Clouds 25 1024 19 9656 1.5 140 19:55 28.03.2020
611 Clouds 25 1024 19 9656 1.5 140 19:36 28.03.2020
612 Clouds 25 1024 19 9656 1.5 140 19:18 28.03.2020
613 Clouds 24 1025 29 8047 0.7 243 18:39 28.03.2020
614 Clouds 24 1025 29 8047 0.7 243 18:20 28.03.2020
615 Clouds 22 1025 29 8047 0.7 243 17:41 28.03.2020
616 Clear 21 1025 35 9656 1.5 160 17:22 28.03.2020
617 Clear 20 1026 40 9656 0.66 111 16:59 28.03.2020
618 Clear 20 1026 40 9656 0.66 111 16:38 28.03.2020
619 Clear 19 1026 45 9656 0.66 111 16:18 28.03.2020
620 Clear 16 1026 48 9656 0.66 111 15:40 28.03.2020
621 Clear 14 1026 48 9656 2.1 70 15:19 28.03.2020
622 Clouds 12 1025 54 9656 2.1 70 14:57 28.03.2020
623 Clouds 12 1025 54 9656 2.1 70 14:39 28.03.2020
624 Clouds 11 1025 54 9656 2.6 60 14:20 28.03.2020
625 Clouds 11 1025 54 9656 2.6 60 14:20 28.03.2020
626 Clear 11 1025 62 11265 2.1 60 13:41 28.03.2020
627 Clear 11 1025 62 11265 2.1 60 13:22 28.03.2020
628 Clear 11 1024 62 12874 2.1 70 12:40 28.03.2020
629 Clear 11 1024 62 12874 2.1 70 12:22 28.03.2020
630 Clear 11 1024 62 12874 2.1 70 12:22 28.03.2020
631 Clear 12 1024 58 12874 2.1 70 11:43 28.03.2020
632 Clear 13 1024 48 12874 1.5 190 11:23 28.03.2020
633 Clear 14 1024 51 12874 2.1 150 10:58 28.03.2020
634 Clear 14 1024 51 12874 2.1 150 10:38 28.03.2020
635 Clear 14 1024 51 12874 2.1 150 10:18 28.03.2020
636 Clear 16 1024 48 12874 1.5 20 09:42 28.03.2020
637 Clear 16 1024 48 12874 1.5 20 09:23 28.03.2020
638 Clear 17 1025 42 14484 1.5 110 08:55 28.03.2020
639 Clear 17 1025 42 14484 1.5 110 08:37 28.03.2020
640 Clear 16 1025 42 14484 1.5 110 08:18 28.03.2020
641 Clear 18 1025 34 14484 2.1 90 07:41 28.03.2020
642 Clear 18 1024 28 16093 2.6 120 06:58 28.03.2020
643 Clear 18 1024 28 16093 2.6 120 06:34 28.03.2020
644 Clear 18 1024 28 16093 2.1 100 05:41 28.03.2020
645 Clear 20 1024 19 16093 2.6 50 05:21 28.03.2020
646 Clear 21 1023 17 16093 1.5 180 04:40 28.03.2020
647 Clear 22 1022 16 12874 2.6 190 03:34 28.03.2020
648 Clear 27 1021 13 14484 5.1 180 01:53 28.03.2020
649 Smoke 28 1020 12 12874 4.1 180 01:25 28.03.2020
650 Smoke 29 1020 9 11265 5.1 220 00:56 28.03.2020
651 Smoke 29 1020 9 11265 5.1 220 00:35 28.03.2020
652 Smoke 30 1020 7 9656 4.1 200 23:54 27.03.2020
653 Smoke 30 1020 7 9656 4.1 200 23:36 27.03.2020
654 Smoke 30 1020 7 9656 4.1 200 23:18 27.03.2020
655 Smoke 30 1020 5 6437 6.2 110 22:54 27.03.2020
656 Smoke 30 1020 5 6437 6.2 110 22:36 27.03.2020
657 Smoke 30 1020 5 6437 6.2 110 22:18 27.03.2020
658 Smoke 30 1021 5 8047 6.7 150 21:42 27.03.2020
659 Smoke 30 1021 5 8047 6.7 150 21:23 27.03.2020
660 Clear 30 1021 5 11265 8.2 120 20:58 27.03.2020
661 Clear 30 1021 5 11265 8.2 120 20:58 27.03.2020
662 Clear 30 1021 5 11265 8.2 120 20:39 27.03.2020
663 Clear 29 1023 7 12874 3.1 130 20:20 27.03.2020
664 Clear 28 1024 13 12874 2.1 160 19:56 27.03.2020
665 Clear 27 1024 13 12874 2.1 160 19:38 27.03.2020
666 Clear 27 1024 13 12874 2.1 160 19:19 27.03.2020
667 Clear 25 1025 17 12874 2.1 90 18:43 27.03.2020
668 Clear 25 1025 17 12874 2.1 90 18:23 27.03.2020
669 Clear 21 1025 21 16093 2.1 90 17:55 27.03.2020
670 Clear 21 1025 21 16093 2.1 90 17:37 27.03.2020
671 Clear 21 1025 21 16093 2.1 90 17:19 27.03.2020
672 Clear 19 1026 22 16093 2.1 80 16:44 27.03.2020
673 Clear 19 1026 22 16093 2.1 80 16:25 27.03.2020
674 Clear 14 1025 30 16093 2.6 80 15:45 27.03.2020
675 Clear 15 1025 30 16093 2.6 80 15:26 27.03.2020
676 Clear 13 1024 30 16093 2.6 60 14:56 27.03.2020
677 Clear 13 1024 30 16093 2.6 60 14:37 27.03.2020
678 Clear 13 1024 30 16093 2.6 60 14:18 27.03.2020
679 Clear 15 1024 28 16093 2.6 40 13:43 27.03.2020
680 Clear 15 1024 28 16093 2.6 40 13:22 27.03.2020
681 Clear 16 1024 25 16093 1.5 60 12:59 27.03.2020
682 Clear 16 1024 25 16093 1.5 60 12:39 27.03.2020
683 Clear 16 1024 25 16093 1.5 60 12:19 27.03.2020
684 Clear 18 1024 23 16093 1 142 11:42 27.03.2020
685 Clear 18 1024 23 16093 1 142 11:24 27.03.2020
686 Clear 18 1024 23 16093 1.5 160 10:56 27.03.2020
687 Clear 18 1024 23 16093 1.5 160 10:38 27.03.2020
688 Clear 18 1024 23 16093 1.5 160 10:20 27.03.2020
689 Clear 18 1024 20 16093 1.5 190 09:58 27.03.2020
690 Clear 19 1024 20 16093 1.5 190 09:38 27.03.2020
691 Clear 19 1024 20 16093 1.5 190 09:20 27.03.2020
692 Clear 20 1025 19 16093 1.5 180 08:57 27.03.2020
693 Clear 20 1025 19 16093 1.5 180 08:38 27.03.2020
694 Clear 20 1025 19 16093 1.5 180 08:20 27.03.2020
695 Clear 22 1025 17 16093 3.1 150 07:52 27.03.2020
696 Clear 22 1025 17 16093 3.1 150 07:26 27.03.2020
697 Clear 23 1025 15 16093 1.5 170 06:55 27.03.2020
698 Clear 23 1025 15 16093 1.5 170 06:37 27.03.2020
699 Clear 23 1025 17 16093 2.6 210 05:28 27.03.2020
700 Clear 26 1022 12 12874 5.1 170 02:46 27.03.2020
701 Clear 29 1021 8 11265 4.6 130 01:23 27.03.2020
702 Clear 30 1021 7 11265 7.2 120 00:51 27.03.2020
703 Clear 30 1021 7 11265 7.2 120 00:31 27.03.2020
704 Clear 30 1022 7 12874 6.2 130 23:44 26.03.2020
705 Clear 30 1022 7 12874 1.5 20 23:23 26.03.2020
706 Clear 30 1023 5 12874 3.6 180 22:59 26.03.2020
707 Clear 31 1023 5 12874 3.6 180 22:38 26.03.2020
708 Clear 31 1023 5 12874 3.6 180 22:20 26.03.2020
709 Clear 31 1023 5 12874 3.6 180 22:20 26.03.2020
710 Clear 30 1025 6 12874 2.6 110 21:57 26.03.2020
711 Clear 30 1025 6 12874 2.6 110 21:38 26.03.2020
712 Clear 30 1025 6 12874 2.6 110 21:20 26.03.2020
713 Clear 30 1025 6 12874 3.1 200 20:57 26.03.2020
714 Clear 30 1025 6 12874 3.1 200 20:38 26.03.2020
715 Clear 28 1026 7 12874 2.1 60 20:20 26.03.2020
716 Clear 27 1027 10 11265 1.5 110 19:54 26.03.2020
717 Clear 27 1027 10 11265 1.5 110 19:36 26.03.2020
718 Clear 27 1027 10 11265 1.5 110 19:18 26.03.2020
719 Clear 26 1027 14 9656 3.1 40 18:41 26.03.2020
720 Clear 26 1027 14 9656 3.1 40 18:23 26.03.2020
721 Clear 24 1028 9 9656 2.1 90 17:56 26.03.2020
722 Clear 22 1028 9 11265 1 340 17:37 26.03.2020
723 Clear 21 1028 14 11265 1 340 17:18 26.03.2020
724 Clear 19 1028 29 11265 1.5 90 16:40 26.03.2020
725 Clear 19 1028 29 11265 1.5 90 16:21 26.03.2020
726 Clear 18 1028 29 12874 2.1 90 15:57 26.03.2020
727 Clear 18 1028 29 12874 2.1 90 15:57 26.03.2020
728 Clear 17 1028 29 12874 2.1 90 15:39 26.03.2020
729 Clear 17 1028 29 12874 2.1 90 15:20 26.03.2020
730 Clear 16 1027 35 12874 0.19 343 14:57 26.03.2020
731 Clear 14 1027 35 12874 0.19 343 14:37 26.03.2020
732 Clear 12 1027 18 12874 2.1 70 14:18 26.03.2020
733 Clear 12 1026 46 11265 4.1 80 13:41 26.03.2020
734 Clear 12 1026 46 11265 4.1 80 13:22 26.03.2020
735 Clear 13 1025 47 12874 1.5 50 12:55 26.03.2020
736 Clear 13 1025 47 12874 1.5 50 12:37 26.03.2020
737 Clear 13 1025 47 12874 1.5 50 12:18 26.03.2020
738 Clear 15 1025 44 12874 2.1 70 11:44 26.03.2020
739 Clear 15 1025 44 12874 2.1 70 11:20 26.03.2020
740 Clear 15 1025 44 12874 3.1 60 10:42 26.03.2020
741 Clear 15 1025 44 12874 3.1 60 10:20 26.03.2020
742 Clear 19 1026 32 12874 2.1 70 09:59 26.03.2020
743 Clear 19 1026 32 12874 2.1 70 09:41 26.03.2020
744 Clear 19 1026 32 12874 2.1 70 09:19 26.03.2020
745 Clear 20 1026 30 14484 3.1 300 08:44 26.03.2020
746 Clear 20 1026 30 14484 3.1 300 08:26 26.03.2020
747 Clear 20 1027 28 14484 2.6 270 07:57 26.03.2020
748 Clear 21 1027 28 14484 2.6 270 07:38 26.03.2020
749 Clear 21 1027 28 14484 2.6 270 07:19 26.03.2020
750 Clear 23 1026 25 14484 5.1 290 06:35 26.03.2020
751 Clear 24 1026 17 12874 4.1 250 05:51 26.03.2020
752 Clear 25 1024 25 12874 3.1 200 03:47 26.03.2020
753 Clear 25 1024 25 12874 3.1 200 03:18 26.03.2020
754 Clear 27 1023 21 12874 6.2 120 02:50 26.03.2020
755 Clear 29 1022 15 11265 6.2 140 01:19 26.03.2020
756 Clear 31 1022 11 11265 4.1 140 00:32 26.03.2020
757 Clear 31 1023 8 11265 4.55 163 23:44 25.03.2020
758 Clear 31 1023 8 11265 4.55 163 23:26 25.03.2020
759 Clear 30 1023 7 12874 0.96 78 22:55 25.03.2020
760 Clear 30 1023 7 12874 0.96 78 22:37 25.03.2020
761 Clear 30 1023 7 12874 0.96 78 22:18 25.03.2020
762 Clear 29 1025 7 12874 2.6 100 21:43 25.03.2020
763 Clear 29 1025 7 12874 2.6 100 21:24 25.03.2020
764 Clear 29 1026 8 12874 2.1 310 20:59 25.03.2020
765 Clear 28 1026 8 12874 2.1 310 20:39 25.03.2020
766 Clear 28 1026 8 12874 2.1 310 20:19 25.03.2020
767 Clear 27 1027 10 14484 2.1 150 19:55 25.03.2020
768 Clear 27 1027 10 14484 2.1 150 19:37 25.03.2020
769 Clear 27 1027 10 14484 2.1 150 19:18 25.03.2020
770 Clear 24 1028 16 16093 2.1 110 18:43 25.03.2020
771 Clear 24 1028 16 16093 2.1 110 18:25 25.03.2020
772 Clear 21 1028 19 16093 2.1 80 17:58 25.03.2020
773 Clear 21 1028 19 16093 2.1 80 17:40 25.03.2020
774 Clear 21 1028 19 16093 2.1 80 17:21 25.03.2020
775 Clear 20 1028 22 16093 0.83 44 16:56 25.03.2020
776 Clear 19 1028 22 16093 0.86 40 16:38 25.03.2020
777 Clear 19 1028 22 16093 0.83 44 16:20 25.03.2020
778 Clear 14 1027 33 19312 2.1 80 15:42 25.03.2020
779 Clear 14 1027 33 19312 2.1 80 15:20 25.03.2020
780 Clear 13 1027 30 19312 1.5 40 14:57 25.03.2020
781 Clear 13 1027 30 19312 1.5 40 14:39 25.03.2020
782 Clear 13 1027 30 19312 1.5 40 14:39 25.03.2020
783 Clear 13 1027 30 19312 1.5 40 14:19 25.03.2020
784 Clear 13 1027 30 19312 1.26 5 13:44 25.03.2020
785 Clear 13 1027 30 19312 1.27 2 13:24 25.03.2020
786 Clear 14 1026 33 19312 3.1 80 12:39 25.03.2020
787 Clear 14 1026 33 19312 3.1 80 12:39 25.03.2020
788 Clear 14 1026 33 19312 3.1 80 12:21 25.03.2020
789 Clear 15 1026 33 19312 2.1 70 11:57 25.03.2020
790 Clear 15 1026 33 19312 2.1 70 11:39 25.03.2020
791 Clear 15 1026 33 19312 2.1 70 11:20 25.03.2020
792 Clear 15 1026 33 19312 2.1 70 11:20 25.03.2020
793 Clear 17 1027 27 16093 1.5 240 10:58 25.03.2020
794 Clear 17 1027 27 16093 1.5 240 10:39 25.03.2020
795 Clear 17 1027 27 16093 1.5 240 10:39 25.03.2020
796 Clear 17 1027 27 16093 1.5 240 10:18 25.03.2020
797 Clear 18 1027 22 16093 1.51 8 09:43 25.03.2020
798 Clear 18 1027 22 16093 1.51 8 09:25 25.03.2020
799 Clear 18 1028 22 16093 2.6 90 08:58 25.03.2020
800 Clear 19 1028 22 16093 2.6 90 08:39 25.03.2020
801 Clear 19 1028 22 16093 2.6 90 08:20 25.03.2020
802 Clear 19 1028 22 16093 2.07 19 07:47 25.03.2020
803 Clear 21 1028 19 19312 2.1 320 07:26 25.03.2020
804 Clear 22 1028 17 19312 4.1 330 06:57 25.03.2020
805 Clear 22 1028 17 19312 4.1 330 06:37 25.03.2020
806 Clear 22 1028 17 19312 4.1 330 06:19 25.03.2020
807 Clear 23 1028 16 19312 3.6 330 05:42 25.03.2020
808 Clear 23 1027 20 16093 6.2 50 04:41 25.03.2020
809 Clear 23 1026 15 16093 6.2 60 03:53 25.03.2020
810 Clear 24 1026 15 16093 6.2 60 03:29 25.03.2020
811 Clear 29 1024 9 14484 4.6 360 01:39 25.03.2020
812 Clear 30 1024 8 14484 3.6 320 00:50 25.03.2020
813 Clear 30 1024 8 14484 3.6 320 00:26 25.03.2020
814 Clear 30 1025 8 14484 3.6 360 23:53 24.03.2020
815 Clear 30 1025 8 14484 3.6 360 23:28 24.03.2020
816 Clear 30 1025 9 14484 3.6 350 22:58 24.03.2020
817 Clear 30 1025 9 14484 3.6 350 22:38 24.03.2020
818 Clear 30 1025 9 14484 3.6 350 22:19 24.03.2020
819 Clear 30 1025 9 14484 3.6 350 22:19 24.03.2020
820 Clear 30 1027 11 14484 4.1 310 21:57 24.03.2020
821 Clear 29 1027 11 14484 4.1 310 21:57 24.03.2020
822 Clear 29 1027 11 14484 4.1 310 21:38 24.03.2020
823 Clear 29 1027 11 14484 4.1 310 21:18 24.03.2020
824 Clear 28 1028 13 12874 3.6 260 20:57 24.03.2020
825 Clear 28 1028 13 12874 3.6 260 20:39 24.03.2020
826 Clear 28 1028 13 12874 3.6 260 20:21 24.03.2020
827 Clear 27 1029 15 11265 2.1 110 19:45 24.03.2020
828 Clear 27 1029 15 11265 2.1 110 19:20 24.03.2020
829 Clear 26 1029 16 11265 1.49 350 18:56 24.03.2020
830 Clear 25 1030 23 11265 2.6 100 18:37 24.03.2020
831 Clear 24 1030 23 11265 2.6 100 18:19 24.03.2020
832 Clear 23 1030 23 11265 1.5 120 17:43 24.03.2020
833 Clear 21 1030 28 12874 2.1 100 17:24 24.03.2020
834 Clear 19 1030 34 14484 1.5 30 16:59 24.03.2020
835 Clear 19 1030 34 14484 1.5 30 16:41 24.03.2020
836 Clear 19 1030 34 14484 1.5 30 16:23 24.03.2020
837 Clear 19 1030 34 14484 1.5 30 15:59 24.03.2020
838 Clear 15 1029 41 16093 2.6 70 15:40 24.03.2020
839 Clear 15 1029 44 16093 2.6 70 15:22 24.03.2020
840 Clear 13 1029 46 16093 2.6 80 14:43 24.03.2020
841 Clear 13 1029 46 16093 2.6 80 14:43 24.03.2020
842 Clear 12 1029 46 16093 2.6 80 14:22 24.03.2020
843 Clear 12 1028 54 12874 2.6 70 13:56 24.03.2020
844 Clear 12 1028 54 12874 2.6 70 13:38 24.03.2020
845 Clear 12 1028 54 12874 2.6 70 13:20 24.03.2020
846 Clear 13 1028 54 12874 1.5 80 12:41 24.03.2020
847 Clear 15 1028 23 12874 0.37 73 12:23 24.03.2020
848 Clear 16 1028 29 12874 2.1 50 11:41 24.03.2020
849 Clear 12 1028 29 12874 2.1 50 11:20 24.03.2020
850 Clear 13 1028 36 12874 1.5 90 10:57 24.03.2020
851 Clear 13 1028 36 12874 1.5 90 10:57 24.03.2020
852 Clear 12 1028 36 12874 1.5 90 10:38 24.03.2020
853 Clear 12 1028 36 12874 1.5 90 10:18 24.03.2020
854 Clear 13 1029 48 12874 1.5 70 09:43 24.03.2020
855 Clear 13 1029 48 12874 1.5 70 09:25 24.03.2020
856 Clear 16 1029 45 12874 1.5 70 08:40 24.03.2020
857 Clear 14 1029 45 12874 1.5 70 08:21 24.03.2020
858 Clear 16 1029 45 16093 2.1 70 07:59 24.03.2020
859 Clear 17 1029 45 16093 2.1 70 07:41 24.03.2020
860 Clear 17 1029 45 16093 2.1 70 07:21 24.03.2020
861 Clear 18 1029 40 16093 2.6 30 06:35 24.03.2020
862 Clear 18 1029 40 16093 2.6 80 05:36 24.03.2020
863 Clear 19 1029 40 16093 2.6 50 04:50 24.03.2020
864 Clear 21 1027 31 16093 4.1 110 03:19 24.03.2020
865 Clear 25 1026 27 16093 4.1 100 02:37 24.03.2020
866 Clear 28 1025 7 16093 3.1 340 00:54 24.03.2020
867 Clear 29 1025 7 16093 3.1 340 00:27 24.03.2020
868 Clear 28 1026 8 16093 3.6 360 23:55 23.03.2020
869 Clear 28 1026 8 16093 3.6 360 23:37 23.03.2020
870 Clear 28 1026 8 16093 3.6 360 23:19 23.03.2020
871 Clear 27 1026 8 16093 3.1 250 22:43 23.03.2020
872 Clear 25 1026 8 16093 3.1 250 22:22 23.03.2020
873 Clear 24 1027 4 16093 3.1 40 21:55 23.03.2020
874 Clear 24 1027 4 16093 3.1 40 21:37 23.03.2020
875 Clear 24 1027 4 16093 3.1 40 21:18 23.03.2020
876 Clear 25 1029 11 14484 2.1 240 20:42 23.03.2020
877 Clear 25 1029 11 14484 2.1 240 20:24 23.03.2020
878 Clear 24 1029 13 14484 2.1 60 19:55 23.03.2020
879 Clear 24 1029 13 14484 2.1 60 19:37 23.03.2020
880 Clear 23 1030 18 12874 2.1 310 19:19 23.03.2020
881 Clear 21 1030 21 14484 2.1 340 18:43 23.03.2020
882 Clear 21 1030 21 14484 2.1 340 18:24 23.03.2020
883 Clear 18 1031 29 16093 2.1 250 17:59 23.03.2020
884 Clear 18 1031 29 16093 2.1 250 17:40 23.03.2020
885 Clear 18 1031 29 16093 2.1 250 17:19 23.03.2020
886 Clear 17 1031 33 16093 0.79 29 16:43 23.03.2020
887 Clear 18 1031 33 16093 0.79 29 16:25 23.03.2020
888 Clear 15 1030 37 16093 2.1 60 15:54 23.03.2020
889 Clear 14 1030 37 16093 2.1 60 15:36 23.03.2020
890 Clear 12 1030 37 16093 2.1 60 15:18 23.03.2020
891 Clear 12 1030 40 12874 2.1 80 14:37 23.03.2020
892 Clear 8 1030 40 12874 2.1 80 14:18 23.03.2020
893 Clear 9 1029 37 12874 1.5 20 13:54 23.03.2020
894 Clear 9 1029 37 12874 1.5 20 13:54 23.03.2020
895 Clear 9 1029 37 12874 1.5 20 13:36 23.03.2020
896 Clear 9 1029 37 12874 1.5 20 13:36 23.03.2020
897 Clear 9 1029 37 12874 1.5 20 13:18 23.03.2020
898 Clear 9 1029 37 12874 2.1 70 12:41 23.03.2020
899 Clear 9 1029 37 12874 2.1 70 12:22 23.03.2020
900 Clear 9 1029 37 12874 2.1 70 12:22 23.03.2020
901 Clear 9 1029 37 12874 2.1 70 12:22 23.03.2020
902 Clear 10 1028 48 12874 2.6 100 11:55 23.03.2020
903 Clear 10 1028 48 12874 2.6 100 11:37 23.03.2020
904 Clear 10 1028 47 12874 2.6 100 11:18 23.03.2020
905 Clear 12 1031 70 11265 2.15 4 10:41 23.03.2020
906 Clear 13 1031 70 11265 2.15 4 10:23 23.03.2020
907 Clear 14 1029 47 16093 2.15 4 09:59 23.03.2020
908 Clear 14 1029 47 16093 2.15 4 09:40 23.03.2020
909 Clear 14 1029 47 16093 2.15 4 09:19 23.03.2020
910 Clear 16 1030 22 16093 1.5 80 08:38 23.03.2020
911 Clear 16 1030 22 16093 1.5 80 08:20 23.03.2020
912 Clear 16 1030 22 16093 2.32 5 07:51 23.03.2020
913 Clear 16 1030 22 16093 2.32 5 07:33 23.03.2020
914 Clear 17 1029 19 16093 2.1 290 06:55 23.03.2020
915 Clear 18 1029 19 16093 2.1 290 06:33 23.03.2020
916 Clear 19 1029 32 16093 3.6 330 05:44 23.03.2020
917 Clear 20 1027 17 16093 6.7 40 03:54 23.03.2020
918 Clouds 25 1026 20 14484 6.7 40 02:44 23.03.2020
919 Clouds 26 1025 24 14484 6.7 360 01:42 23.03.2020
920 Clouds 27 1024 19 14484 5.1 340 00:46 23.03.2020
921 Clouds 27 1024 19 14484 5.1 340 00:26 23.03.2020
922 Clouds 28 1024 17 14484 5.1 330 23:42 22.03.2020
923 Clouds 28 1024 17 14484 5.1 330 23:24 22.03.2020
924 Clouds 28 1025 20 12874 5.7 320 22:41 22.03.2020
925 Clouds 27 1025 21 12874 2.1 90 22:20 22.03.2020
926 Clear 27 1026 21 11265 5.7 360 21:41 22.03.2020
927 Clear 27 1026 21 11265 5.7 360 21:23 22.03.2020
928 Clear 26 1027 27 11265 2.6 40 20:58 22.03.2020
929 Clear 25 1027 27 11265 2.6 40 20:40 22.03.2020
930 Clear 25 1027 27 11265 2.6 40 20:22 22.03.2020
931 Clear 24 1029 36 11265 1 140 19:56 22.03.2020
932 Clear 24 1029 36 11265 1 140 19:56 22.03.2020
933 Clear 24 1029 36 11265 1 140 19:38 22.03.2020
934 Clear 24 1029 36 11265 1 140 19:19 22.03.2020
935 Clear 23 1029 38 9656 1 270 18:57 22.03.2020
936 Clear 23 1029 38 9656 1 270 18:39 22.03.2020
937 Clear 22 1030 49 9656 2.1 120 18:19 22.03.2020
938 Clear 20 1030 52 9656 2.36 337 17:56 22.03.2020
939 Clear 19 1030 59 9656 2.36 337 17:37 22.03.2020
940 Clear 19 1030 59 9656 1.66 9 17:19 22.03.2020
941 Clear 17 1030 67 9656 2.1 100 16:55 22.03.2020
942 Clear 17 1030 67 9656 2.1 100 16:37 22.03.2020
943 Clear 16 1030 77 9656 2.1 70 16:19 22.03.2020
944 Clear 14 1030 82 9656 2.6 70 15:39 22.03.2020
945 Clear 14 1030 82 9656 2.6 70 15:19 22.03.2020
946 Clear 12 1029 81 9656 2.1 80 14:46 22.03.2020
947 Clear 12 1029 81 9656 2.1 80 14:18 22.03.2020
948 Clear 10 1029 87 12874 2.1 60 13:42 22.03.2020
949 Clear 10 1029 87 12874 2.1 60 13:20 22.03.2020
950 Clear 10 1028 87 12874 3.6 80 12:47 22.03.2020
951 Clear 10 1028 87 12874 3.6 80 12:23 22.03.2020
952 Clouds 11 1028 87 12874 3.1 70 11:59 22.03.2020
953 Clouds 12 1028 87 12874 3.1 70 11:41 22.03.2020
954 Clouds 11 1028 87 12874 3.1 70 11:23 22.03.2020
955 Clouds 12 1028 76 12874 2.6 90 10:57 22.03.2020
956 Clouds 13 1028 76 12874 2.6 90 10:39 22.03.2020
957 Clouds 12 1028 76 12874 2.6 90 10:21 22.03.2020
958 Clouds 14 1029 72 12874 2.6 270 09:43 22.03.2020
959 Clouds 14 1029 72 12874 2.6 270 09:23 22.03.2020
960 Clouds 14 1030 67 12874 1 270 08:44 22.03.2020
961 Clouds 14 1030 67 12874 1 270 08:25 22.03.2020
962 Clouds 15 1030 72 12874 2.1 90 07:53 22.03.2020
963 Clouds 14 1030 72 12874 2.1 90 07:28 22.03.2020
964 Clouds 17 1030 63 12874 2.6 110 06:40 22.03.2020
965 Clouds 16 1030 59 12874 2.1 340 05:37 22.03.2020
966 Clouds 17 1028 63 12874 6.2 270 03:47 22.03.2020
967 Rain 20 1027 77 9656 4.1 140 01:35 22.03.2020
968 Thunderstorm 22 1026 63 11265 13.4 60 00:49 22.03.2020
969 Rain 25 1025 27 12874 3.6 10 00:29 22.03.2020
970 Clouds 26 1026 25 12874 3.6 300 23:44 21.03.2020
971 Clouds 26 1026 25 12874 3.6 300 23:21 21.03.2020
972 Clouds 26 1027 27 12874 3.1 70 22:58 21.03.2020
973 Clouds 26 1027 27 12874 3.1 70 22:37 21.03.2020
974 Clouds 26 1027 27 12874 3.1 70 22:18 21.03.2020
975 Clouds 26 1027 27 12874 2.6 200 21:56 21.03.2020
976 Clouds 26 1027 27 12874 2.6 200 21:37 21.03.2020
977 Clouds 25 1028 29 12874 2.1 290 21:18 21.03.2020
978 Clouds 25 1028 27 12874 4.6 320 20:41 21.03.2020
979 Clouds 24 1030 33 11265 4.1 20 20:20 21.03.2020
980 Clouds 23 1031 35 9656 1.5 0 19:45 21.03.2020
981 Clouds 23 1031 35 9656 1.5 0 19:25 21.03.2020
982 Clouds 21 1031 43 8047 1.5 140 18:59 21.03.2020
983 Clouds 21 1031 43 8047 1.5 140 18:40 21.03.2020
984 Clouds 21 1031 43 8047 1.5 140 18:20 21.03.2020
985 Clouds 20 1033 55 8047 2.1 70 17:57 21.03.2020
986 Clouds 19 1033 55 8047 2.1 70 17:39 21.03.2020
987 Clouds 19 1033 55 8047 2.1 70 17:21 21.03.2020
988 Clouds 16 1033 63 8047 3.1 90 16:41 21.03.2020
989 Clouds 16 1033 63 8047 3.1 90 16:22 21.03.2020
990 Clouds 15 1031 71 8047 2.6 60 15:57 21.03.2020
991 Clouds 14 1031 71 8047 2.6 60 15:39 21.03.2020
992 Clouds 14 1031 71 8047 2.6 60 15:39 21.03.2020
993 Clouds 14 1031 71 8047 2.6 60 15:20 21.03.2020
994 Clouds 15 1031 67 9656 2.8 7 14:55 21.03.2020
995 Clouds 15 1031 67 9656 2.8 7 14:37 21.03.2020
996 Clouds 14 1031 67 9656 2.6 24 14:18 21.03.2020
997 Clouds 14 1030 67 11265 2.1 300 13:57 21.03.2020
998 Clouds 14 1030 67 11265 2.1 300 13:38 21.03.2020
999 Clouds 13 1030 67 11265 2.1 300 13:19 21.03.2020
1000 Clouds 14 1030 67 11265 2.6 280 12:40 21.03.2020
1001 Clouds 13 1030 67 11265 2.6 280 12:20 21.03.2020
1002 Clouds 13 1030 67 11265 2.6 280 12:20 21.03.2020
1003 Clouds 14 1030 67 11265 3.1 280 11:59 21.03.2020
1004 Clouds 14 1030 67 11265 3.1 280 11:39 21.03.2020
1005 Clouds 14 1030 67 11265 3.1 280 11:39 21.03.2020
1006 Clouds 14 1030 67 11265 3.1 280 11:20 21.03.2020
1007 Clouds 15 1030 59 11265 4.1 360 10:58 21.03.2020
1008 Clouds 14 1030 59 11265 4.1 360 10:39 21.03.2020
1009 Clouds 14 1030 59 11265 4.1 360 10:21 21.03.2020
1010 Clouds 15 1030 59 11265 3.1 10 09:58 21.03.2020
1011 Clouds 15 1030 59 11265 3.1 10 09:38 21.03.2020
1012 Clouds 15 1030 59 11265 3.1 10 09:20 21.03.2020
1013 Clouds 15 1031 59 12874 2.1 30 08:55 21.03.2020
1014 Clouds 15 1031 59 12874 2.1 30 08:37 21.03.2020
1015 Clouds 15 1031 59 12874 2.1 30 08:18 21.03.2020
1016 Clouds 17 1030 55 12874 4.1 310 07:32 21.03.2020
1017 Clouds 17 1030 52 16093 5.1 320 06:49 21.03.2020
1018 Clouds 17 1030 52 16093 5.1 320 06:29 21.03.2020
1019 Clouds 19 1030 52 16093 6.2 50 05:50 21.03.2020
1020 Clouds 19 1030 52 16093 6.2 50 05:23 21.03.2020
1021 Clouds 21 1028 40 16093 7.2 50 03:32 21.03.2020
1022 Clouds 25 1027 33 14484 10.8 40 02:35 21.03.2020
1023 Clouds 25 1026 33 14484 11.8 60 01:40 21.03.2020
1024 Clouds 27 1025 19 12874 4.6 20 01:20 21.03.2020
1025 Clouds 28 1025 19 12874 4.1 350 00:38 21.03.2020
1026 Clouds 27 1026 22 12874 5.1 360 23:59 20.03.2020
1027 Clouds 27 1026 22 12874 5.1 360 23:40 20.03.2020
1028 Clouds 28 1026 22 12874 5.1 360 23:18 20.03.2020
1029 Clouds 27 1027 22 12874 5.1 80 22:42 20.03.2020
1030 Clouds 28 1027 22 12874 5.1 80 22:24 20.03.2020
1031 Clouds 26 1028 27 16093 5.1 20 21:57 20.03.2020
1032 Clouds 26 1028 27 16093 5.1 20 21:39 20.03.2020
1033 Clouds 26 1028 27 16093 5.1 20 21:18 20.03.2020
1034 Clouds 26 1029 26 16093 5.1 10 20:57 20.03.2020
1035 Clouds 26 1029 26 16093 5.1 10 20:39 20.03.2020
1036 Clouds 25 1029 31 12874 4.1 10 20:18 20.03.2020
1037 Clear 24 1030 33 12874 2.58 8 19:46 20.03.2020
1038 Clear 24 1030 33 12874 2.58 8 19:19 20.03.2020
1039 Clear 22 1031 40 9656 2.1 20 18:56 20.03.2020
1040 Clear 22 1031 40 9656 2.1 20 18:37 20.03.2020
1041 Clear 22 1031 40 9656 2.1 20 18:19 20.03.2020
1042 Clear 21 1032 42 9656 1.5 30 17:40 20.03.2020
1043 Clear 21 1032 42 9656 1.5 30 17:22 20.03.2020
1044 Clear 19 1034 51 8047 1.5 270 16:59 20.03.2020
1045 Clear 19 1034 51 8047 1.5 270 16:41 20.03.2020
1046 Clear 19 1031 45 9656 2.55 349 16:20 20.03.2020
1047 Clear 17 1031 59 9656 1.5 80 15:43 20.03.2020
1048 Clear 15 1031 59 9656 1.5 80 15:22 20.03.2020
1049 Clouds 13 1030 58 14484 2.1 80 14:57 20.03.2020
1050 Clouds 13 1030 58 14484 2.1 80 14:38 20.03.2020
1051 Clouds 13 1030 58 14484 2.1 80 14:19 20.03.2020
1052 Clouds 11 1029 62 12874 1.5 270 13:46 20.03.2020
1053 Clouds 11 1029 62 12874 1.5 270 13:20 20.03.2020
1054 Clear 12 1028 62 12874 1.97 3 12:54 20.03.2020
1055 Clear 11 1028 62 12874 1.97 3 12:36 20.03.2020
1056 Clear 11 1028 62 12874 1.97 3 12:18 20.03.2020
1057 Clear 11 1028 62 16093 1.5 70 11:39 20.03.2020
1058 Clear 11 1028 62 16093 1.5 70 11:20 20.03.2020
1059 Clear 15 1028 51 19312 2.1 350 10:54 20.03.2020
1060 Clear 14 1028 51 19312 2.1 350 10:36 20.03.2020
1061 Clear 14 1028 51 19312 2.1 350 10:18 20.03.2020
1062 Clear 15 1028 55 19312 4.1 150 09:43 20.03.2020
1063 Clear 14 1028 55 19312 4.1 150 09:20 20.03.2020
1064 Clear 15 1029 51 19312 2.1 190 08:43 20.03.2020
1065 Clear 13 1029 51 19312 2.1 190 08:22 20.03.2020
1066 Clouds 15 1029 42 19312 3.6 280 07:57 20.03.2020
1067 Clouds 17 1029 42 19312 3.6 280 07:38 20.03.2020
1068 Clouds 17 1029 42 19312 3.6 280 07:19 20.03.2020
1069 Clouds 17 1030 45 16093 4.1 280 06:42 20.03.2020
1070 Clouds 19 1029 46 12874 3.1 300 04:57 20.03.2020
1071 Thunderstorm 17 1028 40 11265 5.1 20 04:27 20.03.2020
1072 Clouds 24 1025 36 12874 5.1 120 02:27 20.03.2020
1073 Clouds 25 1024 31 12874 6.2 110 01:47 20.03.2020
1074 Clouds 28 1024 18 12874 3.1 150 00:33 20.03.2020
1075 Clouds 28 1024 17 12874 2.6 150 23:55 19.03.2020
1076 Clouds 28 1024 17 12874 2.6 150 23:36 19.03.2020
1077 Clouds 29 1024 17 12874 2.6 150 23:18 19.03.2020
1078 Clouds 28 1025 18 12874 2.1 340 22:38 19.03.2020
1079 Clouds 28 1025 18 12874 2.1 340 22:20 19.03.2020
1080 Clouds 27 1026 21 12874 2.6 120 21:56 19.03.2020
1081 Clouds 27 1026 21 12874 2.6 120 21:37 19.03.2020
1082 Clouds 27 1026 21 12874 2.6 120 21:18 19.03.2020
1083 Clouds 26 1027 24 12874 2.6 60 20:42 19.03.2020
1084 Clouds 25 1027 24 12874 2.6 60 20:23 19.03.2020
1085 Clouds 25 1028 24 11265 2.6 200 19:57 19.03.2020
1086 Clouds 25 1028 24 11265 2.6 200 19:38 19.03.2020
1087 Clouds 24 1029 25 12874 1.5 320 19:20 19.03.2020
1088 Clouds 24 1030 31 12874 2.6 330 18:56 19.03.2020
1089 Clouds 23 1030 31 12874 2.6 330 18:56 19.03.2020
1090 Clouds 23 1030 31 12874 2.6 330 18:38 19.03.2020
1091 Clouds 23 1030 31 12874 2.6 330 18:38 19.03.2020
1092 Clouds 24 1030 31 12874 2.6 330 18:19 19.03.2020
1093 Clouds 23 1030 33 12874 1.77 339 17:42 19.03.2020
1094 Clouds 22 1030 33 12874 0.61 69 17:19 19.03.2020
1095 Clouds 22 1030 33 12874 0.61 69 17:19 19.03.2020
1096 Clouds 19 1030 45 12874 2.1 150 16:45 19.03.2020
1097 Clouds 19 1030 45 12874 2.1 150 16:45 19.03.2020
1098 Clouds 19 1030 45 12874 2.1 150 16:25 19.03.2020
1099 Clouds 17 1029 51 12874 2.1 150 15:55 19.03.2020
1100 Clouds 16 1029 51 12874 2.1 150 15:36 19.03.2020
1101 Clouds 16 1029 51 12874 2.1 150 15:18 19.03.2020
1102 Clear 13 1028 62 12874 0.61 69 14:43 19.03.2020
1103 Clear 13 1028 62 12874 1.2 64 14:21 19.03.2020
1104 Clouds 9 1028 62 16093 2.6 90 13:41 19.03.2020
1105 Clouds 9 1028 62 16093 2.6 90 13:20 19.03.2020
1106 Clouds 10 1027 66 19312 0.83 105 12:58 19.03.2020
1107 Clouds 10 1027 66 19312 0.83 105 12:40 19.03.2020
1108 Clouds 10 1027 66 19312 0.83 105 12:21 19.03.2020
1109 Clouds 11 1027 67 19312 2.1 40 11:42 19.03.2020
1110 Clouds 10 1027 67 19312 2.1 40 11:24 19.03.2020
1111 Clouds 11 1027 67 19312 3.1 50 10:57 19.03.2020
1112 Clouds 11 1027 67 19312 3.1 50 10:38 19.03.2020
1113 Clouds 11 1027 55 19312 0.7 105 10:19 19.03.2020
1114 Clouds 13 1028 59 19312 0.7 105 09:45 19.03.2020
1115 Clouds 13 1028 59 19312 0.7 105 09:27 19.03.2020
1116 Clouds 15 1028 59 19312 1.5 60 08:59 19.03.2020
1117 Clouds 15 1028 59 19312 1.5 60 08:41 19.03.2020
1118 Clouds 13 1028 59 19312 1.5 60 08:19 19.03.2020
1119 Clouds 14 1029 52 16093 0.46 99 07:44 19.03.2020
1120 Clouds 14 1029 52 16093 0.46 99 07:23 19.03.2020
1121 Clouds 16 1029 45 16093 1.5 50 06:32 19.03.2020
1122 Clouds 17 1028 45 16093 0.46 99 05:46 19.03.2020
1123 Clouds 16 1028 45 14484 1.5 70 04:53 19.03.2020
1124 Clouds 16 1028 45 14484 1.5 70 04:34 19.03.2020
1125 Thunderstorm 20 1027 48 11265 5.1 40 02:34 19.03.2020
1126 Clouds 23 1024 23 12874 3.1 270 00:57 19.03.2020
1127 Clouds 23 1024 23 12874 3.1 270 00:21 19.03.2020
1128 Clouds 23 1024 26 12874 2.6 10 23:46 18.03.2020
1129 Clouds 23 1024 20 12874 2.6 10 23:26 18.03.2020
1130 Thunderstorm 23 1029 71 3219 7.7 50 22:44 18.03.2020
1131 Clouds 23 1025 20 11265 2.6 80 22:24 18.03.2020
1132 Clouds 26 1026 19 11265 2.1 360 21:59 18.03.2020
1133 Clouds 26 1026 19 11265 2.1 360 21:41 18.03.2020
1134 Clouds 26 1026 19 11265 2.1 360 21:21 18.03.2020
1135 Clouds 26 1027 22 11265 2.1 30 20:57 18.03.2020
1136 Clouds 26 1027 22 11265 2.1 30 20:38 18.03.2020
1137 Clouds 25 1028 29 9656 2.1 80 20:19 18.03.2020
1138 Clear 24 1029 35 9656 1.5 110 19:45 18.03.2020
1139 Clear 24 1029 35 9656 1.5 110 19:21 18.03.2020
1140 Clear 23 1029 35 9656 4.1 80 18:59 18.03.2020
1141 Clear 22 1029 43 9656 2.12 348 18:40 18.03.2020
1142 Clear 22 1029 43 9656 2.12 348 18:20 18.03.2020
1143 Clear 21 1029 43 9656 1.5 80 17:57 18.03.2020
1144 Haze 20 1031 51 4828 2.1 300 17:39 18.03.2020
1145 Haze 20 1031 51 4828 2.1 300 17:39 18.03.2020
1146 Haze 20 1031 51 4828 2.1 300 17:19 18.03.2020
1147 Clear 18 1029 52 9656 1.5 150 16:43 18.03.2020
1148 Clear 17 1029 59 9656 1.5 120 16:22 18.03.2020
1149 Clear 17 1029 59 9656 1.5 120 15:59 18.03.2020
1150 Clear 15 1029 58 9656 2.1 70 15:39 18.03.2020
1151 Clear 14 1029 66 9656 2.6 80 15:20 18.03.2020
1152 Clear 12 1028 76 9656 3.1 80 14:44 18.03.2020
1153 Clear 9 1028 76 9656 3.1 80 14:21 18.03.2020
1154 Clear 10 1027 66 12874 3.6 60 13:42 18.03.2020
1155 Clear 10 1027 66 12874 3.6 60 13:20 18.03.2020
1156 Clear 11 1027 62 12874 2.1 140 12:58 18.03.2020
1157 Clear 11 1027 62 12874 2.1 140 12:39 18.03.2020
1158 Clear 11 1027 62 12874 2.1 140 12:19 18.03.2020
1159 Clear 11 1027 71 12874 2.1 40 11:39 18.03.2020
1160 Clear 11 1027 71 12874 2.1 40 11:20 18.03.2020
1161 Clear 12 1027 67 12874 1.11 20 10:58 18.03.2020
1162 Clear 12 1027 67 12874 1.11 20 10:38 18.03.2020
1163 Clear 12 1027 67 12874 1.11 20 10:19 18.03.2020
1164 Clouds 14 1027 63 12874 2.1 260 09:43 18.03.2020
1165 Clouds 13 1027 63 12874 2.1 260 09:25 18.03.2020
1166 Clouds 15 1027 63 12874 2.1 300 08:56 18.03.2020
1167 Clouds 15 1027 63 12874 2.1 300 08:38 18.03.2020
1168 Clouds 13 1027 63 12874 2.1 300 08:20 18.03.2020
1169 Clouds 14 1028 63 12874 2.6 330 07:44 18.03.2020
1170 Clouds 14 1028 63 12874 2.6 330 07:26 18.03.2020
1171 Clouds 15 1028 63 12874 3.1 270 06:44 18.03.2020
1172 Clouds 15 1028 63 12874 3.1 270 06:18 18.03.2020
1173 Clouds 16 1028 59 11265 2.6 320 05:34 18.03.2020
1174 Thunderstorm 15 1028 72 11265 3.1 50 04:24 18.03.2020
1175 Clouds 22 1025 27 12874 2.1 290 02:43 18.03.2020
1176 Clouds 23 1024 25 12874 3.1 310 01:48 18.03.2020
1177 Clouds 23 1024 25 12874 3.1 310 01:26 18.03.2020
1178 Clouds 24 1024 23 12874 2.6 40 00:23 18.03.2020
1179 Clouds 24 1027 42 11265 4.6 70 23:47 17.03.2020
1180 Clouds 24 1027 42 11265 4.6 70 23:26 17.03.2020
1181 Clouds 25 1025 23 11265 5.1 60 22:48 17.03.2020
1182 Clouds 25 1025 23 11265 5.1 60 22:29 17.03.2020
1183 Clouds 25 1026 25 12874 6.2 60 21:59 17.03.2020
1184 Clouds 25 1026 25 12874 6.2 60 21:39 17.03.2020
1185 Clouds 25 1026 25 12874 6.2 60 21:20 17.03.2020
1186 Clear 23 1027 27 12874 2.6 190 20:39 17.03.2020
1187 Clear 23 1027 27 12874 2.6 190 20:39 17.03.2020
1188 Clear 23 1027 27 12874 2.6 190 20:21 17.03.2020
1189 Clear 23 1028 31 12874 2.6 160 19:56 17.03.2020
1190 Clear 22 1028 31 12874 2.6 160 19:38 17.03.2020
1191 Clear 22 1028 31 12874 2.6 160 19:18 17.03.2020
1192 Clear 22 1029 30 12874 2.6 140 18:55 17.03.2020
1193 Clear 22 1029 30 12874 2.6 140 18:37 17.03.2020
1194 Clear 21 1029 37 11265 2.1 70 18:19 17.03.2020
1195 Clear 19 1030 45 11265 3.1 90 17:40 17.03.2020
1196 Clear 19 1030 45 11265 3.1 90 17:21 17.03.2020
1197 Clear 16 1030 55 12874 1.73 12 16:45 17.03.2020
1198 Clear 16 1030 55 12874 1.73 12 16:20 17.03.2020
1199 Clear 14 1029 62 14484 1.73 12 15:58 17.03.2020
1200 Clear 13 1029 62 14484 1.73 12 15:39 17.03.2020
1201 Clear 13 1029 62 14484 1.73 12 15:18 17.03.2020
1202 Clear 12 1029 62 12874 1.73 12 14:41 17.03.2020
1203 Clear 10 1029 76 12874 1.73 30 14:21 17.03.2020
1204 Clear 10 1029 76 12874 1.73 30 14:21 17.03.2020
1205 Clear 7 1028 81 12874 3.1 70 13:43 17.03.2020
1206 Clouds 8 1028 76 11265 2.1 70 13:25 17.03.2020
1207 Clouds 8 1027 66 12874 3.1 100 12:54 17.03.2020
1208 Clouds 8 1027 66 12874 3.1 100 12:36 17.03.2020
1209 Clouds 8 1027 66 12874 3.1 100 12:18 17.03.2020
1210 Clouds 9 1028 71 16093 2.1 60 11:42 17.03.2020
1211 Clouds 9 1028 71 16093 2.1 60 11:24 17.03.2020
1212 Clouds 9 1028 71 16093 2.1 70 10:57 17.03.2020
1213 Clouds 9 1028 71 16093 2.1 70 10:57 17.03.2020
1214 Clouds 9 1028 71 16093 2.1 70 10:37 17.03.2020
1215 Clouds 9 1028 71 16093 2.1 70 10:18 17.03.2020
1216 Clouds 10 1029 66 19312 2.1 80 09:46 17.03.2020
1217 Clouds 10 1029 66 19312 2.1 80 09:20 17.03.2020
1218 Clouds 10 1030 66 19312 2.1 60 08:59 17.03.2020
1219 Clouds 10 1030 66 19312 2.1 60 08:41 17.03.2020
1220 Clouds 10 1030 66 19312 2.1 60 08:20 17.03.2020
1221 Clouds 12 1030 66 19312 1.5 60 07:49 17.03.2020
1222 Clouds 13 1030 51 19312 2.1 60 07:21 17.03.2020
1223 Clouds 15 1031 55 19312 2.6 320 06:51 17.03.2020
1224 Clouds 14 1031 55 19312 2.6 320 06:25 17.03.2020
1225 Clouds 14 1030 51 19312 3.1 340 05:34 17.03.2020
1226 Clouds 15 1030 62 17702 3.1 350 03:34 17.03.2020
1227 Clouds 19 1028 55 16093 6.2 50 02:31 17.03.2020
1228 Clouds 19 1027 55 14484 5.1 20 01:38 17.03.2020
1229 Clouds 21 1025 37 12874 7.2 40 00:53 17.03.2020
1230 Clouds 21 1025 37 12874 7.2 40 00:18 17.03.2020
1231 Clouds 23 1024 22 12874 4.1 210 23:35 16.03.2020
1232 Thunderstorm 22 1028 47 8047 3.6 250 22:58 16.03.2020
1233 Clouds 24 1025 22 12874 3.1 330 22:38 16.03.2020
1234 Clouds 24 1025 22 12874 3.1 330 22:19 16.03.2020
1235 Clouds 24 1026 22 11265 3.6 60 21:44 16.03.2020
1236 Clouds 24 1026 22 11265 3.6 60 21:25 16.03.2020
1237 Clouds 25 1028 25 11265 4.6 70 20:58 16.03.2020
1238 Clouds 25 1028 25 11265 4.6 70 20:39 16.03.2020
1239 Clouds 25 1028 25 11265 4.6 70 20:20 16.03.2020
1240 Clouds 24 1029 31 9656 2.1 250 19:46 16.03.2020
1241 Clouds 24 1029 31 9656 2.1 250 19:23 16.03.2020
1242 Clear 22 1029 37 9656 2.6 330 18:57 16.03.2020
1243 Clear 22 1029 37 9656 2.6 330 18:39 16.03.2020
1244 Clear 19 1030 45 9656 3.1 30 18:19 16.03.2020
1245 Clear 19 1030 49 9656 2.1 70 17:46 16.03.2020
1246 Clouds 17 1030 55 9656 2.6 80 17:25 16.03.2020
1247 Clouds 17 1030 63 9656 2.1 70 16:54 16.03.2020
1248 Clouds 17 1030 63 9656 2.1 70 16:36 16.03.2020
1249 Clouds 17 1030 63 9656 2.1 70 16:18 16.03.2020
1250 Clouds 13 1030 71 9656 1.5 80 15:42 16.03.2020
1251 Clouds 14 1030 71 9656 1.5 80 15:22 16.03.2020
1252 Clouds 13 1029 81 9656 3.6 90 14:45 16.03.2020
1253 Clouds 10 1029 81 9656 3.6 90 14:20 16.03.2020
1254 Clouds 10 1029 81 11265 3.6 80 13:45 16.03.2020
1255 Clouds 10 1029 81 11265 3.6 80 13:26 16.03.2020
1256 Clouds 11 1028 76 11265 3.1 80 12:56 16.03.2020
1257 Clouds 11 1028 76 11265 3.1 80 12:37 16.03.2020
1258 Clouds 11 1028 76 11265 3.1 80 12:19 16.03.2020
1259 Clouds 13 1028 67 11265 1 100 11:42 16.03.2020
1260 Clouds 13 1028 67 11265 1 100 11:20 16.03.2020
1261 Clouds 14 1029 59 12874 2.1 330 10:43 16.03.2020
1262 Clouds 14 1029 59 12874 2.1 330 10:24 16.03.2020
1263 Clouds 14 1028 51 12874 3.1 300 09:47 16.03.2020
1264 Clouds 14 1028 51 12874 3.1 300 09:28 16.03.2020
1265 Clouds 14 1029 59 14484 1 320 08:59 16.03.2020
1266 Clouds 14 1029 59 14484 1 320 08:26 16.03.2020
1267 Clouds 15 1029 59 14484 4.1 80 07:56 16.03.2020
1268 Clouds 15 1029 59 14484 4.1 80 07:38 16.03.2020
1269 Clouds 15 1029 59 14484 4.1 80 07:18 16.03.2020
1270 Clouds 16 1029 55 14484 4.1 30 06:27 16.03.2020
1271 Clouds 16 1030 59 14484 5.1 80 05:54 16.03.2020
1272 Thunderstorm 17 1028 67 11265 4.1 80 03:31 16.03.2020
1273 Clouds 26 1025 31 12874 9.3 70 01:20 16.03.2020
1274 Clouds 26 1024 31 14484 5.1 90 00:43 16.03.2020
1275 Clouds 27 1025 31 12874 3.6 30 23:49 15.03.2020
1276 Clouds 27 1025 13 12874 3.6 30 23:22 15.03.2020
1277 Clouds 27 1025 13 12874 6.2 60 22:58 15.03.2020
1278 Clouds 27 1025 13 12874 6.2 60 22:37 15.03.2020
1279 Clouds 27 1025 13 12874 6.2 60 22:19 15.03.2020
1280 Clouds 28 1027 18 12874 4.6 30 21:39 15.03.2020
1281 Clouds 28 1027 18 12874 4.6 30 21:19 15.03.2020
1282 Clear 26 1028 21 12874 3.1 30 20:44 15.03.2020
1283 Clear 26 1028 21 12874 3.1 30 20:22 15.03.2020
1284 Clear 25 1029 20 12874 2.6 40 19:59 15.03.2020
1285 Clear 25 1029 20 12874 2.6 40 19:40 15.03.2020
1286 Clear 23 1030 25 12874 2.6 317 19:22 15.03.2020
1287 Clear 21 1030 28 14484 2.6 317 18:58 15.03.2020
1288 Clear 20 1030 28 14484 2.6 317 18:39 15.03.2020
1289 Clouds 19 1033 42 9656 3.6 310 18:21 15.03.2020
1290 Clouds 18 1031 42 12874 2.6 317 17:54 15.03.2020
1291 Clouds 18 1031 42 12874 2.6 317 17:36 15.03.2020
1292 Clouds 18 1031 42 12874 1.69 15 17:18 15.03.2020
1293 Clouds 17 1031 48 12874 1.5 140 16:42 15.03.2020
1294 Clouds 17 1031 48 12874 1.5 140 16:23 15.03.2020
1295 Clouds 15 1031 58 14484 1.69 15 15:57 15.03.2020
1296 Clouds 15 1031 58 14484 1.69 15 15:38 15.03.2020
1297 Clouds 15 1031 58 14484 1.69 15 15:19 15.03.2020
1298 Clouds 13 1030 71 16093 4.1 70 14:43 15.03.2020
1299 Clouds 13 1030 71 16093 4.1 70 14:24 15.03.2020
1300 Clouds 11 1029 67 19312 2.26 6 13:56 15.03.2020
1301 Clouds 12 1029 67 19312 2.26 6 13:38 15.03.2020
1302 Clouds 12 1029 67 19312 2.26 6 13:38 15.03.2020
1303 Clouds 12 1029 67 19312 2.19 15 13:19 15.03.2020
1304 Clouds 13 1029 62 19312 2.1 60 12:41 15.03.2020
1305 Clouds 12 1029 62 19312 2.1 60 12:23 15.03.2020
1306 Clouds 13 1029 51 19312 2.1 90 11:45 15.03.2020
1307 Clouds 13 1029 51 19312 2.1 90 11:26 15.03.2020
1308 Clouds 14 1029 48 19312 2.6 330 10:59 15.03.2020
1309 Clouds 14 1029 48 19312 2.6 330 10:40 15.03.2020
1310 Clouds 14 1029 48 19312 2.6 330 10:22 15.03.2020
1311 Clouds 14 1029 48 19312 2.6 330 10:22 15.03.2020
1312 Clouds 16 1030 45 19312 3.6 300 09:59 15.03.2020
1313 Clouds 16 1030 45 19312 3.6 300 09:38 15.03.2020
1314 Clouds 16 1030 45 19312 3.6 300 09:20 15.03.2020
1315 Clouds 17 1030 37 16093 4.6 10 08:41 15.03.2020
1316 Clouds 17 1030 37 16093 4.6 10 08:19 15.03.2020
1317 Clouds 17 1030 39 16093 3.6 330 07:49 15.03.2020
1318 Clouds 17 1030 39 16093 3.6 330 07:22 15.03.2020
1319 Clouds 18 1030 40 16093 4.1 300 06:44 15.03.2020
1320 Clouds 19 1029 35 16093 3.1 340 05:48 15.03.2020
1321 Clouds 19 1029 40 12874 4.1 350 04:57 15.03.2020
1322 Clouds 19 1029 40 12874 4.1 350 04:38 15.03.2020
1323 Clouds 20 1028 30 12874 4.1 330 04:20 15.03.2020
1324 Clouds 20 1027 35 11265 3.6 10 03:19 15.03.2020
1325 Thunderstorm 24 1026 35 9656 7.2 60 02:22 15.03.2020
1326 Thunderstorm 26 1024 24 9656 4.1 60 00:58 15.03.2020
1327 Thunderstorm 27 1024 24 9656 4.1 60 00:40 15.03.2020
1328 Dust 27 1024 29 9656 7.7 50 00:19 15.03.2020
1329 Clouds 28 1024 18 12874 5.1 300 23:39 14.03.2020
1330 Clouds 28 1024 18 12874 5.1 300 23:20 14.03.2020
1331 Clouds 29 1025 17 11265 3.1 360 22:55 14.03.2020
1332 Clouds 29 1025 17 11265 3.1 360 22:37 14.03.2020
1333 Clouds 29 1025 17 11265 3.1 360 22:19 14.03.2020
1334 Clouds 28 1026 18 12874 1.5 0 21:55 14.03.2020
1335 Clouds 29 1026 18 12874 1.5 0 21:55 14.03.2020
1336 Clouds 28 1026 18 12874 1.5 0 21:36 14.03.2020
1337 Clouds 28 1026 18 12874 1.5 0 21:18 14.03.2020
1338 Clear 27 1027 22 12874 3.6 50 20:55 14.03.2020
1339 Clear 27 1027 22 12874 3.6 50 20:37 14.03.2020
1340 Clear 27 1027 22 12874 3.6 50 20:18 14.03.2020
1341 Clear 26 1028 24 12874 2.38 313 19:40 14.03.2020
1342 Clear 25 1029 27 12874 2.1 60 19:20 14.03.2020
1343 Clear 24 1029 27 12874 2.38 313 18:40 14.03.2020
1344 Clear 24 1029 27 12874 2.38 313 18:20 14.03.2020
1345 Clear 21 1030 35 16093 1 100 17:42 14.03.2020
1346 Clear 21 1030 35 16093 1 100 17:23 14.03.2020
1347 Clear 21 1030 35 16093 1 100 17:23 14.03.2020
1348 Clear 19 1030 42 16093 1.5 70 16:58 14.03.2020
1349 Clear 19 1030 42 16093 1.5 70 16:38 14.03.2020
1350 Clear 18 1030 42 16093 1.5 70 16:19 14.03.2020
1351 Clear 16 1030 45 19312 2.1 60 15:44 14.03.2020
1352 Clear 15 1029 54 19312 2.6 70 15:22 14.03.2020
1353 Clear 13 1028 58 19312 2.6 60 14:40 14.03.2020
1354 Clear 13 1028 58 19312 2.6 60 14:21 14.03.2020
1355 Clear 13 1028 51 16093 2.1 50 13:57 14.03.2020
1356 Clear 13 1028 51 16093 2.1 50 13:38 14.03.2020
1357 Clear 13 1028 51 16093 2.1 50 13:19 14.03.2020
1358 Clear 14 1027 45 16093 2.1 280 12:44 14.03.2020
1359 Clear 14 1027 45 16093 2.1 280 12:25 14.03.2020
1360 Clear 15 1027 42 16093 2.6 300 11:46 14.03.2020
1361 Clear 15 1027 42 16093 2.6 300 11:26 14.03.2020
1362 Clouds 16 1027 42 19312 3.1 300 10:57 14.03.2020
1363 Clouds 15 1027 42 19312 3.1 300 10:38 14.03.2020
1364 Clouds 15 1027 42 19312 3.1 300 10:20 14.03.2020
1365 Clouds 19 1028 42 19312 3.1 300 09:41 14.03.2020
1366 Clouds 18 1028 42 19312 3.1 300 09:22 14.03.2020
1367 Clouds 18 1028 42 19312 3.1 300 09:22 14.03.2020
1368 Clouds 18 1028 32 19312 3.1 340 08:47 14.03.2020
1369 Clouds 18 1028 32 19312 3.1 340 08:27 14.03.2020
1370 Clouds 18 1028 28 16093 3.1 310 07:48 14.03.2020
1371 Clouds 18 1028 28 16093 3.1 310 07:23 14.03.2020
1372 Clouds 19 1027 26 12874 2.6 320 06:59 14.03.2020
1373 Clouds 19 1027 26 12874 2.6 320 06:39 14.03.2020
1374 Clouds 21 1025 25 16093 5.7 40 04:57 14.03.2020
1375 Clouds 21 1024 31 14484 3.1 140 03:40 14.03.2020
1376 Clouds 22 1023 31 14484 5.7 140 02:53 14.03.2020
1377 Clouds 26 1022 19 12874 2.6 360 01:50 14.03.2020
1378 Clouds 26 1022 18 12874 4.6 30 00:36 14.03.2020
1379 Clouds 27 1022 19 12874 5.1 360 23:44 13.03.2020
1380 Thunderstorm 28 1025 28 9656 5.7 150 23:24 13.03.2020
1381 Clouds 29 1023 18 11265 4.6 310 22:46 13.03.2020
1382 Clouds 29 1023 18 11265 4.6 310 22:24 13.03.2020
1383 Clouds 28 1023 17 11265 2.6 300 21:42 13.03.2020
1384 -273 0 0 0 0 0 21:21 13.03.2020
1385 Clouds 27 1026 22 12874 2.1 120 20:56 13.03.2020
1386 Clouds 27 1026 22 12874 2.1 120 20:37 13.03.2020
1387 Clouds 27 1026 22 12874 2.1 120 20:18 13.03.2020
1388 Clear 26 1026 27 12874 2.1 280 19:42 13.03.2020
1389 Clear 26 1026 27 12874 2.1 280 19:23 13.03.2020
1390 Clear 23 1027 27 11265 2.1 310 18:44 13.03.2020
1391 Clear 23 1027 27 11265 2.1 310 18:25 13.03.2020
1392 Clear 22 1028 28 11265 1.5 300 17:43 13.03.2020
1393 Clouds 21 1028 32 11265 2.1 80 17:22 13.03.2020
1394 Clouds 19 1030 44 8047 0.36 42 16:59 13.03.2020
1395 Clouds 19 1030 44 8047 0.36 42 16:39 13.03.2020
1396 Clouds 19 1027 34 11265 2.6 80 16:21 13.03.2020
1397 Clear 17 1027 36 12874 0.36 42 15:46 13.03.2020
1398 Clear 17 1027 36 12874 0.36 42 15:23 13.03.2020
1399 Clear 16 1026 39 12874 2.1 340 14:59 13.03.2020
1400 Clear 16 1026 39 12874 2.1 340 14:40 13.03.2020
1401 Clear 15 1026 44 12874 1.16 81 14:22 13.03.2020
1402 Clouds 13 1025 38 16093 2.1 70 13:55 13.03.2020
1403 Clouds 13 1025 38 16093 2.1 70 13:36 13.03.2020
1404 Clouds 13 1025 38 16093 2.1 70 13:18 13.03.2020
1405 Clouds 14 1025 39 16093 1.29 82 12:39 13.03.2020
1406 Clouds 14 1025 39 16093 1.29 82 12:39 13.03.2020
1407 Clouds 14 1025 39 16093 1.29 82 12:20 13.03.2020
1408 Clouds 15 1025 36 16093 1.29 82 11:57 13.03.2020
1409 Clouds 15 1025 36 16093 1.29 82 11:37 13.03.2020
1410 Clouds 16 1025 32 16093 2.6 310 11:19 13.03.2020
1411 Clouds 16 1025 32 16093 2.6 310 10:47 13.03.2020
1412 Clouds 16 1025 32 16093 2.6 310 10:26 13.03.2020
1413 Clouds 16 1025 32 19312 2.1 250 09:49 13.03.2020
1414 Clouds 16 1025 32 19312 2.1 250 09:30 13.03.2020
1415 Clouds 17 1026 30 19312 2.1 300 08:59 13.03.2020
1416 Clouds 17 1026 30 19312 2.1 300 08:41 13.03.2020
1417 Clouds 17 1026 30 19312 2.1 300 08:22 13.03.2020
1418 Clouds 19 1026 26 19312 1.5 20 07:44 13.03.2020
1419 Clouds 18 1026 26 19312 1.5 20 07:25 13.03.2020
1420 Clouds 20 1026 26 19312 3.1 320 06:46 13.03.2020
1421 Clouds 19 1026 26 19312 3.1 320 06:23 13.03.2020
1422 Clouds 20 1025 26 16093 4.1 40 05:46 13.03.2020
1423 Clouds 20 1025 26 16093 6.2 70 04:57 13.03.2020
1424 Clouds 20 1025 26 16093 6.2 70 04:26 13.03.2020
1425 Clouds 25 1022 27 12874 7.7 90 02:43 13.03.2020
1426 Clouds 26 1021 20 14484 3.1 30 01:37 13.03.2020
1427 Clouds 26 1021 21 14484 3.1 30 01:18 13.03.2020
1428 Clouds 27 1021 21 12874 2.1 280 00:41 13.03.2020
1429 Clouds 28 1021 21 12874 2.1 280 00:19 13.03.2020
1430 Clouds 28 1022 21 11265 2.1 360 23:38 12.03.2020
1431 Clouds 28 1022 18 11265 2.1 360 23:19 12.03.2020
1432 Clouds 26 1022 18 11265 3.1 20 22:46 12.03.2020
1433 Clouds 26 1022 18 11265 3.1 20 22:27 12.03.2020
1434 Clouds 27 1024 19 11265 4.1 50 21:56 12.03.2020
1435 Clouds 27 1024 19 11265 4.1 50 21:38 12.03.2020
1436 Clouds 27 1024 19 11265 4.1 50 21:20 12.03.2020
1437 Clouds 25 1025 21 11265 4.6 40 20:42 12.03.2020
1438 Clouds 25 1025 21 11265 4.6 40 20:20 12.03.2020
1439 Clouds 24 1026 22 11265 3.6 20 19:42 12.03.2020
1440 Clouds 24 1026 22 11265 3.6 20 19:22 12.03.2020
1441 Clear 24 1026 22 11265 2.1 100 18:59 12.03.2020
1442 Clear 24 1026 22 11265 2.1 100 18:41 12.03.2020
1443 Clear 23 1026 27 9656 1.5 160 18:22 12.03.2020
1444 Clear 22 1027 32 9656 1.38 275 17:41 12.03.2020
1445 Clear 21 1027 32 9656 1.38 275 17:22 12.03.2020
1446 Clear 20 1029 42 6437 0.35 107 16:59 12.03.2020
1447 Clear 20 1029 42 6437 0.35 107 16:41 12.03.2020
1448 Clear 20 1026 34 9656 0.35 107 16:22 12.03.2020
1449 Clouds 17 1020 40 14484 0.35 107 15:48 12.03.2020
1450 Clear 15 1026 44 12874 2.1 210 15:28 12.03.2020
1451 Clear 13 1025 44 11265 1 60 14:55 12.03.2020
1452 Clear 13 1025 44 11265 1 60 14:37 12.03.2020
1453 Clear 13 1025 44 11265 1 60 14:18 12.03.2020
1454 Clear 9 1025 46 12874 1.5 60 13:38 12.03.2020
1455 Clear 9 1025 46 12874 1.5 60 13:20 12.03.2020
1456 Clear 10 1025 47 12874 1.5 60 12:43 12.03.2020
1457 Clear 10 1025 47 12874 1.5 60 12:24 12.03.2020
1458 Clear 11 1025 44 12874 1 50 11:59 12.03.2020
1459 Clear 11 1025 44 12874 1 50 11:59 12.03.2020
1460 Clear 12 1025 44 12874 1 50 11:39 12.03.2020
1461 Clear 11 1025 44 12874 1 50 11:21 12.03.2020
1462 Clouds 12 1026 41 12874 2.1 20 10:59 12.03.2020
1463 Clouds 13 1026 41 12874 2.1 20 10:41 12.03.2020
1464 Clouds 13 1026 41 12874 2.1 20 10:23 12.03.2020
1465 Clear 15 1026 36 14484 1 20 09:49 12.03.2020
1466 Clear 15 1026 36 14484 1 20 09:29 12.03.2020
1467 Clear 15 1027 39 16093 1.5 250 08:55 12.03.2020
1468 Clear 16 1027 39 16093 1.5 250 08:37 12.03.2020
1469 Clear 16 1027 39 16093 1.5 250 08:18 12.03.2020
1470 Clear 17 1027 34 16093 1.5 340 07:47 12.03.2020
1471 Clear 17 1027 34 16093 1.5 340 07:21 12.03.2020
1472 Clear 18 1027 28 16093 3.1 330 06:18 12.03.2020
1473 Clear 18 1027 28 16093 2.1 350 05:34 12.03.2020
1474 Clouds 20 1026 28 12874 6.2 30 03:34 12.03.2020
1475 Clouds 26 1024 16 12874 1.5 360 01:57 12.03.2020
1476 Clouds 26 1024 16 12874 1.5 360 01:21 12.03.2020
1477 Clouds 26 1024 16 12874 3.1 310 00:42 12.03.2020
1478 Clouds 26 1025 16 11265 2.1 210 23:57 11.03.2020
1479 Clouds 26 1025 16 11265 2.1 210 23:28 11.03.2020
1480 Clouds 26 1025 16 9656 3.1 360 22:59 11.03.2020
1481 Clouds 26 1025 16 9656 3.1 360 22:39 11.03.2020
1482 Clouds 25 1026 23 8047 3.6 240 22:21 11.03.2020
1483 Clouds 24 1028 22 9656 1.5 130 21:56 11.03.2020
1484 Clouds 24 1028 22 9656 1.5 130 21:37 11.03.2020
1485 Clouds 24 1028 22 9656 1.5 130 21:19 11.03.2020
1486 Clouds 24 1028 23 8047 1.5 120 20:55 11.03.2020
1487 Clouds 24 1028 23 8047 1.5 120 20:55 11.03.2020
1488 Clouds 24 1028 23 8047 1.5 120 20:55 11.03.2020
1489 Clouds 24 1028 23 8047 1.5 120 20:36 11.03.2020
1490 Clouds 23 1029 32 8047 2.1 300 20:18 11.03.2020
1491 Clouds 22 1029 35 6437 1.5 310 19:42 11.03.2020
1492 Clouds 21 1030 42 6437 1.5 230 19:23 11.03.2020
1493 Clouds 20 1031 42 6437 2.1 320 18:56 11.03.2020
1494 Clouds 20 1031 42 6437 2.1 320 18:36 11.03.2020
1495 Clouds 19 1031 55 6437 1.5 110 18:18 11.03.2020
1496 Clouds 17 1031 59 6437 1.5 100 17:40 11.03.2020
1497 Clouds 17 1031 59 6437 1.5 100 17:21 11.03.2020
1498 Clouds 14 1031 81 8047 2.1 90 16:56 11.03.2020
1499 Clouds 15 1031 81 8047 2.1 90 16:38 11.03.2020
1500 Clouds 14 1031 81 8047 2.1 90 16:19 11.03.2020
1501 Clouds 13 1030 87 8047 3.1 80 15:42 11.03.2020
1502 Clouds 13 1030 87 8047 3.1 80 15:22 11.03.2020
1503 Clouds 12 1030 87 8047 1.07 16 14:44 11.03.2020
1504 Clouds 8 1030 87 8047 1.84 16 14:24 11.03.2020
1505 Clouds 8 1029 81 9656 2.6 60 13:59 11.03.2020
1506 Clouds 8 1029 81 9656 2.6 60 13:40 11.03.2020
1507 Clouds 8 1029 81 9656 2.6 60 13:21 11.03.2020
1508 Clouds 9 1029 87 11265 3.1 60 12:41 11.03.2020
1509 Clouds 9 1029 87 11265 3.1 60 12:21 11.03.2020
1510 Clouds 9 1030 76 11265 2.6 80 11:57 11.03.2020
1511 Clouds 10 1030 76 11265 2.6 80 11:39 11.03.2020
1512 Clouds 9 1030 76 11265 2.6 80 11:19 11.03.2020
1513 Clouds 11 1030 71 11265 2.6 60 10:43 11.03.2020
1514 Clouds 11 1030 71 11265 2.6 60 10:19 11.03.2020
1515 Clouds 11 1030 71 11265 3.1 60 09:44 11.03.2020
1516 Clouds 13 1030 67 11265 2.6 310 09:25 11.03.2020
1517 Clouds 14 1031 58 12874 5.1 300 08:58 11.03.2020
1518 Clouds 14 1031 58 12874 5.1 300 08:40 11.03.2020
1519 Clouds 14 1031 58 12874 5.1 300 08:19 11.03.2020
1520 Clouds 14 1031 58 12874 4.1 290 07:44 11.03.2020
1521 Clouds 15 1031 48 12874 2.1 320 07:19 11.03.2020
1522 Clouds 16 1031 48 12874 3.6 20 06:46 11.03.2020
1523 Clouds 16 1031 48 12874 4.6 40 05:42 11.03.2020
1524 Clouds 18 1030 42 12874 5.7 40 04:52 11.03.2020
1525 Clouds 23 1027 33 9656 6.7 350 02:30 11.03.2020
1526 Clouds 23 1027 33 9656 6.7 10 01:43 11.03.2020
1527 Thunderstorm 26 1029 28 9656 5.1 100 00:49 11.03.2020
1528 Thunderstorm 26 1029 28 9656 5.1 100 00:21 11.03.2020
1529 Clouds 27 1026 21 8047 2.6 120 23:43 10.03.2020
1530 Clouds 27 1026 21 8047 2.6 120 23:22 10.03.2020
1531 Clouds 26 1027 24 8047 3.6 290 22:41 10.03.2020
1532 Clouds 26 1027 24 8047 3.6 290 22:20 10.03.2020
1533 Clouds 26 1029 27 8047 3.1 40 21:57 10.03.2020
1534 Clouds 26 1029 27 8047 3.1 40 21:39 10.03.2020
1535 Clouds 26 1029 27 8047 3.1 40 21:39 10.03.2020
1536 Clouds 26 1029 27 8047 3.1 40 21:20 10.03.2020
1537 Clouds 25 1030 33 8047 1.5 120 20:59 10.03.2020
1538 Clouds 25 1030 33 8047 1.5 120 20:41 10.03.2020
1539 Clouds 24 1030 33 8047 1.5 120 20:19 10.03.2020
1540 Clouds 23 1031 35 6437 2.1 20 19:57 10.03.2020
1541 Clouds 23 1031 35 6437 2.1 20 19:57 10.03.2020
1542 Clouds 23 1031 35 6437 2.1 20 19:38 10.03.2020
1543 Clouds 23 1031 35 6437 2.1 20 19:38 10.03.2020
1544 Clouds 22 1031 40 6437 3.6 80 19:20 10.03.2020
1545 Clouds 21 1033 45 6437 2.6 90 18:45 10.03.2020
1546 Clouds 21 1033 45 6437 2.6 90 18:26 10.03.2020
1547 Clouds 19 1033 48 8047 1.5 0 17:57 10.03.2020
1548 Clouds 18 1033 55 8047 2.6 90 17:39 10.03.2020
1549 Clouds 18 1033 55 8047 2.6 90 17:21 10.03.2020
1550 Clouds 16 1033 62 8047 1.5 80 16:39 10.03.2020
1551 Clear 15 1032 71 8047 3.1 60 16:19 10.03.2020
1552 Clear 13 1031 71 8047 2.1 110 15:56 10.03.2020
1553 Clear 13 1031 71 8047 2.1 110 15:56 10.03.2020
1554 Clear 13 1031 71 8047 2.1 110 15:37 10.03.2020
1555 Clear 13 1031 71 8047 2.1 110 15:19 10.03.2020
1556 Clear 11 1031 81 11265 2.6 80 14:41 10.03.2020
1557 Clear 8 1031 81 11265 2.6 80 14:20 10.03.2020
1558 Clouds 9 1030 76 12874 2.6 60 13:58 10.03.2020
1559 Clouds 9 1030 76 12874 2.6 60 13:38 10.03.2020
1560 Clouds 9 1030 76 12874 2.6 60 13:20 10.03.2020
1561 Clouds 10 1030 71 12874 3.6 90 12:42 10.03.2020
1562 Clouds 10 1030 71 12874 3.6 90 12:19 10.03.2020
1563 Clouds 12 1030 54 12874 2.1 80 11:58 10.03.2020
1564 Clouds 13 1030 54 12874 2.1 80 11:40 10.03.2020
1565 Clouds 12 1030 54 12874 2.1 80 11:22 10.03.2020
1566 Clouds 14 1030 44 12874 2.1 320 10:43 10.03.2020
1567 Clouds 14 1030 44 12874 2.1 320 10:23 10.03.2020
1568 Clouds 15 1030 45 14484 3.6 290 09:58 10.03.2020
1569 Clouds 15 1030 45 14484 3.6 290 09:40 10.03.2020
1570 Clouds 15 1030 45 14484 3.6 290 09:19 10.03.2020
1571 Clouds 16 1031 45 14484 3.1 310 08:51 10.03.2020
1572 Clouds 16 1031 45 14484 3.1 310 08:32 10.03.2020
1573 Clouds 17 1031 45 14484 4.1 300 07:50 10.03.2020
1574 Clouds 17 1031 45 14484 4.1 300 07:31 10.03.2020
1575 Clouds 19 1031 30 12874 4.1 340 06:45 10.03.2020
1576 Clouds 18 1031 30 12874 4.1 340 06:27 10.03.2020
1577 Clouds 19 1030 30 12874 6.2 10 05:41 10.03.2020
1578 Clouds 20 1029 24 16093 3.6 100 04:48 10.03.2020
1579 Clouds 21 1028 26 12874 3.1 150 03:41 10.03.2020
1580 Clouds 23 1026 25 12874 4.6 180 02:26 10.03.2020
1581 Clouds 25 1025 21 12874 7.7 120 01:22 10.03.2020
1582 Clouds 27 1025 12 12874 4.1 100 00:42 10.03.2020
1583 Clouds 27 1025 12 12874 4.1 100 00:22 10.03.2020
1584 Clouds 27 1025 12 12874 3.1 150 23:40 09.03.2020
1585 Clouds 27 1025 12 12874 3.1 150 23:21 09.03.2020
1586 Clouds 27 1026 14 12874 3.1 150 22:41 09.03.2020
1587 Clouds 27 1026 14 12874 3.1 150 22:22 09.03.2020
1588 Clouds 26 1027 15 12874 2.6 260 21:57 09.03.2020
1589 Clouds 26 1027 15 12874 2.6 260 21:39 09.03.2020
1590 Clouds 26 1027 15 12874 2.6 260 21:20 09.03.2020
1591 Clouds 25 1029 18 11265 2.46 310 20:56 09.03.2020
1592 Clouds 25 1029 18 11265 2.46 310 20:37 09.03.2020
1593 Clouds 25 1029 28 11265 1.84 305 20:19 09.03.2020
1594 Smoke 23 1031 19 6437 4.1 340 19:44 09.03.2020
1595 Clouds 23 1030 27 11265 1.84 305 19:25 09.03.2020
1596 Clouds 22 1030 26 9656 3.1 120 18:58 09.03.2020
1597 Clouds 22 1030 26 9656 3.1 120 18:38 09.03.2020
1598 Clouds 19 1031 37 9656 2.6 110 18:19 09.03.2020
1599 Clouds 19 1031 37 9656 2.1 100 17:57 09.03.2020
1600 Clouds 19 1031 37 9656 2.1 100 17:38 09.03.2020
1601 Clear 18 1031 48 9656 2.1 110 17:20 09.03.2020
1602 Clear 16 1031 51 9656 2.6 110 16:57 09.03.2020
1603 Clear 16 1031 51 9656 2.6 110 16:39 09.03.2020
1604 Clear 13 1031 71 9656 2.1 80 16:20 09.03.2020
1605 Clear 12 1031 71 9656 2.1 80 15:57 09.03.2020
1606 Clear 11 1030 81 11265 3.1 70 15:38 09.03.2020
1607 Clear 11 1030 81 11265 3.1 70 15:19 09.03.2020
1608 Clear 10 1030 81 11265 3.1 40 14:41 09.03.2020
1609 Clear 10 1030 81 11265 3.1 40 14:23 09.03.2020
1610 Clouds 7 1029 81 11265 2.6 80 13:59 09.03.2020
1611 Clouds 7 1029 81 11265 2.6 80 13:40 09.03.2020
1612 Clouds 7 1029 81 11265 2.6 80 13:22 09.03.2020
1613 Clouds 8 1028 76 11265 2.6 80 12:59 09.03.2020
1614 Clouds 8 1028 76 11265 2.6 80 12:40 09.03.2020
1615 Clouds 9 1028 76 11265 2.6 80 12:20 09.03.2020
1616 Clear 9 1028 76 11265 4.1 70 11:40 09.03.2020
1617 Clear 9 1028 76 11265 4.1 70 11:40 09.03.2020
1618 Clear 9 1028 76 11265 4.1 70 11:20 09.03.2020
1619 Clear 9 1028 71 16093 3.1 80 10:58 09.03.2020
1620 Clear 9 1028 71 16093 3.1 80 10:40 09.03.2020
1621 Clear 9 1028 71 16093 3.1 80 10:19 09.03.2020
1622 Clear 12 1029 58 16093 2.1 60 09:42 09.03.2020
1623 Clear 12 1029 58 16093 2.1 60 09:24 09.03.2020
1624 Clouds 13 1029 47 16093 2.1 80 08:47 09.03.2020
1625 Clouds 13 1029 47 16093 2.1 80 08:29 09.03.2020
1626 Clouds 14 1029 38 16093 2.1 40 07:58 09.03.2020
1627 Clouds 14 1029 38 16093 2.1 40 07:37 09.03.2020
1628 Clouds 14 1029 38 16093 2.1 40 07:18 09.03.2020
1629 Clouds 15 1029 33 16093 2.1 310 06:40 09.03.2020
1630 Clouds 15 1029 33 16093 2.1 310 06:21 09.03.2020
1631 Clear 17 1028 31 16093 3.1 320 05:45 09.03.2020
1632 Clouds 17 1028 43 16093 3.1 340 04:59 09.03.2020
1633 Clouds 17 1028 43 16093 3.1 340 04:39 09.03.2020
1634 Clouds 17 1028 43 16093 3.1 340 04:20 09.03.2020
1635 Clouds 21 1025 32 14484 5.1 130 02:53 09.03.2020
1636 Clouds 24 1024 25 11265 4.1 70 00:44 09.03.2020
1637 Clouds 24 1024 25 11265 4.1 70 00:25 09.03.2020
1638 Clouds 26 1024 25 11265 5.1 20 23:58 08.03.2020
1639 Clouds 26 1024 25 11265 5.1 20 23:38 08.03.2020
1640 Clouds 26 1024 17 11265 5.1 20 23:18 08.03.2020
1641 Clouds 25 1025 17 11265 4.1 70 22:41 08.03.2020
1642 Clouds 25 1025 17 11265 4.1 70 22:22 08.03.2020
1643 Clouds 24 1026 17 9656 3.1 360 21:59 08.03.2020
1644 Clouds 24 1026 17 9656 3.1 360 21:40 08.03.2020
1645 Clouds 24 1026 17 9656 3.1 360 21:20 08.03.2020
1646 Clouds 23 1027 24 11265 2.1 280 20:56 08.03.2020
1647 Clouds 23 1027 24 11265 2.1 280 20:37 08.03.2020
1648 Clouds 23 1027 24 11265 2.1 280 20:19 08.03.2020
1649 Clouds 23 1027 24 11265 2.1 280 20:19 08.03.2020
1650 Clouds 22 1028 24 11265 1.5 334 19:40 08.03.2020
1651 Clear 20 1030 30 9656 1.5 160 19:19 08.03.2020
1652 Clear 20 1030 30 9656 1.5 160 18:55 08.03.2020
1653 Clouds 20 1030 37 11265 1.5 334 18:37 08.03.2020
1654 Clouds 20 1030 37 11265 1.5 334 18:18 08.03.2020
1655 Clouds 15 1030 44 11265 1.5 334 17:39 08.03.2020
1656 Clouds 16 1030 44 11265 0.92 2 17:20 08.03.2020
1657 Clouds 16 1030 44 11265 0.92 2 16:57 08.03.2020
1658 Clouds 15 1029 54 11265 2.6 80 16:39 08.03.2020
1659 Clouds 14 1029 54 11265 2.6 80 16:20 08.03.2020
1660 Clouds 12 1029 62 11265 2.6 80 15:41 08.03.2020
1661 Clouds 12 1029 62 11265 2.6 80 15:21 08.03.2020
1662 Clouds 10 1028 66 11265 1 70 14:57 08.03.2020
1663 Clouds 10 1028 66 11265 1 70 14:37 08.03.2020
1664 Clouds 9 1028 66 11265 1 70 14:19 08.03.2020
1665 Clouds 9 1028 66 11265 1 70 14:19 08.03.2020
1666 Clouds 8 1027 70 11265 2.1 80 13:41 08.03.2020
1667 Clouds 8 1027 70 11265 2.1 80 13:20 08.03.2020
1668 Clouds 7 1027 75 11265 2.6 70 12:46 08.03.2020
1669 Clouds 7 1027 75 11265 2.6 70 12:28 08.03.2020
1670 Clouds 8 1027 70 11265 3.1 60 11:59 08.03.2020
1671 Clouds 8 1027 70 11265 3.1 60 11:41 08.03.2020
1672 Clouds 7 1029 70 9656 2.46 347 11:21 08.03.2020
1673 Clouds 9 1028 71 12874 3.1 70 10:42 08.03.2020
1674 Clouds 9 1028 71 12874 3.1 70 10:24 08.03.2020
1675 Clouds 9 1028 71 12874 3.1 70 09:59 08.03.2020
1676 Clouds 11 1029 58 14484 2.6 60 09:37 08.03.2020
1677 Clouds 11 1029 58 14484 2.6 60 09:19 08.03.2020
1678 Clouds 12 1030 50 14484 4.1 300 08:42 08.03.2020
1679 Clouds 12 1030 50 14484 4.1 300 08:20 08.03.2020
1680 Clouds 13 1030 47 14484 5.1 300 07:45 08.03.2020
1681 Clouds 12 1030 47 14484 5.1 300 07:25 08.03.2020
1682 Clouds 14 1030 41 14484 5.1 300 06:43 08.03.2020
1683 Clouds 14 1030 41 14484 5.1 300 06:24 08.03.2020
1684 Clouds 15 1029 36 14484 6.2 310 05:43 08.03.2020
1685 Clouds 18 1026 30 12874 4.1 350 03:52 08.03.2020
1686 Clouds 20 1026 30 12874 4.6 10 02:38 08.03.2020
1687 Clouds 23 1025 28 9656 6.2 20 01:35 08.03.2020
1688 Clouds 23 1027 19 9656 5.1 70 00:58 08.03.2020
1689 Clouds 24 1024 16 0 2.24 50 00:28 08.03.2020
1690 Clouds 24 1025 19 6437 4.1 50 23:48 07.03.2020
1691 Clouds 24 1025 19 6437 4.1 50 23:26 07.03.2020
1692 Clouds 24 1027 23 6437 5.1 20 22:56 07.03.2020
1693 Clouds 24 1027 23 6437 5.1 20 22:37 07.03.2020
1694 Clouds 24 1027 23 6437 5.1 20 22:19 07.03.2020
1695 Clouds 23 1028 30 6437 2.1 80 21:43 07.03.2020
1696 Clouds 23 1028 30 6437 2.1 80 21:43 07.03.2020
1697 Clouds 23 1028 30 6437 2.1 80 21:19 07.03.2020
1698 Haze 22 1029 35 4828 2.6 70 20:40 07.03.2020
1699 Haze 21 1030 39 4828 2.1 160 20:20 07.03.2020
1700 Haze 20 1030 39 4828 1.5 300 19:41 07.03.2020
1701 Haze 19 1031 45 4828 2.1 360 19:22 07.03.2020
1702 Haze 18 1032 45 4828 2.4 327 18:58 07.03.2020
1703 Haze 18 1032 51 4828 2.6 110 18:39 07.03.2020
1704 Haze 17 1032 51 4828 2.6 110 18:20 07.03.2020
1705 Haze 15 1033 58 4828 2.1 130 17:41 07.03.2020
1706 Haze 15 1033 58 4828 2.1 130 17:19 07.03.2020
1707 Haze 13 1033 58 4828 1.5 130 16:56 07.03.2020
1708 Haze 12 1031 71 4828 2.6 60 16:38 07.03.2020
1709 Haze 12 1031 71 4828 2.6 60 16:19 07.03.2020
1710 Mist 10 1033 70 4828 2.1 280 15:41 07.03.2020
1711 Haze 9 1031 70 4828 1.5 350 15:22 07.03.2020
1712 Mist 8 1031 75 6437 2.1 50 14:59 07.03.2020
1713 Mist 8 1031 75 6437 2.1 50 14:41 07.03.2020
1714 Mist 8 1031 75 6437 2.1 50 14:23 07.03.2020
1715 Clouds 7 1031 75 8047 3.1 70 13:42 07.03.2020
1716 Clouds 7 1031 75 8047 3.1 70 13:21 07.03.2020
1717 Clouds 7 1031 81 8047 3.1 80 12:58 07.03.2020
1718 Clouds 7 1031 81 8047 3.1 80 12:38 07.03.2020
1719 Clouds 7 1031 81 8047 3.1 80 12:18 07.03.2020
1720 Clouds 6 1031 81 8047 3.6 60 11:42 07.03.2020
1721 Clouds 6 1031 81 8047 3.6 60 11:23 07.03.2020
1722 Clouds 7 1031 81 8047 3.6 70 10:57 07.03.2020
1723 Clouds 7 1031 81 8047 3.6 70 10:37 07.03.2020
1724 Clouds 7 1031 81 8047 3.6 70 10:18 07.03.2020
1725 Clouds 8 1033 75 8047 3.6 80 09:40 07.03.2020
1726 Clouds 8 1033 75 8047 3.6 80 09:20 07.03.2020
1727 Clouds 8 1033 75 8047 3.6 80 09:20 07.03.2020
1728 Clouds 8 1033 70 9656 4.1 280 08:57 07.03.2020
1729 Clouds 9 1033 70 9656 4.1 280 08:39 07.03.2020
1730 Clouds 9 1033 70 9656 4.1 280 08:20 07.03.2020
1731 Clouds 9 1033 70 11265 2.1 280 07:44 07.03.2020
1732 Clouds 9 1033 70 11265 2.1 280 07:21 07.03.2020
1733 Clouds 10 1033 66 0 4.92 300 06:39 07.03.2020
1734 Clouds 11 1033 62 12874 4.1 260 05:59 07.03.2020
1735 Clouds 11 1033 62 12874 4.1 260 05:38 07.03.2020
1736 Clouds 14 1030 50 16093 4.1 340 03:36 07.03.2020
1737 Clouds 17 1030 51 12874 3.1 340 02:43 07.03.2020
1738 Clouds 20 1029 45 8047 4.6 20 01:51 07.03.2020
1739 Haze 22 1028 37 4828 2.6 340 00:43 07.03.2020
1740 Haze 22 1028 37 4828 2.6 340 00:23 07.03.2020
1741 Haze 22 1028 37 4828 2.6 340 00:23 07.03.2020
1742 Haze 22 1028 37 4828 2.6 340 00:23 07.03.2020
1743 Haze 22 1028 37 4828 2.6 340 00:23 07.03.2020
1744 Haze 22 1028 39 4828 3.6 60 23:58 06.03.2020
1745 Haze 22 1028 39 4828 3.6 60 23:38 06.03.2020
1746 Haze 22 1028 39 4828 3.6 60 23:38 06.03.2020
1747 Haze 22 1028 39 4828 3.6 60 23:20 06.03.2020
1748 Haze 23 1029 42 4828 3.1 50 22:44 06.03.2020
1749 Haze 21 1029 42 4828 3.1 50 22:19 06.03.2020
1750 Haze 21 1030 45 4828 3.1 100 21:46 06.03.2020
1751 Haze 22 1031 51 4828 2.1 260 21:20 06.03.2020
1752 Haze 20 1031 51 4828 1.5 210 20:43 06.03.2020
1753 Haze 19 1032 58 4828 3.1 250 20:22 06.03.2020
1754 Clouds 17 1033 54 6437 1.5 300 19:55 06.03.2020
1755 Clouds 18 1033 66 6437 5.1 70 19:36 06.03.2020
1756 Clouds 16 1033 66 6437 5.1 70 19:18 06.03.2020
1757 Clouds 16 1034 66 8047 5.1 70 18:42 06.03.2020
1758 Clouds 15 1034 66 8047 5.1 70 18:20 06.03.2020
1759 Clouds 13 1034 71 8047 5.1 60 17:56 06.03.2020
1760 Clouds 13 1034 71 8047 5.1 60 17:38 06.03.2020
1761 Clouds 13 1034 71 8047 5.1 60 17:19 06.03.2020
1762 Clouds 12 1034 76 6437 5.1 80 16:42 06.03.2020
1763 Clouds 12 1034 76 6437 5.1 80 16:21 06.03.2020
1764 Clouds 11 1033 76 6437 5.1 60 15:58 06.03.2020
1765 Clouds 11 1033 76 6437 5.1 60 15:40 06.03.2020
1766 Clouds 11 1033 76 6437 5.1 60 15:20 06.03.2020
1767 Mist 10 1032 76 6437 5.1 60 14:40 06.03.2020
1768 Mist 10 1032 76 6437 5.1 60 14:21 06.03.2020
1769 Mist 10 1032 76 6437 5.1 60 14:21 06.03.2020
1770 Mist 9 1031 76 6437 2.6 60 13:44 06.03.2020
1771 Mist 9 1031 76 6437 2.6 60 13:23 06.03.2020
1772 Clouds 9 1031 76 8047 3.1 280 12:59 06.03.2020
1773 Clouds 9 1031 76 8047 3.1 280 12:39 06.03.2020
1774 Clouds 8 1031 76 8047 3.1 280 12:20 06.03.2020
1775 Clouds 9 1031 76 8047 4.1 280 11:58 06.03.2020
1776 Clouds 9 1031 76 8047 4.1 280 11:40 06.03.2020
1777 Clouds 8 1031 76 8047 4.1 280 11:20 06.03.2020
1778 Clouds 9 1030 76 9656 1.5 90 10:40 06.03.2020
1779 Clouds 9 1030 76 9656 1.5 90 10:21 06.03.2020
1780 Clouds 10 1031 71 11265 5.1 80 09:56 06.03.2020
1781 Clouds 10 1031 71 11265 5.1 80 09:37 06.03.2020
1782 Clouds 10 1031 71 11265 5.1 80 09:19 06.03.2020
1783 Clouds 11 1031 66 11265 3.1 80 08:46 06.03.2020
1784 Clouds 11 1031 66 11265 3.1 80 08:27 06.03.2020
1785 Clouds 12 1031 58 12874 2.1 280 07:58 06.03.2020
1786 Clouds 13 1031 58 12874 2.1 280 07:39 06.03.2020
1787 Clouds 14 1031 54 14484 4.1 280 06:59 06.03.2020
1788 Clouds 14 1031 54 14484 4.1 280 06:41 06.03.2020
1789 Clouds 15 1030 54 12874 5.1 280 05:47 06.03.2020
1790 Clouds 15 1030 48 12874 5.1 280 05:28 06.03.2020
1791 Clouds 16 1029 45 16093 2.6 360 04:58 06.03.2020
1792 Clouds 21 1027 37 12874 7.7 10 02:55 06.03.2020
1793 Clouds 25 1025 15 9656 6.7 140 01:41 06.03.2020
1794 Clouds 25 1025 15 9656 6.7 140 01:23 06.03.2020
1795 Clouds 27 1024 11 9656 3.6 20 00:37 06.03.2020
1796 Clouds 27 1024 11 9656 3.6 20 00:18 06.03.2020
1797 Clouds 27 1024 11 11265 6.2 130 23:42 05.03.2020
1798 Clouds 27 1024 11 11265 6.2 130 23:19 05.03.2020
1799 Clouds 27 1025 15 9656 3.1 160 22:40 05.03.2020
1800 Clouds 27 1025 15 9656 3.1 160 22:22 05.03.2020
1801 Clouds 27 1025 15 9656 3.1 160 22:22 05.03.2020
1802 Clouds 27 1026 19 8047 3.6 130 21:58 05.03.2020
1803 Clouds 27 1026 19 8047 3.6 130 21:38 05.03.2020
1804 Clouds 26 1026 19 8047 3.6 130 21:20 05.03.2020
1805 Clouds 26 1026 21 8047 3.1 150 20:59 05.03.2020
1806 Clouds 25 1027 23 9656 4.6 100 20:40 05.03.2020
1807 Clouds 25 1027 23 9656 4.6 100 20:20 05.03.2020
1808 Clouds 24 1028 27 9656 2.6 60 19:58 05.03.2020
1809 Clouds 24 1028 27 9656 2.6 60 19:39 05.03.2020
1810 Clouds 24 1028 27 9656 2.6 60 19:19 05.03.2020
1811 Clouds 21 1029 34 9656 1.5 40 18:55 05.03.2020
1812 Clouds 21 1029 34 9656 1.5 40 18:36 05.03.2020
1813 Clouds 21 1029 34 9656 1.5 40 18:18 05.03.2020
1814 Clouds 20 1029 34 9656 1.5 40 17:42 05.03.2020
1815 Clouds 19 1029 42 9656 2.1 70 17:22 05.03.2020
1816 Clouds 17 1029 42 9656 1.5 70 16:58 05.03.2020
1817 Clouds 17 1029 42 9656 1.5 70 16:40 05.03.2020
1818 Clouds 15 1030 44 12874 3.1 80 16:21 05.03.2020
1819 Clouds 14 1029 44 16093 2.1 260 15:45 05.03.2020
1820 Clouds 13 1029 44 16093 2.1 260 15:24 05.03.2020
1821 Clouds 13 1028 47 16093 1.5 200 14:59 05.03.2020
1822 Clouds 12 1028 47 16093 1.5 200 14:41 05.03.2020
1823 Clouds 12 1028 47 16093 1.5 200 14:21 05.03.2020
1824 Clouds 9 1027 54 11265 1.5 90 13:56 05.03.2020
1825 Clouds 8 1027 54 11265 1.5 90 13:38 05.03.2020
1826 Clouds 8 1027 54 11265 1.5 90 13:19 05.03.2020
1827 Clear 10 1028 74 11265 1.5 50 12:41 05.03.2020
1828 Clear 9 1028 74 11265 1.5 50 12:21 05.03.2020
1829 Clouds 13 1025 44 12874 1.5 240 11:57 05.03.2020
1830 Clouds 12 1025 44 12874 1.5 240 11:37 05.03.2020
1831 Clouds 12 1025 44 12874 1.5 240 11:19 05.03.2020
1832 Clouds 14 1025 41 12874 2.1 260 10:57 05.03.2020
1833 Clouds 13 1025 41 12874 2.1 260 10:39 05.03.2020
1834 Clouds 13 1025 41 12874 2.1 260 10:21 05.03.2020
1835 Clouds 13 1026 41 16093 1.36 358 09:47 05.03.2020
1836 Clouds 13 1026 41 16093 1.36 358 09:28 05.03.2020
1837 Clouds 13 1026 41 16093 1.36 358 09:28 05.03.2020
1838 Clouds 14 1026 41 16093 1.36 358 08:59 05.03.2020
1839 Clouds 14 1026 36 16093 1.36 358 08:41 05.03.2020
1840 Clouds 15 1026 36 16093 2.58 144 08:21 05.03.2020
1841 Clear 15 1026 36 16093 2.1 170 07:41 05.03.2020
1842 Clear 15 1026 36 16093 2.1 170 07:19 05.03.2020
1843 Clear 17 1026 34 16093 2.1 120 06:43 05.03.2020
1844 Clear 17 1026 34 16093 2.1 120 06:19 05.03.2020
1845 Clouds 17 1026 32 16093 3.6 160 05:33 05.03.2020
1846 Clouds 18 1025 32 16093 3.6 150 04:23 05.03.2020
1847 Clouds 19 1025 32 16093 3.6 160 03:58 05.03.2020
1848 Clouds 22 1023 30 16093 5.1 160 02:32 05.03.2020
1849 Clouds 25 1022 22 16093 6.7 110 01:26 05.03.2020
1850 Clouds 26 1021 21 16093 6.2 140 00:44 05.03.2020
1851 Clouds 27 1022 15 16093 6.2 160 23:57 04.03.2020
1852 Clouds 27 1022 15 16093 6.2 160 23:39 04.03.2020
1853 Clouds 27 1022 15 16093 6.2 160 23:20 04.03.2020
1854 Clear 26 1022 15 16093 2.1 140 22:55 04.03.2020
1855 Clear 26 1022 15 16093 2.1 140 22:36 04.03.2020
1856 Clear 26 1022 15 16093 2.1 140 22:18 04.03.2020
1857 Clear 25 1023 16 16093 4.1 130 21:41 04.03.2020
1858 Clear 26 1023 16 16093 4.1 130 21:21 04.03.2020
1859 Clouds 25 1024 14 19312 3.1 160 20:58 04.03.2020
1860 Clouds 25 1024 14 19312 3.1 160 20:58 04.03.2020
1861 Clouds 25 1024 14 19312 3.1 160 20:39 04.03.2020
1862 Clouds 25 1024 14 19312 3.1 160 20:21 04.03.2020
1863 Clouds 25 1024 15 19312 5.7 160 19:43 04.03.2020
1864 Clouds 24 1025 20 19312 3.1 100 19:24 04.03.2020
1865 Clouds 22 1026 16 16093 3.1 150 18:59 04.03.2020
1866 Clouds 22 1026 16 16093 3.1 150 18:41 04.03.2020
1867 Clouds 22 1026 16 16093 3.1 150 18:22 04.03.2020
1868 Clouds 21 1026 24 16093 2.1 160 17:57 04.03.2020
1869 Clouds 20 1026 30 16093 2.6 160 17:38 04.03.2020
1870 Clouds 19 1026 30 16093 2.6 160 17:20 04.03.2020
1871 Clouds 17 1026 36 19312 2.1 90 16:44 04.03.2020
1872 Clouds 17 1026 36 19312 2.1 90 16:26 04.03.2020
1873 Clouds 14 1025 44 19312 2.1 170 15:59 04.03.2020
1874 Clouds 14 1025 44 19312 2.1 170 15:59 04.03.2020
1875 Clouds 14 1025 44 19312 2.1 170 15:41 04.03.2020
1876 Clouds 14 1025 44 19312 2.1 170 15:23 04.03.2020
1877 Clouds 12 1025 50 16093 2.6 210 14:56 04.03.2020
1878 Clouds 12 1025 50 16093 2.6 210 14:38 04.03.2020
1879 Clouds 12 1025 50 16093 2.6 210 14:19 04.03.2020
1880 Clear 11 1024 54 16093 1.5 60 13:57 04.03.2020
1881 Clear 10 1024 54 16093 1.5 60 13:38 04.03.2020
1882 Clear 10 1024 54 16093 1.5 60 13:20 04.03.2020
1883 Clear 11 1023 54 16093 1.5 70 12:45 04.03.2020
1884 Clear 12 1023 47 16093 1 300 12:27 04.03.2020
1885 Clear 13 1023 44 16093 3.1 280 11:59 04.03.2020
1886 Clear 12 1023 44 16093 3.1 280 11:41 04.03.2020
1887 Clear 12 1023 44 16093 3.1 280 11:22 04.03.2020
1888 Clear 13 1023 48 16093 1.5 180 10:57 04.03.2020
1889 Clear 13 1023 48 16093 1.5 180 10:38 04.03.2020
1890 Clear 11 1023 48 16093 1.5 180 10:18 04.03.2020
1891 Clear 13 1024 48 16093 3.1 150 09:42 04.03.2020
1892 Clear 13 1024 48 16093 3.1 150 09:21 04.03.2020
1893 Clear 14 1024 48 16093 3.1 100 08:46 04.03.2020
1894 Clear 14 1024 48 16093 3.1 100 08:26 04.03.2020
1895 Clear 14 1025 36 16093 3.4 159 07:56 04.03.2020
1896 Clear 14 1025 36 16093 3.4 159 07:37 04.03.2020
1897 Clear 14 1025 36 16093 3.4 159 07:18 04.03.2020
1898 Clear 16 1025 37 16093 3.1 180 06:41 04.03.2020
1899 Clear 16 1025 37 16093 3.1 180 06:23 04.03.2020
1900 Clear 18 1024 34 16093 2.1 160 05:47 04.03.2020
1901 Clear 19 1024 34 17702 3.1 180 04:23 04.03.2020
1902 Clear 19 1023 30 17702 6.2 170 03:40 04.03.2020
1903 Clear 19 1023 30 17702 6.2 170 03:21 04.03.2020
1904 Clear 22 1022 26 16093 6.2 180 02:53 04.03.2020
1905 Clear 22 1022 26 16093 6.2 180 02:19 04.03.2020
1906 Clear 23 1022 28 16093 6.7 190 01:52 04.03.2020
1907 Clouds 26 1021 23 16093 7.7 180 00:49 04.03.2020
1908 Clouds 26 1021 23 16093 7.7 180 00:25 04.03.2020
1909 Clear 26 1021 25 14484 5.1 190 23:46 03.03.2020
1910 Clear 26 1021 25 14484 5.1 190 23:27 03.03.2020
1911 Clear 26 1022 16 14484 6.2 180 22:57 03.03.2020
1912 Clear 26 1022 16 14484 6.2 180 22:39 03.03.2020
1913 Clear 27 1022 16 14484 6.2 180 22:19 03.03.2020
1914 Clear 26 1023 16 16093 6.2 180 21:57 03.03.2020
1915 Clear 26 1023 16 16093 6.2 180 21:38 03.03.2020
1916 Clear 26 1023 16 16093 6.2 180 21:18 03.03.2020
1917 Clear 26 1024 14 16093 6.2 190 20:41 03.03.2020
1918 Clear 26 1024 21 16093 6.2 190 20:21 03.03.2020
1919 Clear 26 1024 20 16093 7.2 210 19:59 03.03.2020
1920 Clear 25 1024 20 16093 7.2 210 19:37 03.03.2020
1921 Clear 25 1024 20 16093 7.2 210 19:19 03.03.2020
1922 Clear 25 1024 20 16093 7.2 210 19:19 03.03.2020
1923 Clear 24 1025 22 14484 5.7 190 18:58 03.03.2020
1924 Clear 24 1025 22 14484 5.7 190 18:40 03.03.2020
1925 Clear 24 1025 22 14484 5.7 190 18:40 03.03.2020
1926 Clear 24 1025 22 14484 5.7 190 18:21 03.03.2020
1927 Clear 22 1025 27 12874 5.7 180 17:56 03.03.2020
1928 Clear 22 1025 27 12874 5.7 180 17:37 03.03.2020
1929 Clear 22 1025 27 12874 5.7 180 17:19 03.03.2020
1930 Clear 19 1025 42 16093 2.6 80 16:56 03.03.2020
1931 Clear 18 1025 42 16093 2.6 80 16:37 03.03.2020
1932 Clear 18 1025 42 16093 2.6 80 16:18 03.03.2020
1933 Clear 16 1025 45 16093 1.78 185 15:44 03.03.2020
1934 Clear 16 1025 45 16093 1.61 185 15:22 03.03.2020
1935 Clear 14 1024 51 19312 1.61 185 14:57 03.03.2020
1936 Clear 13 1024 51 19312 1.61 185 14:37 03.03.2020
1937 Clear 13 1024 51 19312 1.47 160 14:19 03.03.2020
1938 Clear 12 1023 50 19312 1.47 160 13:55 03.03.2020
1939 Clear 11 1023 50 19312 1.47 160 13:37 03.03.2020
1940 Clear 11 1023 50 19312 1.47 160 13:18 03.03.2020
1941 Clear 11 1023 50 19312 1.47 160 13:18 03.03.2020
1942 Clear 12 1023 51 19312 1.47 160 12:42 03.03.2020
1943 Clear 12 1023 51 19312 1.47 160 12:23 03.03.2020
1944 Clear 12 1023 51 19312 1.47 160 12:23 03.03.2020
1945 Clear 13 1023 48 19312 1.47 160 11:55 03.03.2020
1946 Clear 13 1023 48 19312 1.47 160 11:37 03.03.2020
1947 Clear 13 1023 48 19312 1.86 160 11:18 03.03.2020
1948 Clear 15 1024 45 19312 1.86 160 10:54 03.03.2020
1949 Clear 14 1024 45 19312 1.86 160 10:36 03.03.2020
1950 Clear 14 1024 45 19312 1.86 160 10:18 03.03.2020
1951 Clear 14 1024 45 19312 1.86 160 09:41 03.03.2020
1952 Clear 14 1024 45 19312 1.86 160 09:21 03.03.2020
1953 Clear 15 1025 42 19312 1.86 160 08:42 03.03.2020
1954 Clear 15 1025 42 19312 1.89 169 08:22 03.03.2020
1955 Clear 16 1025 39 19312 1.5 170 07:56 03.03.2020
1956 Clear 17 1025 39 19312 1.5 170 07:56 03.03.2020
1957 Clear 17 1025 39 19312 1.5 170 07:38 03.03.2020
1958 Clear 16 1025 39 19312 1.5 170 07:18 03.03.2020
1959 Clear 17 1025 34 19312 2.41 173 06:40 03.03.2020
1960 Clear 17 1025 34 19312 2.41 173 06:21 03.03.2020
1961 Clear 18 1025 32 19312 3.6 160 05:43 03.03.2020
1962 Clear 20 1025 35 16093 2.6 170 04:54 03.03.2020
1963 Clear 20 1024 33 16093 4.6 200 03:21 03.03.2020
1964 Clouds 25 1023 22 12874 5.1 200 01:32 03.03.2020
1965 Clouds 26 1025 37 11265 7.2 160 00:42 03.03.2020
1966 Clouds 27 1022 21 12874 6.2 170 00:23 03.03.2020
1967 Clouds 26 1023 19 12874 4.1 190 23:50 02.03.2020
1968 Clouds 26 1023 19 12874 4.1 190 23:23 02.03.2020
1969 Clouds 26 1023 22 12874 5.1 170 22:58 02.03.2020
1970 Clouds 26 1023 22 12874 5.1 170 22:38 02.03.2020
1971 Clouds 26 1023 22 12874 5.1 170 22:20 02.03.2020
1972 Clouds 26 1024 26 12874 3.1 180 21:56 02.03.2020
1973 Clouds 26 1024 26 12874 3.1 180 21:38 02.03.2020
1974 Clouds 26 1024 26 12874 3.1 180 21:19 02.03.2020
1975 Clouds 26 1025 26 11265 4.6 210 20:55 02.03.2020
1976 Clouds 26 1025 26 11265 4.6 210 20:37 02.03.2020
1977 Clouds 26 1025 26 11265 4.6 210 20:18 02.03.2020
1978 Clouds 26 1027 29 11265 4.6 140 19:54 02.03.2020
1979 Clouds 25 1027 29 11265 4.6 140 19:36 02.03.2020
1980 Clouds 25 1027 29 11265 4.6 140 19:18 02.03.2020
1981 Clear 24 1028 35 9656 2.1 130 18:42 02.03.2020
1982 Clear 22 1028 35 9656 3.6 90 18:19 02.03.2020
1983 Clear 22 1028 35 9656 3.6 90 17:57 02.03.2020
1984 Clear 21 1028 40 9656 1.5 70 17:39 02.03.2020
1985 Clear 20 1028 40 9656 1.5 70 17:20 02.03.2020
1986 Clear 18 1028 45 11265 1 250 16:45 02.03.2020
1987 Clear 18 1028 45 11265 1 250 16:27 02.03.2020
1988 Clear 16 1027 51 12874 1.28 155 15:58 02.03.2020
1989 Clear 16 1027 51 12874 1.28 155 15:40 02.03.2020
1990 Clear 15 1027 51 12874 1.28 155 15:18 02.03.2020
1991 Clear 15 1026 55 12874 1.28 155 14:39 02.03.2020
1992 Clear 15 1026 55 12874 1.19 123 14:20 02.03.2020
1993 Clear 12 1028 87 6437 1.19 123 13:57 02.03.2020
1994 Clear 12 1028 87 6437 1.19 123 13:37 02.03.2020
1995 Clear 12 1028 87 6437 1.02 125 13:18 02.03.2020
1996 Clouds 13 1025 54 12874 1.02 125 12:43 02.03.2020
1997 Clouds 13 1025 54 12874 1.02 125 12:19 02.03.2020
1998 Clouds 13 1026 51 12874 1.02 125 11:40 02.03.2020
1999 Clouds 13 1026 51 12874 1.95 125 11:21 02.03.2020
2000 Clouds 14 1026 48 12874 2.6 330 10:58 02.03.2020
2001 Clouds 14 1026 48 12874 2.6 330 10:40 02.03.2020
2002 Clouds 14 1026 48 12874 2.6 330 10:40 02.03.2020
2003 Clouds 14 1026 48 12874 2.6 330 10:19 02.03.2020
2004 Clouds 14 1026 51 12874 2.1 190 09:53 02.03.2020
2005 Clouds 13 1026 51 12874 2.1 190 09:32 02.03.2020
2006 Clouds 15 1027 48 12874 3.1 270 08:49 02.03.2020
2007 Clouds 15 1027 48 12874 3.1 270 08:24 02.03.2020
2008 Clouds 17 1027 45 12874 3.1 110 07:54 02.03.2020
2009 Clouds 16 1027 45 12874 3.1 110 07:36 02.03.2020
2010 Clouds 18 1027 42 12874 2.1 110 06:56 02.03.2020
2011 Clouds 17 1027 42 12874 2.1 110 06:28 02.03.2020
2012 Clouds 18 1027 40 14484 5.1 130 05:29 02.03.2020
2013 Clouds 19 1025 37 17702 3.1 180 03:59 02.03.2020
2014 Clouds 19 1025 37 17702 3.1 180 03:19 02.03.2020
2015 Clouds 22 1025 35 16093 5.1 180 02:32 02.03.2020
2016 Clouds 24 1024 27 16093 5.1 180 01:41 02.03.2020
2017 Clouds 24 1024 27 16093 5.1 180 01:22 02.03.2020
2018 Clouds 26 1023 12 16093 3.1 100 00:23 02.03.2020
2019 Clouds 27 1024 11 14484 3.1 340 23:56 01.03.2020
2020 Clouds 27 1024 11 14484 3.1 340 23:37 01.03.2020
2021 Clouds 27 1024 11 14484 3.1 340 23:18 01.03.2020
2022 Clouds 28 1025 12 12874 3.1 350 22:38 01.03.2020
2023 Clouds 28 1025 12 12874 3.1 350 22:19 01.03.2020
2024 Clouds 27 1026 14 12874 2.6 200 21:43 01.03.2020
2025 Clouds 27 1026 14 12874 2.6 200 21:25 01.03.2020
2026 Clouds 26 1027 19 12874 2.1 120 20:59 01.03.2020
2027 Clouds 26 1027 19 12874 2.1 120 20:41 01.03.2020
2028 Clouds 27 1027 19 12874 2.1 120 20:22 01.03.2020
2029 Clouds 24 1029 22 12874 1.5 240 19:42 01.03.2020
2030 Clouds 24 1029 22 12874 1.5 240 19:23 01.03.2020
2031 Clear 23 1029 25 12874 1.18 301 18:58 01.03.2020
2032 Clear 23 1030 28 11265 3.1 110 18:39 01.03.2020
2033 Clear 22 1030 28 11265 3.1 110 18:19 01.03.2020
2034 Clear 21 1030 32 11265 1.5 70 17:57 01.03.2020
2035 Clear 20 1030 34 11265 2.1 70 17:38 01.03.2020
2036 Clear 19 1030 34 11265 2.1 70 17:20 01.03.2020
2037 Clear 17 1030 39 12874 2.6 90 16:55 01.03.2020
2038 Clear 17 1030 39 12874 2.6 90 16:36 01.03.2020
2039 Clear 17 1030 39 12874 2.6 90 16:18 01.03.2020
2040 Clear 13 1029 47 14484 1.5 50 15:55 01.03.2020
2041 Clear 13 1029 47 14484 1.5 50 15:37 01.03.2020
2042 Clear 13 1029 47 14484 1.5 50 15:18 01.03.2020
2043 Clear 11 1029 50 12874 2.1 60 14:55 01.03.2020
2044 Clear 11 1029 50 12874 2.1 60 14:36 01.03.2020
2045 Clear 11 1029 50 12874 2.1 60 14:18 01.03.2020
2046 Clear 11 1028 54 11265 1.37 139 13:43 01.03.2020
2047 Clear 11 1028 54 11265 1.48 146 13:21 01.03.2020
2048 Clear 13 1028 44 11265 1.48 146 12:59 01.03.2020
2049 Clear 14 1028 44 11265 1.48 146 12:40 01.03.2020
2050 Clear 14 1028 44 11265 1.47 142 12:20 01.03.2020
2051 Clear 13 1028 44 11265 1.48 146 11:41 01.03.2020
2052 Clear 13 1028 44 11265 1.48 146 11:22 01.03.2020
2053 Clear 13 1028 44 9656 1.54 127 10:57 01.03.2020
2054 Clear 13 1028 44 9656 1.31 140 10:38 01.03.2020
2055 Clear 11 1028 44 9656 1.31 140 10:19 01.03.2020
2056 Clear 13 1028 41 9656 1.31 140 09:46 01.03.2020
2057 Clear 13 1028 41 9656 1.54 127 09:27 01.03.2020
2058 Clear 14 1029 39 9656 1.31 140 08:57 01.03.2020
2059 Clear 14 1029 39 9656 1.31 140 08:38 01.03.2020
2060 Clear 14 1029 39 9656 1.04 114 08:18 01.03.2020
2061 Clear 15 1029 36 11265 1.04 114 07:41 01.03.2020
2062 Clear 15 1029 36 11265 1.04 114 07:23 01.03.2020
2063 Clear 16 1029 36 11265 2.6 130 06:47 01.03.2020
2064 Clear 15 1029 36 11265 2.6 130 06:28 01.03.2020
2065 Clear 19 1027 28 12874 4.1 110 03:54 01.03.2020
2066 Clear 23 1026 14 12874 4.6 20 02:27 01.03.2020
2067 Clear 24 1026 14 12874 4.6 20 01:52 01.03.2020
2068 Clear 25 1025 12 11265 6.2 40 01:21 01.03.2020
2069 Clear 26 1025 11 11265 6.2 20 00:42 01.03.2020
2070 Clear 26 1025 11 11265 6.2 20 00:21 01.03.2020
2071 Clear 26 1025 14 11265 5.1 70 23:46 29.02.2020
2072 Clear 26 1025 14 11265 5.1 70 23:28 29.02.2020
2073 Clear 26 1026 16 9656 5.1 220 22:42 29.02.2020
2074 Clear 26 1026 16 9656 5.1 220 22:23 29.02.2020
2075 Clear 25 1028 16 11265 4.1 40 21:42 29.02.2020
2076 Clear 25 1028 16 11265 4.1 40 21:23 29.02.2020
2077 Clear 24 1029 25 11265 2.1 80 20:43 29.02.2020
2078 Clear 24 1029 25 11265 2.1 80 20:22 29.02.2020
2079 Clear 22 1030 28 9656 2.1 210 19:57 29.02.2020
2080 Clear 22 1030 28 9656 2.1 210 19:38 29.02.2020
2081 Clear 22 1030 28 9656 2.1 210 19:19 29.02.2020
2082 Clear 20 1031 29 9656 1.54 295 18:43 29.02.2020
2083 Clear 20 1031 29 9656 1.54 295 18:25 29.02.2020
2084 Clear 18 1032 34 11265 1.54 295 17:58 29.02.2020
2085 Clear 17 1032 38 11265 1.5 40 17:40 29.02.2020
2086 Clear 17 1032 38 11265 1.5 40 17:21 29.02.2020
2087 Clear 15 1033 41 11265 0.71 349 16:45 29.02.2020
2088 Clear 14 1032 54 12874 2.1 60 16:22 29.02.2020
2089 Clear 12 1032 54 12874 2.1 60 15:58 29.02.2020
2090 Clear 11 1032 61 12874 3.1 70 15:40 29.02.2020
2091 Clear 10 1032 61 12874 3.1 70 15:21 29.02.2020
2092 Clear 9 1031 65 12874 3.6 70 14:42 29.02.2020
2093 Clear 9 1031 65 12874 3.6 70 14:42 29.02.2020
2094 Clear 9 1031 65 12874 3.6 70 14:23 29.02.2020
2095 Clear 7 1031 65 16093 2.6 70 13:56 29.02.2020
2096 Clear 7 1031 65 16093 2.6 70 13:37 29.02.2020
2097 Clear 7 1031 65 16093 2.6 70 13:18 29.02.2020
2098 Clear 8 1031 65 16093 2.6 70 12:41 29.02.2020
2099 Clear 8 1031 65 16093 2.6 70 12:21 29.02.2020
2100 Clear 8 1031 66 16093 3.6 70 11:56 29.02.2020
2101 Clear 8 1031 66 16093 3.6 70 11:38 29.02.2020
2102 Clear 8 1031 66 16093 3.6 70 11:20 29.02.2020
2103 Clouds 9 1031 60 16093 1.5 60 10:44 29.02.2020
2104 Clouds 9 1031 60 16093 1.5 60 10:26 29.02.2020
2105 Clear 12 1031 43 16093 1.5 50 09:47 29.02.2020
2106 Clear 11 1031 43 16093 1.5 50 09:23 29.02.2020
2107 Clear 13 1032 44 16093 3.1 310 08:42 29.02.2020
2108 Clear 12 1032 44 16093 3.1 310 08:22 29.02.2020
2109 Clear 13 1033 41 16093 4.1 280 07:57 29.02.2020
2110 Clear 13 1033 41 16093 4.1 280 07:39 29.02.2020
2111 Clear 13 1033 41 16093 4.1 280 07:18 29.02.2020
2112 Clear 13 1032 38 16093 5.1 300 06:42 29.02.2020
2113 Clear 13 1032 38 16093 5.1 300 06:22 29.02.2020
2114 Clear 14 1032 38 16093 5.1 300 05:46 29.02.2020
2115 Clouds 16 1031 34 16093 6.2 10 04:45 29.02.2020
2116 Clouds 17 1030 32 12874 6.7 20 03:40 29.02.2020
2117 Clouds 17 1030 32 12874 6.7 20 03:21 29.02.2020
2118 Clouds 22 1028 26 12874 7.7 360 02:37 29.02.2020
2119 Clouds 22 1028 26 12874 7.7 360 02:37 29.02.2020
2120 Clouds 25 1026 22 9656 4.1 360 00:58 29.02.2020
2121 Clouds 25 1026 22 9656 4.1 360 00:37 29.02.2020
2122 Clouds 26 1026 19 9656 1.5 220 23:46 28.02.2020
2123 Clouds 26 1026 19 9656 1.5 220 23:25 28.02.2020
2124 Clouds 26 1026 21 9656 1.5 220 22:55 28.02.2020
2125 Clear 25 1027 23 9656 4.1 50 22:36 28.02.2020
2126 Clear 25 1027 23 9656 4.1 50 22:18 28.02.2020
2127 Clear 25 1028 25 11265 3.1 360 21:41 28.02.2020
2128 Clear 24 1028 25 11265 3.1 360 21:21 28.02.2020
2129 Clear 23 1029 26 12874 1.5 60 20:41 28.02.2020
2130 Clear 23 1029 26 12874 1.5 60 20:22 28.02.2020
2131 Clear 22 1030 28 12874 2.1 60 19:59 28.02.2020
2132 Clear 22 1031 30 12874 2.62 307 19:39 28.02.2020
2133 Clear 22 1031 30 12874 2.62 307 19:39 28.02.2020
2134 Clear 22 1031 30 12874 2.62 307 19:21 28.02.2020
2135 Clear 20 1031 34 11265 2.1 250 18:57 28.02.2020
2136 -273 0 0 0 0 0 18:57 28.02.2020
2137 Clear 20 1031 34 11265 2.1 250 18:39 28.02.2020
2138 Clear 19 1031 34 11265 1.5 230 18:20 28.02.2020
2139 Clear 18 1031 39 9656 1 200 17:41 28.02.2020
2140 Clear 18 1031 39 9656 1 200 17:22 28.02.2020
2141 Clear 16 1033 47 6437 1.85 346 16:47 28.02.2020
2142 Clear 16 1031 47 11265 1.85 346 16:21 28.02.2020
2143 Clear 15 1031 47 11265 1.85 346 15:59 28.02.2020
2144 Clear 14 1031 50 11265 1.5 90 15:40 28.02.2020
2145 Clear 13 1031 50 11265 1.5 90 15:20 28.02.2020
2146 Clear 11 1030 57 16093 1.5 330 14:57 28.02.2020
2147 Clear 11 1030 57 16093 1.5 330 14:39 28.02.2020
2148 Clear 11 1030 57 16093 1.5 330 14:18 28.02.2020
2149 Clouds 9 1030 57 19312 3.1 70 13:42 28.02.2020
2150 Clouds 9 1030 57 19312 3.1 70 13:21 28.02.2020
2151 Clouds 10 1029 54 19312 3.6 100 12:59 28.02.2020
2152 Clouds 10 1029 54 19312 3.6 100 12:40 28.02.2020
2153 Clouds 10 1029 54 19312 3.6 100 12:22 28.02.2020
2154 Clouds 12 1029 54 19312 2.1 80 11:42 28.02.2020
2155 Clouds 12 1029 47 19312 3.1 290 11:23 28.02.2020
2156 Clouds 14 1029 44 16093 3.6 280 10:57 28.02.2020
2157 Clouds 15 1029 44 16093 3.6 280 10:39 28.02.2020
2158 Clouds 14 1029 44 16093 3.6 280 10:19 28.02.2020
2159 Clouds 14 1029 41 16093 2.1 270 09:44 28.02.2020
2160 Clouds 14 1029 41 16093 2.1 270 09:21 28.02.2020
2161 Clouds 15 1030 38 16093 2.6 60 08:55 28.02.2020
2162 Clouds 14 1030 38 16093 2.6 60 08:36 28.02.2020
2163 Clouds 14 1030 38 16093 2.6 60 08:18 28.02.2020
2164 Clouds 15 1030 36 16093 1.5 20 07:39 28.02.2020
2165 Clouds 15 1030 36 16093 1.5 20 07:19 28.02.2020
2166 Clouds 15 1030 36 16093 3.1 50 06:41 28.02.2020
2167 Clouds 16 1029 39 16093 3.6 50 05:37 28.02.2020
2168 Clouds 17 1028 45 16093 5.1 70 04:33 28.02.2020
2169 Clouds 18 1027 42 14484 6.2 90 03:39 28.02.2020
2170 Clouds 22 1026 40 12874 6.2 120 02:45 28.02.2020
2171 Clouds 22 1026 40 12874 6.2 120 02:20 28.02.2020
2172 Clouds 23 1024 31 9656 8.2 130 00:36 28.02.2020
2173 Clouds 23 1024 31 9656 6.7 110 23:58 27.02.2020
2174 Clouds 24 1024 31 9656 6.7 110 23:38 27.02.2020
2175 Clouds 24 1024 31 9656 6.7 110 23:18 27.02.2020
2176 Clouds 23 1025 31 9656 5.1 70 22:40 27.02.2020
2177 Clouds 23 1025 31 9656 5.1 70 22:22 27.02.2020
2178 Clear 23 1026 31 11265 2.6 150 21:55 27.02.2020
2179 Clear 23 1026 31 11265 2.6 150 21:37 27.02.2020
2180 Clear 24 1026 31 11265 2.6 150 21:18 27.02.2020
2181 Clear 23 1026 33 9656 2.6 180 20:43 27.02.2020
2182 Clear 21 1027 37 9656 3.1 110 20:23 27.02.2020
2183 Clear 20 1028 37 9656 2.1 140 19:59 27.02.2020
2184 Clear 20 1028 37 9656 2.1 140 19:41 27.02.2020
2185 Clear 19 1029 39 8047 2.6 50 19:23 27.02.2020
2186 Clear 18 1029 42 8047 2.1 80 18:57 27.02.2020
2187 Clear 17 1030 44 8047 0.7 251 18:39 27.02.2020
2188 Clear 17 1030 44 8047 0.7 251 18:20 27.02.2020
2189 Clear 13 1030 54 8047 1.5 110 17:56 27.02.2020
2190 Clear 14 1030 54 8047 1.5 110 17:37 27.02.2020
2191 Clear 14 1030 54 8047 1.5 110 17:18 27.02.2020
2192 Clear 10 1030 65 8047 2.6 80 16:42 27.02.2020
2193 Clear 11 1030 65 8047 2.6 80 16:20 27.02.2020
2194 Mist 7 1030 80 6437 4.1 80 15:59 27.02.2020
2195 Mist 8 1030 80 6437 4.1 80 15:38 27.02.2020
2196 Mist 9 1030 80 6437 4.1 80 15:20 27.02.2020
2197 Mist 7 1029 80 4828 3.6 70 14:59 27.02.2020
2198 Mist 7 1029 80 4828 3.6 70 14:39 27.02.2020
2199 Mist 7 1029 80 4828 3.6 70 14:20 27.02.2020
2200 Mist 4 1028 80 9656 2.6 80 13:43 27.02.2020
2201 Mist 4 1028 80 9656 2.6 80 13:22 27.02.2020
2202 Clouds 4 1028 80 11265 4.1 70 12:57 27.02.2020
2203 Clouds 4 1028 80 11265 4.1 70 12:39 27.02.2020
2204 Clouds 4 1028 80 11265 4.1 70 12:19 27.02.2020
2205 Clouds 5 1028 75 12874 4.1 80 11:45 27.02.2020
2206 Clouds 5 1028 75 12874 4.1 80 11:22 27.02.2020
2207 Clouds 7 1028 70 16093 3.1 100 10:45 27.02.2020
2208 Clouds 7 1028 70 16093 3.1 100 10:25 27.02.2020
2209 Clouds 7 1028 65 16093 3.1 80 09:59 27.02.2020
2210 Clouds 8 1028 65 16093 3.1 80 09:40 27.02.2020
2211 Clouds 8 1028 65 16093 3.1 80 09:21 27.02.2020
2212 Clear 8 1028 61 16093 2.1 260 08:41 27.02.2020
2213 Clear 9 1028 61 16093 2.1 260 08:22 27.02.2020
2214 Clear 9 1028 57 12874 4.6 270 07:46 27.02.2020
2215 Clear 9 1028 57 12874 4.6 270 07:26 27.02.2020
2216 Clear 11 1028 57 12874 1.5 110 06:48 27.02.2020
2217 Clear 12 1027 54 12874 5.7 60 05:58 27.02.2020
2218 Clear 14 1026 50 12874 3.6 70 04:21 27.02.2020
2219 Clouds 19 1024 42 12874 5.1 290 02:35 27.02.2020
2220 Clouds 22 1022 25 12874 7.2 170 00:47 27.02.2020
2221 Clouds 23 1022 25 12874 7.2 170 00:28 27.02.2020
2222 Dust 25 1022 23 12874 6.2 170 23:40 26.02.2020
2223 Dust 24 1022 23 12874 6.2 170 23:19 26.02.2020
2224 Dust 24 1023 27 9656 7.2 150 22:58 26.02.2020
2225 Dust 24 1023 27 9656 7.2 150 22:58 26.02.2020
2226 Dust 24 1023 27 9656 7.2 150 22:39 26.02.2020
2227 Dust 24 1023 27 9656 7.2 150 22:21 26.02.2020
2228 Dust 24 1023 27 9656 5.1 130 21:56 26.02.2020
2229 Clouds 24 1024 30 11265 4.1 150 21:38 26.02.2020
2230 Clouds 23 1024 30 11265 4.1 150 21:18 26.02.2020
2231 Clouds 23 1025 30 11265 3.6 100 20:55 26.02.2020
2232 Clouds 22 1025 30 11265 3.6 100 20:37 26.02.2020
2233 Clouds 23 1025 30 11265 3.6 100 20:18 26.02.2020
2234 Clouds 23 1025 30 11265 3.6 100 20:18 26.02.2020
2235 Clouds 21 1027 32 11265 2.6 60 19:45 26.02.2020
2236 Clouds 21 1027 32 11265 2.6 60 19:21 26.02.2020
2237 Clouds 21 1027 34 11265 2.1 80 18:58 26.02.2020
2238 Clouds 20 1028 39 12874 2.1 350 18:40 26.02.2020
2239 Clouds 20 1028 39 12874 2.1 350 18:22 26.02.2020
2240 Clear 18 1028 42 12874 1.5 0 17:56 26.02.2020
2241 Clear 17 1028 44 12874 2.6 60 17:37 26.02.2020
2242 Clear 17 1028 44 12874 2.6 60 17:18 26.02.2020
2243 Clear 15 1028 47 12874 6.2 20 16:43 26.02.2020
2244 Clear 15 1028 47 12874 6.2 20 16:22 26.02.2020
2245 Clear 11 1027 43 12874 1.5 190 15:54 26.02.2020
2246 Clear 11 1027 43 12874 1.5 190 15:36 26.02.2020
2247 Clear 11 1027 43 12874 1.5 190 15:18 26.02.2020
2248 Clear 10 1025 50 16093 2.6 60 14:42 26.02.2020
2249 Clear 10 1025 50 16093 2.6 60 14:22 26.02.2020
2250 Clear 7 1024 53 16093 2.6 80 13:43 26.02.2020
2251 Clear 7 1024 53 16093 2.6 80 13:22 26.02.2020
2252 Clear 9 1024 46 16093 1.95 20 12:42 26.02.2020
2253 Clear 9 1024 46 16093 1.95 20 12:22 26.02.2020
2254 Clear 10 1024 50 16093 1.5 60 11:59 26.02.2020
2255 Clear 10 1024 50 16093 1.5 60 11:40 26.02.2020
2256 Clear 10 1024 50 16093 1.5 60 11:22 26.02.2020
2257 Clear 11 1023 50 16093 1.41 44 10:43 26.02.2020
2258 Clear 11 1023 50 16093 1.41 44 10:24 26.02.2020
2259 Clear 12 1023 47 16093 3.1 120 09:59 26.02.2020
2260 Clear 12 1023 47 16093 3.1 120 09:40 26.02.2020
2261 Clear 12 1023 47 16093 3.1 120 09:21 26.02.2020
2262 Clouds 13 1024 41 19312 2.1 110 08:54 26.02.2020
2263 Clouds 13 1024 41 19312 2.1 110 08:36 26.02.2020
2264 Clouds 13 1024 41 19312 2.1 110 08:18 26.02.2020
2265 Clouds 14 1024 38 19312 2.6 120 07:41 26.02.2020
2266 Clouds 15 1024 31 19312 2.6 140 07:21 26.02.2020
2267 Clouds 16 1024 29 19312 2.1 250 06:48 26.02.2020
2268 Clouds 16 1024 29 19312 2.1 250 06:27 26.02.2020
2269 Clouds 17 1024 29 19312 3.1 260 05:48 26.02.2020
2270 Clouds 17 1024 29 19312 3.1 260 05:19 26.02.2020
2271 Clouds 19 1021 30 17702 4.1 210 03:34 26.02.2020
2272 Clouds 23 1020 28 16093 7.2 210 01:59 26.02.2020
2273 Clouds 24 1020 28 16093 7.2 210 01:26 26.02.2020
2274 Clouds 25 1019 27 14484 6.7 180 00:46 26.02.2020
2275 Clouds 25 1019 27 14484 6.7 180 00:46 26.02.2020
2276 Clouds 25 1019 27 14484 6.7 180 00:21 26.02.2020
2277 Clouds 26 1019 22 16093 7.7 180 23:42 25.02.2020
2278 Clouds 26 1019 22 16093 7.7 180 23:24 25.02.2020
2279 Clouds 26 1020 19 16093 6.2 170 22:57 25.02.2020
2280 Clouds 26 1020 19 16093 6.2 170 22:39 25.02.2020
2281 Clouds 26 1020 19 16093 6.2 170 22:19 25.02.2020
2282 Clouds 26 1020 19 16093 8.7 160 21:38 25.02.2020
2283 Clouds 26 1020 19 16093 8.7 160 21:20 25.02.2020
2284 Clear 25 1021 20 16093 9.8 160 20:57 25.02.2020
2285 Clear 25 1021 20 16093 9.8 160 20:39 25.02.2020
2286 Clear 25 1021 20 16093 9.8 160 20:20 25.02.2020
2287 Clear 25 1022 19 16093 7.7 160 19:56 25.02.2020
2288 Clear 25 1022 19 16093 7.7 160 19:38 25.02.2020
2289 Clear 25 1022 19 16093 7.7 160 19:19 25.02.2020
2290 Clear 23 1023 25 16093 5.7 150 18:41 25.02.2020
2291 Clear 23 1023 25 16093 5.7 150 18:21 25.02.2020
2292 Clear 22 1024 27 16093 5.7 160 17:56 25.02.2020
2293 Clear 21 1024 32 16093 1.5 50 17:37 25.02.2020
2294 Clear 20 1024 32 16093 1.5 50 17:19 25.02.2020
2295 Clear 20 1024 32 16093 1.5 50 17:19 25.02.2020
2296 Clear 18 1024 37 19312 2.1 110 16:57 25.02.2020
2297 Clear 18 1024 37 19312 2.1 110 16:38 25.02.2020
2298 Clear 18 1024 37 19312 2.1 110 16:20 25.02.2020
2299 Clear 16 1024 42 19312 2.1 60 15:55 25.02.2020
2300 Clear 15 1024 42 19312 2.1 60 15:36 25.02.2020
2301 Clear 15 1024 42 19312 2.1 60 15:18 25.02.2020
2302 Clear 15 1024 42 19312 2.1 60 15:18 25.02.2020
2303 Clear 13 1023 44 19312 1.92 185 14:40 25.02.2020
2304 Clear 13 1023 44 19312 1.07 169 14:19 25.02.2020
2305 Clear 13 1023 44 19312 1.07 169 14:19 25.02.2020
2306 Clear 12 1022 44 16093 2.1 300 13:59 25.02.2020
2307 Clear 12 1022 44 16093 2.1 300 13:41 25.02.2020
2308 Clear 12 1022 44 16093 2.1 300 13:21 25.02.2020
2309 Clear 12 1022 50 16093 1.5 120 12:59 25.02.2020
2310 Clear 11 1022 50 16093 1.5 120 12:39 25.02.2020
2311 Clear 11 1022 50 16093 1.5 120 12:20 25.02.2020
2312 Clear 12 1022 41 16093 2.1 180 11:56 25.02.2020
2313 Clear 12 1022 41 16093 2.1 180 11:37 25.02.2020
2314 Clear 12 1022 41 16093 2.1 180 11:18 25.02.2020
2315 Clear 13 1022 44 16093 1.5 200 10:42 25.02.2020
2316 Clear 13 1022 44 16093 1.5 200 10:23 25.02.2020
2317 Clear 14 1023 45 16093 3.1 150 09:56 25.02.2020
2318 Clear 14 1023 45 16093 3.1 150 09:38 25.02.2020
2319 Clear 14 1023 45 16093 3.1 150 09:18 25.02.2020
2320 Clear 15 1023 42 16093 1 120 08:42 25.02.2020
2321 Clear 15 1023 42 16093 1 120 08:23 25.02.2020
2322 Clear 17 1024 42 16093 1.5 200 07:49 25.02.2020
2323 Clear 16 1024 42 16093 1.5 200 07:23 25.02.2020
2324 Clear 17 1024 37 16093 1.5 200 06:55 25.02.2020
2325 Clear 18 1024 37 16093 2.6 150 05:51 25.02.2020
2326 Clear 22 1022 35 17702 6.2 160 03:56 25.02.2020
2327 Clouds 23 1021 33 16093 6.2 160 02:34 25.02.2020
2328 Clouds 27 1020 22 12874 5.1 170 00:58 25.02.2020
2329 Clouds 27 1020 22 12874 5.1 170 00:31 25.02.2020
2330 Dust 28 1020 20 12874 8.2 140 23:48 24.02.2020
2331 Dust 28 1020 20 12874 8.2 140 23:29 24.02.2020
2332 Dust 28 1020 18 12874 7.2 140 22:56 24.02.2020
2333 Dust 28 1020 18 12874 7.2 140 22:37 24.02.2020
2334 Dust 28 1020 18 12874 7.2 140 22:18 24.02.2020
2335 Dust 28 1021 12 12874 3.6 120 21:54 24.02.2020
2336 Dust 28 1021 12 12874 3.6 120 21:36 24.02.2020
2337 Dust 28 1021 12 12874 3.6 120 21:18 24.02.2020
2338 Clear 28 1021 12 12874 5.1 150 20:41 24.02.2020
2339 Clear 27 1022 26 12874 3.6 70 20:20 24.02.2020
2340 Clear 26 1024 21 11265 4.6 140 19:59 24.02.2020
2341 Clear 26 1024 21 11265 4.6 140 19:40 24.02.2020
2342 Clear 26 1024 21 11265 4.6 140 19:22 24.02.2020
2343 Clear 25 1025 22 11265 4.1 130 18:57 24.02.2020
2344 Clear 25 1025 22 11265 4.1 130 18:38 24.02.2020
2345 Clear 25 1025 22 11265 4.1 130 18:38 24.02.2020
2346 Clear 25 1025 22 11265 4.1 130 18:19 24.02.2020
2347 Clear 22 1025 35 11265 7.2 150 17:42 24.02.2020
2348 Clear 21 1025 35 11265 7.2 150 17:21 24.02.2020
2349 Clear 19 1025 37 11265 3.1 180 16:59 24.02.2020
2350 Clear 19 1025 37 11265 3.1 180 16:40 24.02.2020
2351 Clear 19 1025 37 11265 3.1 180 16:21 24.02.2020
2352 Clear 19 1025 37 11265 3.1 180 16:21 24.02.2020
2353 Clear 14 1026 51 11265 2.6 190 15:59 24.02.2020
2354 Clear 14 1026 51 11265 2.6 190 15:40 24.02.2020
2355 Clear 14 1026 51 11265 2.6 190 15:21 24.02.2020
2356 Clear 13 1025 50 11265 0.49 104 14:59 24.02.2020
2357 Clear 12 1025 50 11265 0.49 104 14:40 24.02.2020
2358 Clear 12 1025 50 11265 1.58 49 14:19 24.02.2020
2359 Clear 9 1025 54 12874 2.1 70 13:57 24.02.2020
2360 Clear 9 1025 54 12874 2.1 70 13:37 24.02.2020
2361 Clear 9 1025 54 12874 2.1 70 13:19 24.02.2020
2362 Clear 10 1025 54 12874 3.6 100 12:55 24.02.2020
2363 Clear 10 1025 54 12874 3.6 100 12:37 24.02.2020
2364 Clear 10 1025 54 12874 3.6 100 12:18 24.02.2020
2365 Clear 12 1025 54 12874 2.6 80 11:42 24.02.2020
2366 Clear 12 1025 44 12874 2.54 355 11:23 24.02.2020
2367 Clouds 13 1026 44 12874 3.1 30 10:44 24.02.2020
2368 Clouds 13 1026 44 12874 3.1 30 10:25 24.02.2020
2369 Clouds 14 1026 44 12874 2.6 70 09:41 24.02.2020
2370 Clouds 14 1026 44 12874 2.6 70 09:20 24.02.2020
2371 Clouds 14 1026 44 12874 2.1 70 08:57 24.02.2020
2372 Clouds 15 1027 36 12874 1.5 70 08:37 24.02.2020
2373 Clouds 15 1027 36 12874 1.5 70 08:19 24.02.2020
2374 Clouds 16 1027 36 12874 2.1 60 07:41 24.02.2020
2375 Clouds 16 1027 36 12874 2.1 60 07:23 24.02.2020
2376 Clouds 18 1027 32 12874 2.1 120 06:34 24.02.2020
2377 Clouds 19 1027 32 16093 2.6 150 05:52 24.02.2020
2378 Clouds 19 1027 32 16093 2.6 150 05:28 24.02.2020
2379 Clouds 20 1025 33 16093 3.1 130 03:27 24.02.2020
2380 Clouds 23 1025 27 14484 5.1 130 02:51 24.02.2020
2381 Clouds 26 1024 18 12874 5.1 130 01:41 24.02.2020
2382 Clouds 28 1024 21 11265 2.1 160 00:52 24.02.2020
2383 Clouds 28 1024 21 11265 2.1 160 00:22 24.02.2020
2384 Clouds 28 1024 21 11265 2.1 120 23:59 23.02.2020
2385 Clouds 28 1024 21 11265 2.1 120 23:40 23.02.2020
2386 Clouds 28 1024 21 11265 2.1 120 23:18 23.02.2020
2387 Clear 27 1025 19 11265 2.1 120 22:54 23.02.2020
2388 Clear 28 1025 19 11265 2.1 120 22:36 23.02.2020
2389 Clear 28 1025 19 11265 2.1 120 22:18 23.02.2020
2390 Clear 26 1026 22 11265 3.1 160 21:43 23.02.2020
2391 Clear 26 1026 22 11265 3.1 160 21:19 23.02.2020
2392 Clear 25 1028 23 11265 1.5 30 20:55 23.02.2020
2393 Clear 25 1028 23 11265 1.5 30 20:37 23.02.2020
2394 Clear 25 1028 23 11265 1.5 30 20:19 23.02.2020
2395 Clear 24 1029 27 11265 4.1 100 19:54 23.02.2020
2396 Clear 24 1029 27 11265 4.1 100 19:54 23.02.2020
2397 Clear 24 1030 33 9656 2.1 290 19:36 23.02.2020
2398 Clear 23 1030 33 9656 2.1 290 19:18 23.02.2020
2399 Clear 21 1030 37 9656 2.6 140 18:41 23.02.2020
2400 Clear 21 1030 37 9656 2.6 140 18:21 23.02.2020
2401 Clear 20 1031 37 9656 1.5 120 17:59 23.02.2020
2402 Clear 19 1031 42 9656 1.72 296 17:41 23.02.2020
2403 Clear 19 1031 42 9656 1.72 296 17:21 23.02.2020
2404 Clear 17 1031 42 9656 1.5 60 16:57 23.02.2020
2405 Clear 16 1031 51 9656 1.5 60 16:38 23.02.2020
2406 Clear 15 1031 51 9656 1.5 60 16:20 23.02.2020
2407 Clear 12 1030 62 11265 3.1 70 15:54 23.02.2020
2408 Clear 12 1030 62 11265 3.1 70 15:36 23.02.2020
2409 Clear 12 1030 62 11265 3.1 70 15:18 23.02.2020
2410 Clear 11 1029 58 11265 2.6 50 14:55 23.02.2020
2411 Clear 11 1029 58 11265 2.6 50 14:37 23.02.2020
2412 Clear 11 1029 58 11265 2.6 50 14:37 23.02.2020
2413 Clear 11 1029 58 11265 2.6 50 14:18 23.02.2020
2414 Clear 9 1029 58 11265 1.5 60 13:54 23.02.2020
2415 Clear 9 1029 58 11265 1.5 60 13:36 23.02.2020
2416 Clear 9 1029 58 11265 1.5 60 13:18 23.02.2020
2417 Clear 9 1029 58 11265 2.6 70 12:39 23.02.2020
2418 Clear 9 1029 58 11265 2.6 70 12:20 23.02.2020
2419 Clear 11 1029 54 11265 2.1 50 11:39 23.02.2020
2420 Clear 11 1029 54 11265 2.1 50 11:20 23.02.2020
2421 Clear 12 1029 58 11265 2.6 60 10:57 23.02.2020
2422 Clear 11 1029 58 11265 2.6 60 10:39 23.02.2020
2423 Clear 11 1029 58 11265 2.6 60 10:21 23.02.2020
2424 Clear 13 1030 44 12874 1.4 33 09:56 23.02.2020
2425 Clear 13 1030 44 12874 1.4 33 09:37 23.02.2020
2426 Clear 13 1030 44 12874 1.4 33 09:18 23.02.2020
2427 Clear 15 1030 45 12874 2.1 290 08:43 23.02.2020
2428 Clear 14 1030 45 12874 2.1 290 08:24 23.02.2020
2429 Clear 15 1030 42 12874 2.6 300 07:43 23.02.2020
2430 Clear 15 1030 42 12874 2.6 300 07:25 23.02.2020
2431 Clear 16 1030 39 12874 2.6 70 06:20 23.02.2020
2432 Clear 18 1030 42 11265 5.7 60 04:59 23.02.2020
2433 Clouds 18 1028 42 11265 6.2 40 03:53 23.02.2020
2434 Clear 21 1027 33 9656 5.1 110 02:40 23.02.2020
2435 Clear 24 1027 25 9656 2.6 100 01:27 23.02.2020
2436 Clear 25 1027 25 9656 3.1 60 00:59 23.02.2020
2437 Clear 25 1027 25 9656 3.1 60 00:41 23.02.2020
2438 Clear 25 1027 25 9656 3.1 60 00:19 23.02.2020
2439 Clear 26 1027 25 9656 2.1 140 23:42 22.02.2020
2440 Clear 26 1027 25 9656 2.1 140 23:20 22.02.2020
2441 Clouds 26 1028 25 9656 2.6 200 22:45 22.02.2020
2442 Clouds 26 1028 25 9656 2.6 200 22:20 22.02.2020
2443 Clouds 24 1028 25 9656 2.6 200 21:43 22.02.2020
2444 Clouds 24 1029 28 11265 3.1 330 21:25 22.02.2020
2445 Clouds 23 1031 30 12874 2.1 130 20:58 22.02.2020
2446 Clouds 23 1031 30 12874 2.1 130 20:39 22.02.2020
2447 Clouds 23 1031 30 12874 2.1 130 20:39 22.02.2020
2448 Clouds 23 1031 30 12874 2.1 130 20:21 22.02.2020
2449 Clouds 22 1031 30 12874 2.6 250 19:42 22.02.2020
2450 Clouds 21 1032 37 11265 1.1 318 19:23 22.02.2020
2451 Clear 19 1033 39 11265 1.5 120 18:55 22.02.2020
2452 Clear 20 1033 39 11265 1.5 120 18:37 22.02.2020
2453 Clear 20 1033 39 11265 1.5 120 18:18 22.02.2020
2454 Clear 17 1034 48 11265 1.5 60 17:44 22.02.2020
2455 Clear 17 1034 48 11265 1.5 60 17:25 22.02.2020
2456 Clouds 14 1033 58 12874 0.25 20 16:59 22.02.2020
2457 Clouds 14 1033 58 12874 0.25 20 16:40 22.02.2020
2458 Clouds 13 1033 58 12874 0.25 20 16:20 22.02.2020
2459 Clear 10 1033 76 16093 3.6 80 15:46 22.02.2020
2460 Clear 10 1033 76 16093 3.6 80 15:27 22.02.2020
2461 Clouds 9 1032 81 12874 3.6 90 14:59 22.02.2020
2462 Clouds 9 1032 81 12874 3.6 90 14:40 22.02.2020
2463 Clouds 9 1032 81 12874 3.6 90 14:40 22.02.2020
2464 Clouds 9 1032 81 12874 3.6 90 14:20 22.02.2020
2465 Clouds 7 1031 75 12874 2.1 60 13:43 22.02.2020
2466 Clouds 7 1031 75 12874 2.1 60 13:20 22.02.2020
2467 Clouds 7 1032 81 12874 2.6 80 12:58 22.02.2020
2468 Clouds 7 1032 81 12874 2.6 80 12:39 22.02.2020
2469 Clouds 7 1032 81 12874 2.6 80 12:20 22.02.2020
2470 Clouds 7 1032 75 12874 3.1 60 11:42 22.02.2020
2471 Clouds 7 1032 75 12874 3.1 60 11:24 22.02.2020
2472 Clouds 7 1032 75 16093 3.6 70 10:42 22.02.2020
2473 Clouds 7 1032 75 16093 3.6 70 10:21 22.02.2020
2474 Clouds 8 1033 70 12874 2.6 70 09:59 22.02.2020
2475 Clouds 8 1033 70 12874 2.6 70 09:41 22.02.2020
2476 Clouds 8 1033 70 12874 2.6 70 09:22 22.02.2020
2477 Clouds 10 1033 71 12874 2.6 90 08:55 22.02.2020
2478 Clouds 9 1033 71 12874 2.6 90 08:28 22.02.2020
2479 Clear 11 1033 62 12874 4.6 290 07:58 22.02.2020
2480 Clear 11 1033 62 12874 4.6 290 07:38 22.02.2020
2481 Clear 11 1033 62 12874 4.6 290 07:38 22.02.2020
2482 Clear 11 1033 62 12874 4.6 290 07:18 22.02.2020
2483 Clouds 12 1033 62 12874 4.1 290 06:41 22.02.2020
2484 Clouds 15 1031 51 11265 5.1 300 04:44 22.02.2020
2485 Clouds 15 1031 51 11265 5.1 300 03:47 22.02.2020
2486 Clouds 22 1028 33 12874 6.7 210 02:34 22.02.2020
2487 Clouds 23 1028 33 12874 5.1 190 01:47 22.02.2020
2488 Clouds 23 1027 29 11265 5.1 150 01:28 22.02.2020
2489 Clouds 26 1027 27 11265 1.5 190 00:46 22.02.2020
2490 Clouds 26 1027 27 11265 1.5 190 00:28 22.02.2020
2491 Clouds 25 1027 29 11265 3.6 170 23:53 21.02.2020
2492 Clouds 25 1027 29 11265 3.6 170 23:25 21.02.2020
2493 Clear 24 1028 28 11265 4.1 60 22:58 21.02.2020
2494 Clear 24 1028 28 11265 4.1 60 22:39 21.02.2020
2495 Clear 24 1028 28 11265 4.1 60 22:21 21.02.2020
2496 Clear 24 1029 28 12874 2.1 240 21:42 21.02.2020
2497 Clear 23 1030 32 12874 2.6 360 21:24 21.02.2020
2498 Clear 22 1031 35 16093 2.1 130 20:56 21.02.2020
2499 Clear 23 1031 35 16093 2.1 130 20:38 21.02.2020
2500 Clear 23 1031 35 16093 2.1 130 20:19 21.02.2020
2501 Clouds 21 1033 37 16093 2.1 190 19:39 21.02.2020
2502 Clouds 22 1033 37 16093 2.1 190 19:19 21.02.2020
2503 Clouds 19 1034 48 16093 3.1 340 18:40 21.02.2020
2504 Clouds 19 1034 48 16093 3.1 340 18:22 21.02.2020
2505 Clear 18 1034 48 16093 3.6 310 17:55 21.02.2020
2506 Clear 17 1034 54 16093 3.1 340 17:36 21.02.2020
2507 Clear 18 1034 54 16093 3.1 340 17:18 21.02.2020
2508 Clear 15 1034 58 16093 2.1 250 16:41 21.02.2020
2509 Clear 15 1034 58 16093 2.1 250 16:21 21.02.2020
2510 Clouds 13 1034 70 6437 4.06 12 15:57 21.02.2020
2511 Clouds 13 1033 62 16093 3.1 300 15:38 21.02.2020
2512 Clouds 13 1033 62 16093 3.1 300 15:18 21.02.2020
2513 Clouds 12 1032 66 16093 2.6 350 14:42 21.02.2020
2514 Clouds 12 1032 66 16093 2.6 350 14:20 21.02.2020
2515 Clouds 11 1031 66 16093 3.1 360 13:45 21.02.2020
2516 Clouds 11 1031 66 16093 3.1 360 13:24 21.02.2020
2517 Clouds 11 1031 66 12874 2.6 300 12:56 21.02.2020
2518 Clouds 11 1031 66 12874 2.6 300 12:37 21.02.2020
2519 Clouds 11 1031 66 12874 2.6 300 12:19 21.02.2020
2520 Clouds 10 1031 66 9656 3.1 290 11:42 21.02.2020
2521 Clouds 10 1031 66 9656 3.1 290 11:23 21.02.2020
2522 Clouds 11 1031 66 9656 2.6 300 10:57 21.02.2020
2523 Clouds 11 1031 66 9656 2.6 300 10:39 21.02.2020
2524 Clouds 12 1032 62 11265 2.6 300 10:19 21.02.2020
2525 Clouds 12 1032 62 11265 2.6 300 09:57 21.02.2020
2526 Clouds 12 1032 62 11265 2.6 300 09:38 21.02.2020
2527 Clouds 12 1032 62 11265 2.6 300 09:19 21.02.2020
2528 Clouds 13 1032 58 11265 2.6 300 08:43 21.02.2020
2529 Clouds 12 1032 58 11265 2.6 300 08:22 21.02.2020
2530 Clouds 13 1033 58 12874 4.1 300 07:59 21.02.2020
2531 Clouds 13 1033 58 12874 4.1 300 07:59 21.02.2020
2532 Clouds 13 1033 58 12874 4.1 300 07:41 21.02.2020
2533 Clouds 12 1033 58 12874 4.1 300 07:19 21.02.2020
2534 Clouds 13 1032 58 12874 5.1 300 06:52 21.02.2020
2535 Clouds 13 1032 58 12874 5.1 300 06:31 21.02.2020
2536 Clouds 14 1032 54 12874 6.2 360 05:50 21.02.2020
2537 Clear 15 1030 51 16093 7.7 20 04:38 21.02.2020
2538 Clear 15 1030 51 16093 7.7 20 04:19 21.02.2020
2539 Clear 15 1030 51 16093 7.7 20 04:19 21.02.2020
2540 Clouds 17 1028 48 16093 7.7 30 03:42 21.02.2020
2541 Clouds 20 1028 42 16093 8.7 40 02:43 21.02.2020
2542 Clear 25 1026 12 14484 5.7 360 01:24 21.02.2020
2543 Clear 25 1026 13 16093 8.7 360 00:45 21.02.2020
2544 Clear 26 1025 14 16093 6.2 20 00:23 21.02.2020
2545 Clear 27 1025 9 14484 7.2 330 23:46 20.02.2020
2546 Clear 27 1025 9 14484 7.2 330 23:46 20.02.2020
2547 Clear 27 1025 9 14484 7.2 330 23:46 20.02.2020
2548 Clear 27 1025 9 14484 7.2 330 23:25 20.02.2020
2549 Clear 26 1026 9 12874 5.1 340 22:57 20.02.2020
2550 Clear 27 1026 9 12874 5.1 340 22:38 20.02.2020
2551 Clear 27 1026 9 12874 5.1 340 22:20 20.02.2020
2552 Clear 26 1027 15 11265 4.6 50 21:56 20.02.2020
2553 Clear 26 1027 15 11265 4.6 50 21:56 20.02.2020
2554 Clear 26 1027 15 11265 4.6 50 21:37 20.02.2020
2555 Clear 26 1027 15 11265 4.6 50 21:37 20.02.2020
2556 Clear 26 1027 15 11265 4.6 50 21:19 20.02.2020
2557 Clear 25 1028 11 9656 5.7 360 20:54 20.02.2020
2558 Clear 25 1028 11 9656 5.7 360 20:36 20.02.2020
2559 Clear 23 1029 30 8047 2.3 328 20:18 20.02.2020
2560 Clear 23 1029 30 8047 2.3 328 19:57 20.02.2020
2561 Clear 23 1029 30 8047 2.3 328 19:39 20.02.2020
2562 Clear 23 1029 30 8047 2.3 328 19:20 20.02.2020
2563 Clear 21 1030 42 6437 2.3 328 18:39 20.02.2020
2564 Clear 21 1030 42 6437 2.3 328 18:20 20.02.2020
2565 Clear 18 1030 51 6437 2.3 328 17:54 20.02.2020
2566 Clear 18 1030 51 6437 2.3 328 17:54 20.02.2020
2567 Clear 18 1030 51 6437 2.3 328 17:36 20.02.2020
2568 Haze 15 1030 71 4828 2.1 70 17:18 20.02.2020
2569 Haze 14 1030 76 4828 3.1 70 16:54 20.02.2020
2570 Haze 14 1030 76 4828 3.1 70 16:36 20.02.2020
2571 Haze 14 1030 76 4828 3.1 70 16:18 20.02.2020
2572 Clear 10 1029 76 6437 3.6 80 15:41 20.02.2020
2573 Clear 10 1029 76 6437 3.6 80 15:20 20.02.2020
2574 Mist 9 1029 81 6437 1.5 40 14:55 20.02.2020
2575 Mist 9 1029 81 6437 1.5 40 14:37 20.02.2020
2576 Mist 9 1029 81 6437 1.5 40 14:19 20.02.2020
2577 Clear 7 1028 81 8047 2.1 80 13:44 20.02.2020
2578 Clear 7 1028 81 8047 2.1 80 13:20 20.02.2020
2579 Clear 8 1027 87 9656 2.1 70 12:58 20.02.2020
2580 Clear 8 1027 87 9656 2.1 70 12:38 20.02.2020
2581 Clear 8 1027 87 9656 2.1 70 12:19 20.02.2020
2582 Clear 8 1027 81 9656 2.6 80 11:43 20.02.2020
2583 Clear 9 1027 81 9656 2.6 80 11:23 20.02.2020
2584 Clear 9 1027 71 9656 2.6 70 10:58 20.02.2020
2585 Clear 9 1027 71 9656 2.6 70 10:40 20.02.2020
2586 Clear 9 1027 71 9656 2.6 70 10:21 20.02.2020
2587 Clear 11 1028 66 9656 2.1 80 09:47 20.02.2020
2588 Clear 10 1028 66 9656 2.1 80 09:25 20.02.2020
2589 Clear 11 1028 62 9656 2.6 60 08:59 20.02.2020
2590 Clear 11 1028 62 9656 2.6 60 08:39 20.02.2020
2591 Clear 12 1029 54 11265 2.6 70 08:21 20.02.2020
2592 Clear 14 1029 51 11265 2.6 80 07:45 20.02.2020
2593 Clear 14 1028 51 11265 2.1 300 07:26 20.02.2020
2594 Clear 16 1028 45 12874 3.1 290 06:55 20.02.2020
2595 Clear 16 1028 45 12874 3.1 290 06:27 20.02.2020
2596 Clear 17 1028 39 12874 4.1 290 05:46 20.02.2020
2597 Clear 18 1027 37 17702 3.1 50 04:55 20.02.2020
2598 Clear 20 1026 32 16093 4.1 60 04:19 20.02.2020
2599 Clear 20 1026 32 16093 4.1 60 03:30 20.02.2020
2600 Clear 24 1025 45 11265 3.6 40 02:26 20.02.2020
2601 Clear 26 1024 15 9656 5.1 40 01:18 20.02.2020
2602 Clear 28 1024 7 9656 2.6 240 00:33 20.02.2020
2603 Clear 28 1024 6 9656 2.6 100 23:52 19.02.2020
2604 Clear 28 1024 6 9656 2.6 100 23:23 19.02.2020
2605 Clear 28 1025 6 11265 2.1 90 22:54 19.02.2020
2606 Clear 28 1025 6 11265 2.1 90 22:36 19.02.2020
2607 Clear 28 1025 6 11265 2.1 90 22:18 19.02.2020
2608 Clear 27 1026 7 11265 3.1 330 21:41 19.02.2020
2609 Clear 27 1026 7 11265 3.1 330 21:19 19.02.2020
2610 Clear 26 1026 7 11265 3.1 330 20:58 19.02.2020
2611 Clear 26 1026 7 11265 3.1 330 20:58 19.02.2020
2612 Clear 26 1026 7 11265 3.1 330 20:40 19.02.2020
2613 Clear 25 1027 9 9656 3.1 100 20:20 19.02.2020
2614 Clear 25 1027 9 9656 3.1 100 20:20 19.02.2020
2615 Clear 25 1028 9 9656 2.1 80 19:59 19.02.2020
2616 Clear 25 1028 9 9656 2.1 80 19:39 19.02.2020
2617 Clear 25 1028 9 9656 2.1 80 19:39 19.02.2020
2618 Clear 25 1028 9 9656 2.1 80 19:21 19.02.2020
2619 Clear 23 1029 12 9656 2.1 330 18:59 19.02.2020
2620 Clear 22 1029 12 9656 2.1 330 18:40 19.02.2020
2621 Clear 22 1029 15 9656 1 30 18:22 19.02.2020
2622 Clouds 20 1029 15 11265 2.6 60 17:59 19.02.2020
2623 Clouds 20 1029 15 11265 2.6 60 17:41 19.02.2020
2624 Clear 19 1029 18 11265 2.1 80 17:19 19.02.2020
2625 Clear 16 1029 23 12874 2.1 110 16:43 19.02.2020
2626 Clear 16 1029 23 12874 2.1 110 16:19 19.02.2020
2627 Clear 12 1030 60 8047 2.27 352 15:57 19.02.2020
2628 Clear 11 1030 60 8047 2.27 352 15:38 19.02.2020
2629 Clear 11 1030 60 8047 2.27 352 15:20 19.02.2020
2630 Clear 10 1028 25 16093 2.6 80 14:41 19.02.2020
2631 Clear 10 1028 25 16093 2.6 80 14:23 19.02.2020
2632 Clear 11 1020 51 12874 1.37 8 13:56 19.02.2020
2633 Clear 8 1027 25 16093 2.6 60 13:37 19.02.2020
2634 Clear 8 1027 25 16093 2.6 60 13:18 19.02.2020
2635 Smoke 8 1028 69 8047 1.67 360 12:39 19.02.2020
2636 Smoke 8 1028 69 8047 1.67 360 12:19 19.02.2020
2637 Clear 9 1026 32 16093 1 100 11:55 19.02.2020
2638 Clear 9 1026 32 16093 1 100 11:37 19.02.2020
2639 Clear 10 1026 32 16093 1 100 11:18 19.02.2020
2640 Clear 11 1026 30 16093 1 50 10:56 19.02.2020
2641 Clear 11 1026 30 16093 1 50 10:36 19.02.2020
2642 Clear 11 1026 30 16093 1 50 10:18 19.02.2020
2643 Clear 13 1027 21 16093 1 60 09:41 19.02.2020
2644 Clear 13 1027 21 16093 1 60 09:20 19.02.2020
2645 Clear 13 1027 21 16093 1 60 09:20 19.02.2020
2646 Clear 14 1027 18 16093 1 50 08:55 19.02.2020
2647 Clear 14 1027 18 16093 1 50 08:37 19.02.2020
2648 Clear 14 1027 18 16093 1 50 08:37 19.02.2020
2649 Clear 14 1027 18 16093 1 50 08:18 19.02.2020
2650 Clear 16 1027 19 16093 2.6 280 07:40 19.02.2020
2651 Clear 17 1027 19 16093 2.6 280 07:20 19.02.2020
2652 Clear 19 1027 9 16093 3.6 350 06:46 19.02.2020
2653 Clear 20 1026 10 16093 3.6 350 05:32 19.02.2020
2654 Clear 23 1024 12 16093 6.2 30 03:53 19.02.2020
2655 Clear 26 1022 8 16093 2.6 10 02:36 19.02.2020
2656 Clear 28 1022 6 16093 2.6 290 01:44 19.02.2020
2657 Clear 28 1022 6 16093 2.6 290 01:23 19.02.2020
2658 Clear 29 1021 7 16093 3.1 190 00:41 19.02.2020
2659 Clear 29 1021 7 16093 3.1 190 00:41 19.02.2020
2660 Clear 29 1021 7 16093 3.1 190 00:19 19.02.2020
2661 Clear 30 1022 7 16093 3.1 240 23:40 18.02.2020
2662 Clear 29 1022 7 16093 3.1 240 23:20 18.02.2020
2663 Clear 28 1022 8 16093 3.1 20 22:55 18.02.2020
2664 Clear 28 1022 8 16093 3.1 20 22:37 18.02.2020
2665 Clear 28 1022 8 16093 3.1 20 22:19 18.02.2020
2666 Clear 28 1022 8 16093 3.1 20 22:19 18.02.2020
2667 Clear 27 1024 8 14484 2.1 260 21:54 18.02.2020
2668 Clear 27 1024 8 14484 2.1 260 21:36 18.02.2020
2669 Clear 27 1024 8 14484 2.1 260 21:18 18.02.2020
2670 Clear 27 1025 10 12874 2.6 30 20:54 18.02.2020
2671 Clear 27 1025 10 12874 2.6 30 20:36 18.02.2020
2672 Clear 27 1025 10 12874 2.6 30 20:18 18.02.2020
2673 Clear 26 1025 12 11265 2.1 360 19:42 18.02.2020
2674 Clear 25 1026 16 11265 2.6 270 19:19 18.02.2020
2675 Clear 23 1026 17 11265 1.5 270 18:56 18.02.2020
2676 Clear 22 1027 21 11265 2.1 100 18:38 18.02.2020
2677 Clear 22 1027 21 11265 2.1 100 18:18 18.02.2020
2678 Clear 22 1027 21 11265 2.1 100 18:18 18.02.2020
2679 Clear 20 1027 22 11265 2.1 100 17:41 18.02.2020
2680 Clear 19 1027 25 12874 2.1 80 17:19 18.02.2020
2681 Clear 16 1027 31 16093 1.5 90 16:40 18.02.2020
2682 Clear 16 1027 31 16093 1.5 90 16:22 18.02.2020
2683 Clear 16 1027 31 16093 1.5 90 16:22 18.02.2020
2684 Clear 12 1026 35 19312 1.5 70 15:56 18.02.2020
2685 Clear 12 1026 35 19312 1.5 70 15:56 18.02.2020
2686 Clear 12 1026 35 19312 1.5 70 15:37 18.02.2020
2687 Clear 12 1026 35 19312 1.5 70 15:18 18.02.2020
2688 Clear 10 1025 43 19312 2.1 80 14:55 18.02.2020
2689 Clear 10 1025 43 19312 2.1 80 14:37 18.02.2020
2690 Clear 10 1025 43 19312 2.1 80 14:19 18.02.2020
2691 Clear 8 1025 36 16093 2.6 70 13:41 18.02.2020
2692 Clear 8 1025 36 16093 2.6 70 13:41 18.02.2020
2693 Clear 8 1025 38 16093 2.6 70 13:21 18.02.2020
2694 Clear 8 1024 37 16093 1.05 47 12:50 18.02.2020
2695 Clear 8 1024 37 16093 1.05 47 12:31 18.02.2020
2696 Clear 3 1026 74 11265 1.5 120 11:59 18.02.2020
2697 Clear 10 1026 74 11265 1.5 120 11:41 18.02.2020
2698 Clear 8 1026 74 11265 1.5 120 11:23 18.02.2020
2699 Clear 10 1024 37 16093 1.5 70 10:46 18.02.2020
2700 Clear 10 1024 37 16093 1.5 70 10:24 18.02.2020
2701 Clear 10 1024 37 16093 1.5 70 10:24 18.02.2020
2702 Clear 12 1025 37 16093 0.91 63 09:58 18.02.2020
2703 Clear 12 1025 37 16093 0.91 63 09:58 18.02.2020
2704 Clear 12 1025 37 16093 0.91 63 09:58 18.02.2020
2705 Clear 12 1025 37 16093 0.91 63 09:39 18.02.2020
2706 Clear 12 1025 37 16093 0.91 63 09:20 18.02.2020
2707 Clear 13 1025 38 16093 0.91 63 08:58 18.02.2020
2708 Clear 13 1025 38 16093 0.91 63 08:40 18.02.2020
2709 Clear 14 1025 27 19312 2.1 250 08:19 18.02.2020
2710 Clear 15 1025 27 19312 2.6 230 07:52 18.02.2020
2711 Clear 16 1025 25 19312 2.6 250 07:29 18.02.2020
2712 Clear 17 1024 22 19312 4.1 280 06:55 18.02.2020
2713 Clear 17 1024 22 19312 4.1 280 06:29 18.02.2020
2714 Clear 18 1024 19 16093 5.7 280 05:53 18.02.2020
2715 Clear 18 1024 19 16093 5.7 280 05:22 18.02.2020
2716 Clear 19 1022 19 16093 2.1 180 03:55 18.02.2020
2717 Clear 22 1022 18 16093 3.6 210 02:58 18.02.2020
2718 Clear 25 1021 19 12874 6.2 170 01:45 18.02.2020
2719 Clear 27 1020 7 12874 6.2 120 00:44 18.02.2020
2720 Clouds 28 1019 7 12874 3.1 110 00:19 18.02.2020
2721 Clouds 28 1020 8 14484 2.6 260 23:44 17.02.2020
2722 Clouds 28 1020 8 14484 2.6 260 23:24 17.02.2020
2723 Clouds 28 1021 9 14484 3.1 60 22:58 17.02.2020
2724 Clouds 28 1021 9 14484 3.1 60 22:40 17.02.2020
2725 Clouds 27 1022 10 14484 3.01 281 22:20 17.02.2020
2726 Clouds 27 1022 10 14484 3.01 281 21:39 17.02.2020
2727 Clouds 27 1022 10 14484 3.01 281 21:39 17.02.2020
2728 Clouds 27 1022 10 14484 3.01 281 21:19 17.02.2020
2729 Clouds 26 1023 11 14484 3.6 50 20:57 17.02.2020
2730 Clouds 26 1023 11 14484 3.6 50 20:38 17.02.2020
2731 Clouds 26 1023 11 14484 3.6 50 20:19 17.02.2020
2732 Clouds 25 1024 15 14484 1 300 19:43 17.02.2020
2733 Clouds 24 1025 17 12874 1 50 19:22 17.02.2020
2734 Ash 22 1026 28 14484 1.84 332 18:59 17.02.2020
2735 Ash 21 1026 28 14484 1.84 332 18:37 17.02.2020
2736 Ash 21 1026 28 14484 1.84 332 18:19 17.02.2020
2737 Ash 19 1026 30 16093 2.6 140 17:54 17.02.2020
2738 Clouds 19 1026 31 16093 1.5 110 17:36 17.02.2020
2739 Clouds 18 1026 31 16093 1.5 110 17:18 17.02.2020
2740 Clouds 16 1026 44 19312 3.1 80 17:18 17.02.2020
2741 Clouds 15 1026 44 19312 3.1 80 16:42 17.02.2020
2742 Clouds 15 1026 44 19312 3.1 80 16:22 17.02.2020
2743 Clear 10 1025 50 19312 3.1 80 15:56 17.02.2020
2744 Clear 10 1025 50 19312 3.1 80 15:56 17.02.2020
2745 Clear 10 1025 50 19312 3.1 80 15:37 17.02.2020
2746 Clear 10 1025 50 19312 3.1 80 15:37 17.02.2020
2747 Clear 10 1025 50 19312 3.1 80 15:19 17.02.2020
2748 Clear 9 1025 53 19312 2.6 80 14:42 17.02.2020
2749 Clear 9 1025 53 19312 2.6 80 14:42 17.02.2020
2750 Clear 10 1025 53 19312 2.6 80 14:24 17.02.2020
2751 Clear 10 1024 46 16093 1.5 60 13:58 17.02.2020
2752 Clear 10 1024 46 16093 1.5 60 13:38 17.02.2020
2753 Clear 9 1024 46 16093 1.5 60 13:19 17.02.2020
2754 Clear 8 1024 50 16093 1 60 12:43 17.02.2020
2755 Clear 8 1024 50 16093 1 60 12:25 17.02.2020
2756 Clear 9 1024 46 16093 2.6 50 11:58 17.02.2020
2757 Clear 9 1024 46 16093 2.6 50 11:39 17.02.2020
2758 Clear 9 1024 46 16093 2.6 50 11:20 17.02.2020
2759 Clear 11 1025 50 16093 2.6 70 10:55 17.02.2020
2760 Clear 11 1025 50 16093 2.6 70 10:37 17.02.2020
2761 Clear 11 1025 50 16093 2.6 70 10:18 17.02.2020
2762 Clear 14 1025 38 16093 2.1 330 09:41 17.02.2020
2763 Clear 13 1025 38 16093 2.1 330 09:21 17.02.2020
2764 Clear 14 1026 36 16093 2.6 300 08:58 17.02.2020
2765 Clear 14 1026 36 16093 2.6 300 08:39 17.02.2020
2766 Clear 14 1026 36 16093 2.6 300 08:20 17.02.2020
2767 Clouds 15 1026 34 16093 3.1 300 07:45 17.02.2020
2768 Clouds 15 1026 34 16093 3.1 300 07:24 17.02.2020
2769 Clouds 17 1025 25 16093 3.1 280 06:52 17.02.2020
2770 Clouds 16 1025 25 16093 3.1 280 06:32 17.02.2020
2771 Clouds 18 1025 19 16093 2.6 330 05:56 17.02.2020
2772 Clouds 18 1025 19 16093 2.6 330 05:37 17.02.2020
2773 Clouds 21 1023 15 19312 6.7 30 03:21 17.02.2020
2774 Clouds 25 1022 13 19312 4.6 30 01:49 17.02.2020
2775 Clouds 28 1022 11 19312 5.1 360 00:44 17.02.2020
2776 Clouds 28 1022 11 19312 5.1 360 00:21 17.02.2020
2777 Clouds 28 1022 11 19312 5.1 360 00:21 17.02.2020
2778 Clouds 27 1022 12 19312 5.1 300 23:53 16.02.2020
2779 Clouds 27 1022 12 19312 5.1 300 23:32 16.02.2020
2780 Clouds 27 1023 15 19312 5.1 360 22:57 16.02.2020
2781 Clouds 26 1023 15 19312 5.1 360 22:39 16.02.2020
2782 Clouds 26 1023 15 19312 5.1 360 22:20 16.02.2020
2783 Clouds 26 1024 16 16093 4.6 350 21:57 16.02.2020
2784 Clouds 26 1024 16 16093 4.6 350 21:39 16.02.2020
2785 Clouds 26 1024 16 16093 4.6 350 21:20 16.02.2020
2786 Clouds 25 1025 16 14484 5.7 20 20:57 16.02.2020
2787 Clouds 25 1026 22 12874 1.5 240 20:38 16.02.2020
2788 Clouds 25 1026 22 12874 1.5 240 20:20 16.02.2020
2789 Clouds 25 1026 22 12874 1.5 240 20:20 16.02.2020
2790 Clouds 23 1026 25 11265 2.36 332 19:57 16.02.2020
2791 Clouds 22 1027 32 11265 2.6 350 19:37 16.02.2020
2792 Clouds 22 1027 32 11265 2.6 350 19:18 16.02.2020
2793 Clouds 22 1027 32 11265 2.6 350 19:18 16.02.2020
2794 Clouds 21 1028 40 12874 2.1 160 18:42 16.02.2020
2795 Clouds 21 1028 40 12874 2.1 160 18:23 16.02.2020
2796 Clouds 19 1028 42 12874 2.1 90 17:55 16.02.2020
2797 Clouds 18 1028 48 14484 1.5 80 17:36 16.02.2020
2798 Clouds 18 1028 48 14484 1.5 80 17:18 16.02.2020
2799 Clouds 16 1028 51 14484 2.1 80 16:54 16.02.2020
2800 Clouds 15 1028 62 16093 2.6 80 16:36 16.02.2020
2801 Clouds 14 1028 62 16093 2.6 80 16:18 16.02.2020
2802 Clouds 11 1028 66 16093 2.6 60 15:41 16.02.2020
2803 Clouds 11 1028 66 16093 2.6 60 15:21 16.02.2020
2804 Clouds 10 1027 62 16093 2.1 60 14:42 16.02.2020
2805 Clouds 10 1027 62 16093 2.1 60 14:23 16.02.2020
2806 Clear 8 1027 76 19312 2.1 60 13:55 16.02.2020
2807 Clear 8 1027 76 19312 2.1 60 13:36 16.02.2020
2808 Clear 8 1027 76 19312 2.1 60 13:18 16.02.2020
2809 Clear 7 1026 76 19312 1.42 21 12:39 16.02.2020
2810 Clear 7 1026 76 19312 1.42 21 12:19 16.02.2020
2811 Clear 8 1027 66 19312 2.1 60 11:40 16.02.2020
2812 Clear 9 1027 66 19312 2.1 60 11:20 16.02.2020
2813 Clear 10 1027 66 12874 1.71 18 10:58 16.02.2020
2814 Clear 10 1027 66 12874 1.71 18 10:40 16.02.2020
2815 Clear 10 1027 66 12874 1.71 18 10:21 16.02.2020
2816 Clear 10 1027 66 12874 1.71 18 10:21 16.02.2020
2817 Clear 11 1028 54 12874 2.1 60 09:59 16.02.2020
2818 Clear 11 1028 54 12874 2.1 60 09:59 16.02.2020
2819 Clear 12 1028 54 12874 2.1 60 09:38 16.02.2020
2820 Clear 12 1028 54 12874 2.1 60 09:20 16.02.2020
2821 Clear 13 1028 48 12874 1.71 18 08:50 16.02.2020
2822 Clear 13 1028 48 12874 1.71 18 08:22 16.02.2020
2823 Clear 15 1028 48 12874 2.1 320 07:59 16.02.2020
2824 Clear 15 1028 48 12874 2.1 320 07:39 16.02.2020
2825 Clouds 16 1028 45 12874 2.1 360 06:39 16.02.2020
2826 Clouds 17 1028 48 12874 2.6 30 05:43 16.02.2020
2827 Clouds 18 1027 45 11265 5.1 70 04:35 16.02.2020
2828 Clouds 18 1026 35 11265 5.1 20 03:18 16.02.2020
2829 Clouds 23 1025 33 9656 2.6 60 01:57 16.02.2020
2830 Clouds 23 1025 33 9656 2.6 60 01:37 16.02.2020
2831 Clouds 23 1025 33 9656 2.6 60 01:19 16.02.2020
2832 Clouds 24 1025 27 8047 2.6 30 00:41 16.02.2020
2833 Clouds 24 1025 27 8047 2.6 30 00:21 16.02.2020
2834 Clouds 24 1025 29 8047 3.1 100 23:43 15.02.2020
2835 Clouds 25 1025 29 8047 3.1 100 23:24 15.02.2020
2836 Clouds 24 1026 33 6437 2.6 210 22:57 15.02.2020
2837 Clouds 24 1026 33 6437 2.6 210 22:39 15.02.2020
2838 Clouds 24 1026 33 6437 2.6 210 22:19 15.02.2020
2839 Clouds 24 1026 33 8047 2.6 170 21:43 15.02.2020
2840 Clouds 24 1027 37 8047 2.1 70 21:24 15.02.2020
2841 Clouds 22 1027 40 8047 2.6 30 20:56 15.02.2020
2842 Clouds 22 1028 45 6437 3.1 60 20:37 15.02.2020
2843 Clouds 22 1028 45 6437 3.1 60 20:19 15.02.2020
2844 Clear 20 1030 52 6437 2.1 40 19:41 15.02.2020
2845 Clear 20 1030 52 6437 2.1 40 19:22 15.02.2020
2846 Haze 18 1031 67 4828 2.1 50 18:41 15.02.2020
2847 Haze 17 1031 67 4828 2.1 50 18:21 15.02.2020
2848 Haze 16 1031 67 4828 2.1 50 17:56 15.02.2020
2849 Haze 15 1031 71 4828 1.5 70 17:37 15.02.2020
2850 Haze 15 1031 71 4828 1.5 70 17:19 15.02.2020
2851 Clouds 13 1030 71 6437 1.5 70 16:41 15.02.2020
2852 Clouds 13 1030 71 6437 1.5 70 16:23 15.02.2020
2853 Mist 10 1032 93 3219 1.43 352 15:54 15.02.2020
2854 Clouds 10 1030 76 8047 1.5 80 15:36 15.02.2020
2855 Clouds 10 1030 76 8047 1.5 80 15:36 15.02.2020
2856 Clouds 10 1030 76 8047 1.5 80 15:18 15.02.2020
2857 Clouds 10 1029 81 8047 2.6 90 14:39 15.02.2020
2858 Clouds 8 1028 87 8047 1.5 60 14:18 15.02.2020
2859 Clouds 8 1028 87 8047 1.5 60 13:42 15.02.2020
2860 Clouds 7 1028 87 8047 1.5 60 13:23 15.02.2020
2861 Clouds 8 1028 87 8047 3.6 60 12:57 15.02.2020
2862 Clouds 8 1028 87 8047 3.6 60 12:38 15.02.2020
2863 Clouds 8 1028 87 8047 3.6 60 12:19 15.02.2020
2864 Clouds 11 1028 81 8047 2.6 80 11:46 15.02.2020
2865 Clouds 11 1028 81 8047 2.6 80 11:27 15.02.2020
2866 Clouds 10 1028 87 8047 1.5 100 10:49 15.02.2020
2867 Clouds 10 1028 87 8047 1.5 100 10:29 15.02.2020
2868 Clouds 11 1028 87 8047 1 80 09:56 15.02.2020
2869 Clouds 11 1028 87 8047 1 80 09:37 15.02.2020
2870 Clouds 11 1028 87 8047 1 80 09:19 15.02.2020
2871 Clear 12 1029 87 8047 3.1 80 08:41 15.02.2020
2872 Clear 11 1029 87 8047 3.1 80 08:23 15.02.2020
2873 Clouds 13 1029 82 9656 2.1 80 07:45 15.02.2020
2874 Clouds 12 1029 82 9656 2.1 80 07:27 15.02.2020
2875 Clouds 13 1029 87 9656 3.1 80 06:45 15.02.2020
2876 Clouds 13 1029 87 9656 3.1 80 06:26 15.02.2020
2877 Clouds 14 1028 77 11265 2.6 280 05:30 15.02.2020
2878 Clouds 14 1029 72 11265 3.6 210 04:44 15.02.2020
2879 Thunderstorm 15 1028 67 8047 6.7 140 03:21 15.02.2020
2880 Thunderstorm 17 1028 72 8047 7.7 120 02:41 15.02.2020
2881 Thunderstorm 16 1028 82 6437 6.7 20 02:19 15.02.2020
2882 Thunderstorm 20 1025 43 9656 5.1 120 01:38 15.02.2020
2883 Rain 22 1024 43 9656 8.2 110 00:36 15.02.2020
2884 Rain 22 1024 43 9656 8.2 110 00:18 15.02.2020
2885 Clouds 24 1024 31 9656 2.6 120 23:39 14.02.2020
2886 Clouds 24 1024 31 9656 2.6 120 23:18 14.02.2020
2887 Clouds 24 1025 31 9656 5.1 80 22:43 14.02.2020
2888 Clouds 24 1025 31 9656 5.1 80 22:22 14.02.2020
2889 Clear 24 1026 35 9656 4.1 150 21:51 14.02.2020
2890 Clear 24 1026 35 9656 4.1 150 21:33 14.02.2020
2891 Clear 23 1026 35 9656 2.1 160 20:58 14.02.2020
2892 Clear 23 1027 40 9656 2.6 360 20:39 14.02.2020
2893 Clear 22 1027 40 9656 2.6 360 20:19 14.02.2020
2894 Clear 22 1028 40 8047 1.72 319 19:42 14.02.2020
2895 Clear 22 1028 40 8047 1.72 319 19:24 14.02.2020
2896 Clear 19 1029 52 8047 3.1 100 18:59 14.02.2020
2897 Clear 19 1029 52 8047 3.1 100 18:40 14.02.2020
2898 Clear 19 1029 52 8047 3.1 100 18:21 14.02.2020
2899 Clear 17 1029 55 8047 1.5 40 17:56 14.02.2020
2900 Clear 16 1029 62 8047 2.1 80 17:38 14.02.2020
2901 Clear 16 1029 62 8047 2.1 80 17:18 14.02.2020
2902 Clear 14 1029 67 8047 2.1 70 16:42 14.02.2020
2903 Clear 13 1029 76 8047 1.5 90 16:23 14.02.2020
2904 Clear 11 1028 81 8047 2.6 70 15:57 14.02.2020
2905 Clear 10 1028 81 8047 2.6 70 15:39 14.02.2020
2906 Clear 10 1028 81 8047 2.6 70 15:20 14.02.2020
2907 Clouds 10 1028 81 9656 2.1 40 14:59 14.02.2020
2908 Clouds 10 1028 81 9656 2.1 40 14:41 14.02.2020
2909 Clouds 10 1028 81 9656 2.1 40 14:22 14.02.2020
2910 Clouds 7 1027 87 9656 2.6 60 13:56 14.02.2020
2911 Clouds 7 1027 87 9656 2.6 60 13:38 14.02.2020
2912 Clouds 7 1027 87 9656 2.6 60 13:19 14.02.2020
2913 Clouds 8 1027 81 9656 3.1 80 12:56 14.02.2020
2914 Clouds 8 1027 81 9656 3.1 80 12:38 14.02.2020
2915 Clouds 8 1027 81 9656 3.1 80 12:19 14.02.2020
2916 Clouds 9 1026 76 9656 2.6 80 11:55 14.02.2020
2917 Clouds 9 1026 76 9656 2.6 80 11:36 14.02.2020
2918 Clouds 9 1026 76 9656 2.6 80 11:18 14.02.2020
2919 Clear 8 1026 81 11265 2.1 80 10:41 14.02.2020
2920 Clear 8 1026 81 11265 2.1 80 10:22 14.02.2020
2921 Clear 9 1026 76 12874 3.1 80 09:45 14.02.2020
2922 Clear 9 1026 76 12874 3.1 80 09:23 14.02.2020
2923 Clear 10 1027 71 14484 3.1 70 08:57 14.02.2020
2924 Clear 11 1027 67 17702 2.1 120 08:39 14.02.2020
2925 Clear 12 1027 67 17702 2.1 120 08:20 14.02.2020
2926 Clouds 13 1027 58 17702 2.1 100 07:49 14.02.2020
2927 Clouds 13 1027 58 17702 2.1 100 07:29 14.02.2020
2928 Clouds 14 1026 59 17702 2.1 280 06:39 14.02.2020
2929 Clouds 14 1026 59 17702 2.1 280 06:18 14.02.2020
2930 Clear 15 1026 55 17702 5.1 300 05:28 14.02.2020
2931 Clouds 17 1024 52 16093 5.7 30 03:48 14.02.2020
2932 Clouds 18 1024 52 16093 6.7 20 02:56 14.02.2020
2933 Clouds 18 1024 52 16093 6.7 20 02:56 14.02.2020
2934 Clouds 22 1022 26 11265 4.1 190 01:56 14.02.2020
2935 Clouds 23 1021 33 9656 7.7 100 00:45 14.02.2020
2936 Clouds 23 1021 33 9656 7.7 100 00:45 14.02.2020
2937 Clouds 23 1021 33 9656 7.7 100 00:26 14.02.2020
2938 Clouds 23 1022 33 9656 5.1 110 23:56 13.02.2020
2939 Clouds 23 1022 33 9656 5.1 110 23:37 13.02.2020
2940 Clouds 23 1022 33 9656 5.1 110 23:18 13.02.2020
2941 Clouds 24 1022 28 9656 4.1 150 22:39 13.02.2020
2942 Clouds 24 1023 28 11265 2.1 200 22:19 13.02.2020
2943 Clouds 24 1023 28 11265 2.1 200 21:56 13.02.2020
2944 Clouds 24 1023 28 11265 2.1 200 21:37 13.02.2020
2945 Clouds 24 1023 28 11265 2.1 200 21:19 13.02.2020
2946 Clouds 23 1024 30 11265 1.41 136 20:42 13.02.2020
2947 Clouds 23 1024 30 11265 1.19 263 20:22 13.02.2020
2948 Clouds 23 1024 30 11265 1.19 263 20:22 13.02.2020
2949 Clouds 22 1024 30 11265 1.19 263 19:57 13.02.2020
2950 Clouds 22 1024 30 11265 1.19 263 19:57 13.02.2020
2951 Clear 21 1025 34 9656 3.6 40 19:38 13.02.2020
2952 Clear 21 1025 34 9656 3.6 40 19:20 13.02.2020
2953 Clear 20 1026 37 9656 1.5 140 18:57 13.02.2020
2954 Clear 20 1026 37 9656 1.5 140 18:39 13.02.2020
2955 Clear 20 1026 37 9656 1.5 140 18:20 13.02.2020
2956 Clouds 18 1026 39 9656 2.6 100 17:57 13.02.2020
2957 Clouds 18 1026 39 9656 2.6 100 17:37 13.02.2020
2958 Clouds 18 1026 39 9656 2.6 100 17:18 13.02.2020
2959 Clouds 15 1026 44 11265 2.1 50 16:42 13.02.2020
2960 Clouds 15 1026 44 11265 2.1 50 16:20 13.02.2020
2961 Clouds 10 1027 75 8047 0.84 4 15:57 13.02.2020
2962 Clouds 10 1025 62 16093 2.6 70 15:39 13.02.2020
2963 Clouds 10 1025 62 16093 2.6 70 15:19 13.02.2020
2964 Clouds 10 1024 57 14484 2.6 70 14:58 13.02.2020
2965 Clouds 10 1024 57 14484 2.6 70 14:39 13.02.2020
2966 Clouds 10 1024 57 14484 2.6 70 14:21 13.02.2020
2967 Clouds 8 1024 57 16093 1.5 90 13:48 13.02.2020
2968 Clouds 8 1024 57 16093 1.5 90 13:48 13.02.2020
2969 Clouds 8 1024 57 16093 1.5 90 13:19 13.02.2020
2970 Clouds 7 1024 57 16093 2.1 80 12:56 13.02.2020
2971 Clouds 7 1024 57 16093 2.1 80 12:56 13.02.2020
2972 Clouds 7 1024 57 16093 2.1 80 12:38 13.02.2020
2973 Clouds 7 1024 57 16093 2.1 80 12:38 13.02.2020
2974 Clouds 7 1024 57 16093 2.1 80 12:19 13.02.2020
2975 Clouds 10 1024 58 16093 2.1 50 11:47 13.02.2020
2976 Clouds 9 1024 58 16093 2.1 50 11:21 13.02.2020
2977 Clouds 11 1024 50 16093 1 200 10:56 13.02.2020
2978 Clouds 11 1024 50 16093 1 200 10:38 13.02.2020
2979 Clouds 11 1024 50 16093 1 200 10:38 13.02.2020
2980 Clouds 12 1024 47 16093 2.1 200 10:20 13.02.2020
2981 Clouds 12 1024 47 16093 2.1 200 09:41 13.02.2020
2982 Clouds 12 1024 47 16093 2.1 200 09:22 13.02.2020
2983 Clouds 13 1024 44 16093 3.1 140 08:44 13.02.2020
2984 Clouds 13 1024 44 16093 3.1 140 08:19 13.02.2020
2985 Clouds 14 1025 42 16093 2.1 100 07:42 13.02.2020
2986 Clouds 14 1025 42 16093 2.1 100 07:22 13.02.2020
2987 Clouds 14 1025 42 16093 2.1 100 07:22 13.02.2020
2988 Clear 15 1025 42 16093 2.1 100 06:49 13.02.2020
2989 Clear 15 1025 42 16093 2.1 100 06:31 13.02.2020
2990 Clouds 16 1024 39 14484 2.1 150 05:38 13.02.2020
2991 Clouds 16 1024 42 16093 2.6 170 04:28 13.02.2020
2992 Clouds 17 1023 39 16093 4.6 190 03:57 13.02.2020
2993 Clouds 17 1023 39 16093 4.6 190 03:29 13.02.2020
2994 Clouds 20 1022 39 16093 6.2 140 02:55 13.02.2020
2995 Clouds 20 1022 39 16093 6.2 140 02:19 13.02.2020
2996 Clouds 22 1021 28 12874 3.6 190 01:37 13.02.2020
2997 Clouds 24 1021 28 12874 7.7 160 00:44 13.02.2020
2998 Clear 25 1020 20 14484 4.6 250 00:25 13.02.2020
2999 Clear 25 1020 22 12874 7.7 140 23:42 12.02.2020
3000 Clear 25 1020 22 12874 7.7 140 23:23 12.02.2020
3001 Clear 25 1020 20 12874 6.7 110 22:54 12.02.2020
3002 Clear 25 1020 20 12874 6.7 110 22:36 12.02.2020
3003 Clear 25 1020 20 12874 6.7 110 22:18 12.02.2020
3004 Clear 24 1021 23 12874 4.6 70 21:40 12.02.2020
3005 Clear 24 1021 23 12874 4.6 70 21:20 12.02.2020
3006 Clear 24 1021 23 12874 4.6 70 21:20 12.02.2020
3007 Clear 24 1022 22 12874 3.1 150 20:59 12.02.2020
3008 Clear 24 1022 22 12874 3.1 150 20:41 12.02.2020
3009 Clear 24 1022 22 12874 3.1 150 20:41 12.02.2020
3010 Clear 24 1022 22 12874 3.1 150 20:22 12.02.2020
3011 Clear 23 1022 27 12874 3.1 120 19:56 12.02.2020
3012 Clear 22 1024 32 14484 2.6 120 19:37 12.02.2020
3013 Clear 21 1024 32 14484 2.6 120 19:19 12.02.2020
3014 Clear 20 1025 34 16093 2.18 199 18:47 12.02.2020
3015 Clear 20 1025 34 16093 2.18 199 18:19 12.02.2020
3016 Clear 19 1025 34 16093 3.1 220 17:56 12.02.2020
3017 Clear 18 1025 39 16093 2.18 199 17:37 12.02.2020
3018 Clear 18 1025 39 16093 2.12 180 17:19 12.02.2020
3019 Clear 16 1025 51 16093 2.1 70 16:40 12.02.2020
3020 Clear 16 1025 51 16093 2.1 70 16:20 12.02.2020
3021 Clear 14 1025 51 16093 2.12 180 15:57 12.02.2020
3022 Clear 13 1025 51 16093 2.09 178 15:36 12.02.2020
3023 Clear 13 1025 51 16093 2.09 178 15:36 12.02.2020
3024 Clear 13 1025 51 16093 2.09 178 15:18 12.02.2020
3025 Clear 10 1024 58 19312 3.1 250 14:42 12.02.2020
3026 Clear 10 1024 58 19312 3.1 250 14:21 12.02.2020
3027 Clear 10 1023 62 19312 2.6 100 13:58 12.02.2020
3028 Clear 10 1023 62 19312 2.6 100 13:40 12.02.2020
3029 Clear 10 1023 62 19312 2.6 100 13:20 12.02.2020
3030 Clear 10 1023 62 19312 2.6 100 13:20 12.02.2020
3031 Clear 10 1023 62 19312 2.05 155 12:57 12.02.2020
3032 Clear 10 1023 62 19312 2.05 155 12:38 12.02.2020
3033 Clear 10 1023 62 19312 2.05 155 12:18 12.02.2020
3034 Clear 10 1023 62 19312 2.6 90 11:57 12.02.2020
3035 Clear 11 1023 62 19312 2.6 90 11:39 12.02.2020
3036 Clear 11 1023 62 19312 2.6 90 11:20 12.02.2020
3037 Clear 12 1023 58 17702 2.72 161 10:55 12.02.2020
3038 Clear 11 1023 58 17702 2.72 161 10:37 12.02.2020
3039 Clear 11 1023 58 17702 2.72 161 10:19 12.02.2020
3040 Clear 11 1023 58 17702 2.72 161 10:19 12.02.2020
3041 Clear 13 1023 54 17702 2.72 161 09:42 12.02.2020
3042 Clear 13 1023 54 17702 2.72 161 09:42 12.02.2020
3043 Clear 12 1023 54 17702 2.72 161 09:23 12.02.2020
3044 Clear 13 1024 51 19312 2.1 180 08:58 12.02.2020
3045 Clear 13 1024 51 19312 2.1 180 08:58 12.02.2020
3046 Clear 13 1024 51 19312 2.1 180 08:38 12.02.2020
3047 Clear 13 1024 51 19312 2.1 180 08:20 12.02.2020
3048 Clear 13 1024 51 19312 2.1 180 08:20 12.02.2020
3049 Clear 13 1024 51 19312 2.1 180 08:20 12.02.2020
3050 Clear 15 1024 48 19312 3.1 150 07:45 12.02.2020
3051 Clear 15 1024 48 19312 3.1 150 07:24 12.02.2020
3052 Clear 16 1024 45 19312 2.1 170 06:57 12.02.2020
3053 Clear 16 1024 45 19312 2.1 170 06:24 12.02.2020
3054 Clear 17 1024 42 19312 3.1 180 05:44 12.02.2020
3055 Clear 18 1023 37 16093 6.7 150 04:59 12.02.2020
3056 Clear 18 1023 37 16093 6.7 150 04:40 12.02.2020
3057 Clouds 18 1023 37 16093 5.7 140 03:42 12.02.2020
3058 Clouds 18 1023 37 16093 5.7 140 03:23 12.02.2020
3059 Clouds 21 1022 32 14484 7.2 160 02:30 12.02.2020
3060 Clouds 22 1022 30 14484 9.8 160 01:59 12.02.2020
3061 Clouds 27 1021 13 11265 6.2 90 00:46 12.02.2020
3062 Clouds 27 1021 13 11265 6.2 90 00:26 12.02.2020
3063 Clouds 27 1021 19 11265 3.1 210 23:58 11.02.2020
3064 Clouds 27 1021 19 11265 3.1 210 23:40 11.02.2020
3065 Clouds 27 1021 19 11265 3.1 210 23:22 11.02.2020
3066 Clouds 26 1022 22 9656 2.6 10 22:55 11.02.2020
3067 Clouds 26 1022 22 9656 2.6 10 22:37 11.02.2020
3068 Clouds 27 1022 22 9656 2.6 10 22:19 11.02.2020
3069 Clear 26 1024 22 9656 3.1 150 21:56 11.02.2020
3070 Clear 26 1024 22 9656 3.1 150 21:37 11.02.2020
3071 Clear 26 1024 22 9656 3.1 150 21:18 11.02.2020
3072 Clear 25 1025 27 9656 2.1 140 20:54 11.02.2020
3073 Clear 25 1025 27 9656 2.1 140 20:36 11.02.2020
3074 Clear 25 1025 27 9656 2.1 140 20:18 11.02.2020
3075 Clear 24 1026 27 9656 1 330 19:42 11.02.2020
3076 Clear 24 1026 27 9656 1 330 19:24 11.02.2020
3077 Clear 21 1027 35 9656 1.5 120 18:56 11.02.2020
3078 Clear 21 1027 35 9656 1.5 120 18:37 11.02.2020
3079 Clear 21 1027 35 9656 1.5 120 18:19 11.02.2020
3080 Clear 20 1027 40 9656 1.5 110 17:55 11.02.2020
3081 Clear 20 1027 40 9656 1.5 110 17:36 11.02.2020
3082 Clear 20 1027 40 9656 1.5 110 17:18 11.02.2020
3083 Clear 18 1027 42 11265 2.1 110 16:55 11.02.2020
3084 Clear 17 1027 44 12874 2.1 100 16:37 11.02.2020
3085 Clear 17 1027 44 12874 2.1 100 16:19 11.02.2020
3086 Clear 14 1027 48 12874 1.5 80 15:43 11.02.2020
3087 Clear 13 1029 75 11265 0.81 3 15:24 11.02.2020
3088 Clear 12 1026 58 12874 1.5 60 14:54 11.02.2020
3089 Clear 8 1026 58 12874 1.5 60 14:36 11.02.2020
3090 Clear 8 1026 58 12874 1.5 60 14:18 11.02.2020
3091 Clear 9 1026 62 12874 2.1 70 13:41 11.02.2020
3092 Clear 9 1026 62 12874 2.1 70 13:21 11.02.2020
3093 Clear 10 1025 62 12874 3.1 60 12:58 11.02.2020
3094 Clear 9 1025 62 12874 3.1 60 12:39 11.02.2020
3095 Clear 9 1025 62 12874 3.1 60 12:20 11.02.2020
3096 Clear 11 1025 54 12874 1 360 11:41 11.02.2020
3097 Clear 11 1025 54 12874 1 360 11:21 11.02.2020
3098 Clear 12 1026 54 12874 1 80 10:57 11.02.2020
3099 Clear 12 1026 54 12874 1 80 10:38 11.02.2020
3100 Clear 11 1026 54 12874 1 80 10:20 11.02.2020
3101 Clear 13 1026 48 12874 2.1 60 09:55 11.02.2020
3102 Clear 13 1026 48 12874 2.1 60 09:37 11.02.2020
3103 Clear 13 1026 48 12874 2.1 60 09:19 11.02.2020
3104 Clear 15 1027 42 12874 2.1 120 08:44 11.02.2020
3105 Clear 15 1027 42 12874 2.1 120 08:23 11.02.2020
3106 Clear 16 1026 42 12874 1 50 07:48 11.02.2020
3107 Clear 16 1026 42 12874 1 50 07:26 11.02.2020
3108 Clear 17 1026 39 14484 3.1 80 06:44 11.02.2020
3109 Clear 17 1026 39 14484 3.1 80 06:22 11.02.2020
3110 Clear 18 1026 37 14484 2.6 100 05:56 11.02.2020
3111 Clear 18 1026 37 14484 2.6 100 05:24 11.02.2020
3112 Clouds 18 1025 35 16093 3.1 100 04:40 11.02.2020
3113 Clouds 20 1025 33 16093 2.6 140 03:21 11.02.2020
3114 Clouds 22 1023 28 11265 5.1 110 02:32 11.02.2020
3115 Clouds 24 1023 25 11265 5.7 140 01:38 11.02.2020
3116 Clouds 27 1022 19 11265 6.2 100 00:42 11.02.2020
3117 Clouds 27 1022 19 11265 6.2 100 00:20 11.02.2020
3118 Clouds 28 1022 20 11265 3.1 130 23:39 10.02.2020
3119 Clouds 28 1022 20 11265 3.1 130 23:20 10.02.2020
3120 Clear 27 1023 19 11265 4.6 90 22:41 10.02.2020
3121 Clear 27 1023 19 11265 4.6 90 22:20 10.02.2020
3122 Clouds 27 1024 21 11265 2.6 170 21:54 10.02.2020
3123 Clouds 27 1024 21 11265 2.6 170 21:36 10.02.2020
3124 Clouds 27 1024 21 11265 2.6 170 21:18 10.02.2020
3125 Clouds 26 1024 24 11265 2.6 180 20:54 10.02.2020
3126 Clouds 25 1025 27 11265 1 20 20:36 10.02.2020
3127 Clouds 25 1025 27 11265 1 20 20:18 10.02.2020
3128 Clouds 23 1027 31 12874 3.1 80 19:54 10.02.2020
3129 Clouds 23 1027 31 12874 3.1 80 19:36 10.02.2020
3130 Clouds 24 1027 31 12874 3.1 80 19:18 10.02.2020
3131 Clear 22 1028 35 12874 2.1 70 18:41 10.02.2020
3132 Clear 21 1028 35 12874 2.1 70 18:21 10.02.2020
3133 Clear 20 1028 37 12874 1 130 17:58 10.02.2020
3134 Clear 19 1028 42 12874 1 50 17:38 10.02.2020
3135 Clear 18 1028 42 12874 1 50 17:20 10.02.2020
3136 Clear 16 1028 44 14484 2.6 80 16:59 10.02.2020
3137 Clear 15 1028 44 14484 2.6 80 16:40 10.02.2020
3138 Clear 15 1028 44 14484 2.6 80 16:20 10.02.2020
3139 Clear 15 1028 44 14484 2.6 80 16:20 10.02.2020
3140 Clear 12 1027 54 16093 2.1 60 15:56 10.02.2020
3141 Clear 11 1027 54 16093 2.1 60 15:38 10.02.2020
3142 Clear 11 1027 54 16093 2.1 60 15:20 10.02.2020
3143 Clear 11 1027 57 14484 0.67 130 14:56 10.02.2020
3144 Clear 11 1027 57 14484 0.67 130 14:37 10.02.2020
3145 Clear 11 1027 57 14484 0.72 116 14:18 10.02.2020
3146 Clear 7 1027 57 11265 3.1 70 13:43 10.02.2020
3147 Clear 7 1027 57 11265 3.1 70 13:24 10.02.2020
3148 Clear 8 1026 58 11265 0.74 121 12:54 10.02.2020
3149 Clear 8 1026 58 11265 0.74 121 12:36 10.02.2020
3150 Clear 10 1026 58 11265 0.74 121 12:18 10.02.2020
3151 Clear 10 1026 58 16093 1.5 230 11:43 10.02.2020
3152 Clear 10 1026 58 16093 1.5 230 11:20 10.02.2020
3153 Clear 10 1026 58 16093 1.5 230 11:20 10.02.2020
3154 Clear 11 1026 58 19312 2.6 50 10:47 10.02.2020
3155 Clear 11 1026 58 19312 2.6 50 10:28 10.02.2020
3156 Clear 11 1026 58 19312 2.6 50 09:48 10.02.2020
3157 Clear 12 1027 51 19312 1.48 127 09:27 10.02.2020
3158 Clear 13 1027 48 19312 2.1 250 08:58 10.02.2020
3159 Clear 13 1027 48 19312 2.1 250 08:38 10.02.2020
3160 Clear 13 1027 48 19312 2.1 250 08:19 10.02.2020
3161 Clear 15 1027 45 19312 2.07 139 07:51 10.02.2020
3162 Clear 14 1027 45 19312 2.07 139 07:31 10.02.2020
3163 Clear 16 1027 42 19312 3.1 140 06:30 10.02.2020
3164 Clear 18 1026 40 16093 3.1 160 04:47 10.02.2020
3165 Clear 20 1025 40 16093 7.2 160 03:52 10.02.2020
3166 Clear 21 1025 40 16093 5.1 160 02:57 10.02.2020
3167 Clear 21 1024 30 16093 6.2 130 02:35 10.02.2020
3168 Clear 25 1024 25 16093 5.7 110 00:56 10.02.2020
3169 Clear 26 1024 16 16093 2.6 120 00:37 10.02.2020
3170 Clear 24 1024 17 16093 2.6 330 23:58 09.02.2020
3171 Clear 24 1024 17 16093 2.6 330 23:40 09.02.2020
3172 Clear 24 1024 17 16093 2.6 330 23:22 09.02.2020
3173 Clear 25 1025 17 16093 2.6 70 22:43 09.02.2020
3174 Clear 26 1025 17 16093 2.6 70 22:21 09.02.2020
3175 Smoke 26 1026 16 16093 3.1 60 21:45 09.02.2020
3176 Smoke 26 1026 16 16093 3.1 60 21:25 09.02.2020
3177 Clear 25 1026 16 16093 2.6 190 20:59 09.02.2020
3178 Clear 24 1027 16 16093 1 120 20:41 09.02.2020
3179 Clear 23 1027 23 16093 1 120 20:19 09.02.2020
3180 Clear 22 1028 24 16093 1 240 19:40 09.02.2020
3181 Clear 22 1028 24 16093 1 240 19:22 09.02.2020
3182 Clear 22 1029 24 16093 1.69 191 18:59 09.02.2020
3183 Clear 20 1029 28 16093 2.6 90 18:40 09.02.2020
3184 Clear 20 1029 28 16093 2.6 90 18:22 09.02.2020
3185 Clear 19 1029 28 14484 3.1 90 17:43 09.02.2020
3186 Clear 17 1029 38 16093 2.6 60 17:23 09.02.2020
3187 Clear 14 1029 44 16093 2.1 80 16:57 09.02.2020
3188 Clear 14 1029 44 16093 2.1 80 16:38 09.02.2020
3189 Clear 14 1029 44 16093 2.1 80 16:20 09.02.2020
3190 Clear 11 1028 50 19312 2.1 100 15:56 09.02.2020
3191 Clear 11 1028 50 19312 2.1 100 15:38 09.02.2020
3192 Clear 11 1028 50 19312 2.1 100 15:20 09.02.2020
3193 Clear 10 1028 50 16093 1.78 156 14:42 09.02.2020
3194 Clear 9 1028 50 16093 1.78 156 14:23 09.02.2020
3195 Clear 9 1027 46 14484 2.1 170 13:55 09.02.2020
3196 Clear 9 1027 46 14484 2.1 170 13:36 09.02.2020
3197 Clear 8 1027 46 14484 2.1 170 13:18 09.02.2020
3198 Clear 9 1028 50 12874 1.5 220 12:42 09.02.2020
3199 Clear 9 1028 50 12874 1.5 220 12:20 09.02.2020
3200 Clear 12 1028 47 12874 1.5 250 11:56 09.02.2020
3201 Clear 13 1028 47 12874 1.5 250 11:36 09.02.2020
3202 Clear 11 1028 47 12874 1.5 250 11:18 09.02.2020
3203 Clear 11 1028 44 12874 1.5 230 10:42 09.02.2020
3204 Clear 11 1028 44 12874 1.5 230 10:23 09.02.2020
3205 Clear 13 1028 41 12874 1 230 09:56 09.02.2020
3206 Clear 13 1028 41 12874 1 230 09:37 09.02.2020
3207 Clear 13 1028 41 12874 1 230 09:18 09.02.2020
3208 Clear 14 1028 36 14484 1.43 153 08:39 09.02.2020
3209 Clear 14 1028 36 14484 1.58 167 08:20 09.02.2020
3210 Clear 14 1028 36 14484 2.6 170 07:49 09.02.2020
3211 Clear 16 1028 33 14484 3.1 180 06:59 09.02.2020
3212 Clear 15 1028 33 14484 3.1 180 06:36 09.02.2020
3213 Clear 16 1028 37 12874 4.1 130 05:52 09.02.2020
3214 Clear 16 1028 37 12874 4.1 130 05:32 09.02.2020
3215 Clear 17 1027 34 16093 3.6 130 04:23 09.02.2020
3216 Clouds 19 1026 29 16093 5.7 140 02:49 09.02.2020
3217 Clouds 20 1025 34 16093 5.7 150 02:30 09.02.2020
3218 Clouds 22 1024 18 16093 7.2 130 01:36 09.02.2020
3219 Clouds 23 1024 14 16093 5.1 110 00:55 09.02.2020
3220 Clouds 24 1024 14 16093 5.1 110 00:29 09.02.2020
3221 Clouds 25 1024 13 16093 5.1 110 23:48 08.02.2020
3222 Clouds 26 1024 7 16093 2.6 30 23:23 08.02.2020
3223 Clouds 26 1025 6 16093 0.55 355 22:56 08.02.2020
3224 Clouds 26 1025 6 16093 0.55 355 22:38 08.02.2020
3225 Clouds 26 1025 6 16093 0.55 355 22:20 08.02.2020
3226 Clouds 25 1026 6 16093 2.1 140 21:44 08.02.2020
3227 Clouds 25 1026 6 16093 2.1 140 21:25 08.02.2020
3228 Clouds 24 1026 9 12874 2.1 190 20:59 08.02.2020
3229 Clouds 24 1027 12 11265 2.1 110 20:39 08.02.2020
3230 Clouds 23 1027 12 11265 2.1 110 20:19 08.02.2020
3231 Clouds 22 1028 17 11265 2.1 160 19:56 08.02.2020
3232 Clouds 22 1028 17 11265 2.1 160 19:56 08.02.2020
3233 Clouds 22 1028 17 11265 2.1 160 19:38 08.02.2020
3234 Clouds 22 1028 17 11265 2.1 160 19:19 08.02.2020
3235 Clouds 21 1028 19 11265 1.5 210 18:43 08.02.2020
3236 Clouds 20 1029 21 11265 1 150 18:25 08.02.2020
3237 Clouds 19 1029 21 11265 0.91 208 17:58 08.02.2020
3238 Clouds 18 1029 31 11265 1.5 80 17:40 08.02.2020
3239 Clouds 18 1029 31 11265 1.5 80 17:18 08.02.2020
3240 Clouds 15 1029 41 12874 1 50 16:40 08.02.2020
3241 Clouds 15 1029 41 12874 1 50 16:22 08.02.2020
3242 Clear 11 1029 35 12874 2.6 80 15:56 08.02.2020
3243 Clear 11 1029 35 12874 2.6 80 15:56 08.02.2020
3244 Clear 9 1028 45 16093 2.6 70 15:38 08.02.2020
3245 Clear 9 1028 45 16093 2.6 70 15:18 08.02.2020
3246 Clear 9 1027 45 19312 3.1 90 14:43 08.02.2020
3247 Clear 8 1027 45 19312 3.1 90 14:19 08.02.2020
3248 Clouds 8 1026 48 19312 1.56 143 13:55 08.02.2020
3249 Clouds 8 1026 48 19312 1.56 143 13:37 08.02.2020
3250 Clouds 8 1026 47 19312 1.34 141 13:18 08.02.2020
3251 Clouds 8 1026 47 19312 1.34 141 12:39 08.02.2020
3252 Clouds 8 1026 47 19312 1.34 141 12:20 08.02.2020
3253 Clouds 9 1026 43 19312 1.34 141 11:47 08.02.2020
3254 Clouds 9 1026 50 19312 1.81 135 11:22 08.02.2020
3255 Clouds 10 1026 47 19312 1.81 135 10:59 08.02.2020
3256 Clouds 10 1026 47 19312 1.81 135 10:40 08.02.2020
3257 Clouds 10 1026 47 19312 1.81 135 10:20 08.02.2020
3258 Clouds 12 1027 41 19312 1.81 135 09:50 08.02.2020
3259 Clouds 11 1027 41 19312 1.81 135 09:26 08.02.2020
3260 Clouds 13 1027 43 19312 1.81 135 08:47 08.02.2020
3261 Clouds 12 1027 43 19312 1.81 135 08:27 08.02.2020
3262 Clouds 14 1027 41 19312 2.1 140 07:53 08.02.2020
3263 Clouds 14 1027 41 19312 2.1 140 07:34 08.02.2020
3264 Clouds 14 1026 41 19312 2.1 160 06:55 08.02.2020
3265 Clouds 15 1026 41 19312 2.1 160 06:22 08.02.2020
3266 Clouds 15 1026 41 19312 3.1 140 05:34 08.02.2020
3267 Clouds 16 1025 32 16093 3.6 130 04:55 08.02.2020
3268 Clouds 16 1025 32 16093 3.6 130 04:24 08.02.2020
3269 Clouds 18 1024 28 16093 3.1 160 03:38 08.02.2020
3270 Clouds 21 1023 32 14484 5.1 140 02:29 08.02.2020
3271 Clouds 21 1023 32 14484 5.1 140 02:29 08.02.2020
3272 Clouds 22 1022 18 12874 7.7 130 01:34 08.02.2020
3273 Clouds 24 1021 17 16093 9.3 120 00:54 08.02.2020
3274 Clouds 24 1021 17 16093 9.3 120 00:25 08.02.2020
3275 Clouds 25 1021 14 19312 7.7 120 23:58 07.02.2020
3276 Clouds 25 1021 9 19312 4.1 120 23:39 07.02.2020
3277 Clouds 25 1021 9 19312 4.1 120 23:20 07.02.2020
3278 Clouds 26 1021 8 19312 4.1 100 22:42 07.02.2020
3279 Clouds 26 1021 8 19312 4.1 100 22:20 07.02.2020
3280 Clouds 25 1022 7 16093 4.1 100 21:59 07.02.2020
3281 Clouds 25 1022 7 16093 4.1 100 21:40 07.02.2020
3282 Clouds 25 1022 7 16093 4.1 100 21:20 07.02.2020
3283 Clouds 25 1022 7 16093 3.1 130 20:40 07.02.2020
3284 Clouds 24 1023 11 12874 2.1 70 20:21 07.02.2020
3285 Clouds 22 1025 18 11265 1.5 250 19:56 07.02.2020
3286 Clouds 22 1025 18 11265 1.5 250 19:37 07.02.2020
3287 Clouds 20 1025 20 11265 1.5 200 19:18 07.02.2020
3288 Clouds 20 1025 20 11265 1.5 200 18:44 07.02.2020
3289 Clouds 19 1025 27 11265 1.5 110 18:25 07.02.2020
3290 Clouds 18 1025 27 11265 2.1 80 17:55 07.02.2020
3291 Clouds 17 1026 16 11265 1.5 40 17:37 07.02.2020
3292 Clouds 17 1026 28 11265 1.5 40 17:19 07.02.2020
3293 Clouds 15 1026 28 11265 1.22 168 16:46 07.02.2020
3294 Clouds 13 1025 28 11265 2.1 80 16:23 07.02.2020
3295 Clouds 10 1025 40 12874 3.1 90 15:55 07.02.2020
3296 Clouds 9 1024 43 12874 3.1 70 15:28 07.02.2020
3297 Clouds 9 1024 28 12874 1 70 14:56 07.02.2020
3298 Clouds 8 1024 28 12874 1 70 14:38 07.02.2020
3299 Clouds 8 1024 28 12874 1 70 14:38 07.02.2020
3300 Clouds 8 1024 34 12874 1 70 14:19 07.02.2020
3301 Clouds 7 1023 34 12874 3.1 70 13:56 07.02.2020
3302 Clouds 6 1023 34 12874 3.1 70 13:38 07.02.2020
3303 Clouds 6 1023 33 12874 3.1 70 13:19 07.02.2020
3304 Clouds 6 1023 70 11265 3.6 60 12:42 07.02.2020
3305 Clouds 8 1023 62 12874 1.24 141 12:23 07.02.2020
3306 Clouds 10 1023 54 12874 1.24 141 11:45 07.02.2020
3307 Clouds 10 1023 54 12874 1.24 141 11:24 07.02.2020
3308 Clouds 13 1022 54 0 1.71 152 10:58 07.02.2020
3309 Clouds 14 1023 54 0 0.89 170 10:39 07.02.2020
3310 Clouds 14 1023 54 0 0.89 170 10:19 07.02.2020
3311 Clouds 14 1023 54 0 0.89 170 09:41 07.02.2020
3312 Clouds 11 1025 75 11265 1.71 152 09:23 07.02.2020
3313 Clouds 11 1023 54 12874 1 170 08:50 07.02.2020
3314 Clouds 11 1023 54 12874 1 170 08:24 07.02.2020
3315 Clouds 12 1023 51 12874 1.5 100 07:55 07.02.2020
3316 Clouds 12 1023 51 12874 1.5 100 07:33 07.02.2020
3317 Clouds 13 1023 51 12874 3.1 100 06:59 07.02.2020
3318 Clouds 13 1023 51 12874 3.1 100 06:40 07.02.2020
3319 Clouds 13 1023 51 12874 3.1 100 06:19 07.02.2020
3320 Clouds 14 1023 55 14484 4.1 120 05:39 07.02.2020
3321 Clouds 16 1021 48 19312 5.1 120 03:54 07.02.2020
3322 Clouds 19 1020 34 19312 5.1 120 02:23 07.02.2020
3323 Clouds 23 1019 11 19312 5.1 290 01:21 07.02.2020
3324 Clouds 23 1018 9 19312 4.1 260 00:29 07.02.2020
3325 Clouds 23 1019 8 19312 4.6 220 23:39 06.02.2020
3326 Clouds 24 1019 8 19312 4.6 220 23:20 06.02.2020
3327 Clouds 23 1019 8 19312 4.1 330 22:56 06.02.2020
3328 Clouds 23 1019 8 19312 4.1 330 22:38 06.02.2020
3329 Clouds 23 1019 8 19312 4.1 330 22:19 06.02.2020
3330 Clouds 23 1020 7 19312 4.1 260 21:37 06.02.2020
3331 Clouds 23 1020 7 19312 4.1 260 21:19 06.02.2020
3332 Clouds 23 1020 8 19312 5.1 310 20:56 06.02.2020
3333 Clouds 22 1021 8 19312 5.1 220 20:37 06.02.2020
3334 Clouds 22 1021 8 19312 5.1 220 20:18 06.02.2020
3335 Clouds 22 1021 10 19312 4.1 200 19:57 06.02.2020
3336 Clouds 21 1021 10 19312 4.1 200 19:37 06.02.2020
3337 Clouds 21 1021 10 19312 4.1 200 19:19 06.02.2020
3338 Clear 20 1022 12 24140 3.6 190 18:43 06.02.2020
3339 Clear 19 1023 10 24140 4.6 240 18:25 06.02.2020
3340 Clear 18 1023 13 24140 6.2 230 17:59 06.02.2020
3341 Clear 17 1023 13 24140 6.2 230 17:41 06.02.2020
3342 Clear 16 1023 13 24140 6.2 230 17:20 06.02.2020
3343 Clear 16 1024 27 24140 4.6 190 16:43 06.02.2020
3344 Clear 15 1024 27 24140 4.6 190 16:25 06.02.2020
3345 Clear 14 1023 31 24140 2.6 140 15:44 06.02.2020
3346 Clear 13 1023 31 24140 2.6 140 15:24 06.02.2020
3347 Clouds 12 1023 54 22530 3.1 100 14:59 06.02.2020
3348 Clouds 11 1023 54 22530 3.1 100 14:41 06.02.2020
3349 Clouds 11 1023 54 22530 3.1 100 14:22 06.02.2020
3350 Clouds 11 1022 62 24140 3.1 90 13:43 06.02.2020
3351 Clouds 11 1022 62 24140 3.1 90 13:25 06.02.2020
3352 Clouds 13 1021 62 24140 2.6 130 12:45 06.02.2020
3353 Clouds 13 1021 62 24140 2.6 130 12:45 06.02.2020
3354 Clouds 12 1021 62 24140 2.6 130 12:20 06.02.2020
3355 Clouds 13 1022 58 24140 1 180 11:59 06.02.2020
3356 Clouds 13 1022 58 24140 1 180 11:40 06.02.2020
3357 Clouds 13 1022 58 24140 1 180 11:21 06.02.2020
3358 Clouds 13 1022 58 22530 3.66 176 10:58 06.02.2020
3359 Clouds 13 1022 58 22530 3.66 176 10:40 06.02.2020
3360 Clouds 13 1022 58 22530 3.66 176 10:21 06.02.2020
3361 Clouds 13 1022 54 22530 3.66 176 09:57 06.02.2020
3362 Clouds 13 1022 54 22530 3.66 176 09:57 06.02.2020
3363 Clouds 13 1022 54 22530 3.66 176 09:38 06.02.2020
3364 Clouds 13 1022 54 22530 3.66 176 09:19 06.02.2020
3365 Clouds 14 1023 54 22530 3.1 310 08:43 06.02.2020
3366 Clouds 14 1023 54 22530 3.1 310 08:23 06.02.2020
3367 Clouds 15 1023 58 22530 3.6 200 07:54 06.02.2020
3368 Clouds 15 1023 58 22530 3.6 200 07:29 06.02.2020
3369 Clouds 14 1023 54 19312 3.6 120 06:47 06.02.2020
3370 Clouds 14 1023 54 19312 3.6 120 06:19 06.02.2020
3371 Clouds 14 1023 54 19312 3.1 180 05:24 06.02.2020
3372 Clouds 14 1022 62 16093 2.1 150 03:47 06.02.2020
3373 Rain 16 1022 55 16093 4.1 220 02:58 06.02.2020
3374 Clouds 16 1021 59 17702 5.1 200 01:45 06.02.2020
3375 Clouds 17 1021 45 19312 5.1 210 00:59 06.02.2020
3376 Clouds 18 1021 45 19312 5.1 210 00:28 06.02.2020
3377 Clouds 19 1021 48 19312 7.2 180 23:55 05.02.2020
3378 Clouds 19 1021 48 19312 7.2 180 23:55 05.02.2020
3379 Clouds 19 1021 48 19312 7.2 180 23:36 05.02.2020
3380 Clouds 19 1021 48 19312 7.2 180 23:18 05.02.2020
3381 Clouds 19 1021 35 19312 7.2 200 22:40 05.02.2020
3382 Clouds 20 1021 35 19312 7.2 200 22:22 05.02.2020
3383 Clouds 21 1022 35 19312 10.3 220 21:57 05.02.2020
3384 Clouds 21 1022 35 19312 10.3 220 21:39 05.02.2020
3385 Clouds 21 1022 35 19312 10.3 220 21:20 05.02.2020
3386 Clouds 19 1023 42 19312 5.1 190 20:39 05.02.2020
3387 Clouds 19 1023 42 19312 5.1 190 20:20 05.02.2020
3388 Clouds 18 1024 52 19312 7.7 140 19:59 05.02.2020
3389 Clouds 18 1024 52 19312 7.7 140 19:40 05.02.2020
3390 Clouds 18 1024 52 19312 7.7 140 19:19 05.02.2020
3391 Clouds 17 1025 48 19312 5.1 170 18:56 05.02.2020
3392 Clouds 17 1025 48 19312 5.1 170 18:38 05.02.2020
3393 Clouds 18 1025 48 19312 5.1 170 18:19 05.02.2020
3394 Clouds 17 1025 51 19312 6.7 170 17:38 05.02.2020
3395 Clouds 17 1025 51 19312 6.7 170 17:20 05.02.2020
3396 Clouds 15 1026 81 8047 5.1 120 16:57 05.02.2020
3397 Clouds 15 1026 81 8047 5.1 120 16:39 05.02.2020
3398 Clouds 15 1026 81 8047 5.1 120 16:20 05.02.2020
3399 Clouds 15 1024 58 19312 5.7 140 15:46 05.02.2020
3400 Clouds 15 1024 58 19312 5.7 140 15:20 05.02.2020
3401 Clouds 15 1023 58 16093 6.2 140 14:58 05.02.2020
3402 Clouds 15 1023 58 16093 6.2 140 14:39 05.02.2020
3403 Clouds 14 1023 58 16093 6.2 140 14:21 05.02.2020
3404 Clouds 13 1023 58 16093 5.1 160 13:43 05.02.2020
3405 Clouds 13 1023 58 16093 5.1 160 13:22 05.02.2020
3406 Clouds 14 1023 58 16093 2.6 200 12:57 05.02.2020
3407 Clouds 14 1023 58 16093 2.6 200 12:36 05.02.2020
3408 Clouds 13 1023 58 16093 2.6 200 12:18 05.02.2020
3409 Clouds 13 1023 58 16093 2.6 200 12:18 05.02.2020
3410 Clouds 12 1025 87 11265 2.95 170 11:41 05.02.2020
3411 Clouds 12 1025 87 11265 3 178 11:22 05.02.2020
3412 Clouds 13 1024 58 16093 2.6 210 10:44 05.02.2020
3413 Clouds 13 1024 58 16093 2.6 210 10:26 05.02.2020
3414 Clouds 15 1025 58 16093 3.1 200 09:59 05.02.2020
3415 Clouds 15 1025 58 16093 3.1 200 09:39 05.02.2020
3416 Clouds 15 1025 58 16093 3.1 200 09:39 05.02.2020
3417 Clouds 14 1025 58 16093 3.1 200 09:21 05.02.2020
3418 Clouds 13 1025 55 16093 4.1 170 08:46 05.02.2020
3419 Clouds 13 1025 55 16093 4.1 170 08:25 05.02.2020
3420 Clouds 14 1025 51 16093 5.1 160 07:57 05.02.2020
3421 Clouds 14 1025 51 16093 5.1 160 07:57 05.02.2020
3422 Clouds 13 1025 51 16093 5.1 160 07:37 05.02.2020
3423 Clouds 14 1026 51 16093 4.1 170 06:58 05.02.2020
3424 Clouds 14 1026 51 16093 4.1 170 06:39 05.02.2020
3425 Clouds 13 1026 51 16093 4.1 170 06:19 05.02.2020
3426 Clouds 16 1025 51 16093 6.2 130 05:20 05.02.2020
3427 Clouds 15 1025 48 16093 6.2 170 04:54 05.02.2020
3428 Clouds 17 1025 45 16093 3.6 180 03:58 05.02.2020
3429 Clouds 18 1024 37 16093 6.2 200 02:39 05.02.2020
3430 Clouds 18 1024 37 16093 6.2 200 02:19 05.02.2020
3431 Clouds 19 1023 34 16093 6.2 210 01:25 05.02.2020
3432 Clouds 21 1023 37 19312 6.7 160 00:21 05.02.2020
3433 Clouds 22 1023 37 19312 7.7 140 23:40 04.02.2020
3434 Clouds 22 1023 37 19312 7.7 140 23:19 04.02.2020
3435 Clouds 22 1023 37 19312 7.7 140 23:19 04.02.2020
3436 Clouds 21 1024 40 19312 6.2 180 22:57 04.02.2020
3437 Clouds 21 1024 40 19312 6.2 180 22:39 04.02.2020
3438 Clouds 21 1024 40 19312 6.2 180 22:20 04.02.2020
3439 Clouds 22 1024 24 19312 9.3 240 21:54 04.02.2020
3440 Clouds 22 1024 24 19312 9.3 240 21:36 04.02.2020
3441 Clouds 22 1024 24 19312 9.3 240 21:18 04.02.2020
3442 Clouds 23 1025 27 19312 4.1 250 20:44 04.02.2020
3443 Clouds 23 1025 27 19312 4.1 250 20:21 04.02.2020
3444 Clouds 22 1025 27 19312 6.2 240 19:59 04.02.2020
3445 Clouds 22 1026 37 19312 3.6 180 19:40 04.02.2020
3446 Clouds 21 1026 37 19312 3.6 180 19:22 04.02.2020
3447 Clouds 20 1027 37 19312 3.6 170 18:56 04.02.2020
3448 Clouds 20 1027 39 19312 5.7 160 18:38 04.02.2020
3449 Clouds 19 1027 39 19312 5.7 160 18:19 04.02.2020
3450 Clouds 18 1027 42 19312 7.7 150 17:43 04.02.2020
3451 Clouds 18 1027 42 19312 7.7 150 17:21 04.02.2020
3452 Clouds 17 1027 42 19312 5.1 150 16:57 04.02.2020
3453 Clouds 17 1027 48 19312 6.2 150 16:38 04.02.2020
3454 Clouds 16 1027 48 19312 6.2 150 16:19 04.02.2020
3455 Clouds 14 1026 54 19312 4.6 140 15:56 04.02.2020
3456 Clouds 14 1026 54 19312 4.6 140 15:56 04.02.2020
3457 Clouds 14 1026 54 19312 4.6 140 15:38 04.02.2020
3458 Clouds 13 1026 54 19312 4.6 140 15:19 04.02.2020
3459 Clouds 14 1026 51 19312 5.1 140 14:42 04.02.2020
3460 Clouds 13 1026 51 19312 5.1 140 14:23 04.02.2020
3461 Clouds 12 1026 58 24140 3.6 140 13:57 04.02.2020
3462 Clouds 11 1026 58 24140 3.6 140 13:39 04.02.2020
3463 Clouds 11 1026 58 24140 3.6 140 13:20 04.02.2020
3464 Clouds 11 1026 62 24140 2.69 173 12:44 04.02.2020
3465 Clouds 11 1026 62 24140 2.69 173 12:26 04.02.2020
3466 Clouds 11 1026 62 24140 2.1 70 11:58 04.02.2020
3467 Clouds 11 1026 62 24140 2.1 70 11:39 04.02.2020
3468 Clouds 11 1026 62 24140 2.1 70 11:21 04.02.2020
3469 Clouds 11 1028 70 11265 2.93 173 10:55 04.02.2020
3470 Clouds 11 1028 70 11265 2.93 173 10:36 04.02.2020
3471 Clouds 11 1028 70 11265 2.93 173 10:36 04.02.2020
3472 Clouds 11 1028 70 11265 2.93 173 10:18 04.02.2020
3473 Clouds 12 1027 62 17702 2.93 173 09:40 04.02.2020
3474 Clouds 12 1027 62 17702 2.93 173 09:22 04.02.2020
3475 Clouds 13 1028 58 19312 2.1 130 08:50 04.02.2020
3476 Clouds 13 1028 58 19312 2.1 130 08:50 04.02.2020
3477 Clouds 13 1028 58 19312 2.1 130 08:28 04.02.2020
3478 Clouds 13 1028 58 19312 3.1 50 07:57 04.02.2020
3479 Clouds 13 1028 58 19312 3.1 50 07:39 04.02.2020
3480 Clouds 13 1028 58 19312 3.1 50 07:21 04.02.2020
3481 Clouds 14 1029 54 19312 2.1 180 06:42 04.02.2020
3482 Clouds 14 1028 54 19312 5.1 190 05:37 04.02.2020
3483 Clouds 15 1028 51 19312 4.1 180 04:55 04.02.2020
3484 Clouds 15 1027 51 19312 4.1 180 03:49 04.02.2020
3485 Clouds 15 1027 51 19312 4.1 180 03:31 04.02.2020
3486 Clouds 17 1026 48 19312 5.1 200 02:51 04.02.2020
3487 Clouds 17 1026 48 19312 5.1 200 02:28 04.02.2020
3488 Clouds 18 1025 45 19312 6.2 220 01:48 04.02.2020
3489 Clouds 18 1025 45 19312 6.2 220 01:21 04.02.2020
3490 Clouds 19 1025 42 19312 5.1 180 00:25 04.02.2020
3491 Clouds 20 1025 37 19312 6.2 170 23:57 03.02.2020
3492 Clouds 20 1025 37 19312 6.2 170 23:38 03.02.2020
3493 Clouds 20 1025 37 19312 6.2 170 23:19 03.02.2020
3494 Clouds 21 1025 32 19312 5.1 180 22:39 03.02.2020
3495 Clouds 21 1025 32 19312 5.1 180 22:20 03.02.2020
3496 Clouds 21 1026 32 19312 7.2 180 21:43 03.02.2020
3497 Clouds 21 1026 32 19312 7.2 180 21:20 03.02.2020
3498 Clouds 21 1026 30 19312 8.2 220 20:57 03.02.2020
3499 Clouds 21 1026 30 19312 8.2 220 20:57 03.02.2020
3500 Clouds 21 1027 32 19312 7.7 160 20:39 03.02.2020
3501 Clouds 21 1027 32 19312 7.7 160 20:18 03.02.2020
3502 Clouds 21 1027 37 19312 5.1 200 19:56 03.02.2020
3503 Clouds 21 1027 37 19312 5.1 200 19:37 03.02.2020
3504 Clouds 21 1027 37 19312 5.1 200 19:37 03.02.2020
3505 Clouds 21 1027 37 19312 5.1 200 19:18 03.02.2020
3506 Clouds 21 1027 37 19312 5.1 200 18:42 03.02.2020
3507 Clouds 21 1027 37 19312 5.1 200 18:22 03.02.2020
3508 Clouds 20 1027 40 19312 6.2 210 17:58 03.02.2020
3509 Clouds 19 1027 45 19312 6.2 190 17:39 03.02.2020
3510 Clouds 18 1027 45 19312 6.2 190 17:20 03.02.2020
3511 Clouds 16 1026 48 19312 6.2 140 16:40 03.02.2020
3512 Clouds 16 1026 48 19312 6.2 140 16:22 03.02.2020
3513 Clouds 15 1026 51 16093 4.1 170 15:59 03.02.2020
3514 Clouds 14 1026 51 16093 4.1 170 15:40 03.02.2020
3515 Clouds 14 1026 51 16093 4.1 170 15:20 03.02.2020
3516 Clouds 13 1028 75 11265 4.6 140 14:58 03.02.2020
3517 Clouds 13 1028 75 11265 4.6 140 14:58 03.02.2020
3518 Clouds 13 1026 54 16093 3.1 160 14:39 03.02.2020
3519 Clouds 12 1026 54 16093 3.1 160 14:21 03.02.2020
3520 Clouds 13 1025 51 16093 5.1 190 13:43 03.02.2020
3521 Clouds 13 1025 51 16093 5.1 190 13:21 03.02.2020
3522 Clouds 13 1025 54 14484 4.1 160 12:59 03.02.2020
3523 Clouds 12 1025 54 14484 4.1 160 12:40 03.02.2020
3524 Clouds 12 1025 54 14484 4.1 160 12:21 03.02.2020
3525 Clouds 12 1025 50 14484 3.6 140 11:57 03.02.2020
3526 Clouds 11 1025 50 14484 3.6 140 11:37 03.02.2020
3527 Clouds 11 1025 50 14484 3.6 140 11:18 03.02.2020
3528 Clouds 11 1026 54 12874 1 70 10:41 03.02.2020
3529 Clouds 11 1026 54 12874 1 70 10:23 03.02.2020
3530 Clouds 12 1026 54 12874 1.5 70 09:48 03.02.2020
3531 Clouds 11 1026 54 12874 1.5 70 09:25 03.02.2020
3532 Clouds 12 1027 54 12874 2.6 100 08:57 03.02.2020
3533 Clouds 12 1027 54 12874 2.6 100 08:39 03.02.2020
3534 Clouds 12 1027 54 12874 2.6 100 08:21 03.02.2020
3535 Clouds 13 1027 47 14484 3.1 60 07:41 03.02.2020
3536 Clouds 13 1027 47 14484 3.1 60 07:21 03.02.2020
3537 Clouds 13 1027 47 14484 3.1 60 07:21 03.02.2020
3538 Clouds 14 1027 47 14484 2.6 60 06:51 03.02.2020
3539 Clouds 15 1027 42 12874 3.1 280 06:30 03.02.2020
3540 Clouds 15 1027 42 12874 3.6 260 05:37 03.02.2020
3541 Clouds 14 1027 42 12874 3.6 260 05:18 03.02.2020
3542 Clouds 17 1026 44 12874 3.6 170 03:51 03.02.2020
3543 Clouds 19 1025 30 11265 4.1 210 02:36 03.02.2020
3544 Clouds 20 1025 28 8047 1.5 190 01:42 03.02.2020
3545 Clouds 21 1025 32 8047 1.5 140 00:47 03.02.2020
3546 Clouds 21 1025 32 8047 1.5 140 00:25 03.02.2020
3547 Clouds 21 1025 32 8047 2.6 150 23:39 02.02.2020
3548 Clouds 22 1025 32 8047 2.6 150 23:21 02.02.2020
3549 Clouds 21 1025 34 8047 2.1 190 22:58 02.02.2020
3550 Clouds 21 1025 34 8047 2.1 190 22:38 02.02.2020
3551 Clouds 21 1025 34 8047 2.1 190 22:38 02.02.2020
3552 Clouds 21 1025 34 8047 2.1 190 22:20 02.02.2020
3553 Clouds 21 1026 35 8047 2.1 160 21:55 02.02.2020
3554 Clouds 21 1026 35 8047 2.1 160 21:37 02.02.2020
3555 Clouds 21 1026 35 8047 2.1 160 21:19 02.02.2020
3556 Clouds 21 1028 40 8047 1.5 20 20:55 02.02.2020
3557 Clouds 21 1028 40 8047 1.5 20 20:37 02.02.2020
3558 Clouds 21 1028 40 8047 1.5 20 20:19 02.02.2020
3559 Clouds 20 1029 42 8047 2.1 150 19:55 02.02.2020
3560 Clouds 19 1029 48 9656 2.6 100 19:37 02.02.2020
3561 Clouds 19 1029 48 9656 2.6 100 19:18 02.02.2020
3562 Clouds 17 1030 51 9656 1.5 130 18:39 02.02.2020
3563 Clouds 17 1030 51 9656 1.5 130 18:21 02.02.2020
3564 Clouds 14 1031 58 9656 1.5 60 17:58 02.02.2020
3565 Clouds 14 1032 66 9656 2.1 80 17:38 02.02.2020
3566 Clouds 13 1032 66 9656 2.1 80 17:19 02.02.2020
3567 Clouds 12 1032 76 9656 2.6 70 16:58 02.02.2020
3568 Clouds 11 1032 76 9656 2.6 70 16:39 02.02.2020
3569 Clouds 11 1032 76 9656 2.6 70 16:19 02.02.2020
3570 Clouds 10 1031 81 11265 3.6 70 15:59 02.02.2020
3571 Clouds 10 1031 81 11265 3.6 70 15:39 02.02.2020
3572 Clouds 10 1031 81 11265 3.6 70 15:20 02.02.2020
3573 Clouds 10 1031 81 11265 3.6 70 15:20 02.02.2020
3574 Clouds 10 1031 81 11265 3.6 70 15:20 02.02.2020
3575 Clouds 10 1031 76 12874 2.6 80 14:56 02.02.2020
3576 Clouds 10 1031 76 12874 2.6 80 14:38 02.02.2020
3577 Clouds 10 1031 76 12874 2.6 80 14:18 02.02.2020
3578 Clouds 9 1030 71 16093 2.1 70 13:54 02.02.2020
3579 Clouds 9 1030 71 16093 2.1 70 13:36 02.02.2020
3580 Clouds 9 1030 71 16093 2.1 70 13:18 02.02.2020
3581 Clouds 9 1030 76 16093 2.6 80 12:42 02.02.2020
3582 Clouds 9 1030 76 16093 2.6 80 12:22 02.02.2020
3583 Clouds 10 1030 76 16093 2.6 70 11:56 02.02.2020
3584 Clouds 9 1030 76 16093 2.6 70 11:37 02.02.2020
3585 Clouds 9 1030 76 16093 2.6 70 11:18 02.02.2020
3586 Clouds 9 1030 76 16093 2.6 70 11:18 02.02.2020
3587 Clouds 9 1030 76 14484 4.1 80 10:55 02.02.2020
3588 Clouds 9 1030 76 14484 4.1 80 10:55 02.02.2020
3589 Clouds 9 1030 76 14484 4.1 80 10:36 02.02.2020
3590 Clouds 9 1030 76 14484 4.1 80 10:18 02.02.2020
3591 Clouds 10 1031 71 16093 3.1 70 09:40 02.02.2020
3592 Clouds 10 1031 71 16093 3.1 70 09:21 02.02.2020
3593 Clouds 11 1031 66 17702 2.1 80 08:56 02.02.2020
3594 Clouds 11 1031 66 17702 2.1 80 08:38 02.02.2020
3595 Clouds 11 1031 66 17702 2.1 80 08:19 02.02.2020
3596 Clouds 12 1031 62 17702 2.1 310 07:44 02.02.2020
3597 Clouds 12 1031 62 17702 2.1 310 07:25 02.02.2020
3598 Clouds 13 1032 58 16093 3.6 290 06:38 02.02.2020
3599 Clouds 13 1032 58 16093 3.6 290 06:19 02.02.2020
3600 Clouds 13 1031 58 16093 4.1 290 05:23 02.02.2020
3601 Clouds 14 1030 54 16093 4.1 310 04:30 02.02.2020
3602 Clouds 13 1024 68 0 3.17 349 03:24 02.02.2020
3603 Clouds 18 1028 48 9656 5.1 310 02:22 02.02.2020
3604 Clouds 18 1028 48 9656 5.1 310 01:51 02.02.2020
3605 Clouds 21 1026 32 9656 6.7 150 00:56 02.02.2020
3606 Clouds 21 1026 32 9656 6.7 150 00:37 02.02.2020
3607 Clouds 22 1026 32 9656 6.7 150 00:18 02.02.2020
3608 Clouds 23 1026 30 9656 3.6 100 23:41 01.02.2020
3609 Clouds 23 1026 30 9656 3.6 100 23:21 01.02.2020
3610 Clouds 21 1026 32 9656 1.02 287 22:44 01.02.2020
3611 Clouds 21 1026 32 9656 1.02 287 22:19 01.02.2020
3612 Clouds 21 1027 35 9656 2.1 260 21:42 01.02.2020
3613 Clouds 21 1027 35 9656 2.1 260 21:19 01.02.2020
3614 Clouds 21 1027 35 9656 2.1 250 20:56 01.02.2020
3615 Clouds 21 1028 39 9656 2.6 10 20:38 01.02.2020
3616 Clouds 21 1028 39 9656 2.6 10 20:19 01.02.2020
3617 Clouds 20 1029 42 9656 1.5 0 19:56 01.02.2020
3618 Clouds 20 1029 42 9656 1.5 0 19:37 01.02.2020
3619 Clouds 19 1030 45 8047 2.6 40 19:18 01.02.2020
3620 Clouds 18 1030 45 8047 2.6 40 18:55 01.02.2020
3621 Clouds 19 1030 45 8047 2.6 40 18:37 01.02.2020
3622 Clouds 19 1030 45 8047 2.6 40 18:18 01.02.2020
3623 Clouds 17 1030 51 8047 1 50 17:54 01.02.2020
3624 Clouds 17 1030 51 8047 1 50 17:36 01.02.2020
3625 Clouds 18 1030 51 8047 1 50 17:18 01.02.2020
3626 Clouds 18 1030 51 8047 1 50 17:18 01.02.2020
3627 Clouds 14 1030 66 8047 3.1 260 16:39 01.02.2020
3628 Clouds 14 1030 66 8047 3.1 260 16:39 01.02.2020
3629 Clouds 14 1030 66 8047 3.1 260 16:21 01.02.2020
3630 Clouds 14 1030 66 8047 3.1 260 16:21 01.02.2020
3631 Clouds 11 1029 71 9656 2.6 100 15:47 01.02.2020
3632 Clouds 11 1029 71 9656 2.6 100 15:29 01.02.2020
3633 Clouds 10 1028 71 12874 2.6 90 14:59 01.02.2020
3634 Clouds 10 1028 71 12874 2.6 90 14:59 01.02.2020
3635 Clouds 10 1028 71 12874 2.6 90 14:39 01.02.2020
3636 Clouds 10 1028 71 12874 2.6 90 14:20 01.02.2020
3637 Clouds 9 1027 57 14484 1.5 90 13:45 01.02.2020
3638 Clouds 8 1027 57 14484 1.5 90 13:22 01.02.2020
3639 Clouds 8 1027 57 14484 1.5 90 13:22 01.02.2020
3640 Clouds 9 1026 62 14484 3.1 50 12:46 01.02.2020
3641 Clouds 9 1026 62 14484 3.1 50 12:28 01.02.2020
3642 Clouds 10 1026 58 16093 3.1 60 11:58 01.02.2020
3643 Clouds 10 1026 58 16093 3.1 60 11:38 01.02.2020
3644 Clouds 10 1026 58 16093 3.1 60 11:19 01.02.2020
3645 Clouds 12 1026 50 16093 0.75 19 10:56 01.02.2020
3646 Clouds 12 1026 50 16093 0.75 19 10:38 01.02.2020
3647 Clouds 12 1026 50 16093 0.75 19 10:20 01.02.2020
3648 Clouds 12 1027 47 16093 0.75 19 09:54 01.02.2020
3649 Clouds 12 1027 47 16093 0.75 19 09:36 01.02.2020
3650 Clouds 11 1027 47 16093 0.75 19 09:18 01.02.2020
3651 Clouds 12 1027 47 16093 2.6 260 08:40 01.02.2020
3652 Clouds 14 1027 41 16093 3.6 300 07:48 01.02.2020
3653 Clouds 14 1027 41 16093 3.6 300 07:25 01.02.2020
3654 Clouds 14 1027 41 16093 3.6 300 07:25 01.02.2020
3655 Clouds 13 1027 39 16093 2.6 230 06:54 01.02.2020
3656 Clouds 13 1027 39 16093 2.6 230 06:54 01.02.2020
3657 Clouds 13 1027 39 16093 2.6 230 06:31 01.02.2020
3658 Clouds 14 1026 42 16093 3.1 210 05:51 01.02.2020
3659 Clouds 16 1025 39 16093 4.1 190 03:43 01.02.2020
3660 Clouds 17 1025 39 16093 4.1 190 03:20 01.02.2020
3661 Clouds 18 1024 39 16093 4.1 200 02:43 01.02.2020
3662 Clouds 18 1024 39 16093 4.1 200 02:24 01.02.2020
3663 Clouds 19 1024 36 16093 5.7 210 01:49 01.02.2020
3664 Clouds 20 1023 32 16093 5.1 190 01:30 01.02.2020
3665 Clouds 21 1022 32 19312 7.7 110 00:27 01.02.2020
3666 Clouds 21 1021 32 19312 4.6 140 23:43 31.01.2020
3667 Clouds 21 1021 27 19312 4.6 140 23:20 31.01.2020
3668 Clouds 22 1022 27 19312 2.6 90 22:58 31.01.2020
3669 Clouds 22 1022 27 19312 2.6 90 22:40 31.01.2020
3670 Clouds 22 1022 27 19312 2.6 90 22:21 31.01.2020
3671 Clouds 23 1022 27 16093 4.1 80 21:55 31.01.2020
3672 Clouds 23 1022 27 16093 4.1 80 21:37 31.01.2020
3673 Clouds 23 1022 27 16093 4.1 80 21:37 31.01.2020
3674 Clouds 23 1022 27 16093 4.1 80 21:19 31.01.2020
3675 Clouds 22 1024 21 19312 3.1 150 20:56 31.01.2020
3676 Clouds 22 1024 21 19312 3.1 150 20:37 31.01.2020
3677 Clouds 23 1024 21 19312 3.1 150 20:18 31.01.2020
3678 Clouds 21 1025 22 19312 2.6 180 19:55 31.01.2020
3679 Clouds 21 1025 22 19312 2.6 180 19:36 31.01.2020
3680 Clouds 21 1025 22 19312 2.6 180 19:18 31.01.2020
3681 Clouds 21 1025 22 19312 2.6 200 18:40 31.01.2020
3682 Clouds 20 1026 28 19312 2.1 130 18:22 31.01.2020
3683 Clouds 19 1026 28 19312 1.5 30 17:46 31.01.2020
3684 Clouds 17 1026 28 19312 1 80 17:28 31.01.2020
3685 Clouds 14 1026 31 19312 1.5 200 16:58 31.01.2020
3686 Clouds 14 1026 31 19312 1.5 200 16:39 31.01.2020
3687 Clouds 14 1026 31 19312 1.5 200 16:19 31.01.2020
3688 Clouds 13 1025 41 19312 1.5 200 15:58 31.01.2020
3689 Clouds 13 1025 41 19312 1.5 200 15:58 31.01.2020
3690 Clouds 13 1025 41 19312 1.5 200 15:40 31.01.2020
3691 Clouds 13 1025 41 19312 1.5 200 15:20 31.01.2020
3692 Clouds 11 1024 46 24140 2.6 210 14:44 31.01.2020
3693 Clouds 10 1024 46 24140 2.6 210 14:24 31.01.2020
3694 Clouds 10 1024 26 24140 2.1 130 13:56 31.01.2020
3695 Clouds 10 1024 26 24140 2.1 130 13:38 31.01.2020
3696 Clouds 9 1024 30 24140 2.1 130 13:20 31.01.2020
3697 Clouds 11 1023 40 24140 2.1 260 12:45 31.01.2020
3698 Clouds 10 1023 40 24140 2.1 260 12:24 31.01.2020
3699 Clouds 11 1023 37 24140 2.1 140 11:55 31.01.2020
3700 Clouds 11 1023 37 24140 2.1 140 11:37 31.01.2020
3701 Clouds 11 1023 37 24140 2.1 140 11:19 31.01.2020
3702 Clouds 11 1023 37 19312 3.1 150 10:43 31.01.2020
3703 Clouds 11 1023 37 19312 3.1 150 10:23 31.01.2020
3704 Clouds 11 1023 37 19312 3.1 150 10:23 31.01.2020
3705 Clouds 12 1024 37 19312 4.1 120 09:58 31.01.2020
3706 Clouds 12 1024 37 19312 4.1 120 09:39 31.01.2020
3707 Clouds 11 1024 37 19312 4.1 120 09:19 31.01.2020
3708 Clouds 12 1024 37 19312 3.6 110 08:54 31.01.2020
3709 Clouds 13 1024 33 19312 3.1 280 08:28 31.01.2020
3710 Clouds 14 1025 31 19312 3.6 260 07:58 31.01.2020
3711 Clouds 13 1025 31 19312 3.6 260 07:39 31.01.2020
3712 Clouds 13 1025 31 19312 3.6 260 07:18 31.01.2020
3713 Clouds 14 1024 26 19312 5.1 280 06:27 31.01.2020
3714 Clouds 14 1024 26 19312 5.1 280 06:27 31.01.2020
3715 Clouds 14 1025 21 19312 5.1 260 05:50 31.01.2020
3716 Clouds 14 1024 21 16093 2.1 290 04:57 31.01.2020
3717 Clouds 16 1024 27 16093 3.1 230 03:26 31.01.2020
3718 Clouds 19 1022 22 19312 5.1 250 01:40 31.01.2020
3719 Clouds 20 1022 20 19312 6.2 250 00:46 31.01.2020
3720 Clouds 20 1022 20 19312 6.2 250 00:27 31.01.2020
3721 Clouds 21 1021 19 19312 7.7 260 23:57 30.01.2020
3722 Clouds 21 1021 19 19312 7.7 260 23:26 30.01.2020
3723 Clouds 22 1021 21 19312 6.7 240 22:58 30.01.2020
3724 Clouds 22 1021 21 19312 6.7 240 22:37 30.01.2020
3725 Clouds 22 1021 21 19312 6.7 240 22:37 30.01.2020
3726 Clouds 22 1021 21 19312 6.7 240 22:18 30.01.2020
3727 Clouds 20 1021 21 19312 7.7 270 21:57 30.01.2020
3728 Clouds 20 1022 17 19312 7.2 240 21:38 30.01.2020
3729 Clouds 22 1022 17 19312 7.2 240 21:18 30.01.2020
3730 Clouds 22 1022 17 19312 7.2 240 21:18 30.01.2020
3731 Clouds 21 1022 17 19312 7.2 240 21:18 30.01.2020
3732 Clouds 21 1022 18 19312 5.1 280 20:41 30.01.2020
3733 Clouds 21 1022 18 19312 5.1 280 20:22 30.01.2020
3734 Clouds 21 1022 18 19312 5.1 280 20:22 30.01.2020
3735 Clouds 21 1022 18 19312 5.1 280 20:22 30.01.2020
3736 Clouds 20 1023 20 19312 4.6 90 19:57 30.01.2020
3737 Clouds 20 1023 20 19312 4.6 90 19:39 30.01.2020
3738 Clouds 20 1023 20 19312 4.6 90 19:19 30.01.2020
3739 Clouds 19 1024 23 19312 4.6 110 18:42 30.01.2020
3740 Clouds 18 1024 23 19312 4.6 110 18:23 30.01.2020
3741 Clouds 16 1025 21 19312 3.1 180 17:58 30.01.2020
3742 Clouds 16 1025 21 19312 3.1 180 17:39 30.01.2020
3743 Clouds 16 1025 21 19312 3.1 180 17:19 30.01.2020
3744 Clouds 16 1025 21 19312 3.1 180 17:19 30.01.2020
3745 Smoke 14 1027 52 9656 3.52 169 16:58 30.01.2020
3746 Clouds 14 1024 25 19312 2.1 180 16:38 30.01.2020
3747 Clouds 13 1024 25 19312 2.1 180 16:20 30.01.2020
3748 Clouds 13 1025 25 19312 2.1 180 15:44 30.01.2020
3749 Clouds 11 1026 65 8047 1 80 15:20 30.01.2020
3750 Clouds 10 1023 37 19312 2.1 120 14:50 30.01.2020
3751 Clouds 8 1023 37 19312 2.1 120 14:27 30.01.2020
3752 Clouds 9 1022 37 16093 2.6 130 13:58 30.01.2020
3753 Clouds 9 1022 37 16093 2.6 130 13:38 30.01.2020
3754 Clouds 9 1022 37 16093 2.6 130 13:20 30.01.2020
3755 Clouds 9 1023 40 16093 1.5 150 12:43 30.01.2020
3756 Clouds 9 1023 40 16093 1.5 150 12:25 30.01.2020
3757 Clouds 10 1023 40 16093 2.1 100 11:59 30.01.2020
3758 Clouds 9 1023 40 16093 2.1 100 11:40 30.01.2020
3759 Clouds 9 1023 40 16093 2.1 100 11:21 30.01.2020
3760 Clouds 9 1023 37 16093 2.1 150 10:43 30.01.2020
3761 Clouds 9 1023 37 16093 2.1 150 10:24 30.01.2020
3762 Clear 10 1024 37 16093 2.6 150 09:56 30.01.2020
3763 Clear 10 1024 37 16093 2.6 150 09:37 30.01.2020
3764 Clear 11 1024 37 16093 2.6 150 09:19 30.01.2020
3765 Clear 11 1024 35 16093 2.6 230 08:42 30.01.2020
3766 Clear 11 1024 35 16093 2.6 230 08:22 30.01.2020
3767 Clear 12 1024 33 16093 6.2 140 07:52 30.01.2020
3768 Clear 11 1024 33 16093 6.2 140 07:32 30.01.2020
3769 Clear 13 1024 36 16093 6.7 140 06:47 30.01.2020
3770 Clear 13 1024 36 16093 6.7 140 06:29 30.01.2020
3771 Clouds 14 1023 31 16093 5.1 140 05:47 30.01.2020
3772 Clouds 14 1023 31 16093 5.1 140 05:25 30.01.2020
3773 Clouds 15 1023 32 16093 4.6 160 03:56 30.01.2020
3774 Clouds 14 1023 32 16093 4.6 160 03:37 30.01.2020
3775 Clouds 16 1022 32 16093 6.2 160 02:48 30.01.2020
3776 Clear 22 1020 19 19312 7.7 180 00:53 30.01.2020
3777 Clear 22 1020 19 19312 7.7 180 00:21 30.01.2020
3778 Clear 22 1020 19 19312 7.7 180 23:48 29.01.2020
3779 Clear 23 1020 16 19312 6.2 200 23:22 29.01.2020
3780 Dust 23 1020 13 19312 7.7 150 22:58 29.01.2020
3781 Dust 23 1020 13 19312 7.7 150 22:39 29.01.2020
3782 Dust 23 1020 13 19312 7.7 150 22:19 29.01.2020
3783 Dust 23 1020 13 19312 7.7 110 21:58 29.01.2020
3784 Dust 22 1020 13 19312 7.7 110 21:39 29.01.2020
3785 Clear 23 1022 11 19312 7.7 200 21:19 29.01.2020
3786 Clear 22 1023 13 12874 5.1 140 20:58 29.01.2020
3787 Clear 22 1023 13 12874 5.1 140 20:38 29.01.2020
3788 Clear 22 1023 13 12874 5.1 140 20:19 29.01.2020
3789 Clear 20 1024 22 11265 1.5 160 19:56 29.01.2020
3790 Clear 20 1024 22 11265 1.5 160 19:37 29.01.2020
3791 Clear 20 1024 22 11265 1.5 160 19:37 29.01.2020
3792 Clear 20 1024 22 11265 1.5 160 19:18 29.01.2020
3793 Clear 19 1025 24 11265 1.5 160 18:46 29.01.2020
3794 Clear 18 1026 29 9656 1.5 80 18:19 29.01.2020
3795 Clear 16 1026 33 11265 2.46 185 17:58 29.01.2020
3796 Clear 16 1026 33 11265 2.46 185 17:38 29.01.2020
3797 Clear 16 1026 33 11265 1.22 357 17:20 29.01.2020
3798 Clear 12 1027 50 14484 2.6 90 16:41 29.01.2020
3799 Clear 12 1027 50 14484 2.6 90 16:23 29.01.2020
3800 Clear 9 1027 52 9656 1.5 100 15:55 29.01.2020
3801 Clear 8 1026 40 16093 2.1 250 15:37 29.01.2020
3802 Clear 8 1026 40 16093 2.1 250 15:18 29.01.2020
3803 Clear 8 1026 45 16093 2.1 260 14:41 29.01.2020
3804 Clear 8 1026 45 16093 2.1 260 14:20 29.01.2020
3805 Clouds 3 1025 56 19312 1.68 6 13:41 29.01.2020
3806 Clouds 3 1025 56 19312 1.73 8 13:23 29.01.2020
3807 Clouds 4 1025 52 19312 3.1 50 12:59 29.01.2020
3808 Clouds 4 1025 52 19312 3.1 50 12:40 29.01.2020
3809 Clouds 4 1025 52 19312 3.1 50 12:21 29.01.2020
3810 Clouds 5 1024 45 19312 1.73 8 11:58 29.01.2020
3811 Clouds 5 1024 45 19312 1.73 8 11:40 29.01.2020
3812 Clouds 6 1024 33 19312 1.27 37 11:20 29.01.2020
3813 Clouds 6 1024 52 16093 2.1 60 10:46 29.01.2020
3814 Clouds 5 1024 52 16093 2.1 60 10:22 29.01.2020
3815 Clouds 10 1025 35 16093 1.27 37 09:57 29.01.2020
3816 Clouds 10 1025 35 16093 1.27 37 09:39 29.01.2020
3817 Clouds 10 1025 35 16093 1.27 37 09:18 29.01.2020
3818 Clouds 11 1025 35 16093 1.5 190 08:42 29.01.2020
3819 Clouds 11 1025 35 16093 1.5 190 08:42 29.01.2020
3820 Clouds 11 1025 35 16093 1.5 190 08:22 29.01.2020
3821 Clouds 12 1025 33 16093 2.6 160 07:45 29.01.2020
3822 Clouds 12 1025 33 16093 2.6 160 07:26 29.01.2020
3823 Clouds 14 1025 31 16093 3.6 130 06:56 29.01.2020
3824 Clouds 13 1025 31 16093 3.6 130 06:37 29.01.2020
3825 Clouds 13 1025 31 16093 3.6 130 06:19 29.01.2020
3826 Clouds 15 1024 29 16093 3.6 150 05:49 29.01.2020
3827 Clouds 14 1024 29 16093 3.6 150 05:30 29.01.2020
3828 Clouds 15 1024 26 16093 4.1 120 04:38 29.01.2020
3829 Clouds 16 1023 26 16093 6.2 170 03:58 29.01.2020
3830 Clouds 18 1022 26 16093 8.2 160 02:33 29.01.2020
3831 Clouds 21 1021 22 16093 7.7 160 00:59 29.01.2020
3832 Clouds 23 1020 16 16093 7.7 120 00:36 29.01.2020
3833 Clouds 23 1020 16 16093 7.7 120 00:18 29.01.2020
3834 Clouds 23 1020 11 16093 2.1 150 23:39 28.01.2020
3835 Clouds 23 1020 11 16093 2.1 150 23:19 28.01.2020
3836 Clouds 24 1020 8 19312 2.6 120 22:46 28.01.2020
3837 Clouds 24 1020 8 19312 2.6 120 22:27 28.01.2020
3838 Clouds 23 1021 8 19312 4.1 110 21:54 28.01.2020
3839 Clouds 23 1021 8 19312 4.1 110 21:36 28.01.2020
3840 Clouds 24 1021 8 19312 4.1 110 21:18 28.01.2020
3841 Clouds 22 1022 7 19312 5.1 220 20:45 28.01.2020
3842 Clouds 22 1022 7 19312 4.1 110 20:25 28.01.2020
3843 Clouds 21 1024 7 19312 2.1 200 19:55 28.01.2020
3844 Clouds 21 1024 7 19312 2.1 200 19:37 28.01.2020
3845 Clouds 21 1024 7 19312 2.1 200 19:19 28.01.2020
3846 Clouds 20 1024 12 19312 2.1 170 18:41 28.01.2020
3847 Clouds 20 1024 12 19312 2.1 170 18:23 28.01.2020
3848 Clouds 20 1024 12 19312 2.1 170 18:23 28.01.2020
3849 Clouds 17 1025 21 19312 1.5 160 17:59 28.01.2020
3850 Clouds 17 1025 21 19312 1.5 160 17:39 28.01.2020
3851 Clouds 17 1025 21 19312 1.5 160 17:21 28.01.2020
3852 Clear 13 1025 22 19312 1.5 180 16:57 28.01.2020
3853 Clear 12 1025 24 19312 1.5 190 16:39 28.01.2020
3854 Clear 12 1025 24 19312 1.5 190 16:21 28.01.2020
3855 Clear 8 1025 32 19312 2.6 220 15:45 28.01.2020
3856 Clear 9 1025 32 19312 2.6 220 15:19 28.01.2020
3857 Clear 7 1024 45 19312 2.6 220 14:57 28.01.2020
3858 Clear 7 1024 45 19312 2.6 220 14:38 28.01.2020
3859 Clear 7 1024 45 19312 2.6 220 14:38 28.01.2020
3860 Clear 7 1024 45 19312 2.6 220 14:18 28.01.2020
3861 Clear 6 1024 45 16093 1 280 13:40 28.01.2020
3862 Clear 6 1024 45 16093 1 280 13:22 28.01.2020
3863 Clear 7 1024 43 16093 1.5 240 12:43 28.01.2020
3864 Clear 6 1024 43 16093 1.5 240 12:24 28.01.2020
3865 Clear 8 1024 30 16093 1 280 11:56 28.01.2020
3866 Clear 8 1024 30 16093 1 280 11:37 28.01.2020
3867 Clear 8 1024 30 16093 1 280 11:19 28.01.2020
3868 Clear 8 1024 43 16093 1 230 10:41 28.01.2020
3869 Clear 7 1024 43 16093 1 230 10:22 28.01.2020
3870 Clear 8 1025 34 16093 1.5 140 09:55 28.01.2020
3871 Clear 9 1025 34 16093 1.5 140 09:37 28.01.2020
3872 Clear 8 1025 34 16093 1.5 140 09:18 28.01.2020
3873 Clear 10 1025 34 16093 1.5 170 08:41 28.01.2020
3874 Clear 9 1025 35 16093 1.5 170 08:20 28.01.2020
3875 Clear 12 1025 35 16093 2.6 150 07:38 28.01.2020
3876 Clear 13 1025 35 16093 3.1 150 06:51 28.01.2020
3877 Clear 13 1025 35 16093 3.1 150 06:29 28.01.2020
3878 Clear 13 1025 35 16093 3.1 150 06:28 28.01.2020
3879 Clear 13 1025 35 16093 4.6 120 05:55 28.01.2020
3880 Clear 13 1025 35 16093 4.6 120 05:33 28.01.2020
3881 Clear 14 1025 27 16093 4.1 210 04:38 28.01.2020
3882 Clear 15 1024 33 16093 3.1 180 03:33 28.01.2020
3883 Clear 20 1023 16 16093 4.1 270 02:25 28.01.2020
3884 Clear 20 1023 16 16093 4.1 270 02:25 28.01.2020
3885 Clear 20 1023 16 16093 4.1 270 02:25 28.01.2020
3886 Clear 21 1023 18 16093 6.7 280 01:57 28.01.2020
3887 Clear 22 1023 18 16093 6.7 280 01:32 28.01.2020
3888 Clouds 23 1022 28 14484 8.2 140 00:51 28.01.2020
3889 Clouds 23 1022 28 14484 8.2 140 00:29 28.01.2020
3890 Clouds 23 1023 17 16093 3.1 210 23:51 27.01.2020
3891 Clouds 23 1023 17 16093 3.1 210 23:51 27.01.2020
3892 Clouds 23 1023 17 16093 3.1 210 23:30 27.01.2020
3893 Clouds 24 1023 28 16093 7.2 280 22:59 27.01.2020
3894 Clouds 24 1023 28 16093 7.2 280 22:40 27.01.2020
3895 Clouds 24 1023 28 16093 7.2 280 22:20 27.01.2020
3896 Clouds 24 1024 13 16093 4.6 260 21:55 27.01.2020
3897 Clouds 24 1024 13 16093 4.6 260 21:37 27.01.2020
3898 Clouds 24 1024 13 16093 4.6 260 21:18 27.01.2020
3899 Clouds 22 1025 17 16093 6.2 310 20:43 27.01.2020
3900 Clouds 22 1025 17 16093 6.2 310 20:22 27.01.2020
3901 Clear 21 1027 34 16093 3.6 130 19:59 27.01.2020
3902 Clear 21 1027 34 16093 3.6 130 19:41 27.01.2020
3903 Clear 21 1027 34 16093 3.6 130 19:22 27.01.2020
3904 Clear 20 1027 28 16093 1.06 200 18:56 27.01.2020
3905 Clear 19 1027 39 16093 3.1 90 18:37 27.01.2020
3906 Clear 19 1027 39 16093 3.1 90 18:19 27.01.2020
3907 Clouds 17 1027 51 16093 2.6 60 17:39 27.01.2020
3908 Clouds 15 1027 51 16093 2.6 60 17:39 27.01.2020
3909 Clouds 16 1027 51 16093 2.6 60 17:21 27.01.2020
3910 -273 0 0 0 0 0 16:59 27.01.2020
3911 Clouds 15 1027 51 16093 2.6 60 16:40 27.01.2020
3912 Clouds 15 1027 51 16093 2.6 60 16:22 27.01.2020
3913 Clouds 10 1029 81 9656 0.93 41 15:55 27.01.2020
3914 Clouds 10 1027 66 16093 2.6 80 15:36 27.01.2020
3915 Clouds 10 1027 66 16093 2.6 80 15:18 27.01.2020
3916 Clouds 10 1026 62 16093 2.1 100 14:41 27.01.2020
3917 Clouds 10 1026 62 16093 2.1 100 14:22 27.01.2020
3918 Clouds 10 1026 62 16093 3.1 60 13:55 27.01.2020
3919 Clouds 10 1026 62 16093 3.1 60 13:37 27.01.2020
3920 Clouds 10 1026 62 16093 3.1 60 13:18 27.01.2020
3921 Clouds 11 1025 58 16093 1.5 90 12:43 27.01.2020
3922 Clouds 11 1025 58 16093 1.5 90 12:23 27.01.2020
3923 Clouds 11 1025 54 16093 2.1 100 11:58 27.01.2020
3924 Clouds 12 1025 54 16093 2.1 100 11:40 27.01.2020
3925 Clouds 11 1025 54 16093 2.1 100 11:19 27.01.2020
3926 Clouds 12 1026 54 16093 1.5 30 10:42 27.01.2020
3927 Clouds 12 1026 54 16093 1.5 30 10:24 27.01.2020
3928 Clouds 13 1026 51 16093 2.1 350 09:40 27.01.2020
3929 Clouds 13 1026 51 16093 2.1 350 09:19 27.01.2020
3930 Clouds 13 1026 48 16093 2.1 310 08:59 27.01.2020
3931 Clouds 13 1026 48 16093 2.1 310 08:40 27.01.2020
3932 Clouds 13 1026 48 16093 2.1 310 08:19 27.01.2020
3933 Clouds 14 1027 48 16093 1.5 330 07:52 27.01.2020
3934 Clouds 14 1027 48 16093 1.5 330 07:33 27.01.2020
3935 Clouds 15 1027 45 16093 2.6 310 06:49 27.01.2020
3936 Clouds 15 1027 42 16093 3.1 350 05:59 27.01.2020
3937 Clouds 15 1027 42 16093 3.1 350 05:18 27.01.2020
3938 Clouds 16 1026 42 16093 3.6 360 03:37 27.01.2020
3939 Clouds 18 1025 39 16093 4.1 20 02:27 27.01.2020
3940 Clouds 20 1024 37 16093 6.2 50 01:29 27.01.2020
3941 Clouds 21 1024 37 16093 5.1 40 00:42 27.01.2020
3942 Clouds 21 1024 37 16093 5.1 40 00:22 27.01.2020
3943 Clouds 20 1024 34 16093 5.1 80 23:58 26.01.2020
3944 Clouds 22 1024 26 16093 2.1 230 23:40 26.01.2020
3945 Clouds 22 1024 26 16093 2.1 230 23:18 26.01.2020
3946 Clouds 22 1024 26 16093 2.6 20 22:39 26.01.2020
3947 Clouds 22 1024 26 16093 2.6 20 22:20 26.01.2020
3948 Clouds 22 1025 26 16093 3.1 260 21:59 26.01.2020
3949 Clouds 22 1025 26 16093 3.1 260 21:40 26.01.2020
3950 Clouds 22 1025 26 16093 3.1 260 21:22 26.01.2020
3951 Clouds 22 1025 26 16093 3.1 260 21:22 26.01.2020
3952 Clouds 21 1027 30 14484 3.6 200 20:58 26.01.2020
3953 Clouds 22 1027 30 14484 3.6 200 20:40 26.01.2020
3954 Clouds 22 1027 30 14484 3.6 200 20:20 26.01.2020
3955 Clouds 20 1028 34 14484 1.5 10 19:59 26.01.2020
3956 Clouds 20 1028 34 14484 1.5 10 19:39 26.01.2020
3957 Clouds 20 1028 34 14484 1.5 10 19:39 26.01.2020
3958 Clouds 20 1028 34 14484 1.5 10 19:21 26.01.2020
3959 Clouds 18 1028 37 14484 1.5 100 18:58 26.01.2020
3960 Clouds 18 1029 42 16093 1.5 150 18:39 26.01.2020
3961 Clouds 18 1029 42 16093 1.5 150 18:39 26.01.2020
3962 Clouds 17 1029 42 16093 1.5 150 18:21 26.01.2020
3963 Clouds 16 1029 41 16093 1.5 90 17:57 26.01.2020
3964 Clouds 16 1029 41 16093 1.5 90 17:38 26.01.2020
3965 Clouds 16 1029 41 16093 1.5 90 17:18 26.01.2020
3966 Clouds 15 1029 44 16093 1.5 110 16:57 26.01.2020
3967 Clouds 13 1028 58 16093 1.66 174 16:39 26.01.2020
3968 Clouds 13 1028 58 16093 1.66 174 16:19 26.01.2020
3969 Clear 12 1028 58 0 1.34 70 15:45 26.01.2020
3970 -273 0 0 0 0 0 15:22 26.01.2020
3971 Clear 9 1027 70 0 2.24 60 14:58 26.01.2020
3972 Clear 10 1027 61 0 2.24 90 14:39 26.01.2020
3973 Clouds 10 1027 61 0 2.24 90 14:19 26.01.2020
3974 Clouds 11 1026 62 0 1.66 149 13:41 26.01.2020
3975 Clouds 11 1026 62 0 1.46 151 13:20 26.01.2020
3976 Clouds 12 1026 62 0 0.89 310 12:56 26.01.2020
3977 Clouds 12 1026 62 0 0.89 310 12:37 26.01.2020
3978 Clouds 12 1026 62 0 0.89 310 12:19 26.01.2020
3979 Clouds 12 1026 62 0 0.89 310 11:57 26.01.2020
3980 Clouds 12 1025 58 0 1.34 170 11:37 26.01.2020
3981 Clear 12 1026 58 16093 1.99 162 11:18 26.01.2020
3982 Clear 9 1026 58 16093 1.99 162 10:55 26.01.2020
3983 Clear 9 1026 58 16093 1.99 162 10:37 26.01.2020
3984 Clear 9 1026 58 16093 1.99 162 10:19 26.01.2020
3985 Clear 9 1026 58 16093 1.99 162 10:19 26.01.2020
3986 Clear 10 1027 58 16093 1.99 162 09:42 26.01.2020
3987 Clear 10 1027 58 16093 1.99 162 09:23 26.01.2020
3988 Clear 11 1027 58 16093 1.99 162 08:59 26.01.2020
3989 Clear 11 1027 50 16093 1 120 08:41 26.01.2020
3990 Clear 12 1027 50 16093 1 120 08:21 26.01.2020
3991 Clouds 13 1027 51 16093 2.1 180 07:50 26.01.2020
3992 Clouds 12 1027 51 16093 2.1 180 07:26 26.01.2020
3993 Clouds 13 1028 51 16093 2.6 110 06:40 26.01.2020
3994 Clouds 14 1028 51 16093 2.6 110 06:22 26.01.2020
3995 Clouds 14 1027 48 16093 3.6 130 05:27 26.01.2020
3996 Clouds 16 1026 45 16093 2.6 150 03:31 26.01.2020
3997 Clouds 18 1025 42 16093 3.1 180 02:38 26.01.2020
3998 Clouds 20 1024 39 16093 4.1 120 01:44 26.01.2020
3999 Clouds 20 1024 39 16093 4.1 120 01:22 26.01.2020
4000 Clouds 21 1024 37 16093 7.2 120 00:42 26.01.2020
4001 Clouds 21 1024 37 16093 7.2 120 00:23 26.01.2020
4002 Clouds 21 1023 32 0 4.92 190 23:39 25.01.2020
4003 Clouds 21 1023 32 0 4.92 190 23:20 25.01.2020
4004 Clouds 21 1023 32 0 4.92 190 22:56 25.01.2020
4005 Clouds 21 1024 32 0 4.92 180 22:36 25.01.2020
4006 Clouds 21 1024 32 0 4.92 180 22:18 25.01.2020
4007 Clouds 21 1025 35 0 7.15 220 21:41 25.01.2020
4008 Clouds 21 1025 35 0 7.15 220 21:23 25.01.2020
4009 Clouds 21 1014 33 0 3.41 161 21:23 25.01.2020
4010 Clouds 21 1017 32 0 4.92 100 20:56 25.01.2020
4011 Clouds 21 1017 32 0 4.92 100 20:38 25.01.2020
4012 Clouds 18 1018 44 0 2.91 177 20:19 25.01.2020
4013 Clouds 17 1028 48 0 1.79 180 19:43 25.01.2020
4014 Clouds 18 1027 39 0 2.68 140 19:20 25.01.2020
4015 Clouds 17 1028 48 0 1.79 180 18:57 25.01.2020
4016 Clouds 17 1028 48 0 1.79 180 18:57 25.01.2020
4017 Clouds 17 1028 48 0 1.79 180 18:38 25.01.2020
4018 Clouds 17 1028 48 0 1.79 180 18:20 25.01.2020
4019 Clouds 16 1028 63 0 1.79 110 17:40 25.01.2020
4020 Clear 12 1028 71 0 1.77 171 17:20 25.01.2020
4021 Clear 12 1028 71 0 2.2 168 16:58 25.01.2020
4022 Clear 12 1028 71 0 1.77 171 16:38 25.01.2020
4023 Clear 12 1028 71 0 1.77 171 16:19 25.01.2020
4024 Clear 8 1016 87 0 2.24 60 15:47 25.01.2020
4025 Clear 8 1016 87 0 2.24 60 15:25 25.01.2020
4026 Clear 8 1016 87 0 2.24 60 14:59 25.01.2020
4027 Clear 7 1026 93 0 1.34 70 14:40 25.01.2020
4028 Clear 7 1026 93 0 1.34 70 14:18 25.01.2020
4029 Clear 7 1025 81 0 2.68 60 13:42 25.01.2020
4030 Clear 7 1025 81 0 2.68 60 13:42 25.01.2020
4031 Clear 7 1025 81 0 2.68 60 13:23 25.01.2020
4032 Clear 8 1025 87 0 2.24 70 12:45 25.01.2020
4033 Clear 7 1026 81 9656 2.1 60 12:26 25.01.2020
4034 Clear 7 1026 81 9656 2.1 60 11:45 25.01.2020
4035 Clear 7 1026 81 9656 2.1 60 11:22 25.01.2020
4036 Clear 8 1026 76 11265 2.1 90 10:59 25.01.2020
4037 Clear 8 1026 76 11265 2.1 90 10:40 25.01.2020
4038 Clear 8 1026 76 11265 2.1 90 10:20 25.01.2020
4039 Clouds 9 1026 71 11265 3.1 100 09:41 25.01.2020
4040 Clouds 9 1026 71 11265 3.1 100 09:22 25.01.2020
4041 Clouds 9 1026 71 12874 1.5 80 08:47 25.01.2020
4042 Clouds 9 1026 71 12874 1.5 80 08:28 25.01.2020
4043 Clouds 10 1027 66 12874 1.5 250 07:50 25.01.2020
4044 Clouds 11 1026 62 12874 5.1 280 06:53 25.01.2020
4045 Clouds 11 1026 62 12874 5.1 280 06:28 25.01.2020
4046 Clouds 13 1026 58 12874 5.7 280 05:47 25.01.2020
4047 Clouds 12 1026 58 12874 5.7 280 05:18 25.01.2020
4048 Clouds 14 1025 54 16093 4.6 250 03:51 25.01.2020
4049 Clouds 16 1025 42 16093 3.6 190 03:19 25.01.2020
4050 Clouds 18 1023 39 16093 3.1 190 02:20 25.01.2020
4051 Clouds 19 1023 32 16093 2.1 210 01:43 25.01.2020
4052 Clouds 20 1023 32 16093 2.6 190 00:44 25.01.2020
4053 Clouds 20 1023 32 16093 2.6 190 00:25 25.01.2020
4054 Clouds 21 1023 42 16093 2.6 180 23:57 24.01.2020
4055 Clouds 21 1023 42 16093 2.6 180 23:39 24.01.2020
4056 Clouds 21 1023 42 16093 2.6 180 23:39 24.01.2020
4057 Clouds 21 1023 36 16093 2.6 180 23:21 24.01.2020
4058 Clouds 21 1024 26 16093 3.6 230 22:44 24.01.2020
4059 Clouds 21 1024 26 16093 3.6 230 22:25 24.01.2020
4060 Clouds 20 1024 26 16093 3.6 230 21:43 24.01.2020
4061 Clouds 20 1024 32 12874 3.1 230 21:21 24.01.2020
4062 Clouds 20 1024 32 12874 3.1 230 21:21 24.01.2020
4063 Clouds 20 1025 32 11265 2.1 100 20:57 24.01.2020
4064 Clouds 20 1025 32 11265 2.1 100 20:39 24.01.2020
4065 Clouds 20 1025 32 11265 2.1 100 20:20 24.01.2020
4066 Clouds 20 1026 34 9656 3.1 100 19:56 24.01.2020
4067 Clouds 19 1027 42 8047 3.1 140 19:38 24.01.2020
4068 Clouds 19 1027 42 8047 3.1 140 19:20 24.01.2020
4069 Clouds 17 1028 48 8047 1.17 206 18:43 24.01.2020
4070 Clouds 17 1028 48 8047 1.17 206 18:23 24.01.2020
4071 Clouds 15 1027 54 11265 2.1 50 17:46 24.01.2020
4072 Clouds 15 1027 54 11265 2.1 50 17:23 24.01.2020
4073 Clouds 14 1027 58 11265 2.1 100 16:59 24.01.2020
4074 Clouds 14 1027 58 11265 2.1 100 16:39 24.01.2020
4075 Clouds 14 1027 58 11265 2.1 100 16:20 24.01.2020
4076 Clouds 12 1026 62 12874 2.1 190 15:43 24.01.2020
4077 Clouds 12 1026 62 12874 2.1 190 15:22 24.01.2020
4078 -273 0 0 0 0 0 15:22 24.01.2020
4079 Clouds 12 1020 55 19312 1.5 360 14:57 24.01.2020
4080 Clouds 10 1025 62 12874 1 160 14:38 24.01.2020
4081 Clouds 10 1025 62 12874 1 160 14:20 24.01.2020
4082 Clouds 10 1024 71 12874 2.1 60 13:42 24.01.2020
4083 Clouds 10 1024 71 12874 2.1 60 13:23 24.01.2020
4084 Clouds 10 1024 71 12874 2.1 60 12:44 24.01.2020
4085 Clouds 10 1024 71 12874 2.1 60 12:22 24.01.2020
4086 Clouds 10 1025 66 12874 2.1 70 11:45 24.01.2020
4087 Clouds 10 1025 66 12874 2.1 70 11:20 24.01.2020
4088 Clouds 10 1025 66 12874 1.5 60 10:59 24.01.2020
4089 Clouds 10 1025 66 12874 1.5 60 10:41 24.01.2020
4090 Clouds 10 1025 66 12874 1.5 60 10:19 24.01.2020
4091 Clouds 11 1025 62 14484 2.1 80 09:42 24.01.2020
4092 Clouds 11 1025 62 14484 2.1 80 09:42 24.01.2020
4093 Clouds 11 1025 62 14484 2.1 80 09:24 24.01.2020
4094 Clouds 11 1026 62 14484 1.5 280 08:59 24.01.2020
4095 Clouds 11 1026 62 14484 1.5 280 08:36 24.01.2020
4096 Clouds 11 1026 62 14484 1.5 280 08:18 24.01.2020
4097 Clouds 11 1026 62 14484 5.1 310 07:42 24.01.2020
4098 Clouds 11 1026 62 14484 5.1 310 07:21 24.01.2020
4099 Clouds 12 1026 58 14484 4.1 340 06:43 24.01.2020
4100 Clouds 12 1026 58 14484 4.1 340 06:43 24.01.2020
4101 Clouds 12 1026 58 14484 4.1 340 06:23 24.01.2020
4102 Clouds 12 1026 50 12874 3.1 360 05:21 24.01.2020
4103 Clouds 13 1024 36 14484 2.1 30 03:29 24.01.2020
4104 Clouds 17 1023 29 14484 3.6 320 02:39 24.01.2020
4105 Clouds 17 1023 29 14484 3.6 320 02:19 24.01.2020
4106 Clouds 18 1022 31 14484 1.5 320 01:38 24.01.2020
4107 Clouds 18 1022 31 12874 2.1 300 00:40 24.01.2020
4108 Clouds 18 1022 31 12874 2.1 300 00:19 24.01.2020
4109 Clouds 19 1022 31 12874 5.1 310 23:41 23.01.2020
4110 Clouds 19 1022 31 12874 5.1 310 23:21 23.01.2020
4111 Clouds 19 1023 32 12874 3.6 320 22:58 23.01.2020
4112 Clouds 20 1023 32 12874 3.6 320 22:37 23.01.2020
4113 Clouds 20 1023 32 12874 3.6 320 22:18 23.01.2020
4114 Clouds 19 1023 34 11265 3.1 320 21:55 23.01.2020
4115 Clouds 20 1023 34 11265 3.1 320 21:37 23.01.2020
4116 Clouds 20 1023 34 11265 3.1 320 21:18 23.01.2020
4117 Clouds 19 1024 32 11265 3.6 260 20:41 23.01.2020
4118 Clouds 20 1024 32 11265 3.6 260 20:22 23.01.2020
4119 Clouds 18 1025 39 9656 4.6 270 19:57 23.01.2020
4120 Clouds 18 1025 39 9656 4.6 270 19:39 23.01.2020
4121 Clouds 19 1025 39 9656 4.6 270 19:21 23.01.2020
4122 Clouds 18 1026 42 8047 1.5 170 18:56 23.01.2020
4123 Clouds 18 1026 42 8047 1.5 170 18:38 23.01.2020
4124 Clouds 18 1026 42 8047 1.5 170 18:19 23.01.2020
4125 Clouds 16 1026 48 8047 2.1 110 17:45 23.01.2020
4126 Clouds 15 1026 54 9656 2.1 70 17:21 23.01.2020
4127 Clouds 13 1026 58 11265 1.5 120 16:59 23.01.2020
4128 Clouds 13 1026 58 11265 1.5 120 16:39 23.01.2020
4129 Clouds 13 1026 58 11265 1.5 120 16:19 23.01.2020
4130 Clouds 11 1025 66 12874 2.1 270 15:58 23.01.2020
4131 Clouds 11 1025 66 12874 2.1 270 15:38 23.01.2020
4132 Clouds 11 1025 66 12874 2.1 270 15:38 23.01.2020
4133 Clouds 11 1025 66 12874 2.1 270 15:19 23.01.2020
4134 -273 0 0 0 0 0 14:58 23.01.2020
4135 Clouds 8 1024 71 11265 3.1 240 14:40 23.01.2020
4136 Clouds 8 1024 71 11265 3.1 240 14:21 23.01.2020
4137 Clouds 9 1024 71 11265 1.82 165 13:46 23.01.2020
4138 Clouds 8 1024 71 11265 1.82 165 13:21 23.01.2020
4139 Clear 9 1023 66 11265 2.05 149 12:57 23.01.2020
4140 Clear 9 1023 66 11265 2.05 149 12:57 23.01.2020
4141 Clear 9 1023 66 11265 2.05 149 12:39 23.01.2020
4142 Clear 8 1023 66 11265 1.48 149 12:20 23.01.2020
4143 Clear 8 1023 62 11265 2.05 149 11:45 23.01.2020
4144 Clear 8 1023 62 11265 1.48 149 11:25 23.01.2020
4145 Clear 9 1024 62 14484 1.5 120 10:59 23.01.2020
4146 Clear 9 1024 62 14484 1.5 120 10:40 23.01.2020
4147 Clear 8 1024 62 14484 1.5 120 10:19 23.01.2020
4148 Clear 10 1024 62 12874 2.1 143 09:41 23.01.2020
4149 Clear 10 1024 62 12874 2.1 143 09:22 23.01.2020
4150 Clear 11 1025 62 12874 2.1 260 08:56 23.01.2020
4151 Clear 11 1025 62 12874 2.1 260 08:38 23.01.2020
4152 Clear 11 1025 62 12874 2.1 260 08:19 23.01.2020
4153 Clear 12 1025 58 12874 1.5 240 07:39 23.01.2020
4154 Clear 12 1025 58 12874 1.5 240 07:18 23.01.2020
4155 Clear 13 1026 54 12874 1.5 150 06:44 23.01.2020
4156 Clear 13 1026 54 12874 1.5 150 06:18 23.01.2020
4157 Clouds 14 1025 39 16093 5.1 250 04:25 23.01.2020
4158 Clouds 16 1025 36 14484 4.1 250 03:47 23.01.2020
4159 Clouds 20 1023 34 9656 3.6 250 01:55 23.01.2020
4160 Clouds 21 1022 26 9656 3.1 200 00:46 23.01.2020
4161 Clouds 21 1022 26 9656 3.1 200 00:24 23.01.2020
4162 Clouds 21 1022 24 9656 2.6 130 23:46 22.01.2020
4163 Clouds 21 1022 24 9656 2.6 130 23:28 22.01.2020
4164 Clear 22 1023 24 9656 3.1 100 22:55 22.01.2020
4165 Clear 22 1023 24 9656 3.1 100 22:36 22.01.2020
4166 Clear 22 1023 24 9656 3.1 100 22:18 22.01.2020
4167 Clear 22 1024 24 9656 3.6 70 21:38 22.01.2020
4168 Clear 22 1024 24 9656 3.6 70 21:19 22.01.2020
4169 Clear 21 1024 24 9656 2.6 120 20:55 22.01.2020
4170 Clear 20 1025 24 11265 3.1 100 20:36 22.01.2020
4171 Clear 20 1025 24 11265 3.1 100 20:18 22.01.2020
4172 Clear 19 1027 29 9656 1.5 180 19:41 22.01.2020
4173 Clear 19 1027 29 9656 1.5 180 19:21 22.01.2020
4174 Clear 19 1027 29 9656 1.5 180 19:21 22.01.2020
4175 Clear 18 1027 34 8047 2.6 100 18:59 22.01.2020
4176 Clear 18 1027 34 8047 2.6 100 18:40 22.01.2020
4177 Clear 17 1028 44 8047 2.1 80 18:21 22.01.2020
4178 Clear 15 1028 47 8047 2.6 100 17:59 22.01.2020
4179 Clear 15 1028 54 9656 0.79 196 17:39 22.01.2020
4180 Clear 11 1028 62 9656 1.5 60 17:20 22.01.2020
4181 Clear 11 1028 62 9656 1.5 60 16:56 22.01.2020
4182 Clear 11 1028 62 9656 1.5 60 16:37 22.01.2020
4183 Clear 11 1028 62 9656 1.5 60 16:18 22.01.2020
4184 Clear 6 1028 81 11265 2.1 90 15:42 22.01.2020
4185 Clear 6 1028 81 11265 2.1 90 15:24 22.01.2020
4186 Clear 6 1027 87 9656 1.5 50 14:59 22.01.2020
4187 Clear 6 1027 87 9656 1.5 50 14:38 22.01.2020
4188 Clear 6 1027 87 9656 1.5 50 14:20 22.01.2020
4189 Clear 5 1027 81 9656 2.6 70 13:56 22.01.2020
4190 Clear 5 1027 81 9656 2.6 70 13:56 22.01.2020
4191 Clear 5 1027 81 9656 2.6 70 13:37 22.01.2020
4192 Clear 5 1027 81 9656 2.6 70 13:19 22.01.2020
4193 Clear 5 1027 75 9656 2.1 230 12:56 22.01.2020
4194 Clear 6 1027 75 9656 2.1 230 12:38 22.01.2020
4195 Clear 6 1027 75 9656 2.1 230 12:18 22.01.2020
4196 Clear 6 1027 75 9656 0.42 133 11:56 22.01.2020
4197 Clear 6 1027 75 9656 0.42 133 11:38 22.01.2020
4198 Clear 6 1027 75 9656 0.8 58 11:19 22.01.2020
4199 Clear 6 1028 81 9656 0.8 58 10:44 22.01.2020
4200 Clear 6 1028 81 9656 0.8 58 10:21 22.01.2020
4201 Clouds 7 1029 70 11265 1.5 70 09:45 22.01.2020
4202 Clouds 7 1029 70 11265 1.5 70 09:26 22.01.2020
4203 Clouds 9 1029 62 11265 2.1 200 08:59 22.01.2020
4204 Clouds 9 1029 62 11265 2.1 200 08:40 22.01.2020
4205 Clouds 9 1029 62 11265 2.1 200 08:21 22.01.2020
4206 Clouds 10 1029 58 12874 2.1 130 07:59 22.01.2020
4207 Clouds 10 1029 58 12874 2.1 130 07:40 22.01.2020
4208 Clouds 10 1029 58 12874 2.1 130 07:40 22.01.2020
4209 Clouds 10 1029 58 12874 2.1 130 07:21 22.01.2020
4210 Clouds 10 1029 62 12874 1 10 06:31 22.01.2020
4211 Clouds 11 1029 62 12874 2.6 70 05:42 22.01.2020
4212 Clear 16 1027 31 0 2.68 30 04:23 22.01.2020
4213 Clear 15 1028 31 12874 3.1 30 03:26 22.01.2020
4214 Clear 16 1027 29 9656 5.1 350 02:32 22.01.2020
4215 Clear 19 1027 34 6437 2.6 50 00:46 22.01.2020
4216 Clear 19 1027 34 6437 2.6 50 00:27 22.01.2020
4217 Clear 17 1028 34 6437 2.6 330 23:55 21.01.2020
4218 Clear 17 1028 34 6437 2.6 330 23:36 21.01.2020
4219 Clear 17 1028 34 6437 2.6 330 23:18 21.01.2020
4220 Clear 19 1029 34 8047 2.6 280 22:40 21.01.2020
4221 Clear 19 1029 34 8047 2.6 280 22:20 21.01.2020
4222 Clear 19 1029 34 8047 2.6 280 22:20 21.01.2020
4223 Clear 19 1030 45 8047 2.6 150 21:56 21.01.2020
4224 Clear 19 1030 45 8047 2.6 150 21:38 21.01.2020
4225 Clear 19 1030 45 8047 2.6 150 21:19 21.01.2020
4226 Clear 17 1031 48 6437 2.1 180 20:56 21.01.2020
4227 Clear 17 1032 54 6437 2.1 110 20:37 21.01.2020
4228 Clear 17 1032 54 6437 2.1 110 20:18 21.01.2020
4229 Clouds 15 1034 58 6437 2.6 120 19:56 21.01.2020
4230 Clouds 15 1034 58 6437 2.6 120 19:37 21.01.2020
4231 Clouds 15 1034 58 6437 2.6 120 19:37 21.01.2020
4232 Clouds 15 1034 58 6437 2.6 120 19:19 21.01.2020
4233 Clouds 12 1034 62 6437 2.18 338 18:55 21.01.2020
4234 Clouds 11 1034 71 6437 3.1 90 18:36 21.01.2020
4235 Clouds 11 1034 71 6437 3.1 90 18:18 21.01.2020
4236 Clouds 10 1034 76 6437 2.18 338 17:43 21.01.2020
4237 Clouds 10 1034 76 6437 2.75 8 17:20 21.01.2020
4238 Clouds 8 1034 81 8047 2.6 260 16:58 21.01.2020
4239 Clouds 8 1034 81 8047 2.6 260 16:37 21.01.2020
4240 Clouds 8 1034 81 8047 2.6 260 16:18 21.01.2020
4241 Clouds 6 1033 81 8047 2.6 90 15:42 21.01.2020
4242 Clouds 6 1033 81 8047 2.6 90 15:21 21.01.2020
4243 Clouds 6 1031 87 11265 2.75 8 14:59 21.01.2020
4244 Clouds 6 1031 87 11265 2.75 8 14:37 21.01.2020
4245 Clouds 6 1031 87 11265 1.84 6 14:19 21.01.2020
4246 Clouds 4 1031 93 16093 1.5 100 13:40 21.01.2020
4247 Clouds 4 1031 93 16093 1.5 100 13:19 21.01.2020
4248 Clouds 4 1030 93 16093 1.5 30 12:43 21.01.2020
4249 Clouds 4 1030 93 16093 1.5 30 12:43 21.01.2020
4250 Clouds 4 1030 93 16093 1.5 30 12:25 21.01.2020
4251 Clouds 4 1030 93 16093 2.1 80 11:57 21.01.2020
4252 Clouds 4 1030 93 16093 2.1 80 11:38 21.01.2020
4253 Clouds 4 1030 93 16093 2.1 80 11:20 21.01.2020
4254 Clouds 5 1031 81 16093 3.1 70 10:44 21.01.2020
4255 Clouds 5 1031 81 16093 3.1 70 10:24 21.01.2020
4256 Fog 6 1033 93 402 1.39 21 09:59 21.01.2020
4257 Clouds 7 1031 76 16093 2.6 300 09:41 21.01.2020
4258 Clouds 7 1031 76 16093 2.6 300 09:22 21.01.2020
4259 Fog 7 1033 86 402 1.39 21 08:48 21.01.2020
4260 Clouds 7 1032 76 16093 2.6 280 08:29 21.01.2020
4261 Clouds 8 1033 71 16093 2.6 300 07:57 21.01.2020
4262 Clouds 8 1033 71 16093 2.6 300 07:38 21.01.2020
4263 Clouds 8 1033 71 16093 2.6 300 07:20 21.01.2020
4264 Clouds 9 1033 66 16093 3.1 340 06:45 21.01.2020
4265 Clouds 9 1033 66 16093 3.1 340 06:23 21.01.2020
4266 Clouds 10 1033 62 16093 3.6 300 05:41 21.01.2020
4267 Clouds 10 1032 62 14484 4.6 290 04:39 21.01.2020
4268 Clouds 14 1031 62 11265 3.45 1 02:55 21.01.2020
4269 Clouds 14 1031 62 11265 3.1 270 01:47 21.01.2020
4270 Clouds 15 1031 58 12874 2.1 250 00:57 21.01.2020
4271 Clouds 15 1031 58 12874 2.1 250 00:35 21.01.2020
4272 Clouds 16 1031 54 12874 2.6 30 23:57 20.01.2020
4273 Clouds 16 1031 54 12874 2.6 30 23:37 20.01.2020
4274 Clouds 16 1031 54 12874 2.6 30 23:18 20.01.2020
4275 Clouds 16 1031 54 12874 2.6 30 23:18 20.01.2020
4276 Clouds 15 1032 62 12874 4.1 10 22:56 20.01.2020
4277 Clouds 16 1032 62 12874 4.1 10 22:37 20.01.2020
4278 Clouds 16 1032 62 12874 4.1 10 22:18 20.01.2020
4279 Clouds 14 1033 66 11265 3.6 330 21:57 20.01.2020
4280 Clouds 14 1033 66 11265 3.6 330 21:36 20.01.2020
4281 Clouds 14 1033 66 11265 3.6 330 21:18 20.01.2020
4282 Clouds 14 1033 66 9656 3.6 310 20:55 20.01.2020
4283 Clouds 14 1033 66 9656 3.6 310 20:36 20.01.2020
4284 Clouds 15 1033 66 9656 3.6 310 20:18 20.01.2020
4285 Rain 13 1035 71 9656 3.6 360 19:56 20.01.2020
4286 Rain 13 1035 71 9656 3.6 360 19:37 20.01.2020
4287 Rain 13 1035 71 9656 3.6 360 19:18 20.01.2020
4288 Rain 12 1035 66 11265 4.6 300 18:42 20.01.2020
4289 Rain 13 1035 66 11265 4.6 300 18:21 20.01.2020
4290 Clouds 13 1035 62 11265 4.1 360 17:39 20.01.2020
4291 Clouds 13 1035 62 11265 4.1 360 17:19 20.01.2020
4292 Rain 12 1036 76 11265 6.7 90 16:55 20.01.2020
4293 Clouds 12 1034 66 11265 4.6 20 16:36 20.01.2020
4294 Clouds 12 1033 71 11265 3.6 290 16:18 20.01.2020
4295 Clouds 12 1033 71 11265 3.6 290 15:41 20.01.2020
4296 Clouds 13 1033 71 11265 3.6 290 15:22 20.01.2020
4297 Clouds 12 1033 71 12874 2.6 320 14:59 20.01.2020
4298 Clouds 11 1033 71 12874 2.6 320 14:40 20.01.2020
4299 Clouds 11 1033 71 12874 2.6 320 14:21 20.01.2020
4300 Clouds 11 1032 76 12874 3.1 330 13:57 20.01.2020
4301 Clouds 10 1032 76 12874 3.1 330 13:38 20.01.2020
4302 Clouds 10 1032 76 12874 3.1 330 13:20 20.01.2020
4303 Clouds 10 1031 76 12874 4.1 320 12:42 20.01.2020
4304 Clouds 10 1031 76 12874 4.1 320 12:23 20.01.2020
4305 Clouds 10 1031 81 12874 4.1 290 11:56 20.01.2020
4306 Clouds 10 1031 81 12874 4.1 290 11:37 20.01.2020
4307 Clouds 10 1031 81 12874 4.1 290 11:18 20.01.2020
4308 Clouds 11 1031 76 16093 3.6 350 10:46 20.01.2020
4309 Clouds 11 1031 76 16093 3.6 350 10:20 20.01.2020
4310 Clouds 11 1032 71 16093 4.1 330 09:42 20.01.2020
4311 Clouds 11 1032 71 16093 4.1 330 09:24 20.01.2020
4312 Clouds 11 1033 76 16093 2.6 300 08:56 20.01.2020
4313 Clouds 11 1033 76 16093 2.6 300 08:34 20.01.2020
4314 Clouds 11 1033 76 16093 4.1 310 07:59 20.01.2020
4315 Clouds 11 1033 76 16093 4.1 310 07:41 20.01.2020
4316 Clouds 11 1033 76 16093 4.1 310 07:21 20.01.2020
4317 Clouds 11 1032 76 16093 4.6 360 06:42 20.01.2020
4318 Clouds 11 1032 76 16093 4.6 360 06:21 20.01.2020
4319 Clouds 11 1033 76 16093 4.1 350 05:38 20.01.2020
4320 Clouds 11 1033 76 16093 4.1 350 05:19 20.01.2020
4321 Clouds 12 1031 81 12874 3.1 310 03:55 20.01.2020
4322 Clouds 16 1029 76 12874 3.1 330 01:58 20.01.2020
4323 Clouds 16 1029 76 12874 3.1 330 01:39 20.01.2020
4324 Clouds 16 1029 71 11265 4.1 360 00:56 20.01.2020
4325 Clouds 16 1029 71 11265 4.1 360 00:38 20.01.2020
4326 Clouds 17 1029 71 11265 4.1 360 00:20 20.01.2020
4327 Clouds 18 1029 76 11265 5.1 20 23:38 19.01.2020
4328 Clouds 17 1029 76 11265 5.1 20 23:18 19.01.2020
4329 Clouds 16 1029 82 9656 3.6 360 22:55 19.01.2020
4330 Rain 17 1029 76 9656 3.1 360 22:37 19.01.2020
4331 Rain 17 1029 76 9656 3.1 360 22:19 19.01.2020
4332 Rain 17 1029 76 9656 6.7 30 21:56 19.01.2020
4333 Clouds 18 1029 63 11265 5.1 310 21:37 19.01.2020
4334 Clouds 18 1029 63 11265 5.1 310 21:19 19.01.2020
4335 Clouds 18 1030 55 11265 3.1 290 20:56 19.01.2020
4336 Clouds 19 1030 55 11265 3.1 290 20:38 19.01.2020
4337 Clouds 19 1030 55 11265 3.1 290 20:19 19.01.2020
4338 Clouds 18 1031 63 11265 2.1 280 19:55 19.01.2020
4339 Clouds 18 1031 63 11265 2.1 280 19:37 19.01.2020
4340 Clouds 18 1031 63 11265 2.1 280 19:19 19.01.2020
4341 Clouds 17 1032 67 11265 2.6 230 18:55 19.01.2020
4342 Clouds 17 1032 67 11265 2.6 230 18:37 19.01.2020
4343 Clouds 17 1032 67 11265 2.6 230 18:19 19.01.2020
4344 Clouds 16 1033 51 11265 3.1 100 17:57 19.01.2020
4345 Clouds 16 1032 71 11265 3.1 340 17:38 19.01.2020
4346 Clouds 16 1032 71 11265 3.1 340 17:19 19.01.2020
4347 Mist 14 1033 66 4828 3.39 7 16:57 19.01.2020
4348 Mist 14 1033 66 4828 3.39 7 16:57 19.01.2020
4349 Clouds 14 1031 71 11265 3.6 40 16:37 19.01.2020
4350 Clouds 14 1031 71 11265 3.6 40 16:37 19.01.2020
4351 Clouds 14 1031 71 11265 3.6 40 16:37 19.01.2020
4352 Clouds 14 1031 71 11265 3.6 40 16:19 19.01.2020
4353 Mist 12 1031 81 4828 2.1 290 15:55 19.01.2020
4354 Mist 12 1031 81 4828 2.1 290 15:55 19.01.2020
4355 Clouds 12 1030 76 11265 2.1 350 15:36 19.01.2020
4356 Clouds 12 1030 76 11265 2.1 350 15:18 19.01.2020
4357 Clouds 12 1030 76 11265 2.1 350 15:18 19.01.2020
4358 Clouds 12 1030 76 11265 2.6 30 14:41 19.01.2020
4359 Clouds 11 1030 76 11265 2.6 30 14:21 19.01.2020
4360 Clouds 11 1029 71 9656 3.6 20 13:59 19.01.2020
4361 Clouds 11 1029 71 9656 3.6 20 13:40 19.01.2020
4362 Clouds 11 1029 71 9656 3.6 20 13:22 19.01.2020
4363 Clouds 11 1029 71 9656 3.6 20 13:22 19.01.2020
4364 Clouds 11 1028 76 9656 2.1 310 12:59 19.01.2020
4365 Clouds 11 1028 76 9656 2.1 310 12:41 19.01.2020
4366 Clouds 11 1028 76 9656 2.1 310 12:21 19.01.2020
4367 Clouds 11 1029 81 11265 2.47 0 11:57 19.01.2020
4368 Clouds 11 1029 81 11265 2.47 0 11:38 19.01.2020
4369 Clouds 10 1029 81 11265 2.71 357 11:18 19.01.2020
4370 Clouds 11 1029 81 12874 1.5 80 10:41 19.01.2020
4371 Clouds 11 1029 81 12874 1.5 80 10:21 19.01.2020
4372 Clouds 12 1029 82 12874 2.6 60 09:57 19.01.2020
4373 Clouds 12 1029 82 12874 2.6 60 09:38 19.01.2020
4374 Clouds 12 1029 82 12874 2.6 60 09:20 19.01.2020
4375 Drizzle 13 1029 82 12874 3.6 100 08:55 19.01.2020
4376 Clouds 13 1029 71 16093 2.1 20 08:33 19.01.2020
4377 Clouds 13 1030 71 16093 1.5 350 07:58 19.01.2020
4378 Clouds 13 1030 71 16093 2.1 290 07:29 19.01.2020
4379 Clouds 13 1029 76 16093 3.6 310 06:55 19.01.2020
4380 Clouds 13 1029 76 16093 3.6 310 06:23 19.01.2020
4381 Clouds 14 1028 62 11265 4.1 360 04:18 19.01.2020
4382 Thunderstorm 17 1027 63 11265 7.2 40 02:34 19.01.2020
4383 Thunderstorm 16 1027 67 9656 6.2 60 01:43 19.01.2020
4384 Thunderstorm 18 1026 63 9656 7.2 50 01:20 19.01.2020
4385 Thunderstorm 19 1026 55 9656 7.2 40 00:44 19.01.2020
4386 Smoke 19 1027 36 11265 6.2 70 00:24 19.01.2020
4387 Clouds 22 1025 30 11265 4.39 12 23:54 18.01.2020
4388 Clouds 22 1025 30 11265 4.39 12 23:36 18.01.2020
4389 Clouds 22 1025 30 11265 1.7 300 23:18 18.01.2020
4390 Clouds 23 1025 30 11265 2.1 280 22:41 18.01.2020
4391 Clouds 23 1025 30 11265 2.1 280 22:23 18.01.2020
4392 Clouds 22 1026 30 12874 3.1 70 21:58 18.01.2020
4393 Clouds 22 1026 30 12874 3.1 70 21:39 18.01.2020
4394 Clouds 22 1026 30 12874 3.1 70 21:20 18.01.2020
4395 Clouds 22 1027 32 9656 3.6 40 20:56 18.01.2020
4396 Clouds 22 1027 32 9656 3.6 40 20:38 18.01.2020
4397 Clouds 22 1027 32 9656 3.6 40 20:18 18.01.2020
4398 Clear 21 1028 37 9656 2.6 320 19:43 18.01.2020
4399 Clear 21 1028 37 9656 2.6 320 19:24 18.01.2020
4400 Clear 19 1029 45 9656 1.5 220 18:43 18.01.2020
4401 Clear 19 1029 45 9656 1.5 220 18:25 18.01.2020
4402 Clear 18 1030 51 8047 1.5 80 17:59 18.01.2020
4403 Clear 17 1030 51 8047 1.5 80 17:40 18.01.2020
4404 Clear 17 1030 51 8047 1.5 80 17:20 18.01.2020
4405 Clouds 14 1030 62 9656 2.6 80 16:56 18.01.2020
4406 Clouds 14 1030 62 9656 2.6 80 16:37 18.01.2020
4407 Clouds 14 1030 62 9656 2.6 80 16:19 18.01.2020
4408 Clear 11 1029 76 9656 2.1 30 15:44 18.01.2020
4409 Clear 11 1029 76 9656 2.1 30 15:25 18.01.2020
4410 Mist 10 1030 86 3219 2.1 70 14:59 18.01.2020
4411 Clouds 11 1028 71 11265 2.1 80 14:40 18.01.2020
4412 Clouds 8 1028 71 11265 2.1 80 14:19 18.01.2020
4413 Clouds 8 1028 71 11265 3.1 70 13:55 18.01.2020
4414 Clouds 8 1028 71 11265 3.1 70 13:36 18.01.2020
4415 Clouds 8 1028 71 11265 3.1 70 13:18 18.01.2020
4416 Clouds 8 1028 71 11265 3.1 70 13:18 18.01.2020
4417 Clouds 9 1027 76 11265 2.1 50 12:40 18.01.2020
4418 Clouds 9 1027 76 11265 2.1 50 12:21 18.01.2020
4419 Clouds 9 1028 81 12874 1.5 60 11:45 18.01.2020
4420 Clouds 8 1028 81 12874 1.5 60 11:24 18.01.2020
4421 Clouds 9 1028 76 12874 2.1 60 10:58 18.01.2020
4422 Clouds 10 1028 76 12874 2.1 60 10:39 18.01.2020
4423 Clouds 9 1028 76 12874 2.1 60 10:20 18.01.2020
4424 Clouds 9 1028 76 12874 2.1 60 10:20 18.01.2020
4425 Clouds 9 1028 76 12874 2.1 60 10:20 18.01.2020
4426 Clouds 10 1028 66 12874 1.5 80 09:48 18.01.2020
4427 Clouds 10 1028 66 12874 1.5 80 09:30 18.01.2020
4428 Clouds 11 1029 58 14484 2.1 280 08:57 18.01.2020
4429 Clouds 12 1029 58 14484 2.1 280 08:39 18.01.2020
4430 Clouds 12 1029 58 14484 2.1 280 08:19 18.01.2020
4431 Clouds 13 1028 58 16093 1 250 07:50 18.01.2020
4432 Clouds 13 1028 58 16093 1 250 07:31 18.01.2020
4433 Clouds 14 1028 45 16093 4.1 300 06:47 18.01.2020
4434 Clouds 15 1028 39 16093 3.1 290 05:59 18.01.2020
4435 Clouds 16 1028 39 16093 3.1 290 05:21 18.01.2020
4436 Clouds 19 1026 34 17702 3.1 230 02:56 18.01.2020
4437 Clouds 21 1025 30 17702 1.5 200 01:54 18.01.2020
4438 Clouds 21 1025 30 17702 1.5 200 01:30 18.01.2020
4439 Clouds 22 1025 26 17702 4.1 170 00:37 18.01.2020
4440 Clouds 22 1025 26 17702 4.1 170 00:37 18.01.2020
4441 Clouds 22 1025 26 17702 4.1 170 00:37 18.01.2020
4442 Clouds 22 1025 35 16093 4.1 140 00:18 18.01.2020
4443 Clouds 23 1025 35 16093 4.1 140 23:41 17.01.2020
4444 Clouds 23 1025 32 16093 4.1 140 23:20 17.01.2020
4445 Clouds 23 1025 28 14484 4.1 90 22:45 17.01.2020
4446 Clouds 23 1025 28 14484 4.1 90 22:22 17.01.2020
4447 Clouds 22 1027 30 12874 1.5 110 21:59 17.01.2020
4448 Clouds 22 1027 30 12874 1.5 110 21:41 17.01.2020
4449 Clouds 22 1027 30 12874 1.5 110 21:22 17.01.2020
4450 Clouds 22 1028 32 12874 2.6 130 20:57 17.01.2020
4451 Clouds 22 1028 32 12874 2.6 130 20:38 17.01.2020
4452 Clouds 22 1028 32 12874 2.6 130 20:20 17.01.2020
4453 Clouds 21 1028 30 12874 2.4 318 19:55 17.01.2020
4454 Clouds 21 1028 30 12874 2.4 318 19:55 17.01.2020
4455 Clouds 21 1029 39 9656 2.1 90 19:37 17.01.2020
4456 Clouds 21 1029 39 9656 2.1 90 19:37 17.01.2020
4457 Clouds 20 1029 39 9656 2.1 90 19:18 17.01.2020
4458 Clouds 19 1030 48 9656 2.1 20 18:47 17.01.2020
4459 Clouds 18 1030 55 9656 1.5 130 18:29 17.01.2020
4460 Clouds 16 1031 55 9656 1.5 130 17:58 17.01.2020
4461 Clouds 15 1031 67 9656 1.5 80 17:39 17.01.2020
4462 Clouds 13 1030 76 9656 3.1 80 17:20 17.01.2020
4463 Clouds 11 1030 76 9656 3.1 80 16:43 17.01.2020
4464 Clouds 12 1030 76 9656 3.1 80 16:21 17.01.2020
4465 Mist 10 1031 86 4828 1.65 25 15:55 17.01.2020
4466 Mist 10 1031 86 4828 1.65 25 15:37 17.01.2020
4467 Mist 10 1031 86 4828 1.65 25 15:19 17.01.2020
4468 Clouds 9 1029 81 9656 2.1 80 14:43 17.01.2020
4469 Clouds 9 1029 81 9656 2.1 80 14:23 17.01.2020
4470 Clouds 8 1029 81 9656 3.6 70 13:42 17.01.2020
4471 Clouds 7 1029 81 9656 3.6 70 13:23 17.01.2020
4472 Clouds 8 1029 81 11265 2.1 70 12:47 17.01.2020
4473 Clouds 8 1029 81 11265 2.1 70 12:23 17.01.2020
4474 Clouds 8 1028 87 11265 2.1 70 11:43 17.01.2020
4475 Clouds 8 1028 87 11265 2.1 70 11:20 17.01.2020
4476 Dust 9 1028 81 12874 2.6 60 10:56 17.01.2020
4477 Dust 9 1028 81 12874 2.6 60 10:38 17.01.2020
4478 Dust 9 1028 81 12874 2.6 60 10:20 17.01.2020
4479 Dust 9 1029 81 12874 2.6 110 09:44 17.01.2020
4480 Dust 9 1029 81 12874 2.6 110 09:21 17.01.2020
4481 Dust 10 1029 76 12874 2.6 90 08:58 17.01.2020
4482 Clouds 10 1029 71 12874 3.1 290 08:40 17.01.2020
4483 Clouds 10 1029 71 12874 3.1 290 08:21 17.01.2020
4484 Clouds 12 1029 67 12874 5.1 320 07:46 17.01.2020
4485 Clouds 12 1029 67 12874 5.1 320 07:28 17.01.2020
4486 Clouds 13 1029 62 12874 4.1 310 06:55 17.01.2020
4487 Clouds 13 1029 62 12874 4.1 310 06:35 17.01.2020
4488 Clouds 17 1027 55 0 4.92 300 04:32 17.01.2020
4489 Clouds 16 1020 58 0 3.15 350 03:19 17.01.2020
4490 Clouds 16 1020 58 0 3.15 350 02:39 17.01.2020
4491 Clouds 21 1024 30 0 4.92 160 01:44 17.01.2020
4492 Clouds 21 1024 30 0 4.92 160 01:25 17.01.2020
4493 Clouds 23 1018 26 16093 3.04 139 00:37 17.01.2020
4494 Clouds 23 1018 26 16093 3.04 139 00:19 17.01.2020
4495 Clouds 23 1025 33 8047 3.1 120 23:41 16.01.2020
4496 Clouds 23 1025 33 8047 3.1 120 23:22 16.01.2020
4497 Clouds 23 1025 33 8047 4.1 100 22:41 16.01.2020
4498 Clouds 23 1025 33 8047 4.1 100 22:21 16.01.2020
4499 Clouds 22 1026 37 6437 4.1 70 21:57 16.01.2020
4500 Clouds 22 1026 37 6437 4.1 70 21:38 16.01.2020
4501 Clouds 22 1026 37 6437 4.1 70 21:19 16.01.2020
4502 Clouds 22 1026 37 6437 1.5 0 20:57 16.01.2020
4503 Clouds 21 1028 42 6437 1.5 20 20:38 16.01.2020
4504 Haze 20 1028 48 4828 2.6 360 20:19 16.01.2020
4505 Haze 19 1028 48 4828 2.6 360 19:56 16.01.2020
4506 Haze 20 1028 48 4828 2.6 360 19:37 16.01.2020
4507 Haze 20 1028 48 4828 2.6 360 19:19 16.01.2020
4508 Haze 19 1029 48 4828 3.1 360 18:55 16.01.2020
4509 Haze 18 1030 59 4828 2.1 290 18:37 16.01.2020
4510 Haze 18 1030 59 4828 2.1 290 18:18 16.01.2020
4511 Haze 17 1030 63 4828 2.6 300 17:42 16.01.2020
4512 Clouds 16 1030 67 6437 2.6 130 17:23 16.01.2020
4513 Clouds 14 1030 67 6437 2.1 120 16:57 16.01.2020
4514 Mist 13 1030 81 4828 3.6 100 16:39 16.01.2020
4515 Mist 12 1030 81 4828 3.6 100 16:19 16.01.2020
4516 Mist 12 1030 93 3219 2.36 45 15:44 16.01.2020
4517 Mist 11 1029 81 4828 2.1 100 15:23 16.01.2020
4518 Mist 10 1028 87 4828 3.1 70 14:57 16.01.2020
4519 Mist 10 1028 87 4828 3.1 70 14:39 16.01.2020
4520 Mist 10 1028 87 4828 3.1 70 14:20 16.01.2020
4521 Mist 9 1028 81 6437 3.6 60 13:45 16.01.2020
4522 Mist 9 1028 81 6437 3.6 60 13:26 16.01.2020
4523 Clouds 9 1027 87 8047 2.6 60 12:47 16.01.2020
4524 Clouds 8 1027 87 8047 2.6 60 12:29 16.01.2020
4525 Clouds 9 1027 87 8047 2.6 60 12:29 16.01.2020
4526 Clouds 9 1027 81 8047 2.6 50 11:59 16.01.2020
4527 Clouds 9 1027 81 8047 2.6 50 11:41 16.01.2020
4528 Clouds 9 1027 81 8047 2.6 50 11:23 16.01.2020
4529 Clouds 10 1028 81 8047 2.1 60 10:55 16.01.2020
4530 Clouds 10 1028 81 8047 2.1 60 10:36 16.01.2020
4531 Clouds 10 1028 81 8047 2.1 60 10:18 16.01.2020
4532 Clouds 11 1028 76 8047 2.6 300 09:42 16.01.2020
4533 Clouds 11 1028 76 8047 2.6 300 09:24 16.01.2020
4534 Clouds 12 1028 71 9656 4.1 300 08:56 16.01.2020
4535 Clouds 12 1028 71 9656 4.1 300 08:36 16.01.2020
4536 Clouds 12 1028 71 9656 4.1 300 08:18 16.01.2020
4537 Clouds 13 1028 67 12874 4.1 320 07:42 16.01.2020
4538 Clouds 13 1028 67 12874 4.1 320 07:23 16.01.2020
4539 Clouds 13 1028 62 12874 2.1 80 06:48 16.01.2020
4540 Clouds 13 1028 62 12874 2.1 80 06:28 16.01.2020
4541 Clouds 13 1028 62 12874 5.1 60 05:46 16.01.2020
4542 Clouds 14 1027 63 12874 5.1 60 04:46 16.01.2020
4543 Clouds 18 1026 45 12874 2.6 180 03:29 16.01.2020
4544 Clouds 20 1025 37 11265 5.1 130 02:45 16.01.2020
4545 Clouds 22 1024 33 9656 4.1 120 01:28 16.01.2020
4546 Clouds 24 1024 31 9656 2.6 120 00:42 16.01.2020
4547 Clouds 24 1024 31 9656 2.6 120 00:22 16.01.2020
4548 Clouds 24 1024 28 9656 2.6 100 23:40 15.01.2020
4549 Clouds 24 1024 28 9656 2.6 100 23:22 15.01.2020
4550 Clouds 24 1024 28 9656 2.6 100 23:21 15.01.2020
4551 Clouds 25 1017 28 16093 2.6 150 22:56 15.01.2020
4552 Clouds 23 1024 27 11265 4.1 250 22:37 15.01.2020
4553 Clouds 23 1025 27 11265 2.1 210 22:18 15.01.2020
4554 Clouds 23 1024 27 11265 4.1 250 22:18 15.01.2020
4555 Clouds 23 1025 27 11265 2.1 210 21:55 15.01.2020
4556 Clouds 23 1025 27 11265 2.1 210 21:36 15.01.2020
4557 Clouds 23 1025 27 11265 2.1 210 21:18 15.01.2020
4558 Clouds 22 1026 31 9656 2.6 210 20:54 15.01.2020
4559 Clouds 21 1027 37 9656 2.1 30 20:36 15.01.2020
4560 Clouds 20 1027 37 9656 2.1 30 20:18 15.01.2020
4561 Clouds 20 1027 37 9656 2.1 30 20:18 15.01.2020
4562 Clouds 20 1028 45 8047 1.5 110 19:54 15.01.2020
4563 Clouds 20 1028 45 8047 1.5 110 19:36 15.01.2020
4564 Clouds 20 1028 45 8047 1.5 110 19:18 15.01.2020
4565 Clouds 19 1029 42 8047 1.5 140 18:55 15.01.2020
4566 Clouds 18 1029 52 8047 2.1 316 18:36 15.01.2020
4567 Clouds 18 1029 52 8047 2.1 316 18:18 15.01.2020
4568 Clouds 15 1029 62 8047 2.6 90 17:40 15.01.2020
4569 Clouds 15 1029 62 8047 2.6 90 17:22 15.01.2020
4570 Clouds 13 1029 62 8047 2.6 90 16:57 15.01.2020
4571 Clouds 10 1029 81 8047 2.6 70 16:38 15.01.2020
4572 Clouds 10 1029 81 8047 2.6 70 16:20 15.01.2020
4573 Clouds 10 1029 81 8047 2.6 70 16:20 15.01.2020
4574 Clouds 10 1029 81 8047 2.6 70 16:20 15.01.2020
4575 Clouds 10 1029 81 8047 2.6 70 16:20 15.01.2020
4576 Clouds 10 1029 81 8047 2.6 70 16:20 15.01.2020
4577 Clouds 9 1029 81 8047 2.6 60 15:43 15.01.2020
4578 Clouds 8 1028 81 8047 3.6 60 15:21 15.01.2020
4579 Clear 8 1028 81 8047 1.5 90 14:56 15.01.2020
4580 Clear 8 1028 81 8047 1.5 90 14:37 15.01.2020
4581 Clear 8 1028 81 8047 1.5 90 14:18 15.01.2020
4582 Clear 7 1027 76 9656 3.1 80 13:44 15.01.2020
4583 Clear 8 1027 76 9656 3.1 80 13:23 15.01.2020
4584 Clear 8 1027 81 9656 2.6 60 12:56 15.01.2020
4585 Clear 8 1027 81 9656 2.6 60 12:37 15.01.2020
4586 Clear 8 1027 81 9656 2.6 60 12:19 15.01.2020
4587 Clear 8 1027 76 9656 2.1 70 11:54 15.01.2020
4588 Clear 8 1027 76 9656 2.1 70 11:36 15.01.2020
4589 Clear 8 1027 76 9656 2.1 70 11:18 15.01.2020
4590 Dust 9 1027 81 11265 3.1 70 10:41 15.01.2020
4591 Dust 9 1027 81 11265 3.1 70 10:21 15.01.2020
4592 Dust 10 1028 67 12874 2.1 100 09:41 15.01.2020
4593 Dust 10 1028 67 12874 2.1 100 09:22 15.01.2020
4594 Dust 11 1027 62 16093 1.5 80 08:45 15.01.2020
4595 Dust 11 1027 62 16093 1.5 80 08:27 15.01.2020
4596 Clear 12 1028 62 16093 2.6 70 07:56 15.01.2020
4597 Clear 12 1028 62 16093 2.6 70 07:35 15.01.2020
4598 Clear 13 1028 59 16093 2.6 50 06:57 15.01.2020
4599 Clear 13 1028 59 16093 2.6 50 06:57 15.01.2020
4600 Clouds 14 1028 52 16093 2.1 320 06:38 15.01.2020
4601 Clouds 15 1028 52 16093 1.5 250 05:43 15.01.2020
4602 Clear 16 1026 45 14484 2.6 180 03:35 15.01.2020
4603 Clouds 21 1025 37 9656 7.2 130 01:49 15.01.2020
4604 Clouds 21 1025 37 9656 7.2 130 01:22 15.01.2020
4605 Clouds 22 1025 31 8047 4.1 180 00:38 15.01.2020
4606 Clouds 23 1025 31 8047 4.1 180 00:20 15.01.2020
4607 Clouds 22 1027 32 12874 5.1 180 23:47 14.01.2020
4608 Clouds 23 1027 32 12874 5.1 180 23:28 14.01.2020
4609 Clouds 23 1025 25 11265 4.6 140 22:58 14.01.2020
4610 Clouds 23 1025 25 11265 4.6 140 22:40 14.01.2020
4611 Clouds 23 1025 25 11265 4.6 140 22:19 14.01.2020
4612 Clouds 23 1026 28 8047 4.1 90 21:57 14.01.2020
4613 Clouds 23 1026 28 8047 4.1 90 21:39 14.01.2020
4614 Clouds 23 1026 28 8047 4.1 90 21:19 14.01.2020
4615 Clouds 22 1027 31 8047 2.1 150 20:54 14.01.2020
4616 Clear 21 1028 35 0 4.02 110 20:36 14.01.2020
4617 Clear 21 1028 35 0 4.02 110 20:36 14.01.2020
4618 Clouds 19 1031 37 14484 4.6 160 20:18 14.01.2020
4619 Clouds 19 1031 37 14484 4.6 160 20:18 14.01.2020
4620 Clouds 20 1029 40 8047 2.6 130 19:55 14.01.2020
4621 Clouds 20 1029 40 8047 2.6 130 19:36 14.01.2020
4622 Clouds 20 1029 40 8047 2.6 130 19:18 14.01.2020
4623 Clouds 17 1030 48 8047 1.28 308 18:40 14.01.2020
4624 Clouds 17 1030 48 8047 1.28 308 18:20 14.01.2020
4625 Clouds 17 1030 48 8047 1.28 308 17:56 14.01.2020
4626 Clouds 16 1030 55 8047 2.1 100 17:36 14.01.2020
4627 Clouds 16 1030 55 8047 2.1 100 17:18 14.01.2020
4628 Clouds 11 1031 62 8047 2.6 90 16:42 14.01.2020
4629 Clouds 11 1031 62 8047 2.6 90 16:22 14.01.2020
4630 Clouds 7 1030 76 9656 2.1 90 15:56 14.01.2020
4631 Clouds 7 1030 76 9656 2.1 90 15:38 14.01.2020
4632 Clouds 7 1030 76 9656 2.1 90 15:19 14.01.2020
4633 Clouds 7 1030 76 9656 2.1 90 15:19 14.01.2020
4634 Clear 7 1029 81 11265 1.5 80 14:43 14.01.2020
4635 Clear 7 1029 81 11265 1.5 80 14:20 14.01.2020
4636 Clear 6 1028 87 12874 2.6 80 13:55 14.01.2020
4637 Clear 6 1028 87 12874 2.6 80 13:37 14.01.2020
4638 Clear 6 1028 87 12874 2.6 80 13:18 14.01.2020
4639 Clear 7 1028 71 12874 2.1 50 12:41 14.01.2020
4640 Clear 8 1028 71 12874 2.1 50 12:20 14.01.2020
4641 Clear 9 1028 71 12874 1.5 40 11:43 14.01.2020
4642 Clear 9 1028 71 12874 1.5 40 11:23 14.01.2020
4643 Clear 9 1028 66 12874 1 130 10:59 14.01.2020
4644 Clear 10 1028 66 12874 1 130 10:40 14.01.2020
4645 Clear 10 1028 66 12874 1 130 10:20 14.01.2020
4646 Clear 11 1029 62 12874 1.5 220 09:58 14.01.2020
4647 Clear 11 1029 62 12874 1.5 220 09:40 14.01.2020
4648 Clear 11 1029 62 12874 1.5 220 09:20 14.01.2020
4649 Clear 12 1029 58 12874 2.6 300 08:48 14.01.2020
4650 Clear 12 1029 58 12874 2.6 300 08:25 14.01.2020
4651 Clear 12 1029 59 12874 3.1 270 07:53 14.01.2020
4652 Clear 12 1029 59 12874 3.1 270 07:33 14.01.2020
4653 Clear 14 1029 51 12874 2.1 300 06:56 14.01.2020
4654 Clear 14 1029 51 12874 2.1 300 06:33 14.01.2020
4655 Clouds 14 1029 51 14484 3.1 40 05:27 14.01.2020
4656 Clear 17 1028 42 12874 3.1 140 03:52 14.01.2020
4657 Clouds 20 1027 40 12874 5.1 120 02:43 14.01.2020
4658 Clouds 22 1026 37 11265 4.1 130 01:53 14.01.2020
4659 Clouds 23 1026 26 9656 1.95 144 00:51 14.01.2020
4660 Clouds 23 1026 26 9656 1.95 144 00:32 14.01.2020
4661 Clouds 23 1026 26 9656 1.95 144 00:32 14.01.2020
4662 Clouds 24 1026 25 9656 3.1 40 23:55 13.01.2020
4663 Clouds 24 1026 25 9656 3.1 40 23:37 13.01.2020
4664 Clouds 24 1026 25 9656 3.1 40 23:18 13.01.2020
4665 Clouds 24 1026 25 9656 3.1 40 23:18 13.01.2020
4666 Clouds 24 1026 27 9656 2.1 100 22:42 13.01.2020
4667 Clouds 24 1026 27 9656 2.1 100 22:21 13.01.2020
4668 Clear 25 1027 27 9656 2.6 100 21:57 13.01.2020
4669 Clear 25 1027 27 9656 2.6 100 21:38 13.01.2020
4670 Clear 24 1028 27 9656 2.1 120 21:19 13.01.2020
4671 Clear 24 1028 27 9656 2.1 120 20:58 13.01.2020
4672 Clouds 23 1029 30 9656 2.6 100 20:40 13.01.2020
4673 Clouds 22 1029 30 9656 2.6 100 20:22 13.01.2020
4674 Clouds 22 1029 32 9656 2.1 120 19:58 13.01.2020
4675 Clouds 21 1030 37 9656 1.98 316 19:39 13.01.2020
4676 Clouds 21 1030 37 9656 1.98 316 19:20 13.01.2020
4677 Clouds 20 1030 37 9656 2.1 40 18:56 13.01.2020
4678 Clouds 20 1030 37 9656 2.1 40 18:37 13.01.2020
4679 Clouds 20 1030 37 9656 2.1 40 18:37 13.01.2020
4680 Clouds 20 1030 37 9656 2.1 40 18:18 13.01.2020
4681 Clouds 17 1031 44 9656 2.6 100 17:42 13.01.2020
4682 Clouds 17 1031 44 9656 2.6 100 17:24 13.01.2020
4683 Clouds 17 1031 44 9656 2.6 100 17:24 13.01.2020
4684 Clear 14 1031 54 11265 2.6 50 16:57 13.01.2020
4685 Clear 13 1030 54 0 2.24 50 16:38 13.01.2020
4686 Clear 13 1030 54 0 2.24 50 16:20 13.01.2020
4687 Clear 10 1029 61 0 2.68 100 15:44 13.01.2020
4688 Clear 10 1029 61 0 2.68 100 15:24 13.01.2020
4689 Clear 10 1029 61 0 2.68 100 14:58 13.01.2020
4690 Clear 8 1029 70 0 2.24 70 14:38 13.01.2020
4691 Clouds 8 1029 70 0 2.24 70 14:20 13.01.2020
4692 Clouds 10 1028 66 0 1.57 28 13:43 13.01.2020
4693 Clouds 13 1020 62 0 1.4 30 13:25 13.01.2020
4694 Clouds 13 1020 62 0 1.4 30 12:59 13.01.2020
4695 Clouds 13 1020 62 0 1.4 30 12:41 13.01.2020
4696 Clouds 13 1020 62 0 1.4 30 12:23 13.01.2020
4697 Clouds 6 1027 70 19312 1.5 60 11:57 13.01.2020
4698 Clouds 6 1027 70 19312 1.5 60 11:37 13.01.2020
4699 Clouds 7 1027 70 19312 1.5 60 11:19 13.01.2020
4700 Clouds 7 1027 66 19312 2.6 80 10:56 13.01.2020
4701 Clouds 9 1028 58 19312 1.35 10 10:37 13.01.2020
4702 Clouds 9 1028 58 19312 1.35 10 10:37 13.01.2020
4703 Clouds 9 1028 58 19312 1.35 10 10:19 13.01.2020
4704 Clear 9 1028 54 19312 1.35 10 09:43 13.01.2020
4705 Clear 9 1028 54 19312 1.35 10 09:24 13.01.2020
4706 Clear 10 1028 50 16093 1.5 60 08:56 13.01.2020
4707 Clear 11 1029 44 16093 2.6 280 08:36 13.01.2020
4708 Clear 11 1029 44 16093 2.6 280 08:18 13.01.2020
4709 Clear 12 1029 41 16093 2.1 290 07:42 13.01.2020
4710 Clear 12 1029 41 16093 2.1 290 07:21 13.01.2020
4711 Clear 13 1029 38 16093 3.6 330 06:37 13.01.2020
4712 Clear 14 1028 36 16093 1.5 340 05:37 13.01.2020
4713 Clear 15 1028 42 16093 3.1 30 04:56 13.01.2020
4714 Clear 16 1027 32 14484 5.1 20 03:41 13.01.2020
4715 Clear 19 1025 37 12874 4.1 130 02:50 13.01.2020
4716 Clear 19 1025 37 12874 4.1 130 02:30 13.01.2020
4717 Clouds 21 1025 21 12874 3.1 80 01:33 13.01.2020
4718 Clouds 22 1025 17 12874 3.1 20 00:46 13.01.2020
4719 Clouds 22 1025 17 12874 3.1 20 00:26 13.01.2020
4720 Clouds 24 1025 17 12874 2.1 120 23:58 12.01.2020
4721 Clouds 24 1025 17 12874 2.1 120 23:40 12.01.2020
4722 Clouds 24 1025 17 12874 2.1 120 23:21 12.01.2020
4723 Clouds 25 1025 17 12874 2.1 110 22:56 12.01.2020
4724 Clouds 25 1025 17 12874 2.1 110 22:37 12.01.2020
4725 Clouds 24 1025 17 12874 2.1 110 22:18 12.01.2020
4726 Clouds 23 1026 20 11265 2.6 140 21:42 12.01.2020
4727 Clouds 23 1026 20 11265 2.6 140 21:20 12.01.2020
4728 Clouds 23 1028 24 11265 2.47 307 20:59 12.01.2020
4729 Clouds 22 1028 24 11265 2.47 307 20:39 12.01.2020
4730 Clouds 22 1028 24 11265 1.06 310 20:21 12.01.2020
4731 Clouds 21 1028 26 11265 1.06 310 19:57 12.01.2020
4732 Clouds 20 1029 34 8047 2.1 150 19:38 12.01.2020
4733 Clouds 20 1029 34 8047 2.1 150 19:19 12.01.2020
4734 Clouds 19 1030 42 8047 1.06 310 18:58 12.01.2020
4735 Clouds 18 1030 42 8047 1.06 310 18:40 12.01.2020
4736 Clouds 18 1030 42 8047 1.06 310 18:21 12.01.2020
4737 Clouds 16 1030 47 8047 2.1 140 17:58 12.01.2020
4738 Clouds 16 1030 47 8047 2.1 140 17:40 12.01.2020
4739 Clouds 16 1030 47 8047 2.1 140 17:19 12.01.2020
4740 Clouds 13 1030 66 8047 1.5 90 16:56 12.01.2020
4741 Clouds 12 1030 66 8047 1.5 90 16:37 12.01.2020
4742 Clouds 12 1030 66 8047 1.5 90 16:19 12.01.2020
4743 Clouds 9 1031 70 8047 0.44 84 15:43 12.01.2020
4744 Clouds 9 1030 80 8047 0.44 84 15:24 12.01.2020
4745 Clouds 8 1028 81 9656 2.1 80 14:57 12.01.2020
4746 Clouds 9 1028 81 9656 2.1 80 14:38 12.01.2020
4747 Clouds 8 1028 81 9656 2.1 80 14:20 12.01.2020
4748 Clear 4 1027 87 11265 3.1 60 13:54 12.01.2020
4749 Clear 4 1027 87 11265 3.1 60 13:36 12.01.2020
4750 Clear 4 1027 87 11265 3.1 60 13:18 12.01.2020
4751 Clear 6 1027 75 11265 2.6 80 12:42 12.01.2020
4752 Clear 6 1027 75 11265 2.6 80 12:20 12.01.2020
4753 Clear 6 1026 75 11265 3.1 60 11:58 12.01.2020
4754 Clear 6 1026 75 11265 3.1 60 11:39 12.01.2020
4755 Clear 6 1026 75 11265 3.1 60 11:20 12.01.2020
4756 Clouds 8 1026 66 11265 4.1 80 10:41 12.01.2020
4757 Clouds 8 1026 66 11265 4.1 80 10:22 12.01.2020
4758 Clear 8 1027 57 12874 3.1 90 09:57 12.01.2020
4759 Clear 8 1027 57 12874 3.1 90 09:38 12.01.2020
4760 Clear 8 1027 57 12874 3.1 90 09:19 12.01.2020
4761 Clear 9 1027 54 12874 2.1 100 08:45 12.01.2020
4762 Clear 10 1027 50 12874 2.6 300 08:20 12.01.2020
4763 Clear 11 1027 47 12874 3.6 300 07:41 12.01.2020
4764 Clear 11 1027 47 12874 3.6 300 07:41 12.01.2020
4765 Clear 12 1027 47 12874 3.6 300 07:23 12.01.2020
4766 Clear 13 1027 41 12874 4.1 300 06:48 12.01.2020
4767 Clear 13 1027 41 12874 4.1 300 06:30 12.01.2020
4768 Clear 14 1026 36 12874 3.6 310 05:32 12.01.2020
4769 Clear 14 1026 36 16093 3.1 360 04:30 12.01.2020
4770 Clear 16 1025 43 16093 2.1 150 03:25 12.01.2020
4771 Clouds 20 1024 32 16093 5.1 140 02:34 12.01.2020
4772 Clouds 22 1024 22 14484 3.1 100 01:51 12.01.2020
4773 Clouds 22 1024 22 14484 3.1 100 01:29 12.01.2020
4774 Clouds 24 1023 19 12874 2.1 120 00:41 12.01.2020
4775 Clouds 24 1023 19 12874 2.1 120 00:20 12.01.2020
4776 Clouds 24 1024 18 12874 2.1 90 23:42 11.01.2020
4777 Clouds 24 1024 18 12874 2.1 90 23:42 11.01.2020
4778 Clouds 24 1024 18 12874 2.1 90 23:42 11.01.2020
4779 Clouds 24 1024 18 12874 2.1 90 23:20 11.01.2020
4780 Clouds 24 1024 21 12874 4.1 130 22:59 11.01.2020
4781 Clouds 24 1024 21 12874 4.1 130 22:41 11.01.2020
4782 Clouds 24 1024 21 12874 4.1 130 22:20 11.01.2020
4783 Clouds 24 1025 20 11265 1.5 140 21:58 11.01.2020
4784 Clouds 24 1025 20 11265 1.5 140 21:40 11.01.2020
4785 Clouds 24 1025 20 11265 1.5 140 21:18 11.01.2020
4786 Clear 23 1027 20 11265 2.1 60 20:41 11.01.2020
4787 Clear 22 1027 27 11265 2.1 60 20:22 11.01.2020
4788 Clouds 22 1028 28 11265 2.42 343 19:58 11.01.2020
4789 Clouds 21 1028 28 11265 2.42 343 19:39 11.01.2020
4790 Clouds 21 1028 28 11265 2.42 343 19:21 11.01.2020
4791 Clouds 20 1030 33 9656 1.5 200 18:59 11.01.2020
4792 Clouds 19 1029 29 11265 2.1 340 18:39 11.01.2020
4793 Clouds 19 1029 29 11265 2.1 340 18:20 11.01.2020
4794 Clouds 18 1030 36 12874 2.42 343 17:57 11.01.2020
4795 Clouds 18 1030 36 12874 2.42 343 17:57 11.01.2020
4796 Clouds 17 1030 36 12874 2.42 343 17:39 11.01.2020
4797 Clouds 17 1030 36 12874 0.96 324 17:19 11.01.2020
4798 Clouds 13 1031 70 8047 1.5 110 16:45 11.01.2020
4799 Clouds 12 1030 46 14484 2.1 110 16:27 11.01.2020
4800 Clouds 10 1031 34 8047 2.1 80 15:59 11.01.2020
4801 Clouds 9 1029 34 16093 3.1 90 15:41 11.01.2020
4802 Clouds 9 1029 34 16093 3.1 90 15:22 11.01.2020
4803 Clouds 8 1028 53 16093 1.5 290 14:57 11.01.2020
4804 Clouds 8 1028 53 16093 1.5 290 14:38 11.01.2020
4805 Clouds 6 1027 57 16093 2.1 320 14:20 11.01.2020
4806 Clouds 6 1027 57 16093 2.1 320 13:40 11.01.2020
4807 Clouds 6 1027 57 16093 2.1 320 13:20 11.01.2020
4808 Clouds 6 1027 57 19312 2.1 360 12:58 11.01.2020
4809 Clouds 5 1027 57 19312 2.1 360 12:40 11.01.2020
4810 Clouds 5 1027 57 19312 2.1 360 12:21 11.01.2020
4811 Clouds 4 1026 57 19312 1.5 80 11:48 11.01.2020
4812 Clouds 4 1026 57 19312 1.5 80 11:26 11.01.2020
4813 Clouds 3 1026 57 19312 1.63 115 10:51 11.01.2020
4814 Clear 5 1027 50 19312 1.5 250 10:30 11.01.2020
4815 Dust 8 1027 50 19312 1.5 230 09:58 11.01.2020
4816 Dust 8 1027 50 19312 1.5 230 09:38 11.01.2020
4817 Dust 8 1027 50 19312 1.5 230 09:20 11.01.2020
4818 Dust 9 1027 46 19312 1.63 115 08:42 11.01.2020
4819 Dust 9 1027 46 19312 1.35 134 08:21 11.01.2020
4820 Clouds 12 1027 44 19312 1.5 230 07:44 11.01.2020
4821 Clouds 12 1027 44 19312 1.5 230 07:25 11.01.2020
4822 Clouds 13 1027 41 16093 2.1 240 06:50 11.01.2020
4823 Clear 13 1027 38 16093 1.21 123 05:40 11.01.2020
4824 Clear 14 1026 36 16093 2.1 160 04:46 11.01.2020
4825 Clear 14 1026 36 16093 2.1 160 04:27 11.01.2020
4826 Clouds 19 1024 29 14484 4.1 140 02:49 11.01.2020
4827 Clouds 19 1024 29 14484 4.1 140 02:20 11.01.2020
4828 Clouds 21 1024 24 14484 4.6 150 01:42 11.01.2020
4829 Clouds 22 1024 24 14484 4.6 150 01:18 11.01.2020
4830 Clouds 23 1023 20 14484 3.1 180 00:38 11.01.2020
4831 Clouds 24 1023 20 16093 4.6 180 23:59 10.01.2020
4832 Clouds 24 1023 20 16093 4.6 180 23:40 10.01.2020
4833 Clouds 24 1023 20 16093 4.6 180 23:21 10.01.2020
4834 Clear 24 1023 17 16093 6.7 150 22:57 10.01.2020
4835 Clear 24 1023 17 16093 6.7 150 22:39 10.01.2020
4836 Clear 24 1023 17 16093 6.7 150 22:20 10.01.2020
4837 Clear 24 1024 19 16093 2.6 220 21:56 10.01.2020
4838 Clear 24 1024 19 16093 2.6 220 21:36 10.01.2020
4839 Clear 24 1024 19 16093 2.6 220 21:18 10.01.2020
4840 Clear 23 1024 20 16093 3.1 220 20:43 10.01.2020
4841 Clear 23 1024 20 16093 3.1 220 20:43 10.01.2020
4842 Clear 22 1025 26 16093 1.15 229 20:24 10.01.2020
4843 Clear 21 1026 30 16093 2.1 60 19:56 10.01.2020
4844 Clear 21 1026 30 16093 2.1 60 19:37 10.01.2020
4845 Clear 21 1026 30 16093 2.1 60 19:19 10.01.2020
4846 Clear 20 1026 30 16093 2.1 60 19:19 10.01.2020
4847 Clear 18 1028 36 16093 2.1 160 18:42 10.01.2020
4848 Clear 18 1028 36 16093 2.1 160 18:19 10.01.2020
4849 Clear 17 1030 17 8047 1.15 229 17:57 10.01.2020
4850 Clear 14 1029 36 16093 2.1 60 17:39 10.01.2020
4851 Clear 16 1029 36 16093 2.1 60 17:20 10.01.2020
4852 Clear 14 1031 29 6437 1.5 100 16:56 10.01.2020
4853 Clear 14 1031 29 6437 1.5 100 16:37 10.01.2020
4854 Clear 14 1031 29 6437 1.5 100 16:19 10.01.2020
4855 Clear 9 1031 80 6437 1.5 80 15:56 10.01.2020
4856 Clear 8 1028 29 12874 1.5 280 15:36 10.01.2020
4857 Clear 8 1028 29 12874 1.5 280 15:18 10.01.2020
4858 Clear 8 1027 29 12874 1 50 14:54 10.01.2020
4859 Clear 8 1027 29 12874 1 50 14:36 10.01.2020
4860 Clear 8 1027 33 12874 1 50 14:18 10.01.2020
4861 Clear 4 1027 56 12874 2.6 60 13:42 10.01.2020
4862 Clear 4 1027 56 12874 2.6 60 13:23 10.01.2020
4863 Clear 4 1026 36 12874 3.6 60 12:58 10.01.2020
4864 Clear 4 1026 36 12874 3.6 60 12:39 10.01.2020
4865 Clear 4 1026 36 12874 3.6 60 12:39 10.01.2020
4866 Clear 4 1026 36 12874 3.6 60 12:19 10.01.2020
4867 Clear 5 1026 57 12874 1 230 11:55 10.01.2020
4868 Clear 5 1026 57 12874 1 230 11:37 10.01.2020
4869 Clear 7 1026 57 12874 1 230 11:18 10.01.2020
4870 Clear 5 1026 40 12874 1.5 60 10:44 10.01.2020
4871 Clear 5 1026 40 12874 1.5 60 10:24 10.01.2020
4872 Clear 6 1026 40 12874 1 50 09:59 10.01.2020
4873 Clear 5 1026 40 12874 1 50 09:40 10.01.2020
4874 Clear 9 1026 40 12874 2.6 40 09:22 10.01.2020
4875 Clear 11 1027 33 12874 3.1 260 08:43 10.01.2020
4876 Clear 11 1027 33 12874 3.1 260 08:24 10.01.2020
4877 Clear 11 1026 33 12874 2.1 200 07:46 10.01.2020
4878 Clear 11 1026 33 12874 2.1 200 07:28 10.01.2020
4879 Clear 12 1026 42 12874 3.1 160 06:50 10.01.2020
4880 Clear 12 1026 42 12874 3.1 160 06:26 10.01.2020
4881 Clouds 13 1027 42 12874 2.6 150 05:51 10.01.2020
4882 Clear 16 1026 39 16093 3.1 100 03:46 10.01.2020
4883 Clear 16 1026 39 16093 3.1 100 03:27 10.01.2020
4884 Clouds 18 1025 39 16093 6.2 120 02:50 10.01.2020
4885 Clouds 21 1024 20 14484 5.1 140 01:47 10.01.2020
4886 Clouds 21 1024 20 14484 5.1 140 01:47 10.01.2020
4887 Clouds 21 1024 18 14484 5.1 140 01:28 10.01.2020
4888 Clouds 23 1024 11 11265 2.1 240 00:44 10.01.2020
4889 Clouds 23 1024 11 11265 2.1 240 00:19 10.01.2020
4890 Clouds 24 1024 9 9656 2.1 200 23:39 09.01.2020
4891 Clouds 24 1024 9 9656 2.1 200 23:39 09.01.2020
4892 Clouds 24 1024 9 9656 2.1 200 23:20 09.01.2020
4893 Clouds 24 1024 14 8047 2.1 320 22:58 09.01.2020
4894 Clouds 24 1024 14 8047 2.1 320 22:39 09.01.2020
4895 Clouds 24 1024 14 8047 2.1 320 22:39 09.01.2020
4896 Clouds 24 1024 14 8047 2.1 320 22:19 09.01.2020
4897 Clouds 24 1024 14 8047 2.1 320 22:19 09.01.2020
4898 Clouds 24 1026 13 6437 2.1 40 21:57 09.01.2020
4899 Clouds 24 1026 13 6437 2.1 40 21:38 09.01.2020
4900 Clouds 23 1026 13 6437 2.1 40 21:19 09.01.2020
4901 Clear 23 1026 15 6437 2.6 150 20:58 09.01.2020
4902 Clear 23 1026 15 6437 2.6 150 20:39 09.01.2020
4903 Clear 22 1027 19 8047 3.1 240 20:20 09.01.2020
4904 Clouds 21 1027 30 6437 2.1 280 19:57 09.01.2020
4905 Clouds 21 1027 30 6437 2.1 280 19:38 09.01.2020
4906 Clouds 21 1028 30 8047 2.1 200 19:19 09.01.2020
4907 Clouds 18 1030 36 8047 0.57 346 18:55 09.01.2020
4908 Clouds 18 1030 36 8047 0.57 346 18:36 09.01.2020
4909 Clouds 18 1030 36 8047 0.57 346 18:18 09.01.2020
4910 Clouds 15 1030 50 9656 2.1 100 17:41 09.01.2020
4911 Clouds 14 1030 50 9656 2.1 100 17:18 09.01.2020
4912 Haze 11 1031 65 4828 0.63 138 16:49 09.01.2020
4913 Clear 11 1030 61 9656 2.1 60 16:24 09.01.2020
4914 Clear 9 1030 61 9656 2.1 70 15:59 09.01.2020
4915 Clear 8 1030 61 9656 2.1 70 15:40 09.01.2020
4916 Clear 8 1030 61 9656 2.1 70 15:19 09.01.2020
4917 Clear 6 1029 42 9656 1.5 90 14:43 09.01.2020
4918 Clear 6 1029 49 9656 1.5 90 14:22 09.01.2020
4919 Clouds 7 1028 65 9656 0.57 121 13:57 09.01.2020
4920 Clouds 7 1028 65 9656 0.57 121 13:39 09.01.2020
4921 Clouds 7 1028 65 9656 1.02 112 13:20 09.01.2020
4922 Clouds 5 1027 65 11265 1.02 112 12:59 09.01.2020
4923 Clouds 5 1027 65 11265 1.02 112 12:40 09.01.2020
4924 Clouds 5 1027 65 11265 1.02 112 12:40 09.01.2020
4925 Clouds 5 1027 65 11265 1.02 112 12:20 09.01.2020
4926 Clouds 4 1027 65 11265 2.1 60 11:57 09.01.2020
4927 Clouds 4 1027 65 11265 2.1 60 11:38 09.01.2020
4928 Clouds 5 1027 65 11265 2.1 60 11:20 09.01.2020
4929 Clouds 7 1028 61 11265 2.1 70 10:43 09.01.2020
4930 Clouds 7 1028 61 11265 2.1 70 10:22 09.01.2020
4931 Clouds 7 1028 61 11265 2.1 60 09:58 09.01.2020
4932 Clouds 5 1028 61 11265 2.1 60 09:38 09.01.2020
4933 Dust 8 1029 57 12874 2.1 80 09:19 09.01.2020
4934 Clouds 8 1029 57 12874 1.5 70 08:55 09.01.2020
4935 Clouds 8 1029 57 12874 1.5 70 08:37 09.01.2020
4936 Clouds 8 1029 57 12874 1.5 70 08:19 09.01.2020
4937 Clouds 9 1029 58 12874 1.36 32 07:42 09.01.2020
4938 Clouds 9 1029 58 12874 1.36 32 07:23 09.01.2020
4939 Clear 12 1029 47 12874 3.6 30 06:38 09.01.2020
4940 Clear 12 1029 47 12874 3.6 30 06:20 09.01.2020
4941 Clear 13 1029 36 12874 3.6 300 05:48 09.01.2020
4942 Clear 14 1028 39 16093 3.1 260 04:43 09.01.2020
4943 Clear 14 1027 42 16093 4.6 120 03:31 09.01.2020
4944 Clouds 17 1026 39 12874 4.1 130 02:52 09.01.2020
4945 Clouds 17 1026 39 12874 4.1 130 02:24 09.01.2020
4946 Clouds 19 1026 36 12874 7.2 120 01:38 09.01.2020
4947 Clear 21 1026 15 8047 2.1 30 00:42 09.01.2020
4948 Clear 21 1026 15 8047 2.1 30 00:42 09.01.2020
4949 Clear 21 1026 15 8047 2.1 30 00:21 09.01.2020
4950 Clear 22 1026 15 8047 1.5 20 23:42 08.01.2020
4951 Clear 22 1026 15 8047 1.5 20 23:42 08.01.2020
4952 Clear 22 1026 15 8047 1.5 20 23:24 08.01.2020
4953 Clear 22 1027 16 8047 1.5 140 22:58 08.01.2020
4954 Clear 22 1027 16 8047 1.5 140 22:38 08.01.2020
4955 Clear 22 1027 16 8047 1.5 140 22:20 08.01.2020
4956 Clear 22 1028 19 6437 1.87 345 21:57 08.01.2020
4957 Clear 22 1028 19 6437 1.87 345 21:38 08.01.2020
4958 Clear 22 1028 19 6437 1.87 345 21:19 08.01.2020
4959 Clear 20 1029 27 6437 2.1 80 20:57 08.01.2020
4960 Clear 20 1029 27 6437 2.1 80 20:38 08.01.2020
4961 Clear 20 1029 27 6437 2.1 80 20:19 08.01.2020
4962 Clear 19 1030 27 6437 2.6 170 19:55 08.01.2020
4963 Clear 19 1030 27 6437 2.6 170 19:55 08.01.2020
4964 Clear 19 1030 27 6437 2.6 170 19:36 08.01.2020
4965 Clear 18 1031 36 6437 0.75 293 19:18 08.01.2020
4966 Clear 16 1032 41 6437 2.6 90 18:54 08.01.2020
4967 Clear 16 1032 41 6437 2.6 90 18:54 08.01.2020
4968 Clear 16 1032 41 6437 2.6 90 18:36 08.01.2020
4969 Clear 15 1032 50 6437 2.1 80 18:18 08.01.2020
4970 Clear 15 1032 50 6437 2.1 80 18:18 08.01.2020
4971 Haze 13 1033 32 4828 2.1 160 17:42 08.01.2020
4972 Clear 14 1033 57 8047 1.3 16 17:23 08.01.2020
4973 Clear 9 1033 65 9656 2.1 110 16:57 08.01.2020
4974 Clear 9 1033 65 9656 2.1 110 16:39 08.01.2020
4975 Clear 9 1033 65 9656 2.1 110 16:19 08.01.2020
4976 Clear 9 1033 65 9656 2.1 110 16:19 08.01.2020
4977 Clear 6 1033 75 9656 1.5 50 15:57 08.01.2020
4978 Clear 6 1033 75 9656 1.5 50 15:39 08.01.2020
4979 Clear 6 1033 75 9656 1.5 50 15:18 08.01.2020
4980 Clear 5 1032 80 11265 1.5 80 14:55 08.01.2020
4981 Clear 5 1032 80 11265 1.5 80 14:36 08.01.2020
4982 Clear 3 1032 80 11265 1.5 80 14:18 08.01.2020
4983 Clear 3 1031 80 12874 3.1 70 13:38 08.01.2020
4984 Clear 3 1031 80 12874 3.1 70 13:18 08.01.2020
4985 Clear 4 1031 75 12874 2.6 70 12:41 08.01.2020
4986 Clear 4 1031 65 12874 1.5 100 12:18 08.01.2020
4987 Clear 4 1031 61 12874 1 70 11:55 08.01.2020
4988 Clear 4 1031 61 12874 1 70 11:36 08.01.2020
4989 Clear 4 1031 59 12874 1 70 11:18 08.01.2020
4990 Clouds 7 1031 59 12874 2.1 100 10:41 08.01.2020
4991 Clouds 7 1031 59 12874 2.1 100 10:22 08.01.2020
4992 Clouds 6 1031 59 12874 2.1 80 09:58 08.01.2020
4993 Clouds 6 1031 59 12874 2.1 80 09:38 08.01.2020
4994 Clouds 6 1031 59 12874 2.1 80 09:18 08.01.2020
4995 Clouds 6 1031 59 12874 2.1 70 08:42 08.01.2020
4996 Clouds 6 1031 59 12874 2.1 70 08:24 08.01.2020
4997 Clouds 8 1031 55 12874 2.6 280 07:59 08.01.2020
4998 Clouds 8 1031 55 12874 2.6 280 07:59 08.01.2020
4999 Clouds 8 1031 55 12874 2.6 280 07:59 08.01.2020
5000 Clouds 8 1031 55 12874 2.6 280 07:41 08.01.2020
5001 Clouds 8 1031 55 12874 2.6 280 07:20 08.01.2020
5002 Clouds 10 1031 43 12874 4.1 290 06:44 08.01.2020
5003 Clouds 11 1031 55 12874 3.6 290 05:57 08.01.2020
5004 Clouds 11 1031 50 12874 3.6 290 05:27 08.01.2020
5005 Clouds 12 1031 37 16093 3.42 3 04:37 08.01.2020
5006 Clouds 17 1030 21 14484 2.6 360 02:48 08.01.2020
5007 Clouds 17 1030 21 14484 2.6 360 02:30 08.01.2020
5008 Clouds 19 1029 13 12874 3.1 360 01:58 08.01.2020
5009 Clouds 19 1029 13 12874 3.1 360 01:38 08.01.2020
5010 Clouds 22 1028 55 12874 3.1 290 00:52 08.01.2020
5011 Clouds 21 1028 55 12874 3.1 290 00:24 08.01.2020
5012 Clouds 21 1028 10 14484 5.65 10 23:46 07.01.2020
5013 Clouds 21 1028 10 14484 3.8 353 23:21 07.01.2020
5014 Clouds 21 1028 10 14484 3.8 353 23:21 07.01.2020
5015 Clouds 22 1029 10 16093 5.1 350 22:57 07.01.2020
5016 Clouds 22 1029 10 16093 5.1 350 22:38 07.01.2020
5017 Clouds 22 1029 10 16093 5.1 350 22:19 07.01.2020
5018 Clouds 21 1029 11 16093 2.1 330 21:42 07.01.2020
5019 Clouds 21 1029 11 16093 2.1 330 21:22 07.01.2020
5020 Clouds 21 1029 11 16093 2.1 330 21:22 07.01.2020
5021 Clouds 20 1031 9 16093 5.1 60 20:58 07.01.2020
5022 Clouds 20 1031 9 16093 5.1 60 20:40 07.01.2020
5023 Clouds 19 1031 9 16093 5.1 60 20:21 07.01.2020
5024 Clouds 19 1032 8 16093 5.1 30 19:57 07.01.2020
5025 Clouds 19 1032 8 16093 5.1 30 19:37 07.01.2020
5026 Clouds 19 1032 8 16093 5.1 30 19:19 07.01.2020
5027 Clouds 18 1033 13 16093 3.6 320 18:56 07.01.2020
5028 Clouds 18 1033 13 16093 3.6 320 18:38 07.01.2020
5029 Clouds 18 1033 13 16093 3.6 320 18:18 07.01.2020
5030 Clear 16 1033 16 16093 4.1 10 17:54 07.01.2020
5031 Clear 16 1033 16 16093 4.1 10 17:36 07.01.2020
5032 Clear 16 1033 16 16093 4.1 10 17:18 07.01.2020
5033 Clear 12 1033 22 16093 2.52 356 16:54 07.01.2020
5034 Clear 12 1033 22 16093 2.52 356 16:36 07.01.2020
5035 Clear 12 1033 29 16093 2.1 320 16:18 07.01.2020
5036 Clear 12 1033 29 16093 2.1 320 16:18 07.01.2020
5037 Clear 8 1031 34 16093 2.1 280 15:42 07.01.2020
5038 Clear 8 1031 34 16093 2.1 280 15:23 07.01.2020
5039 Clear 7 1030 45 12874 2.52 356 14:58 07.01.2020
5040 Clear 7 1030 45 12874 2.52 356 14:38 07.01.2020
5041 Clear 4 1030 45 12874 1.9 350 14:19 07.01.2020
5042 Clear 4 1030 45 12874 1.9 350 14:19 07.01.2020
5043 Clear 4 1030 45 12874 2.6 70 13:44 07.01.2020
5044 Clear 4 1030 45 12874 2.6 70 13:20 07.01.2020
5045 Clear 4 1030 45 12874 2.6 60 12:55 07.01.2020
5046 Clear 4 1030 45 12874 2.6 60 12:36 07.01.2020
5047 Clear 5 1030 39 12874 2.05 351 12:18 07.01.2020
5048 Clouds 5 1029 42 16093 2.05 351 11:41 07.01.2020
5049 Clouds 6 1029 42 16093 2.03 7 11:22 07.01.2020
5050 Clouds 6 1030 42 16093 2.03 7 10:55 07.01.2020
5051 Clouds 6 1030 42 16093 2.03 7 10:37 07.01.2020
5052 Clouds 7 1030 39 16093 2.6 60 10:19 07.01.2020
5053 Dust 8 1030 37 16093 2.03 7 09:38 07.01.2020
5054 Dust 7 1030 37 16093 2.03 7 09:20 07.01.2020
5055 Dust 7 1030 37 16093 2.03 7 09:20 07.01.2020
5056 Dust 7 1030 25 16093 1.5 70 08:47 07.01.2020
5057 Clouds 9 1030 35 16093 2.1 20 08:28 07.01.2020
5058 Clouds 11 1030 20 12874 1.5 260 07:55 07.01.2020
5059 Clouds 11 1030 20 12874 1.5 260 07:35 07.01.2020
5060 Clouds 11 1030 41 12874 2.6 270 06:54 07.01.2020
5061 Clouds 11 1030 41 12874 2.6 270 06:35 07.01.2020
5062 Clouds 12 1029 44 12874 1.24 334 05:58 07.01.2020
5063 Clouds 12 1029 44 12874 1.24 334 05:39 07.01.2020
5064 Clouds 16 1028 32 14484 3.1 110 03:44 07.01.2020
5065 Clouds 19 1027 28 12874 3.6 70 02:38 07.01.2020
5066 Clouds 21 1026 26 9656 4.1 120 01:59 07.01.2020
5067 Clouds 21 1026 26 9656 4.1 120 01:35 07.01.2020
5068 Clouds 24 1025 13 8047 3.1 40 00:51 07.01.2020
5069 Clouds 24 1025 13 8047 3.1 40 00:20 07.01.2020
5070 Clouds 24 1025 13 8047 2.1 70 23:56 06.01.2020
5071 Clouds 24 1025 13 8047 2.1 70 23:37 06.01.2020
5072 Clouds 24 1025 13 8047 2.1 70 23:18 06.01.2020
5073 Clouds 24 1026 15 9656 5.7 360 22:43 06.01.2020
5074 Clouds 24 1026 15 9656 5.7 360 22:24 06.01.2020
5075 Clouds 23 1027 17 9656 2.6 140 21:58 06.01.2020
5076 Clouds 23 1027 17 9656 2.6 140 21:39 06.01.2020
5077 Clouds 23 1027 17 9656 2.6 140 21:20 06.01.2020
5078 Clouds 23 1027 17 9656 2.6 140 21:20 06.01.2020
5079 Clear 22 1028 16 9656 2.15 0 20:57 06.01.2020
5080 Clear 22 1028 16 9656 2.15 0 20:38 06.01.2020
5081 Clear 22 1028 16 9656 0.5 343 20:20 06.01.2020
5082 Clear 20 1030 25 9656 2.1 50 19:56 06.01.2020
5083 Clear 20 1030 25 9656 2.1 50 19:38 06.01.2020
5084 Clear 19 1030 25 9656 2.1 50 19:19 06.01.2020
5085 Clear 18 1031 25 9656 2.1 70 18:47 06.01.2020
5086 Clear 18 1031 25 9656 2.1 70 18:47 06.01.2020
5087 Clear 17 1031 28 11265 0.5 343 18:21 06.01.2020
5088 Clear 15 1031 30 12874 1.5 140 17:58 06.01.2020
5089 Clear 15 1031 30 12874 1.5 140 17:38 06.01.2020
5090 Clear 15 1031 30 12874 1.5 140 17:18 06.01.2020
5091 Clear 11 1031 39 16093 1.5 110 16:44 06.01.2020
5092 Clear 11 1031 39 16093 1.5 110 16:25 06.01.2020
5093 Clear 6 1031 52 16093 2.6 70 15:59 06.01.2020
5094 Clear 6 1031 52 16093 2.6 70 15:38 06.01.2020
5095 Clear 6 1031 52 16093 2.6 70 15:18 06.01.2020
5096 Clear 5 1031 60 12874 2.6 70 14:56 06.01.2020
5097 Clear 5 1031 60 12874 2.6 70 14:37 06.01.2020
5098 Clear 3 1031 48 12874 1.5 100 14:18 06.01.2020
5099 Clear 3 1031 48 12874 1.5 100 14:18 06.01.2020
5100 Clear 4 1030 48 12874 1 50 13:41 06.01.2020
5101 Clear 4 1030 48 12874 1 50 13:22 06.01.2020
5102 Clear 3 1031 33 8047 0.97 20 12:59 06.01.2020
5103 Clear 2 1031 33 8047 0.97 20 12:41 06.01.2020
5104 Clear 3 1031 33 8047 0.97 20 12:20 06.01.2020
5105 Clear 4 1030 52 12874 2.6 60 11:55 06.01.2020
5106 Clear 4 1030 52 12874 2.6 60 11:37 06.01.2020
5107 Clear 4 1030 52 12874 2.6 60 11:18 06.01.2020
5108 Clear 4 1030 52 12874 2.6 60 10:42 06.01.2020
5109 Clear 4 1030 52 12874 2.6 60 10:21 06.01.2020
5110 Clear 6 1031 45 12874 2.1 70 09:42 06.01.2020
5111 Clear 6 1031 45 12874 2.1 70 09:24 06.01.2020
5112 Clear 7 1031 37 12874 3.1 100 08:58 06.01.2020
5113 Clear 7 1031 37 12874 3.1 100 08:38 06.01.2020
5114 Clear 8 1031 37 12874 3.1 100 08:19 06.01.2020
5115 Clear 8 1031 37 12874 2.1 90 07:44 06.01.2020
5116 Clear 11 1031 22 12874 3.1 280 06:55 06.01.2020
5117 Clear 11 1031 22 12874 3.1 280 06:35 06.01.2020
5118 Clear 12 1031 21 12874 1.5 340 05:48 06.01.2020
5119 Clear 13 1031 21 12874 1.5 340 05:24 06.01.2020
5120 Clear 13 1031 17 16093 2.1 360 04:24 06.01.2020
5121 Clear 14 1030 15 16093 2.1 220 03:51 06.01.2020
5122 Clouds 18 1029 9 16093 2.1 20 02:28 06.01.2020
5123 Clouds 21 1028 12 16093 1.5 50 01:53 06.01.2020
5124 Clouds 21 1028 12 16093 1.5 50 01:30 06.01.2020
5125 Clear 22 1028 11 16093 2.1 120 00:46 06.01.2020
5126 Clear 22 1028 11 16093 2.1 120 00:28 06.01.2020
5127 Clear 23 1028 13 16093 3.1 50 23:57 05.01.2020
5128 Clear 23 1028 13 16093 3.1 50 23:57 05.01.2020
5129 Clear 23 1028 13 16093 3.1 50 23:38 05.01.2020
5130 Clear 22 1028 13 16093 3.1 50 23:20 05.01.2020
5131 Clear 22 1029 24 16093 2.1 350 22:40 05.01.2020
5132 Clear 22 1029 24 16093 2.1 350 22:21 05.01.2020
5133 Clear 21 1030 10 16093 2.1 130 21:58 05.01.2020
5134 Clear 20 1030 10 16093 2.1 130 21:40 05.01.2020
5135 Clear 20 1030 10 16093 2.1 130 21:20 05.01.2020
5136 Clear 20 1032 13 16093 2.1 240 20:56 05.01.2020
5137 Clear 19 1032 13 16093 2.1 240 20:38 05.01.2020
5138 Clear 19 1032 13 16093 2.1 240 20:19 05.01.2020
5139 Clear 18 1033 16 16093 2.1 240 19:58 05.01.2020
5140 Clear 18 1033 16 16093 2.1 240 19:38 05.01.2020
5141 Clear 17 1034 21 16093 2.1 310 19:20 05.01.2020
5142 Clear 15 1035 26 16093 1.77 334 18:55 05.01.2020
5143 Clear 15 1035 26 16093 1.77 334 18:37 05.01.2020
5144 Clear 15 1035 26 16093 1.77 334 18:37 05.01.2020
5145 Clear 15 1035 37 16093 1.77 334 18:19 05.01.2020
5146 Clear 12 1036 40 16093 1.77 334 17:57 05.01.2020
5147 Clear 12 1036 40 16093 1.77 334 17:38 05.01.2020
5148 Clear 12 1036 40 16093 1.77 334 17:38 05.01.2020
5149 Clear 11 1036 45 17702 3.1 90 17:19 05.01.2020
5150 Clear 9 1036 56 19312 2.6 70 16:56 05.01.2020
5151 Clear 9 1036 56 19312 2.6 70 16:38 05.01.2020
5152 Clear 9 1036 56 19312 2.6 70 16:19 05.01.2020
5153 Clear 9 1036 56 19312 2.6 70 16:19 05.01.2020
5154 Clear 9 1036 56 19312 2.6 70 16:19 05.01.2020
5155 Clear 5 1035 64 19312 2.6 70 15:38 05.01.2020
5156 Clear 5 1035 64 19312 2.6 70 15:38 05.01.2020
5157 Clear 5 1035 64 19312 2.6 70 15:20 05.01.2020
5158 Clear 4 1034 64 16093 2.6 90 14:55 05.01.2020
5159 Clear 4 1034 64 16093 2.6 90 14:37 05.01.2020
5160 Clear 4 1034 64 16093 2.6 90 14:37 05.01.2020
5161 Clear 1 1034 64 16093 2.6 90 14:19 05.01.2020
5162 Clear 2 1034 69 16093 2.6 80 13:55 05.01.2020
5163 Clear 2 1034 69 16093 2.6 80 13:37 05.01.2020
5164 Clear 2 1034 69 16093 2.6 80 13:18 05.01.2020
5165 Clear 2 1034 69 16093 2.6 80 13:18 05.01.2020
5166 Clear 2 1034 69 16093 2.6 80 13:18 05.01.2020
5167 Clear 2 1034 69 16093 2.6 80 13:18 05.01.2020
5168 Clear 3 1033 64 16093 2.1 80 12:55 05.01.2020
5169 Clear 3 1033 64 16093 2.1 80 12:36 05.01.2020
5170 Clear 3 1033 64 16093 2.1 80 12:36 05.01.2020
5171 Clear 3 1033 64 16093 2.1 80 12:18 05.01.2020
5172 Clear 3 1033 64 16093 3.1 70 11:43 05.01.2020
5173 Clear 3 1033 64 16093 3.1 70 11:43 05.01.2020
5174 Clear 3 1033 64 16093 3.1 70 11:43 05.01.2020
5175 Clear 3 1033 64 16093 3.1 70 11:43 05.01.2020
5176 Clear 3 1033 64 16093 3.1 70 11:43 05.01.2020
5177 Clear 3 1033 64 16093 3.1 70 11:19 05.01.2020
5178 Clear 3 1033 69 16093 3.1 80 10:58 05.01.2020
5179 Clear 3 1033 69 16093 3.1 80 10:57 05.01.2020
5180 Clear 3 1033 69 16093 3.1 80 10:57 05.01.2020
5181 Clear 3 1033 69 16093 3.1 80 10:39 05.01.2020
5182 Clear 3 1033 69 16093 3.1 80 10:39 05.01.2020
5183 Clear 3 1033 69 16093 3.1 80 10:39 05.01.2020
5184 Clear 3 1033 69 16093 3.1 80 10:39 05.01.2020
5185 Clear 3 1033 69 16093 3.1 80 10:38 05.01.2020
5186 Clear 4 1034 60 16093 1.5 60 10:18 05.01.2020
5187 Clear 6 1034 61 16093 1.5 50 09:41 05.01.2020
5188 Clouds 7 1034 57 16093 2.6 280 09:21 05.01.2020
5189 Clouds 8 1034 53 16093 3.1 310 08:49 05.01.2020
5190 Clouds 8 1034 53 16093 3.1 310 08:30 05.01.2020
5191 Clouds 8 1035 52 16093 2.6 310 07:56 05.01.2020
5192 Clouds 8 1035 52 16093 2.6 310 07:37 05.01.2020
5193 Clouds 8 1035 52 16093 2.6 310 07:18 05.01.2020
5194 Clouds 10 1035 46 16093 2.6 30 05:59 05.01.2020
5195 Clouds 10 1035 46 16093 2.6 30 05:30 05.01.2020
5196 Clear 10 1034 40 16093 3.1 40 04:43 05.01.2020
5197 Clouds 11 1033 41 12874 4.1 320 03:52 05.01.2020
5198 Clouds 19 1032 41 11265 4.1 360 02:46 05.01.2020
5199 Clouds 19 1032 41 11265 4.1 360 02:46 05.01.2020
5200 Clouds 17 1032 41 11265 4.1 360 02:22 05.01.2020
5201 Clouds 18 1031 41 9656 4.1 330 01:46 05.01.2020
5202 Clouds 18 1031 41 9656 4.1 330 01:18 05.01.2020
5203 Clouds 21 1030 39 6437 3.1 310 00:41 05.01.2020
5204 Clouds 21 1030 39 6437 3.1 310 00:41 05.01.2020
5205 Clouds 20 1030 39 6437 3.1 310 00:22 05.01.2020
5206 Clouds 20 1030 36 6437 4.1 80 23:59 04.01.2020
5207 Clouds 21 1030 36 6437 4.1 80 23:39 04.01.2020
5208 Clouds 21 1030 36 6437 4.1 80 23:19 04.01.2020
5209 Clouds 21 1030 36 6437 3.1 40 22:39 04.01.2020
5210 Clouds 21 1030 36 6437 3.1 40 22:21 04.01.2020
5211 Clouds 20 1031 39 6437 2.1 30 21:57 04.01.2020
5212 Clouds 20 1031 39 6437 2.1 30 21:38 04.01.2020
5213 Clouds 20 1031 39 6437 2.1 30 21:19 04.01.2020
5214 Clouds 19 1032 41 6437 2.1 30 20:57 04.01.2020
5215 Clouds 19 1032 41 6437 2.1 30 20:38 04.01.2020
5216 Clouds 19 1032 41 6437 2.1 30 20:20 04.01.2020
5217 Clouds 18 1033 41 8047 1.5 0 19:42 04.01.2020
5218 Clouds 18 1033 41 8047 1.5 0 19:42 04.01.2020
5219 Clouds 18 1033 41 8047 1.5 0 19:24 04.01.2020
5220 Clouds 16 1034 50 8047 2.1 100 18:59 04.01.2020
5221 Clouds 16 1034 50 8047 2.1 100 18:40 04.01.2020
5222 Clouds 16 1034 50 8047 2.1 100 18:22 04.01.2020
5223 Clear 13 1035 62 8047 3.6 70 17:59 04.01.2020
5224 Clear 13 1035 62 8047 3.6 70 17:40 04.01.2020
5225 Clear 13 1035 62 8047 3.6 70 17:22 04.01.2020
5226 Clear 12 1034 62 8047 2.1 220 16:54 04.01.2020
5227 Clear 12 1034 62 8047 2.1 220 16:36 04.01.2020
5228 Clouds 10 1034 70 8047 3.1 260 16:18 04.01.2020
5229 Mist 9 1034 64 3219 2.83 2 15:42 04.01.2020
5230 Mist 9 1034 64 3219 2.83 2 15:42 04.01.2020
5231 Clear 8 1033 75 8047 4.1 260 15:20 04.01.2020
5232 Clouds 6 1031 70 11265 1 150 14:58 04.01.2020
5233 Clouds 6 1031 70 11265 1 150 14:40 04.01.2020
5234 Clouds 6 1031 70 11265 1 150 14:20 04.01.2020
5235 Clouds 5 1031 78 11265 2.1 100 13:56 04.01.2020
5236 Clouds 5 1031 78 11265 2.1 100 13:37 04.01.2020
5237 Clouds 5 1031 78 11265 2.1 100 13:37 04.01.2020
5238 Clouds 5 1031 74 11265 2.1 100 13:18 04.01.2020
5239 Clouds 6 1029 74 12874 2.1 70 12:42 04.01.2020
5240 Clouds 6 1029 74 12874 2.1 70 12:20 04.01.2020
5241 Clouds 6 1029 74 12874 1 50 11:59 04.01.2020
5242 Clouds 7 1029 74 12874 1 50 11:40 04.01.2020
5243 Clouds 5 1029 55 12874 1 50 11:19 04.01.2020
5244 Clouds 6 1029 57 12874 2.1 40 10:55 04.01.2020
5245 Clouds 6 1029 57 12874 2.1 40 10:55 04.01.2020
5246 Clouds 6 1029 57 12874 2.1 40 10:37 04.01.2020
5247 Clouds 6 1029 57 12874 2.1 40 10:19 04.01.2020
5248 Clouds 9 1029 54 12874 1 250 09:42 04.01.2020
5249 Clouds 9 1029 54 12874 1 250 09:23 04.01.2020
5250 Clouds 9 1029 54 12874 0.7 15 08:42 04.01.2020
5251 Clouds 9 1029 54 12874 1.27 127 08:21 04.01.2020
5252 Clouds 9 1029 50 12874 1 190 07:44 04.01.2020
5253 Clouds 9 1029 50 12874 1 190 07:26 04.01.2020
5254 Clouds 11 1029 44 12874 2.1 110 06:36 04.01.2020
5255 Clouds 12 1029 41 12874 2.6 80 05:45 04.01.2020
5256 Clouds 12 1028 41 16093 3.1 110 04:47 04.01.2020
5257 Clouds 13 1028 41 16093 3.1 110 04:27 04.01.2020
5258 Clouds 16 1027 36 17702 3.1 150 03:19 04.01.2020
5259 Clouds 17 1026 35 17702 5.1 130 02:23 04.01.2020
5260 Clouds 18 1025 31 17702 7.2 120 01:57 04.01.2020
5261 Clouds 18 1025 31 17702 7.2 120 01:32 04.01.2020
5262 Clouds 21 1024 19 17702 6.2 140 00:50 04.01.2020
5263 Clouds 21 1024 19 17702 6.2 140 00:28 04.01.2020
5264 Clouds 22 1023 18 17702 5.1 110 23:52 03.01.2020
5265 Clouds 22 1023 18 17702 5.1 110 23:27 03.01.2020
5266 Clouds 22 1023 15 17702 3.1 90 22:55 03.01.2020
5267 Clouds 22 1023 15 17702 3.1 90 22:55 03.01.2020
5268 Clouds 22 1023 15 17702 3.1 90 22:36 03.01.2020
5269 Clouds 22 1023 15 17702 3.1 90 22:18 03.01.2020
5270 Clouds 22 1023 10 19312 3.1 140 21:55 03.01.2020
5271 Clouds 21 1023 10 19312 3.1 140 21:37 03.01.2020
5272 Clouds 21 1023 10 19312 3.1 140 21:18 03.01.2020
5273 Clouds 21 1024 14 19312 2.1 90 20:43 03.01.2020
5274 Clouds 21 1024 14 19312 2.1 90 20:19 03.01.2020
5275 Clouds 20 1025 19 19312 2.6 40 19:59 03.01.2020
5276 Clouds 20 1025 19 19312 2.6 40 19:40 03.01.2020
5277 Clouds 20 1025 19 19312 2.6 40 19:22 03.01.2020
5278 Clouds 19 1026 27 19312 2.1 200 18:46 03.01.2020
5279 Clouds 19 1026 27 19312 2.1 200 18:26 03.01.2020
5280 Clouds 19 1026 27 19312 2.1 200 18:26 03.01.2020
5281 Clouds 16 1027 36 19312 1.5 110 17:57 03.01.2020
5282 Clouds 16 1027 36 19312 1.5 110 17:39 03.01.2020
5283 Clouds 15 1027 41 19312 1.5 140 17:19 03.01.2020
5284 Clouds 14 1026 47 19312 2.24 166 16:43 03.01.2020
5285 Clouds 13 1026 47 19312 2.24 166 16:24 03.01.2020
5286 Clouds 11 1022 63 16093 2.24 166 15:58 03.01.2020
5287 Clouds 10 1022 63 16093 2.24 166 15:40 03.01.2020
5288 Clouds 10 1025 50 19312 2.1 250 15:18 03.01.2020
5289 Clouds 10 1024 62 19312 4.1 110 14:39 03.01.2020
5290 Clouds 10 1024 62 19312 4.1 110 14:20 03.01.2020
5291 Clouds 9 1024 70 19312 2.6 140 13:56 03.01.2020
5292 Clouds 9 1024 70 19312 2.6 140 13:37 03.01.2020
5293 Clouds 9 1024 70 19312 2.6 140 13:19 03.01.2020
5294 Clouds 9 1024 70 19312 3.1 250 12:40 03.01.2020
5295 Clouds 9 1024 70 19312 3.1 250 12:21 03.01.2020
5296 Clouds 11 1023 47 19312 3.36 183 11:49 03.01.2020
5297 Clouds 11 1023 47 19312 3.36 183 11:30 03.01.2020
5298 Clouds 12 1022 47 19312 3.64 164 10:48 03.01.2020
5299 Clouds 12 1022 47 19312 3.64 164 10:28 03.01.2020
5300 Clouds 12 1023 50 19312 3.1 130 09:59 03.01.2020
5301 Clouds 12 1023 50 19312 3.1 130 09:41 03.01.2020
5302 Clouds 12 1023 50 19312 3.1 130 09:22 03.01.2020
5303 Clouds 14 1023 51 19312 5.1 150 08:57 03.01.2020
5304 Clouds 14 1023 51 19312 5.1 150 08:39 03.01.2020
5305 Clouds 14 1023 51 19312 5.1 150 08:20 03.01.2020
5306 Clouds 14 1023 51 19312 4.6 170 07:42 03.01.2020
5307 Clouds 14 1023 51 19312 4.6 170 07:19 03.01.2020
5308 Clouds 14 1023 48 19312 4.1 120 06:56 03.01.2020
5309 Clouds 14 1023 48 19312 4.1 120 06:37 03.01.2020
5310 Clouds 14 1023 41 19312 1.5 70 05:48 03.01.2020
5311 Clouds 14 1023 38 16093 2.1 110 04:42 03.01.2020
5312 Clouds 15 1022 33 16093 2.1 340 03:34 03.01.2020
5313 Clouds 17 1021 55 16093 1.5 180 02:47 03.01.2020
5314 Clouds 17 1021 34 16093 4.6 180 01:47 03.01.2020
5315 Clouds 18 1021 34 16093 6.7 210 00:57 03.01.2020
5316 Clouds 19 1021 34 16093 6.7 210 00:33 03.01.2020
5317 Clouds 19 1021 34 16093 6.2 200 23:58 02.01.2020
5318 Clouds 19 1021 34 16093 6.2 200 23:39 02.01.2020
5319 Clouds 18 1021 39 16093 9.8 260 23:19 02.01.2020
5320 Clouds 19 1020 37 16093 7.7 230 22:58 02.01.2020
5321 Clouds 20 1020 37 16093 7.7 230 22:39 02.01.2020
5322 Clouds 20 1020 37 16093 7.7 230 22:19 02.01.2020
5323 Clouds 21 1020 32 19312 6.2 230 21:55 02.01.2020
5324 Clouds 21 1020 32 19312 6.2 230 21:36 02.01.2020
5325 Clouds 21 1020 32 19312 6.2 230 21:18 02.01.2020
5326 Clouds 20 1021 32 19312 6.2 200 20:40 02.01.2020
5327 Clouds 20 1021 32 19312 6.2 200 20:21 02.01.2020
5328 Clouds 20 1022 32 19312 7.2 250 19:56 02.01.2020
5329 Clouds 20 1022 32 19312 7.2 250 19:38 02.01.2020
5330 Clouds 21 1022 32 19312 9.3 160 19:19 02.01.2020
5331 Clouds 20 1023 39 19312 7.2 170 18:59 02.01.2020
5332 Clouds 20 1023 39 19312 7.2 170 18:40 02.01.2020
5333 Clouds 20 1023 39 19312 7.2 170 18:22 02.01.2020
5334 Clouds 20 1023 39 19312 7.2 170 18:22 02.01.2020
5335 Clouds 18 1023 42 19312 7.2 170 17:57 02.01.2020
5336 Clouds 18 1023 42 19312 7.2 170 17:38 02.01.2020
5337 Clouds 18 1023 42 19312 7.2 170 17:19 02.01.2020
5338 Clouds 16 1023 45 19312 7.2 170 16:57 02.01.2020
5339 Clouds 16 1023 45 19312 7.2 170 16:38 02.01.2020
5340 Clouds 16 1023 45 19312 7.2 170 16:38 02.01.2020
5341 Clouds 16 1023 45 19312 7.2 170 16:20 02.01.2020
5342 Clouds 14 1023 54 19312 6.2 170 15:56 02.01.2020
5343 Clouds 14 1023 54 19312 6.2 170 15:37 02.01.2020
5344 Clouds 14 1023 54 19312 6.2 170 15:19 02.01.2020
5345 Clouds 14 1022 54 19312 4.1 170 14:54 02.01.2020
5346 Clouds 14 1022 54 19312 4.1 170 14:36 02.01.2020
5347 Clouds 14 1022 54 19312 4.1 170 14:18 02.01.2020
5348 Clouds 12 1022 54 19312 5.1 160 13:47 02.01.2020
5349 Clouds 12 1022 54 19312 5.1 160 13:29 02.01.2020
5350 Clouds 13 1022 62 19312 3.6 140 12:44 02.01.2020
5351 Clouds 13 1022 58 19312 5.1 130 12:24 02.01.2020
5352 Clouds 13 1022 58 19312 5.1 130 11:43 02.01.2020
5353 Clouds 13 1022 58 19312 5.1 130 11:25 02.01.2020
5354 Clouds 12 1023 67 19312 3.1 120 10:57 02.01.2020
5355 Clouds 12 1023 67 19312 3.1 120 10:37 02.01.2020
5356 Clouds 12 1023 67 19312 3.1 120 10:18 02.01.2020
5357 Clouds 13 1023 62 19312 5.1 100 09:41 02.01.2020
5358 Clouds 13 1023 62 19312 5.1 100 09:22 02.01.2020
5359 Clouds 12 1023 58 19312 4.6 110 08:44 02.01.2020
5360 Clouds 12 1023 58 19312 4.6 110 08:25 02.01.2020
5361 Clouds 14 1024 55 19312 5.1 130 07:48 02.01.2020
5362 Clouds 14 1024 55 19312 5.1 130 07:28 02.01.2020
5363 Clouds 13 1024 55 19312 5.1 160 06:43 02.01.2020
5364 Clouds 14 1024 48 19312 5.1 200 05:58 02.01.2020
5365 Clouds 15 1024 51 19312 5.1 200 04:38 02.01.2020
5366 Clouds 15 1024 51 19312 5.1 200 04:19 02.01.2020
5367 Clouds 19 1023 45 19312 7.2 160 02:25 02.01.2020
5368 Clouds 20 1022 40 19312 7.7 160 01:57 02.01.2020
5369 Clouds 21 1022 40 19312 7.7 160 01:32 02.01.2020
5370 Dust 22 1021 35 19312 7.7 180 00:52 02.01.2020
5371 Dust 22 1021 35 19312 7.7 180 00:28 02.01.2020
5372 Dust 23 1021 33 19312 9.3 160 23:47 01.01.2020
5373 Dust 22 1021 33 19312 9.3 160 23:24 01.01.2020
5374 Dust 24 1021 31 19312 9.3 150 22:54 01.01.2020
5375 Dust 24 1021 31 19312 9.3 150 22:36 01.01.2020
5376 Dust 23 1021 31 19312 9.3 150 22:18 01.01.2020
5377 Dust 24 1021 29 19312 8.2 150 21:42 01.01.2020
5378 Dust 24 1021 29 19312 8.2 150 21:21 01.01.2020
5379 Clouds 23 1023 27 19312 7.7 170 20:58 01.01.2020
5380 Clouds 23 1023 27 19312 7.7 170 20:39 01.01.2020
5381 Clouds 23 1023 27 19312 7.7 170 20:20 01.01.2020
5382 Clouds 23 1023 27 19312 4.1 200 19:57 01.01.2020
5383 Clouds 23 1023 27 19312 4.1 200 19:39 01.01.2020
5384 Clouds 22 1024 33 19312 7.2 120 19:20 01.01.2020
5385 Clear 21 1025 28 19312 6.2 150 18:57 01.01.2020
5386 Clear 21 1025 28 19312 6.2 150 18:38 01.01.2020
5387 Clear 21 1025 28 19312 6.2 150 18:20 01.01.2020
5388 Clear 21 1026 32 16093 4.6 120 17:58 01.01.2020
5389 Clear 20 1026 32 16093 4.6 120 17:40 01.01.2020
5390 Clear 18 1026 42 16093 2.1 120 17:20 01.01.2020
5391 Clear 16 1026 42 16093 2.1 230 16:57 01.01.2020
5392 Clear 16 1026 42 16093 2.1 230 16:38 01.01.2020
5393 Clear 16 1026 42 16093 2.1 230 16:38 01.01.2020
5394 Clear 15 1026 48 12874 1.5 180 16:19 01.01.2020
5395 Clear 11 1025 58 12874 3.1 150 15:56 01.01.2020
5396 Clear 12 1025 58 12874 3.1 150 15:37 01.01.2020
5397 Clear 12 1025 58 12874 3.1 150 15:19 01.01.2020
5398 Clear 11 1025 58 12874 2.6 180 14:42 01.01.2020
5399 Clear 11 1025 62 8047 2.12 161 14:24 01.01.2020
5400 Clear 9 1025 62 8047 2.12 161 13:57 01.01.2020
5401 Clear 9 1025 62 8047 2.12 161 13:38 01.01.2020
5402 Clear 9 1025 62 8047 2.24 162 13:20 01.01.2020
5403 Clear 10 1025 62 8047 1.5 320 12:58 01.01.2020
5404 Clear 10 1025 62 8047 1.5 320 12:40 01.01.2020
5405 Clear 10 1025 62 8047 1.5 320 12:19 01.01.2020
5406 Clear 10 1025 62 8047 1.5 320 12:19 01.01.2020
5407 Smoke 10 1025 67 8047 1.5 130 11:56 01.01.2020
5408 Smoke 11 1025 67 8047 1.5 130 11:38 01.01.2020
5409 Smoke 11 1025 67 8047 1.5 130 11:19 01.01.2020
5410 Smoke 11 1026 62 8047 2.38 151 10:54 01.01.2020
5411 Smoke 11 1026 62 8047 2.38 151 10:36 01.01.2020
5412 Smoke 11 1026 62 8047 2.38 151 10:18 01.01.2020
5413 Smoke 11 1026 62 9656 2.38 151 09:39 01.01.2020
5414 Smoke 11 1026 62 9656 2.38 151 09:20 01.01.2020
5415 Smoke 11 1026 58 9656 2.38 151 08:57 01.01.2020
5416 Smoke 11 1026 58 9656 2.83 161 08:37 01.01.2020
5417 Smoke 11 1026 58 9656 2.83 161 08:37 01.01.2020
5418 Smoke 12 1026 58 9656 2.95 150 08:19 01.01.2020
5419 Clouds 12 1027 55 11265 2.95 150 07:56 01.01.2020
5420 Clouds 12 1027 55 11265 2.95 150 07:38 01.01.2020
5421 Clear 13 1027 48 12874 2.1 200 06:46 01.01.2020
5422 Clear 13 1027 48 12874 2.1 200 06:22 01.01.2020
5423 Clear 14 1027 51 12874 4.1 140 05:46 01.01.2020
5424 Clear 15 1026 51 16093 5.1 50 03:48 01.01.2020
5425 Clear 15 1025 39 17702 2.1 160 03:28 01.01.2020
5426 Clouds 20 1025 40 17702 2.1 230 02:59 01.01.2020
5427 Clouds 20 1025 40 17702 2.1 230 02:41 01.01.2020
5428 Clouds 20 1025 40 17702 2.1 230 02:21 01.01.2020
5429 Clouds 22 1024 27 16093 2.6 170 01:40 01.01.2020
5430 Clouds 22 1024 27 16093 2.6 170 01:21 01.01.2020
5431 Clouds 24 1026 23 12874 6.2 280 00:44 01.01.2020
5432 Clouds 24 1026 23 12874 6.2 280 00:44 01.01.2020
5433 Clouds 25 1023 23 16093 2.1 160 00:26 01.01.2020
5434 Clouds 24 1023 23 16093 2.6 100 23:43 31.12.2019
5435 Clouds 24 1023 23 16093 2.6 100 23:24 31.12.2019
5436 Clouds 25 1024 19 16093 2.1 200 22:59 31.12.2019
5437 Clouds 25 1024 19 16093 2.1 200 22:39 31.12.2019
5438 Clouds 25 1024 19 16093 2.1 200 22:20 31.12.2019
5439 Clear 24 1025 22 16093 1.5 200 21:59 31.12.2019
5440 Clear 24 1025 22 16093 1.5 200 21:41 31.12.2019
5441 Clear 24 1025 22 16093 1.5 200 21:23 31.12.2019
5442 Clear 23 1026 26 16093 1 90 20:57 31.12.2019
5443 Clear 23 1026 26 16093 1 90 20:37 31.12.2019
5444 Clear 23 1026 26 16093 1 90 20:19 31.12.2019
5445 Clear 21 1028 32 16093 2.6 100 19:55 31.12.2019
5446 Clear 21 1028 32 16093 2.6 100 19:37 31.12.2019
5447 Clear 21 1028 32 16093 2.6 100 19:18 31.12.2019
5448 Clear 21 1028 37 16093 1.5 100 18:54 31.12.2019
5449 Clear 21 1028 37 16093 1.5 100 18:54 31.12.2019
5450 Clear 21 1028 37 16093 1.5 100 18:36 31.12.2019
5451 Clear 20 1029 42 12874 1.5 180 18:18 31.12.2019
5452 Clear 18 1031 51 9656 4.6 170 17:55 31.12.2019
5453 Clear 17 1029 51 9656 1.5 100 17:36 31.12.2019
5454 Clear 17 1029 51 9656 1.5 100 17:18 31.12.2019
5455 Clear 17 1029 51 9656 1.5 100 17:18 31.12.2019
5456 Clear 15 1029 54 9656 1 153 16:55 31.12.2019
5457 Clear 15 1029 54 9656 1 153 16:36 31.12.2019
5458 Clear 14 1029 62 11265 1 153 16:18 31.12.2019
5459 Clouds 10 1028 71 11265 1.5 120 15:55 31.12.2019
5460 Clouds 10 1028 71 11265 1.5 120 15:37 31.12.2019
5461 Clouds 10 1028 71 11265 1.5 120 15:18 31.12.2019
5462 Clouds 10 1028 71 11265 1.5 120 15:18 31.12.2019
5463 Clouds 10 1027 76 11265 1.5 130 14:55 31.12.2019
5464 Clouds 10 1027 76 11265 1.5 130 14:36 31.12.2019
5465 Clouds 9 1027 87 14484 1.5 50 14:18 31.12.2019
5466 Clouds 6 1026 81 16093 2.6 50 13:54 31.12.2019
5467 Clouds 6 1026 81 16093 2.6 50 13:36 31.12.2019
5468 Clouds 6 1026 81 16093 2.6 50 13:18 31.12.2019
5469 Clear 7 1026 76 16093 1.4 153 12:40 31.12.2019
5470 Clear 7 1026 76 16093 1.4 153 12:40 31.12.2019
5471 Clear 7 1026 76 16093 1.4 153 12:21 31.12.2019
5472 Clear 6 1025 87 16093 1.5 50 11:57 31.12.2019
5473 Clear 6 1025 87 16093 1.5 50 11:39 31.12.2019
5474 Clear 6 1025 87 16093 1.5 50 11:21 31.12.2019
5475 Clear 6 1025 71 16093 1 80 10:58 31.12.2019
5476 Clear 5 1025 71 16093 1 80 10:39 31.12.2019
5477 Clear 5 1025 71 16093 1 80 10:20 31.12.2019
5478 Clear 7 1026 58 16093 1.5 160 09:59 31.12.2019
5479 Clear 10 1026 58 16093 1.5 160 09:40 31.12.2019
5480 Clear 10 1026 58 16093 1.5 160 09:21 31.12.2019
5481 Clear 11 1026 54 16093 1.5 180 08:58 31.12.2019
5482 Clear 11 1026 54 16093 1.5 180 08:39 31.12.2019
5483 Clear 12 1026 54 16093 1.5 180 08:20 31.12.2019
5484 Clear 12 1026 54 16093 1.5 140 07:44 31.12.2019
5485 Clear 12 1026 54 16093 1.5 140 07:22 31.12.2019
5486 Clear 13 1027 51 16093 2.6 170 06:51 31.12.2019
5487 Clear 14 1026 48 16093 4.1 130 05:59 31.12.2019
5488 Clear 14 1026 48 19312 3.1 120 04:54 31.12.2019
5489 Clear 14 1026 48 19312 3.1 120 04:21 31.12.2019
5490 Clouds 19 1024 42 19312 3.1 180 02:56 31.12.2019
5491 Clouds 19 1024 42 19312 3.1 180 02:19 31.12.2019
5492 Clouds 21 1023 40 19312 5.1 200 01:48 31.12.2019
5493 Clouds 21 1023 30 19312 4.1 240 01:29 31.12.2019
5494 Clouds 24 1022 27 17702 7.2 240 00:48 31.12.2019
5495 Clouds 23 1022 27 17702 7.2 240 00:23 31.12.2019
5496 Clouds 23 1022 27 17702 7.2 240 00:23 31.12.2019
5497 Dust 24 1022 23 17702 7.2 270 23:58 30.12.2019
5498 Dust 24 1022 23 17702 7.2 270 23:38 30.12.2019
5499 Dust 24 1022 23 17702 7.2 270 23:20 30.12.2019
5500 Dust 23 1022 27 17702 6.2 280 22:58 30.12.2019
5501 Dust 23 1022 27 17702 6.2 280 22:40 30.12.2019
5502 Dust 23 1022 27 17702 6.2 280 22:20 30.12.2019
5503 Clouds 24 1022 25 16093 6.7 280 21:57 30.12.2019
5504 Clouds 24 1022 25 16093 6.7 280 21:39 30.12.2019
5505 Clouds 24 1022 25 16093 6.7 280 21:19 30.12.2019
5506 Clouds 23 1024 28 19312 2.1 160 20:57 30.12.2019
5507 Clouds 23 1024 28 19312 2.1 160 20:39 30.12.2019
5508 Clouds 23 1024 28 19312 2.1 160 20:20 30.12.2019
5509 Clouds 22 1025 30 19312 2.1 170 19:58 30.12.2019
5510 Clouds 22 1025 30 19312 2.1 170 19:38 30.12.2019
5511 Clouds 22 1025 30 19312 2.1 170 19:19 30.12.2019
5512 Clear 21 1026 35 16093 3.11 178 18:57 30.12.2019
5513 Clear 21 1026 35 16093 3.11 178 18:38 30.12.2019
5514 Clear 21 1026 35 16093 3.11 178 18:38 30.12.2019
5515 Clear 21 1026 35 16093 3.11 178 18:20 30.12.2019
5516 Clear 21 1026 35 16093 3.11 178 18:20 30.12.2019
5517 Clear 19 1026 37 16093 2.1 110 17:55 30.12.2019
5518 Clear 18 1026 37 16093 2.1 110 17:37 30.12.2019
5519 Clear 18 1027 42 16093 1.38 163 17:18 30.12.2019
5520 Clear 15 1026 51 16093 1.5 240 16:57 30.12.2019
5521 Clear 15 1026 51 16093 1.5 240 16:36 30.12.2019
5522 Clear 15 1026 51 16093 1.5 240 16:36 30.12.2019
5523 Clear 15 1026 51 16093 1.5 240 16:18 30.12.2019
5524 Clear 11 1026 58 16093 1.38 163 15:55 30.12.2019
5525 Clear 11 1026 58 16093 1.38 163 15:36 30.12.2019
5526 Clear 11 1026 58 16093 1.38 163 15:18 30.12.2019
5527 Clear 9 1025 66 16093 3.1 110 14:42 30.12.2019
5528 Clear 9 1025 66 16093 3.1 110 14:19 30.12.2019
5529 Clear 8 1025 62 16093 1.5 80 13:56 30.12.2019
5530 Clear 8 1025 62 16093 1.5 80 13:37 30.12.2019
5531 Clear 8 1025 62 16093 1.5 80 13:19 30.12.2019
5532 Clear 8 1025 66 19312 1.5 40 12:43 30.12.2019
5533 Clear 8 1025 66 19312 1.5 40 12:20 30.12.2019
5534 Clear 9 1025 62 19312 0.85 102 11:59 30.12.2019
5535 Clear 9 1025 62 19312 0.85 102 11:40 30.12.2019
5536 Clear 9 1025 62 19312 0.51 64 11:19 30.12.2019
5537 Clear 10 1025 58 19312 0.51 64 10:44 30.12.2019
5538 Clear 9 1025 58 19312 0.51 64 10:22 30.12.2019
5539 Clouds 10 1025 54 19312 1.5 60 09:58 30.12.2019
5540 Clouds 10 1025 54 19312 1.5 60 09:40 30.12.2019
5541 Clouds 10 1025 54 19312 1.5 60 09:20 30.12.2019
5542 Clouds 10 1025 54 19312 1.5 80 08:50 30.12.2019
5543 Clouds 10 1025 54 19312 1.5 80 08:23 30.12.2019
5544 Clouds 12 1026 48 19312 3.1 40 07:56 30.12.2019
5545 Clouds 12 1026 48 19312 3.1 40 07:37 30.12.2019
5546 Clouds 14 1026 48 19312 2.1 310 06:52 30.12.2019
5547 Clouds 14 1026 45 17702 3.1 30 04:58 30.12.2019
5548 Clouds 15 1025 45 17702 3.1 290 03:57 30.12.2019
5549 Clouds 17 1024 48 17702 3.1 160 02:58 30.12.2019
5550 Clouds 17 1024 48 17702 3.1 160 02:40 30.12.2019
5551 Clouds 19 1024 45 16093 4.1 100 01:50 30.12.2019
5552 Clouds 19 1024 45 16093 4.1 100 01:21 30.12.2019
5553 Clouds 20 1023 42 16093 6.2 120 00:44 30.12.2019
5554 Clouds 20 1023 42 16093 6.2 120 00:19 30.12.2019
5555 Clouds 21 1023 34 16093 4.1 300 23:39 29.12.2019
5556 Clouds 21 1023 34 16093 4.1 300 23:39 29.12.2019
5557 Clouds 21 1023 34 16093 4.1 300 23:21 29.12.2019
5558 Clouds 21 1023 32 14484 5.1 350 22:54 29.12.2019
5559 Clouds 21 1023 32 14484 5.1 350 22:36 29.12.2019
5560 Clouds 21 1023 32 14484 5.1 350 22:36 29.12.2019
5561 Clouds 21 1023 32 14484 5.1 350 22:18 29.12.2019
5562 Clouds 21 1023 30 12874 4.1 270 21:42 29.12.2019
5563 Clouds 21 1023 30 12874 4.1 270 21:21 29.12.2019
5564 Clouds 21 1025 28 12874 3.6 100 20:57 29.12.2019
5565 Clouds 21 1025 28 12874 3.6 100 20:39 29.12.2019
5566 Clouds 21 1025 28 12874 3.6 100 20:20 29.12.2019
5567 Clouds 21 1025 28 12874 3.6 100 20:20 29.12.2019
5568 Clouds 21 1025 28 12874 3.6 100 20:20 29.12.2019
5569 Clouds 19 1026 36 12874 3.1 70 19:59 29.12.2019
5570 Clouds 19 1026 36 12874 3.1 70 19:40 29.12.2019
5571 Clouds 19 1026 36 12874 3.1 70 19:21 29.12.2019
5572 Clouds 18 1027 42 12874 3.1 80 18:57 29.12.2019
5573 Clouds 18 1027 42 12874 3.1 80 18:38 29.12.2019
5574 Clouds 18 1027 42 12874 3.1 80 18:19 29.12.2019
5575 Clouds 16 1027 48 12874 2.1 80 17:58 29.12.2019
5576 Clouds 16 1027 48 12874 2.1 80 17:39 29.12.2019
5577 Clouds 15 1027 62 14484 3.1 80 17:20 29.12.2019
5578 Clouds 12 1026 71 14484 2.1 80 16:56 29.12.2019
5579 Clouds 12 1026 71 14484 2.1 80 16:37 29.12.2019
5580 Clouds 12 1026 71 14484 2.1 80 16:19 29.12.2019
5581 Clouds 10 1025 66 14484 2.6 70 15:57 29.12.2019
5582 Clouds 10 1025 66 14484 2.6 70 15:38 29.12.2019
5583 Clouds 10 1025 66 14484 2.6 70 15:19 29.12.2019
5584 Clouds 10 1025 62 14484 2.1 240 14:56 29.12.2019
5585 Clouds 10 1025 62 14484 2.1 240 14:38 29.12.2019
5586 Clouds 10 1025 62 14484 2.1 240 14:18 29.12.2019
5587 Clouds 7 1024 71 12874 1.36 164 13:57 29.12.2019
5588 Clouds 7 1024 71 12874 1.36 164 13:37 29.12.2019
5589 Clouds 7 1024 71 12874 1.36 164 13:37 29.12.2019
5590 Clouds 7 1024 71 12874 1.55 169 13:19 29.12.2019
5591 Clouds 9 1024 66 12874 2.6 220 12:45 29.12.2019
5592 Clouds 9 1024 66 12874 2.6 220 12:26 29.12.2019
5593 Clouds 9 1024 66 12874 1 180 11:57 29.12.2019
5594 Clouds 9 1024 66 12874 1 180 11:38 29.12.2019
5595 Clouds 9 1024 66 12874 1 180 11:20 29.12.2019
5596 Clouds 9 1024 62 12874 1.95 162 10:43 29.12.2019
5597 Clouds 8 1024 62 12874 1.95 162 10:24 29.12.2019
5598 Clouds 9 1025 62 12874 2.6 230 09:58 29.12.2019
5599 Clouds 9 1025 62 12874 2.6 230 09:39 29.12.2019
5600 Clouds 9 1025 62 12874 2.6 230 09:21 29.12.2019
5601 Clouds 11 1025 62 14484 1 120 08:47 29.12.2019
5602 Clouds 11 1025 62 14484 1 120 08:27 29.12.2019
5603 Clouds 11 1025 58 14484 2.6 130 07:55 29.12.2019
5604 Clouds 12 1025 58 14484 2.6 130 07:28 29.12.2019
5605 Clouds 13 1025 55 14484 3.1 100 06:56 29.12.2019
5606 Clouds 13 1025 55 14484 3.1 100 06:26 29.12.2019
5607 Clouds 13 1025 55 14484 2.1 120 05:52 29.12.2019
5608 Clouds 14 1024 51 14484 3.1 120 04:36 29.12.2019
5609 Clouds 14 1024 51 12874 3.1 170 03:58 29.12.2019
5610 Clouds 14 1024 51 12874 3.1 170 03:21 29.12.2019
5611 Clouds 18 1023 48 12874 4.6 120 02:20 29.12.2019
5612 Clouds 19 1023 48 12874 4.6 110 01:38 29.12.2019
5613 Clouds 20 1022 40 16093 2.6 170 01:19 29.12.2019
5614 Clouds 21 1022 37 16093 2.1 150 00:40 29.12.2019
5615 Clouds 21 1022 37 16093 2.1 150 00:22 29.12.2019
5616 Clouds 23 1022 35 16093 6.2 100 23:43 28.12.2019
5617 Clouds 23 1022 35 16093 6.2 100 23:18 28.12.2019
5618 Clouds 23 1022 26 16093 3.1 340 22:39 28.12.2019
5619 Clouds 23 1022 26 16093 3.1 340 22:21 28.12.2019
5620 Clouds 22 1023 28 16093 2.22 151 21:58 28.12.2019
5621 Clouds 22 1023 28 16093 2.22 151 21:39 28.12.2019
5622 Clouds 22 1023 28 16093 2.22 151 21:21 28.12.2019
5623 Clouds 22 1023 28 16093 2.22 151 21:21 28.12.2019
5624 Clouds 22 1024 33 19312 3.1 350 20:57 28.12.2019
5625 Clouds 22 1024 33 19312 3.1 350 20:37 28.12.2019
5626 Clouds 22 1024 33 19312 3.1 350 20:37 28.12.2019
5627 Clouds 22 1024 33 19312 3.1 350 20:19 28.12.2019
5628 Clouds 21 1025 35 19312 2.07 187 19:57 28.12.2019
5629 Clouds 21 1025 35 19312 2.07 187 19:39 28.12.2019
5630 Clouds 21 1025 35 19312 2.07 187 19:20 28.12.2019
5631 Clouds 20 1025 37 16093 2.07 187 18:57 28.12.2019
5632 Clouds 20 1025 37 16093 2.07 187 18:39 28.12.2019
5633 Clouds 19 1026 42 16093 2.07 187 18:18 28.12.2019
5634 Clouds 16 1026 45 16093 2.1 200 17:54 28.12.2019
5635 Clouds 16 1026 45 16093 2.1 200 17:36 28.12.2019
5636 Clouds 16 1026 45 16093 2.1 200 17:18 28.12.2019
5637 Clouds 13 1026 58 16093 1.84 164 16:45 28.12.2019
5638 Clouds 13 1026 58 16093 1.84 164 16:24 28.12.2019
5639 Clouds 11 1025 62 16093 1.84 164 15:44 28.12.2019
5640 Clouds 11 1025 62 16093 1.84 164 15:23 28.12.2019
5641 Clouds 10 1025 66 12874 1.5 260 14:56 28.12.2019
5642 Clouds 10 1025 66 12874 1.5 260 14:37 28.12.2019
5643 Clouds 10 1025 66 12874 1.5 260 14:19 28.12.2019
5644 Fog 8 1027 60 805 1.81 148 13:42 28.12.2019
5645 Clear 8 1025 66 12874 2.6 240 13:21 28.12.2019
5646 Clear 9 1025 66 12874 1.81 148 12:59 28.12.2019
5647 Clear 9 1025 66 12874 1.81 148 12:40 28.12.2019
5648 Clear 9 1025 66 12874 1.81 148 12:21 28.12.2019
5649 Clear 9 1025 66 12874 1.81 148 11:40 28.12.2019
5650 Clear 9 1025 66 12874 2.24 148 11:22 28.12.2019
5651 Clear 9 1025 66 12874 2.24 148 10:59 28.12.2019
5652 Clear 10 1025 62 11265 2.1 250 10:41 28.12.2019
5653 Clear 8 1025 62 11265 2.1 250 10:20 28.12.2019
5654 Clouds 11 1025 58 11265 1.5 260 09:55 28.12.2019
5655 Clouds 11 1025 58 11265 1.5 260 09:36 28.12.2019
5656 Clouds 11 1025 58 11265 1.5 260 09:18 28.12.2019
5657 Clouds 11 1025 54 11265 2.1 200 08:43 28.12.2019
5658 Clouds 12 1025 54 11265 2.1 200 08:24 28.12.2019
5659 Clouds 13 1025 51 12874 2.69 144 07:48 28.12.2019
5660 Clouds 13 1025 51 12874 2.69 144 07:23 28.12.2019
5661 Clear 14 1025 48 12874 2.1 160 05:51 28.12.2019
5662 Clouds 16 1024 45 11265 2.1 160 03:48 28.12.2019
5663 Clouds 19 1023 45 11265 4.1 170 02:51 28.12.2019
5664 Clouds 19 1023 45 11265 4.1 170 02:20 28.12.2019
5665 Clouds 21 1023 35 8047 2.6 140 01:56 28.12.2019
5666 Clouds 21 1023 35 8047 2.6 140 01:23 28.12.2019
5667 Clouds 23 1022 30 8047 6.2 120 00:50 28.12.2019
5668 Clouds 23 1022 30 8047 6.2 120 00:30 28.12.2019
5669 Clouds 24 1022 23 8047 2.6 130 23:58 27.12.2019
5670 Clouds 23 1022 23 8047 2.6 130 23:39 27.12.2019
5671 Clouds 24 1022 23 8047 2.6 130 23:19 27.12.2019
5672 Clouds 24 1023 25 8047 0.4 47 22:56 27.12.2019
5673 Clouds 24 1023 25 8047 0.4 47 22:37 27.12.2019
5674 Clouds 24 1023 25 8047 0.4 47 22:19 27.12.2019
5675 Clouds 24 1023 25 9656 0.4 47 21:43 27.12.2019
5676 Clouds 24 1023 25 9656 0.4 47 21:25 27.12.2019
5677 Clear 23 1024 28 9656 2.6 90 20:57 27.12.2019
5678 Clear 22 1024 28 9656 2.6 90 20:38 27.12.2019
5679 Clear 22 1024 28 9656 2.6 90 20:20 27.12.2019
5680 Clear 21 1025 30 9656 2.1 40 19:41 27.12.2019
5681 Clear 21 1026 37 9656 2.1 120 19:20 27.12.2019
5682 Clear 21 1026 37 9656 2.1 120 19:20 27.12.2019
5683 Clear 20 1027 39 9656 2.1 90 18:57 27.12.2019
5684 Clear 19 1027 39 9656 2.1 90 18:37 27.12.2019
5685 Clear 19 1027 39 9656 2.1 90 18:19 27.12.2019
5686 Clear 16 1027 50 11265 2.1 260 17:55 27.12.2019
5687 Clear 16 1027 50 11265 2.1 260 17:37 27.12.2019
5688 Clear 16 1027 50 11265 2.1 260 17:18 27.12.2019
5689 Clear 14 1027 54 11265 2.1 100 16:43 27.12.2019
5690 Clear 12 1027 57 11265 2.1 70 16:23 27.12.2019
5691 Clear 9 1026 61 11265 3.1 70 15:58 27.12.2019
5692 Clear 9 1026 61 11265 3.1 70 15:40 27.12.2019
5693 Clear 9 1026 61 11265 3.1 70 15:19 27.12.2019
5694 Clear 9 1026 61 11265 2.1 60 14:56 27.12.2019
5695 Clear 8 1026 61 11265 2.1 60 14:38 27.12.2019
5696 Clear 8 1026 61 11265 2.1 60 14:20 27.12.2019
5697 Mist 6 1027 86 3219 1.2 125 13:48 27.12.2019
5698 Clear 5 1025 65 11265 2.6 80 13:25 27.12.2019
5699 Clear 7 1025 61 11265 1 80 12:56 27.12.2019
5700 Clear 6 1025 61 11265 1 80 12:38 27.12.2019
5701 Clear 6 1025 61 11265 1 80 12:20 27.12.2019
5702 Clear 6 1025 61 11265 1 70 11:42 27.12.2019
5703 Clear 8 1025 61 11265 1 70 11:22 27.12.2019
5704 Clear 7 1025 61 11265 1.5 70 10:54 27.12.2019
5705 Clear 8 1025 61 11265 1.5 70 10:36 27.12.2019
5706 Clear 8 1025 61 11265 1.5 70 10:18 27.12.2019
5707 Clear 7 1025 61 11265 3.1 60 09:40 27.12.2019
5708 Clear 7 1025 61 11265 3.1 60 09:21 27.12.2019
5709 Clear 9 1026 54 11265 2.6 220 08:54 27.12.2019
5710 Clear 11 1026 54 11265 2.6 220 08:34 27.12.2019
5711 Clear 11 1026 54 11265 2.6 240 07:49 27.12.2019
5712 Clear 11 1026 54 11265 2.6 240 07:28 27.12.2019
5713 Clear 12 1026 51 12874 2.1 60 06:36 27.12.2019
5714 Clouds 13 1026 44 12874 4.1 80 04:58 27.12.2019
5715 Clouds 18 1024 39 12874 5.1 130 02:53 27.12.2019
5716 Clouds 21 1023 23 9656 2.6 20 01:59 27.12.2019
5717 Clouds 21 1023 23 9656 2.6 20 01:24 27.12.2019
5718 Clouds 22 1022 28 9656 3.6 50 00:54 27.12.2019
5719 Clouds 22 1022 28 9656 3.6 50 00:34 27.12.2019
5720 Clouds 23 1023 26 9656 2.6 20 23:59 26.12.2019
5721 Clouds 23 1023 26 9656 2.6 20 23:41 26.12.2019
5722 Clouds 23 1023 26 9656 2.6 20 23:21 26.12.2019
5723 Clear 23 1022 26 9656 2.6 30 22:45 26.12.2019
5724 Clear 23 1022 26 9656 2.6 30 22:22 26.12.2019
5725 Clear 23 1023 28 9656 2.6 280 21:58 26.12.2019
5726 Clear 23 1023 28 9656 2.6 280 21:38 26.12.2019
5727 Clear 23 1023 28 9656 2.6 280 21:38 26.12.2019
5728 Clear 22 1023 28 9656 2.6 280 21:20 26.12.2019
5729 Clear 21 1025 28 11265 1.5 120 20:45 26.12.2019
5730 Clear 21 1025 28 11265 1.5 120 20:45 26.12.2019
5731 Clear 21 1025 28 11265 1.5 120 20:23 26.12.2019
5732 Clear 21 1026 32 12874 2.1 50 19:59 26.12.2019
5733 Clear 21 1026 32 12874 2.1 50 19:39 26.12.2019
5734 Clear 21 1026 32 12874 2.1 50 19:39 26.12.2019
5735 Clear 21 1026 32 12874 2.1 50 19:20 26.12.2019
5736 Clear 20 1026 32 11265 3.1 130 18:57 26.12.2019
5737 Clear 20 1026 32 11265 3.1 130 18:38 26.12.2019
5738 Clear 18 1027 36 11265 1 170 18:19 26.12.2019
5739 Clear 17 1027 38 11265 1.5 80 17:43 26.12.2019
5740 Clear 17 1027 38 11265 1.5 80 17:43 26.12.2019
5741 Clear 16 1027 44 12874 1.5 130 17:22 26.12.2019
5742 Clear 13 1027 50 14484 1 80 16:58 26.12.2019
5743 Clear 13 1027 50 14484 1 80 16:40 26.12.2019
5744 Clear 12 1026 57 14484 2.1 70 16:21 26.12.2019
5745 Clear 9 1026 61 16093 3.1 50 15:41 26.12.2019
5746 Clear 9 1026 61 16093 3.1 50 15:21 26.12.2019
5747 Mist 9 1027 42 3219 0.32 140 14:59 26.12.2019
5748 Mist 9 1027 42 3219 0.32 140 14:39 26.12.2019
5749 Clear 8 1025 61 16093 0.87 45 14:20 26.12.2019
5750 Clear 6 1025 65 16093 0.87 45 13:43 26.12.2019
5751 Clear 6 1025 65 16093 0.77 38 13:21 26.12.2019
5752 Clear 6 1025 61 16093 2.1 80 12:58 26.12.2019
5753 Clear 6 1025 61 16093 2.1 80 12:37 26.12.2019
5754 Clear 6 1025 61 16093 2.1 80 12:19 26.12.2019
5755 Clear 5 1025 61 16093 2.1 110 11:56 26.12.2019
5756 Clear 5 1025 61 16093 2.1 110 11:37 26.12.2019
5757 Clear 7 1025 61 16093 2.1 110 11:19 26.12.2019
5758 Clear 7 1025 57 19312 1.27 21 10:42 26.12.2019
5759 Clear 7 1025 57 19312 1.27 21 10:18 26.12.2019
5760 Clear 6 1025 57 19312 1.5 80 09:45 26.12.2019
5761 Clear 9 1025 46 19312 1.5 230 09:26 26.12.2019
5762 Clouds 10 1025 43 16093 2.1 250 08:42 26.12.2019
5763 Clouds 10 1025 43 16093 2.1 250 08:24 26.12.2019
5764 Clouds 11 1025 41 16093 1.11 25 07:53 26.12.2019
5765 Clouds 11 1025 41 16093 1.11 25 07:26 26.12.2019
5766 Clear 12 1025 41 16093 1.5 90 06:53 26.12.2019
5767 Clear 12 1025 41 16093 1.5 90 06:32 26.12.2019
5768 Clear 12 1025 44 16093 3.1 60 05:45 26.12.2019
5769 Clear 13 1024 39 16093 1.75 26 04:55 26.12.2019
5770 Clear 14 1024 39 16093 1.75 26 04:29 26.12.2019
5771 Clear 19 1022 25 16093 3.6 60 02:54 26.12.2019
5772 Clear 19 1022 25 16093 3.6 60 02:34 26.12.2019
5773 Clear 22 1022 22 11265 3.6 80 01:48 26.12.2019
5774 Clear 22 1022 22 11265 3.6 80 01:28 26.12.2019
5775 Clear 22 1021 21 11265 3.1 80 00:49 26.12.2019
5776 Clear 22 1021 21 11265 3.1 80 00:27 26.12.2019
5777 Clear 22 1021 22 11265 5.1 10 23:58 25.12.2019
5778 Clear 22 1021 22 11265 5.1 10 23:39 25.12.2019
5779 Clear 22 1021 22 11265 5.1 10 23:21 25.12.2019
5780 Clear 23 1022 22 11265 2.6 80 22:58 25.12.2019
5781 Clear 23 1022 22 11265 2.6 80 22:39 25.12.2019
5782 Clear 23 1022 22 11265 2.6 80 22:20 25.12.2019
5783 Clear 22 1023 22 11265 3.6 20 21:58 25.12.2019
5784 Clear 22 1023 22 11265 3.6 20 21:39 25.12.2019
5785 Clear 22 1023 22 11265 3.6 20 21:20 25.12.2019
5786 Clear 22 1024 22 11265 6.2 10 20:54 25.12.2019
5787 Clear 22 1024 22 11265 6.2 10 20:36 25.12.2019
5788 Clear 22 1024 22 11265 6.2 10 20:18 25.12.2019
5789 Clear 21 1025 24 11265 2.1 50 19:42 25.12.2019
5790 Clear 21 1025 24 11265 2.1 50 19:22 25.12.2019
5791 Clear 19 1026 29 9656 3.6 110 18:56 25.12.2019
5792 Clear 19 1026 29 9656 3.6 110 18:36 25.12.2019
5793 Clear 18 1026 36 6437 1.5 160 18:18 25.12.2019
5794 Smoke 16 1027 41 6437 1.5 90 17:40 25.12.2019
5795 Smoke 16 1027 41 6437 1.5 90 17:19 25.12.2019
5796 Smoke 13 1027 54 6437 1.29 8 16:56 25.12.2019
5797 Smoke 12 1027 54 6437 1.29 8 16:37 25.12.2019
5798 Smoke 12 1027 54 6437 1.29 8 16:18 25.12.2019
5799 Smoke 8 1026 61 6437 2.1 80 15:56 25.12.2019
5800 Smoke 8 1026 61 6437 2.1 80 15:37 25.12.2019
5801 Smoke 8 1026 61 6437 2.1 80 15:18 25.12.2019
5802 Smoke 7 1025 61 6437 2.6 80 14:56 25.12.2019
5803 Smoke 7 1025 61 6437 2.6 80 14:37 25.12.2019
5804 Smoke 5 1025 61 6437 2.6 80 14:18 25.12.2019
5805 Smoke 6 1025 57 6437 1.5 80 13:42 25.12.2019
5806 Smoke 5 1025 57 6437 1.5 80 13:21 25.12.2019
5807 Smoke 5 1025 61 3219 2.6 70 12:56 25.12.2019
5808 Smoke 5 1025 61 3219 2.6 70 12:38 25.12.2019
5809 Smoke 5 1025 61 3219 2.6 70 12:18 25.12.2019
5810 Smoke 5 1025 61 3219 2.1 80 11:42 25.12.2019
5811 Smoke 6 1025 61 6437 2.6 60 11:22 25.12.2019
5812 Smoke 7 1025 57 8047 1.5 50 10:58 25.12.2019
5813 Smoke 8 1025 57 8047 1.5 50 10:36 25.12.2019
5814 Smoke 8 1025 57 8047 1.5 50 10:18 25.12.2019
5815 Smoke 9 1025 50 8047 1.5 80 09:43 25.12.2019
5816 Smoke 9 1025 50 8047 1.5 80 09:25 25.12.2019
5817 Smoke 9 1026 50 8047 1 80 08:45 25.12.2019
5818 Smoke 9 1026 50 8047 1 80 08:25 25.12.2019
5819 Smoke 9 1026 50 8047 1 80 08:25 25.12.2019
5820 Smoke 11 1026 47 8047 1.5 60 07:45 25.12.2019
5821 Smoke 11 1026 44 11265 2.1 100 07:23 25.12.2019
5822 Smoke 13 1026 38 14484 2.1 60 06:41 25.12.2019
5823 Smoke 13 1026 38 14484 2.1 60 06:21 25.12.2019
5824 Clouds 14 1026 38 19312 4.6 60 04:47 25.12.2019
5825 Clouds 14 1026 38 19312 4.6 60 04:25 25.12.2019
5826 Clouds 14 1025 41 19312 4.1 60 03:52 25.12.2019
5827 Clouds 14 1025 41 19312 4.1 60 03:32 25.12.2019
5828 Clouds 18 1024 31 19312 5.1 20 02:32 25.12.2019
5829 Clouds 21 1023 22 19312 2.1 40 01:55 25.12.2019
5830 Clouds 21 1023 22 19312 2.1 40 01:24 25.12.2019
5831 Clouds 23 1023 23 19312 2.1 140 00:46 25.12.2019
5832 Clouds 23 1023 23 19312 2.1 140 00:27 25.12.2019
5833 Clouds 23 1023 21 19312 2.6 40 23:42 24.12.2019
5834 Clouds 23 1023 21 19312 2.6 40 23:21 24.12.2019
5835 Clouds 23 1024 22 19312 5.1 10 22:58 24.12.2019
5836 Clouds 23 1024 22 19312 5.1 10 22:37 24.12.2019
5837 Clouds 22 1024 22 19312 5.1 10 22:19 24.12.2019
5838 Clouds 22 1025 22 14484 1.68 50 21:42 24.12.2019
5839 Clouds 20 1025 22 14484 1.68 50 21:22 24.12.2019
5840 Clouds 21 1026 22 14484 2.1 260 20:45 24.12.2019
5841 Clouds 21 1026 20 14484 2.1 260 20:24 24.12.2019
5842 Clouds 20 1028 34 11265 2.6 320 19:57 24.12.2019
5843 Clouds 20 1028 34 11265 2.6 320 19:38 24.12.2019
5844 Clouds 20 1028 34 11265 2.6 320 19:18 24.12.2019
5845 Clouds 19 1028 32 11265 2.1 30 18:42 24.12.2019
5846 Clouds 18 1029 42 9656 0.47 283 18:20 24.12.2019
5847 Clear 17 1029 44 11265 2.6 110 17:45 24.12.2019
5848 Clear 15 1029 50 11265 1.5 90 17:24 24.12.2019
5849 Clear 12 1029 54 12874 3.1 90 16:59 24.12.2019
5850 Clear 12 1029 54 12874 3.1 90 16:41 24.12.2019
5851 Clear 11 1029 61 12874 3.1 80 16:22 24.12.2019
5852 Clear 10 1029 61 12874 3.1 80 15:58 24.12.2019
5853 Clear 9 1028 61 16093 2.6 70 15:58 24.12.2019
5854 Clear 9 1028 61 16093 2.6 70 15:38 24.12.2019
5855 Clear 9 1028 61 16093 2.6 70 15:20 24.12.2019
5856 Clear 7 1027 65 11265 2.1 100 14:59 24.12.2019
5857 Clear 7 1027 65 11265 2.1 100 14:40 24.12.2019
5858 Clear 5 1027 65 11265 2.1 100 14:22 24.12.2019
5859 Clear 5 1026 65 16093 2.6 70 13:57 24.12.2019
5860 Clear 5 1026 65 16093 2.6 70 13:39 24.12.2019
5861 Clear 5 1026 65 16093 2.6 70 13:20 24.12.2019
5862 Clear 5 1026 65 16093 2.1 60 12:57 24.12.2019
5863 Clear 5 1026 65 16093 2.1 60 12:38 24.12.2019
5864 Clear 5 1026 65 16093 2.1 60 12:19 24.12.2019
5865 Clear 5 1026 66 16093 2.6 80 11:57 24.12.2019
5866 Clear 5 1026 66 16093 2.6 80 11:38 24.12.2019
5867 Clear 7 1026 66 16093 2.6 80 11:20 24.12.2019
5868 Clear 7 1026 61 16093 3.1 50 10:57 24.12.2019
5869 Clear 7 1026 61 16093 3.1 50 10:57 24.12.2019
5870 Clear 7 1026 61 16093 3.1 50 10:38 24.12.2019
5871 Clear 8 1026 61 16093 3.1 50 10:20 24.12.2019
5872 Clouds 8 1027 54 16093 2.6 280 09:57 24.12.2019
5873 Clouds 9 1027 54 16093 2.6 280 09:39 24.12.2019
5874 Clouds 9 1027 54 16093 2.6 280 09:21 24.12.2019
5875 Clouds 11 1027 50 16093 2.6 300 08:47 24.12.2019
5876 Clouds 12 1027 50 16093 2.6 300 08:24 24.12.2019
5877 Clouds 12 1027 44 19312 3.1 300 07:59 24.12.2019
5878 Clouds 12 1027 44 19312 3.1 300 07:39 24.12.2019
5879 Clouds 12 1027 44 19312 3.1 300 07:20 24.12.2019
5880 Clouds 13 1028 41 19312 2.1 10 06:39 24.12.2019
5881 Clouds 13 1028 41 19312 2.1 10 06:19 24.12.2019
5882 Clouds 13 1028 41 16093 3.6 10 05:50 24.12.2019
5883 Clouds 13 1028 41 16093 3.6 10 05:19 24.12.2019
5884 Clouds 14 1027 41 12874 5.1 360 04:21 24.12.2019
5885 Clouds 15 1027 42 12874 4.1 360 03:46 24.12.2019
5886 Clouds 18 1025 36 12874 5.1 300 02:28 24.12.2019
5887 Clouds 20 1025 29 12874 3.1 30 01:54 24.12.2019
5888 Clouds 20 1025 29 12874 3.1 30 01:25 24.12.2019
5889 Clouds 21 1024 28 11265 2.1 40 00:56 24.12.2019
5890 Clouds 21 1024 28 11265 2.1 40 00:37 24.12.2019
5891 Clouds 21 1024 28 11265 2.1 40 00:19 24.12.2019
5892 Clouds 22 1024 26 9656 2.1 340 23:42 23.12.2019
5893 Clouds 22 1024 26 9656 2.1 340 23:24 23.12.2019
5894 Clouds 22 1025 28 9656 3.1 250 22:57 23.12.2019
5895 Clouds 22 1025 28 9656 3.1 250 22:38 23.12.2019
5896 Clouds 22 1025 28 9656 3.1 250 22:19 23.12.2019
5897 Clouds 22 1026 28 9656 3.1 240 21:56 23.12.2019
5898 Clouds 22 1026 28 9656 3.1 240 21:37 23.12.2019
5899 Clouds 22 1026 28 9656 3.1 240 21:19 23.12.2019
5900 Clear 21 1027 32 8047 2.6 20 20:58 23.12.2019
5901 Clear 21 1027 32 8047 2.6 20 20:40 23.12.2019
5902 Clear 21 1027 32 8047 2.6 20 20:18 23.12.2019
5903 Clear 20 1029 42 8047 1.5 100 19:56 23.12.2019
5904 Clear 20 1029 42 8047 1.5 100 19:38 23.12.2019
5905 Clear 20 1029 42 8047 1.5 100 19:20 23.12.2019
5906 Clear 19 1029 45 8047 0.43 282 18:58 23.12.2019
5907 Clear 19 1029 45 8047 0.43 282 18:39 23.12.2019
5908 Clear 17 1030 51 6437 2.1 150 18:20 23.12.2019
5909 Clear 17 1030 54 6437 0.43 282 17:58 23.12.2019
5910 Clear 17 1030 54 6437 0.43 282 17:39 23.12.2019
5911 Clear 15 1030 62 6437 1.5 200 17:19 23.12.2019
5912 Mist 13 1030 66 4828 0.37 229 16:57 23.12.2019
5913 Mist 13 1030 66 4828 0.37 229 16:39 23.12.2019
5914 Mist 11 1030 81 4828 2.6 100 16:18 23.12.2019
5915 Mist 9 1029 87 3219 2.6 50 15:56 23.12.2019
5916 Mist 9 1029 87 3219 2.6 50 15:36 23.12.2019
5917 Mist 8 1029 87 3219 2.6 50 15:18 23.12.2019
5918 Fog 8 1030 93 805 1.5 170 14:55 23.12.2019
5919 Fog 9 1030 93 805 1.5 170 14:36 23.12.2019
5920 Clouds 8 1029 81 6437 1.13 11 14:18 23.12.2019
5921 Clouds 5 1028 87 6437 2.6 80 13:41 23.12.2019
5922 Clouds 5 1028 87 6437 2.6 80 13:23 23.12.2019
5923 Clouds 6 1028 87 6437 3.1 90 12:59 23.12.2019
5924 Clouds 6 1028 87 6437 3.1 90 12:40 23.12.2019
5925 Clouds 6 1028 87 6437 3.1 90 12:21 23.12.2019
5926 Clouds 6 1028 87 6437 2.6 60 11:56 23.12.2019
5927 Clouds 6 1028 87 6437 2.6 60 11:38 23.12.2019
5928 Clouds 7 1028 87 6437 2.6 60 11:20 23.12.2019
5929 Clouds 7 1028 87 6437 2.6 60 11:20 23.12.2019
5930 Clouds 7 1028 87 6437 2.1 70 10:55 23.12.2019
5931 Clouds 7 1028 87 6437 2.1 70 10:55 23.12.2019
5932 Clouds 7 1028 87 6437 2.1 70 10:37 23.12.2019
5933 Clouds 7 1028 87 6437 2.1 70 10:18 23.12.2019
5934 Mist 6 1029 93 4828 1.4 10 09:54 23.12.2019
5935 Mist 6 1029 93 4828 1.4 10 09:36 23.12.2019
5936 Mist 7 1029 93 4828 1.4 10 09:18 23.12.2019
5937 Clouds 8 1028 81 6437 2.6 40 08:41 23.12.2019
5938 Clouds 8 1028 81 6437 2.6 40 08:22 23.12.2019
5939 Clouds 9 1029 76 8047 1.9 354 07:49 23.12.2019
5940 Clouds 9 1029 76 8047 1.9 354 07:22 23.12.2019
5941 Clouds 10 1029 71 9656 2.1 150 06:57 23.12.2019
5942 Clouds 10 1029 71 9656 2.1 150 06:30 23.12.2019
5943 Clouds 11 1029 66 9656 2.1 190 05:56 23.12.2019
5944 Clouds 11 1029 66 9656 2.1 190 05:30 23.12.2019
5945 Clouds 12 1028 66 8047 2.1 200 04:39 23.12.2019
5946 Clouds 11 1028 66 8047 2.6 150 03:28 23.12.2019
5947 Clouds 15 1027 66 8047 3.1 200 02:43 23.12.2019
5948 Clouds 15 1027 66 8047 3.1 200 02:19 23.12.2019
5949 Clouds 17 1027 62 6437 2.6 200 01:44 23.12.2019
5950 Clouds 16 1027 62 6437 2.6 200 01:26 23.12.2019
5951 Clouds 17 1027 58 6437 3.1 170 00:44 23.12.2019
5952 Clouds 17 1027 58 6437 3.1 170 00:24 23.12.2019
5953 Clouds 17 1027 58 6437 3.1 170 00:24 23.12.2019
5954 Clouds 18 1027 58 6437 3.1 190 23:40 22.12.2019
5955 Clouds 17 1027 58 6437 3.1 190 23:22 22.12.2019
5956 Clouds 17 1028 58 6437 4.1 130 22:58 22.12.2019
5957 Clouds 17 1028 58 6437 4.1 130 22:40 22.12.2019
5958 Clouds 17 1028 58 6437 4.1 130 22:22 22.12.2019
5959 Clouds 17 1028 66 6437 3.1 240 21:59 22.12.2019
5960 Clouds 17 1028 66 6437 3.1 240 21:40 22.12.2019
5961 Clouds 17 1028 66 6437 3.1 240 21:21 22.12.2019
5962 Clouds 17 1028 66 6437 3.1 240 20:59 22.12.2019
5963 Clouds 16 1030 66 6437 1.5 110 20:39 22.12.2019
5964 Clouds 16 1030 66 6437 1.5 110 20:19 22.12.2019
5965 Mist 15 1031 66 4828 2.1 70 19:57 22.12.2019
5966 Mist 15 1031 66 4828 2.1 70 19:39 22.12.2019
5967 Mist 15 1031 66 4828 2.1 70 19:20 22.12.2019
5968 Mist 14 1031 71 4828 2.1 80 18:42 22.12.2019
5969 Mist 14 1031 71 4828 2.1 80 18:24 22.12.2019
5970 Mist 13 1031 76 4828 2.44 354 17:57 22.12.2019
5971 Mist 13 1031 76 4828 2.44 354 17:39 22.12.2019
5972 Mist 12 1031 76 4828 2.1 310 17:19 22.12.2019
5973 Mist 12 1031 76 4828 2.1 310 17:19 22.12.2019
5974 Mist 11 1031 76 4828 3.6 280 16:57 22.12.2019
5975 Mist 11 1031 76 4828 3.6 280 16:57 22.12.2019
5976 Mist 11 1031 76 4828 3.6 280 16:39 22.12.2019
5977 Mist 11 1031 76 4828 3.6 280 16:21 22.12.2019
5978 Mist 10 1030 76 4828 4.6 310 15:56 22.12.2019
5979 Mist 10 1030 76 4828 4.6 310 15:38 22.12.2019
5980 Mist 10 1030 76 4828 4.6 310 15:20 22.12.2019
5981 Clouds 10 1029 76 6437 3.1 60 14:55 22.12.2019
5982 Clouds 10 1029 76 6437 3.1 60 14:37 22.12.2019
5983 Clouds 10 1029 76 6437 3.1 60 14:18 22.12.2019
5984 Clouds 10 1029 76 6437 3.1 60 14:18 22.12.2019
5985 Clouds 8 1029 76 6437 2.1 60 13:55 22.12.2019
5986 Clouds 8 1029 76 6437 2.1 60 13:37 22.12.2019
5987 Clouds 8 1029 76 6437 2.1 60 13:19 22.12.2019
5988 Fog 8 1028 93 805 3.1 300 12:56 22.12.2019
5989 Fog 8 1028 93 805 3.1 300 12:37 22.12.2019
5990 Clouds 8 1028 76 6437 2.1 20 12:18 22.12.2019
5991 Clouds 8 1028 76 6437 3.1 70 11:56 22.12.2019
5992 Clouds 8 1028 76 6437 3.1 70 11:56 22.12.2019
5993 Clouds 8 1028 76 6437 3.1 70 11:37 22.12.2019
5994 Clouds 8 1028 76 6437 3.1 70 11:18 22.12.2019
5995 Mist 9 1028 71 6437 3.6 290 10:54 22.12.2019
5996 Mist 9 1028 71 6437 3.6 290 10:36 22.12.2019
5997 Mist 9 1028 71 6437 3.6 290 10:18 22.12.2019
5998 Clouds 9 1029 76 8047 1.5 50 09:56 22.12.2019
5999 Clouds 9 1029 76 8047 1.5 50 09:37 22.12.2019
6000 Clouds 9 1029 76 8047 1.5 50 09:19 22.12.2019
6001 Clouds 9 1028 71 9656 3.1 60 08:39 22.12.2019
6002 Clouds 9 1028 71 9656 3.1 60 08:21 22.12.2019
6003 Clouds 10 1029 71 9656 2.1 90 07:39 22.12.2019
6004 Clouds 10 1029 71 9656 2.1 90 07:20 22.12.2019
6005 Clouds 11 1029 71 9656 2.1 20 06:41 22.12.2019
6006 Clouds 11 1028 71 9656 3.6 40 05:56 22.12.2019
6007 Clouds 11 1028 71 9656 3.6 40 05:24 22.12.2019
6008 Clouds 12 1028 66 8047 2.6 360 04:30 22.12.2019
6009 Clouds 13 1027 62 8047 4.1 290 03:56 22.12.2019
6010 Clouds 16 1026 58 8047 5.1 280 02:42 22.12.2019
6011 Clouds 16 1026 58 8047 5.1 280 02:42 22.12.2019
6012 Clouds 17 1025 54 8047 6.2 30 01:51 22.12.2019
6013 Clouds 17 1025 54 8047 6.2 30 01:30 22.12.2019
6014 Clouds 17 1025 54 8047 6.2 30 01:30 22.12.2019
6015 Clouds 19 1024 42 11265 5.1 180 00:47 22.12.2019
6016 Clouds 19 1024 42 11265 5.1 180 00:24 22.12.2019
6017 Clouds 19 1024 37 9656 5.1 200 23:57 21.12.2019
6018 Clouds 19 1024 37 9656 5.1 200 23:38 21.12.2019
6019 Clouds 19 1024 37 9656 5.1 200 23:19 21.12.2019
6020 Clouds 20 1024 35 6437 2.6 90 22:45 21.12.2019
6021 Clouds 21 1024 35 6437 2.6 90 22:20 21.12.2019
6022 Clouds 21 1024 35 6437 0.84 70 21:57 21.12.2019
6023 Clouds 21 1024 35 6437 0.84 70 21:38 21.12.2019
6024 Clouds 20 1025 39 6437 3.1 160 21:20 21.12.2019
6025 Clouds 20 1025 39 6437 1.5 110 20:59 21.12.2019
6026 Clouds 20 1025 39 6437 1.5 110 20:39 21.12.2019
6027 Clouds 19 1026 45 6437 3.6 30 20:21 21.12.2019
6028 Clouds 18 1028 48 6437 1.5 340 19:58 21.12.2019
6029 Clouds 17 1028 48 6437 1.5 340 19:40 21.12.2019
6030 Clouds 17 1028 48 6437 1.5 340 19:19 21.12.2019
6031 Clouds 17 1028 48 6437 2.1 30 18:45 21.12.2019
6032 Clouds 17 1028 48 6437 2.1 30 18:24 21.12.2019
6033 Clouds 16 1029 48 8047 1.5 50 17:58 21.12.2019
6034 Clouds 16 1029 48 8047 1.5 50 17:58 21.12.2019
6035 Clouds 16 1029 48 8047 1.5 50 17:39 21.12.2019
6036 Clouds 15 1029 54 9656 1.5 120 17:21 21.12.2019
6037 Clouds 14 1029 62 11265 2.1 120 16:59 21.12.2019
6038 Clouds 13 1029 62 11265 2.1 120 16:41 21.12.2019
6039 Clouds 13 1029 62 11265 2.1 120 16:19 21.12.2019
6040 Clouds 10 1028 62 9656 1.5 70 15:57 21.12.2019
6041 Clouds 10 1028 62 9656 1.5 70 15:38 21.12.2019
6042 Clouds 10 1028 62 9656 1.5 70 15:19 21.12.2019
6043 Clouds 10 1028 62 9656 1.5 70 15:19 21.12.2019
6044 Clouds 9 1027 66 8047 3.1 60 14:56 21.12.2019
6045 Clouds 9 1027 66 8047 3.1 60 14:37 21.12.2019
6046 Clouds 8 1027 66 8047 3.1 60 14:18 21.12.2019
6047 Clouds 7 1027 70 9656 3.1 80 13:55 21.12.2019
6048 Clouds 8 1027 70 9656 3.1 80 13:37 21.12.2019
6049 Clouds 8 1027 70 9656 3.1 80 13:18 21.12.2019
6050 Clouds 8 1027 66 9656 2.1 60 12:54 21.12.2019
6051 Clouds 8 1027 66 9656 2.1 60 12:36 21.12.2019
6052 Clouds 8 1027 66 9656 2.1 60 12:18 21.12.2019
6053 Clouds 9 1026 66 9656 2.1 60 11:41 21.12.2019
6054 Clouds 9 1026 66 9656 2.1 60 11:23 21.12.2019
6055 Clouds 9 1027 66 9656 1.5 70 10:56 21.12.2019
6056 Clouds 9 1027 66 9656 1.5 70 10:37 21.12.2019
6057 Clouds 9 1027 66 9656 1.5 70 10:19 21.12.2019
6058 Clouds 9 1027 66 9656 1.5 70 10:19 21.12.2019
6059 Clouds 11 1028 58 11265 2.1 80 09:42 21.12.2019
6060 Clouds 11 1028 58 11265 2.1 80 09:21 21.12.2019
6061 Clouds 11 1028 54 11265 2.1 320 08:57 21.12.2019
6062 Clouds 12 1028 54 11265 2.1 320 08:37 21.12.2019
6063 Clouds 12 1028 54 11265 2.1 320 08:18 21.12.2019
6064 Clouds 12 1028 50 11265 2.6 40 07:41 21.12.2019
6065 Clouds 12 1028 50 11265 2.6 40 07:22 21.12.2019
6066 Clouds 13 1029 47 11265 2.6 40 06:44 21.12.2019
6067 Clouds 13 1029 47 11265 2.6 40 06:25 21.12.2019
6068 Clouds 14 1029 48 11265 2.6 300 05:47 21.12.2019
6069 Clouds 14 1028 48 9656 3.1 10 04:58 21.12.2019
6070 Clouds 15 1028 42 9656 2.6 40 03:57 21.12.2019
6071 Clouds 17 1027 39 6437 2.6 10 02:52 21.12.2019
6072 Haze 17 1026 34 4828 3.1 40 01:57 21.12.2019
6073 Haze 17 1026 34 4828 3.1 40 01:27 21.12.2019
6074 Haze 19 1025 34 4828 1.5 20 00:52 21.12.2019
6075 Haze 19 1025 34 4828 1.5 20 00:32 21.12.2019
6076 Haze 19 1025 32 4828 1.5 320 23:57 20.12.2019
6077 Haze 19 1025 32 4828 1.5 320 23:37 20.12.2019
6078 Haze 19 1025 32 4828 1.5 320 23:18 20.12.2019
6079 Clouds 19 1025 34 6437 1.5 70 22:40 20.12.2019
6080 Clouds 19 1025 34 6437 1.5 70 22:21 20.12.2019
6081 Clouds 17 1026 36 6437 1.32 344 21:58 20.12.2019
6082 Clouds 17 1026 36 6437 1.32 344 21:39 20.12.2019
6083 Clouds 17 1026 36 6437 1.32 344 21:20 20.12.2019
6084 Clouds 17 1027 39 6437 2.1 50 20:41 20.12.2019
6085 Clouds 17 1027 39 6437 2.1 50 20:20 20.12.2019
6086 Clouds 17 1028 44 6437 2.6 330 19:59 20.12.2019
6087 Clouds 17 1028 44 6437 2.6 330 19:40 20.12.2019
6088 Clouds 16 1028 44 6437 2.6 330 19:19 20.12.2019
6089 Clouds 15 1029 47 6437 2.1 100 18:54 20.12.2019
6090 Clouds 15 1029 47 6437 2.1 100 18:36 20.12.2019
6091 Clouds 15 1029 47 6437 2.1 100 18:18 20.12.2019
6092 Clouds 14 1029 54 8047 1.5 50 17:42 20.12.2019
6093 Clouds 14 1029 54 8047 1.5 50 17:21 20.12.2019
6094 Clouds 12 1028 62 8047 1 300 16:59 20.12.2019
6095 Clouds 11 1028 62 8047 1 300 16:39 20.12.2019
6096 Clouds 11 1028 62 8047 1 300 16:20 20.12.2019
6097 Clouds 9 1028 61 8047 1.5 20 15:56 20.12.2019
6098 Clouds 9 1028 61 8047 1.5 20 15:38 20.12.2019
6099 Clouds 9 1028 61 8047 1.5 20 15:19 20.12.2019
6100 Clouds 9 1028 61 8047 1.5 20 15:19 20.12.2019
6101 Clouds 8 1027 75 8047 1.5 70 14:54 20.12.2019
6102 Clouds 8 1027 75 8047 1.5 70 14:54 20.12.2019
6103 Clouds 8 1027 75 8047 1.5 70 14:36 20.12.2019
6104 Clouds 8 1027 75 8047 1.5 70 14:18 20.12.2019
6105 Clouds 6 1027 70 9656 2.6 60 13:41 20.12.2019
6106 Clouds 7 1027 70 9656 2.6 60 13:20 20.12.2019
6107 Clouds 7 1027 66 9656 0.71 83 12:57 20.12.2019
6108 Clouds 6 1027 66 9656 0.71 83 12:38 20.12.2019
6109 Clouds 6 1027 66 9656 0.71 83 12:19 20.12.2019
6110 Clouds 6 1026 66 9656 1.5 50 11:58 20.12.2019
6111 Clouds 6 1026 66 9656 1.5 50 11:39 20.12.2019
6112 Clouds 7 1026 66 9656 1.5 50 11:19 20.12.2019
6113 Clouds 8 1027 66 9656 1.5 40 10:57 20.12.2019
6114 Clouds 8 1027 66 9656 1.5 40 10:39 20.12.2019
6115 Clouds 7 1027 66 9656 1.5 40 10:20 20.12.2019
6116 Clouds 8 1027 66 9656 0.82 59 09:44 20.12.2019
6117 Clouds 8 1027 66 9656 0.82 59 09:44 20.12.2019
6118 Clouds 8 1027 66 9656 0.82 59 09:22 20.12.2019
6119 Clouds 8 1027 66 9656 1.5 70 08:59 20.12.2019
6120 Clouds 8 1027 66 9656 1.5 70 08:59 20.12.2019
6121 Clouds 9 1028 58 9656 3.1 100 08:41 20.12.2019
6122 Clouds 9 1028 58 9656 3.1 100 08:22 20.12.2019
6123 Clouds 10 1028 58 9656 3.1 80 07:58 20.12.2019
6124 Clouds 10 1028 58 9656 3.1 80 07:39 20.12.2019
6125 Clouds 10 1028 58 9656 2.1 80 07:18 20.12.2019
6126 Clouds 10 1028 58 9656 2.1 80 06:48 20.12.2019
6127 Clouds 10 1028 58 9656 2.1 80 06:30 20.12.2019
6128 Clouds 11 1028 50 9656 2.6 90 05:49 20.12.2019
6129 Clouds 12 1028 50 9656 2.6 90 05:25 20.12.2019
6130 Clouds 13 1026 44 9656 3.1 80 03:50 20.12.2019
6131 Clouds 13 1026 44 9656 3.1 80 03:29 20.12.2019
6132 Clouds 16 1025 42 11265 7.2 140 02:38 20.12.2019
6133 Clouds 18 1024 39 8047 4.6 130 01:36 20.12.2019
6134 Clouds 19 1024 39 6437 7.2 120 00:59 20.12.2019
6135 Clouds 20 1024 34 6437 3.95 158 00:40 20.12.2019
6136 Clouds 21 1024 34 6437 2.6 170 23:59 19.12.2019
6137 Clouds 21 1024 34 6437 2.6 170 23:40 19.12.2019
6138 Clouds 21 1024 34 6437 2.6 170 23:22 19.12.2019
6139 Clouds 21 1024 34 6437 3.6 90 22:56 19.12.2019
6140 Clouds 21 1024 34 6437 3.6 90 22:36 19.12.2019
6141 Clouds 21 1024 34 6437 3.6 90 22:18 19.12.2019
6142 Clear 20 1025 37 8047 2.6 60 21:42 19.12.2019
6143 Clear 20 1025 37 8047 2.6 60 21:20 19.12.2019
6144 Clear 20 1026 37 6437 1.5 220 20:58 19.12.2019
6145 Clear 20 1026 37 6437 1.5 220 20:38 19.12.2019
6146 Clear 20 1026 37 6437 1.5 220 20:20 19.12.2019
6147 Clear 20 1026 37 6437 1.5 220 20:20 19.12.2019
6148 Clear 18 1026 39 6437 1.5 90 19:59 19.12.2019
6149 Clear 18 1028 44 6437 1.5 20 19:40 19.12.2019
6150 Clear 17 1028 44 6437 1.5 20 19:20 19.12.2019
6151 Clear 16 1028 44 6437 1.5 20 18:59 19.12.2019
6152 Clear 16 1028 50 6437 2.1 50 18:40 19.12.2019
6153 Clear 16 1028 50 6437 2.1 50 18:40 19.12.2019
6154 Clear 16 1028 50 6437 2.1 50 18:20 19.12.2019
6155 Clear 13 1029 54 6437 2.6 90 17:56 19.12.2019
6156 Clear 13 1029 61 8047 2.6 70 17:38 19.12.2019
6157 Clear 12 1029 61 8047 2.6 70 17:18 19.12.2019
6158 Clear 10 1029 65 8047 2.1 80 16:56 19.12.2019
6159 Clear 10 1029 65 8047 2.1 80 16:56 19.12.2019
6160 Clear 10 1029 65 8047 2.1 80 16:38 19.12.2019
6161 Clear 10 1029 65 8047 2.1 80 16:19 19.12.2019
6162 Clear 6 1027 75 0 1.79 80 15:58 19.12.2019
6163 Clear 6 1027 75 0 1.79 80 15:38 19.12.2019
6164 Clear 6 1027 75 0 1.79 80 15:38 19.12.2019
6165 Clear 6 1027 75 0 1.79 80 15:19 19.12.2019
6166 Clear 6 1027 75 0 1.79 80 14:57 19.12.2019
6167 Clear 6 1027 75 0 1.79 80 14:39 19.12.2019
6168 Clear 6 1027 75 0 1.79 80 14:18 19.12.2019
6169 Clear 6 1027 75 0 1.79 80 13:39 19.12.2019
6170 Clear 6 1027 75 0 1.79 80 13:20 19.12.2019
6171 Clear 6 1027 75 0 1.79 80 12:58 19.12.2019
6172 Clear 6 1027 75 0 1.79 80 12:40 19.12.2019
6173 Clear 6 1027 75 0 1.79 80 12:19 19.12.2019
6174 Clear 6 1027 75 0 1.79 80 11:59 19.12.2019
6175 Clear 6 1027 75 0 1.79 80 11:41 19.12.2019
6176 Clear 6 1027 75 0 1.79 80 11:19 19.12.2019
6177 Clear 6 1027 75 0 1.79 80 10:59 19.12.2019
6178 Clear 6 1027 75 0 1.79 80 10:38 19.12.2019
6179 Clear 6 1027 75 0 1.79 80 10:38 19.12.2019
6180 Clear 6 1027 75 0 1.79 80 10:20 19.12.2019
6181 Clear 6 1027 75 8047 2.1 80 09:56 19.12.2019
6182 Clear 6 1027 75 8047 2.1 80 09:37 19.12.2019
6183 Clear 6 1027 75 8047 2.1 80 09:19 19.12.2019
6184 Clouds 7 1027 75 9656 1.76 2 08:55 19.12.2019
6185 Clouds 7 1027 75 9656 1.76 2 08:55 19.12.2019
6186 Clouds 7 1027 75 9656 1.77 13 08:37 19.12.2019
6187 Clouds 10 1027 75 9656 2.32 349 08:18 19.12.2019
6188 Clear 9 1028 70 8047 2.1 80 07:41 19.12.2019
6189 Clear 9 1028 70 8047 2.1 80 07:23 19.12.2019
6190 Clear 11 1028 66 8047 2.1 100 06:58 19.12.2019
6191 Clear 11 1028 66 8047 2.1 100 06:39 19.12.2019
6192 Clear 11 1028 66 8047 2.1 100 06:21 19.12.2019
6193 Clouds 12 1028 61 8047 1.5 130 05:42 19.12.2019
6194 Clouds 12 1028 61 8047 1.5 130 05:18 19.12.2019
6195 Clouds 14 1026 58 6437 3.1 340 03:51 19.12.2019
6196 Clouds 15 1025 54 6437 3.1 360 02:25 19.12.2019
6197 Clouds 17 1024 48 6437 2.1 340 01:24 19.12.2019
6198 Clouds 19 1024 45 6437 2.1 30 00:55 19.12.2019
6199 Clouds 19 1024 45 6437 2.1 30 00:36 19.12.2019
6200 Clouds 19 1024 45 6437 2.1 30 00:18 19.12.2019
6201 Clouds 19 1024 45 6437 2.6 300 23:43 18.12.2019
6202 Clouds 19 1024 45 6437 2.6 300 23:43 18.12.2019
6203 Clouds 19 1024 45 6437 2.6 300 23:19 18.12.2019
6204 Clouds 19 1024 45 6437 1.62 338 22:56 18.12.2019
6205 Clouds 19 1024 45 6437 1.62 338 22:38 18.12.2019
6206 Clouds 19 1024 45 6437 1.62 338 22:20 18.12.2019
6207 Clouds 19 1024 45 6437 1.62 338 21:58 18.12.2019
6208 Clouds 19 1024 45 6437 1.62 338 21:58 18.12.2019
6209 Clouds 18 1025 51 6437 2.1 40 21:39 18.12.2019
6210 Clouds 18 1025 51 6437 2.1 40 21:20 18.12.2019
6211 Haze 18 1026 54 4828 2.1 120 20:56 18.12.2019
6212 Haze 17 1026 54 4828 2.1 120 20:38 18.12.2019
6213 Haze 17 1028 62 4828 3.1 60 20:19 18.12.2019
6214 Haze 17 1028 62 4828 3.1 60 19:56 18.12.2019
6215 Haze 16 1028 62 4828 3.1 60 19:37 18.12.2019
6216 Haze 16 1028 62 4828 3.1 60 19:18 18.12.2019
6217 Haze 16 1028 71 4828 2.6 80 18:45 18.12.2019
6218 Haze 14 1028 71 4828 2.6 80 18:25 18.12.2019
6219 Mist 14 1029 75 4828 4.1 70 17:58 18.12.2019
6220 Mist 14 1029 75 4828 4.1 70 17:39 18.12.2019
6221 Mist 14 1029 75 4828 4.1 70 17:39 18.12.2019
6222 Mist 12 1029 75 4828 4.1 70 17:20 18.12.2019
6223 Mist 10 1029 81 4023 4.6 80 16:58 18.12.2019
6224 Mist 10 1029 81 4023 4.6 80 16:40 18.12.2019
6225 Mist 10 1029 81 4023 4.6 80 16:40 18.12.2019
6226 Mist 10 1029 81 4023 4.6 80 16:21 18.12.2019
6227 Mist 8 1028 81 3219 4.1 60 15:56 18.12.2019
6228 Mist 8 1028 81 3219 4.1 60 15:38 18.12.2019
6229 Mist 5 1028 81 3219 4.1 60 15:20 18.12.2019
6230 Mist 5 1027 87 4023 3.1 70 14:43 18.12.2019
6231 Mist 5 1027 87 4023 3.1 70 14:22 18.12.2019
6232 Clouds 5 1027 87 6437 4.6 50 13:58 18.12.2019
6233 Clouds 5 1027 87 6437 4.6 50 13:39 18.12.2019
6234 Clouds 5 1027 87 6437 4.6 50 13:21 18.12.2019
6235 Clouds 5 1026 87 6437 5.7 70 12:59 18.12.2019
6236 Clouds 5 1026 87 6437 5.7 70 12:40 18.12.2019
6237 Clouds 5 1026 87 6437 5.7 70 12:20 18.12.2019
6238 Clouds 5 1026 87 8047 2.1 110 11:56 18.12.2019
6239 Clouds 5 1026 87 8047 2.1 110 11:38 18.12.2019
6240 Clouds 6 1026 87 8047 2.1 110 11:19 18.12.2019
6241 Mist 6 1026 87 8047 3.1 100 10:57 18.12.2019
6242 Mist 6 1026 87 8047 3.1 100 10:39 18.12.2019
6243 Mist 6 1026 87 8047 3.1 100 10:20 18.12.2019
6244 Clouds 6 1026 81 9656 2.6 90 09:52 18.12.2019
6245 Clouds 7 1026 81 9656 2.6 90 09:19 18.12.2019
6246 Clouds 8 1026 76 11265 2.1 100 08:42 18.12.2019
6247 Clouds 8 1026 76 11265 2.1 100 08:24 18.12.2019
6248 Clouds 8 1026 71 11265 2.1 120 07:55 18.12.2019
6249 Clouds 8 1026 71 11265 2.1 120 07:37 18.12.2019
6250 Clouds 9 1026 66 12874 2.6 300 07:19 18.12.2019
6251 Clouds 10 1025 66 12874 3.1 300 06:50 18.12.2019
6252 Clouds 11 1025 58 12874 3.1 340 06:22 18.12.2019
6253 Clouds 11 1025 54 12874 4.1 260 05:27 18.12.2019
6254 Clouds 14 1024 39 16093 3.1 170 03:31 18.12.2019
6255 Clouds 18 1023 36 16093 5.1 160 02:41 18.12.2019
6256 Clouds 18 1023 36 16093 5.1 160 02:23 18.12.2019
6257 Clouds 19 1023 36 16093 3.6 160 01:42 18.12.2019
6258 Clouds 19 1023 30 16093 5.1 200 01:23 18.12.2019
6259 Clouds 21 1022 26 12874 3.1 170 00:42 18.12.2019
6260 Clouds 21 1022 26 12874 3.1 170 00:23 18.12.2019
6261 Clouds 23 1022 21 11265 4.1 140 23:57 17.12.2019
6262 Clouds 23 1022 21 11265 4.1 140 23:39 17.12.2019
6263 Clouds 22 1022 21 11265 4.1 140 23:19 17.12.2019
6264 Clouds 23 1022 24 8047 2.6 130 22:56 17.12.2019
6265 Clouds 23 1022 24 8047 2.6 130 22:38 17.12.2019
6266 Clouds 22 1022 24 8047 2.6 130 22:19 17.12.2019
6267 Clouds 22 1023 32 8047 3.6 140 21:55 17.12.2019
6268 Clouds 22 1023 32 8047 3.6 140 21:37 17.12.2019
6269 Clouds 22 1023 32 8047 3.6 140 21:19 17.12.2019
6270 Clouds 22 1024 34 8047 2.6 110 20:57 17.12.2019
6271 Clouds 21 1024 34 8047 2.6 110 20:38 17.12.2019
6272 Clouds 21 1024 34 8047 2.6 110 20:18 17.12.2019
6273 Clouds 21 1024 34 8047 2.6 110 20:18 17.12.2019
6274 Clouds 20 1026 39 8047 3.6 50 19:56 17.12.2019
6275 Clouds 20 1026 39 8047 3.6 50 19:37 17.12.2019
6276 Clouds 20 1026 39 8047 3.6 50 19:18 17.12.2019
6277 Clouds 20 1026 39 8047 3.6 50 19:18 17.12.2019
6278 Clouds 18 1026 42 8047 2.1 70 18:43 17.12.2019
6279 Clouds 18 1026 42 8047 2.1 70 18:43 17.12.2019
6280 Clouds 17 1027 48 8047 2.6 80 18:23 17.12.2019
6281 Clouds 16 1027 48 8047 2.6 130 17:59 17.12.2019
6282 Clouds 16 1027 48 8047 2.6 130 17:41 17.12.2019
6283 Clouds 15 1028 54 8047 1.5 70 17:20 17.12.2019
6284 Clear 13 1028 58 8047 3.1 80 16:56 17.12.2019
6285 Clear 13 1028 58 8047 3.1 80 16:38 17.12.2019
6286 Clear 13 1028 58 8047 3.1 80 16:19 17.12.2019
6287 Clear 13 1028 58 8047 3.1 80 16:19 17.12.2019
6288 Clear 10 1027 71 9656 2.6 50 15:56 17.12.2019
6289 Clear 10 1027 71 9656 2.6 50 15:37 17.12.2019
6290 Clear 10 1027 71 9656 2.6 50 15:19 17.12.2019
6291 Clouds 10 1026 70 9656 2.6 70 14:55 17.12.2019
6292 Clouds 10 1026 70 9656 2.6 70 14:37 17.12.2019
6293 Clouds 10 1026 66 11265 1.5 60 14:18 17.12.2019
6294 Clouds 10 1026 66 11265 1.5 60 14:18 17.12.2019
6295 Clear 9 1026 62 12874 1 120 13:55 17.12.2019
6296 Clear 9 1026 62 12874 1 120 13:37 17.12.2019
6297 Clear 9 1026 62 12874 1 120 13:18 17.12.2019
6298 Clear 8 1026 71 12874 1.76 355 12:41 17.12.2019
6299 Clear 8 1026 71 12874 1.76 355 12:19 17.12.2019
6300 Clouds 8 1025 62 12874 2.1 70 11:59 17.12.2019
6301 Clouds 9 1025 62 12874 2.1 70 11:59 17.12.2019
6302 Clouds 9 1025 62 12874 2.1 70 11:38 17.12.2019
6303 Clouds 8 1025 62 12874 2.1 70 11:19 17.12.2019
6304 Clouds 9 1025 62 12874 1.5 80 10:59 17.12.2019
6305 Clouds 9 1025 62 12874 1.5 80 10:41 17.12.2019
6306 Clouds 9 1025 62 12874 1.5 80 10:41 17.12.2019
6307 Clouds 9 1025 62 12874 1.5 80 10:22 17.12.2019
6308 Clouds 10 1025 66 12874 2.6 60 09:59 17.12.2019
6309 Clouds 9 1025 66 12874 2.6 60 09:41 17.12.2019
6310 Clouds 9 1025 66 12874 2.6 60 09:20 17.12.2019
6311 Clouds 11 1026 58 12874 2.1 70 08:56 17.12.2019
6312 Clouds 11 1026 58 12874 2.1 70 08:38 17.12.2019
6313 Clouds 11 1026 58 12874 2.1 70 08:19 17.12.2019
6314 Clouds 12 1026 54 12874 1 90 07:47 17.12.2019
6315 Clouds 12 1026 54 12874 1 90 07:27 17.12.2019
6316 Clouds 12 1026 51 12874 2.1 80 06:59 17.12.2019
6317 Clouds 12 1026 51 12874 2.1 80 06:35 17.12.2019
6318 Clouds 13 1026 51 12874 3.6 100 05:54 17.12.2019
6319 Clouds 13 1026 51 12874 3.6 100 05:36 17.12.2019
6320 Clouds 14 1026 51 16093 4.1 120 04:31 17.12.2019
6321 Clouds 18 1023 48 14484 5.7 150 02:34 17.12.2019
6322 Clouds 19 1022 37 12874 3.1 160 01:55 17.12.2019
6323 Clouds 21 1022 32 12874 7.7 110 00:59 17.12.2019
6324 Clouds 21 1022 32 12874 7.7 110 00:38 17.12.2019
6325 Clouds 21 1022 32 12874 7.7 110 00:19 17.12.2019
6326 Clouds 22 1022 28 12874 4.1 90 23:42 16.12.2019
6327 Clouds 22 1022 28 12874 4.1 90 23:19 16.12.2019
6328 Clouds 22 1022 28 12874 4.1 90 23:19 16.12.2019
6329 Clouds 22 1022 28 12874 4.1 90 23:19 16.12.2019
6330 Clouds 22 1022 28 12874 4.1 90 23:19 16.12.2019
6331 Clouds 23 1022 27 12874 3.1 90 22:56 16.12.2019
6332 Clouds 23 1022 27 12874 3.1 90 22:37 16.12.2019
6333 Clouds 23 1022 27 12874 3.1 90 22:19 16.12.2019
6334 Clouds 23 1022 27 12874 3.1 90 22:19 16.12.2019
6335 Clouds 23 1023 27 12874 2.6 240 21:55 16.12.2019
6336 Clouds 23 1023 27 12874 2.6 240 21:55 16.12.2019
6337 Clouds 23 1023 27 12874 2.6 240 21:37 16.12.2019
6338 Clouds 23 1023 27 12874 2.6 240 21:19 16.12.2019
6339 Clouds 22 1024 30 12874 4.1 120 20:57 16.12.2019
6340 Clouds 22 1024 30 12874 4.1 120 20:57 16.12.2019
6341 Clouds 22 1024 30 12874 4.1 120 20:37 16.12.2019
6342 Clouds 22 1024 30 12874 4.1 120 20:19 16.12.2019
6343 Clouds 20 1024 32 12874 2.6 120 19:56 16.12.2019
6344 Clouds 20 1024 32 12874 2.6 120 19:56 16.12.2019
6345 Clouds 20 1024 32 12874 2.6 120 19:37 16.12.2019
6346 Clouds 20 1025 37 12874 2.6 90 19:18 16.12.2019
6347 Clouds 19 1026 34 12874 0.71 209 18:56 16.12.2019
6348 Clouds 19 1026 34 12874 0.71 209 18:37 16.12.2019
6349 Clouds 19 1026 34 12874 0.71 209 18:19 16.12.2019
6350 Clouds 17 1027 36 12874 1.5 160 17:57 16.12.2019
6351 Clouds 17 1027 36 12874 1.5 160 17:38 16.12.2019
6352 Clouds 17 1027 36 12874 1.5 160 17:19 16.12.2019
6353 Clouds 14 1027 47 14484 1.54 137 16:55 16.12.2019
6354 Clouds 13 1027 47 14484 1.54 137 16:37 16.12.2019
6355 Clouds 13 1027 47 14484 1.54 137 16:18 16.12.2019
6356 Clouds 10 1026 50 16093 1.5 330 15:57 16.12.2019
6357 Clouds 10 1026 50 16093 1.5 330 15:38 16.12.2019
6358 Clouds 10 1026 50 16093 1.5 330 15:38 16.12.2019
6359 Clouds 10 1026 50 16093 1.5 330 15:19 16.12.2019
6360 Clouds 7 1025 44 19312 3.6 70 14:55 16.12.2019
6361 Clouds 7 1025 44 19312 3.6 70 14:36 16.12.2019
6362 Clouds 7 1025 51 19312 3.6 70 14:18 16.12.2019
6363 Clouds 5 1025 51 19312 3.1 90 13:55 16.12.2019
6364 Clouds 6 1025 53 19312 3.1 90 13:37 16.12.2019
6365 Clouds 7 1025 53 19312 1.43 134 13:19 16.12.2019
6366 Clear 8 1025 61 19312 2.1 190 12:54 16.12.2019
6367 Clear 8 1025 53 19312 2.1 190 12:54 16.12.2019
6368 Clear 8 1025 53 19312 2.1 190 12:36 16.12.2019
6369 Clear 8 1025 53 19312 2.1 190 12:18 16.12.2019
6370 Clear 8 1025 53 19312 2.1 190 12:18 16.12.2019
6371 Clear 8 1025 46 19312 1.46 138 11:55 16.12.2019
6372 Clear 8 1025 46 19312 1.43 134 11:37 16.12.2019
6373 Clear 8 1025 46 19312 2.27 150 11:19 16.12.2019
6374 Clouds 8 1025 46 19312 2.6 240 10:40 16.12.2019
6375 Clouds 8 1025 46 19312 2.6 240 10:40 16.12.2019
6376 Clouds 8 1025 46 19312 2.6 240 10:22 16.12.2019
6377 Clouds 10 1026 47 16093 1.5 90 09:59 16.12.2019
6378 Clouds 10 1026 47 16093 1.5 90 09:41 16.12.2019
6379 Clouds 10 1026 47 16093 1.5 90 09:23 16.12.2019
6380 Clear 11 1026 47 16093 1.5 170 08:40 16.12.2019
6381 Clear 11 1026 47 16093 1.5 170 08:19 16.12.2019
6382 Clear 11 1026 47 16093 1.5 180 07:53 16.12.2019
6383 Clear 11 1026 47 16093 1.5 180 07:31 16.12.2019
6384 Clear 12 1026 44 16093 1.5 140 06:57 16.12.2019
6385 Clear 12 1026 44 16093 1.5 140 06:39 16.12.2019
6386 Clear 12 1026 44 16093 1.5 140 06:18 16.12.2019
6387 Clear 13 1026 41 16093 1.5 130 05:41 16.12.2019
6388 Clear 13 1026 41 16093 1.5 130 05:22 16.12.2019
6389 Clear 14 1024 42 16093 7.2 120 03:28 16.12.2019
6390 Clear 20 1023 34 12874 5.1 120 01:46 16.12.2019
6391 Clear 20 1023 34 12874 5.1 120 01:21 16.12.2019
6392 Clear 23 1022 28 11265 6.2 120 00:39 16.12.2019
6393 Clear 23 1022 28 11265 6.2 120 00:19 16.12.2019
6394 Clear 24 1022 18 11265 4.1 100 23:44 15.12.2019
6395 Clear 24 1022 18 11265 4.1 100 23:25 15.12.2019
6396 Clear 24 1023 18 11265 2.6 90 22:57 15.12.2019
6397 Clear 24 1023 18 11265 2.6 90 22:39 15.12.2019
6398 Clear 24 1023 18 11265 2.6 90 22:19 15.12.2019
6399 Clear 23 1024 16 9656 1.5 30 21:58 15.12.2019
6400 Clear 23 1024 16 9656 1.5 30 21:39 15.12.2019
6401 Clear 23 1024 16 9656 1.5 30 21:39 15.12.2019
6402 Clear 23 1024 16 9656 1.5 30 21:20 15.12.2019
6403 Clear 22 1025 19 9656 3.1 20 20:58 15.12.2019
6404 Clear 22 1025 19 9656 3.1 20 20:40 15.12.2019
6405 Clear 20 1025 19 9656 3.1 20 20:22 15.12.2019
6406 Clear 21 1026 24 9656 2.1 310 19:58 15.12.2019
6407 Clear 21 1026 24 9656 2.1 310 19:40 15.12.2019
6408 Clear 21 1026 24 9656 2.1 310 19:20 15.12.2019
6409 Clouds 19 1027 32 9656 1.5 160 18:58 15.12.2019
6410 Clouds 19 1027 32 9656 1.5 160 18:58 15.12.2019
6411 Clouds 19 1027 32 9656 1.5 160 18:39 15.12.2019
6412 Clouds 19 1027 33 9656 2.1 100 18:19 15.12.2019
6413 Clouds 16 1028 36 9656 3.1 100 17:57 15.12.2019
6414 Clouds 16 1028 36 9656 3.1 100 17:38 15.12.2019
6415 Clouds 16 1028 36 9656 3.1 100 17:19 15.12.2019
6416 Clouds 13 1028 38 11265 2.6 70 16:59 15.12.2019
6417 Clouds 13 1028 38 11265 2.6 70 16:41 15.12.2019
6418 Clouds 13 1028 38 11265 2.6 70 16:21 15.12.2019
6419 Clear 9 1027 52 11265 3.1 70 15:56 15.12.2019
6420 Clear 9 1027 52 11265 3.1 70 15:56 15.12.2019
6421 Clear 9 1027 52 11265 3.1 70 15:38 15.12.2019
6422 Clear 9 1027 52 11265 3.1 70 15:19 15.12.2019
6423 Clear 9 1027 52 11265 3.1 70 15:19 15.12.2019
6424 Clear 9 1027 52 11265 3.1 70 15:19 15.12.2019
6425 Clear 7 1026 49 9656 2.6 90 14:56 15.12.2019
6426 Clear 7 1026 49 9656 2.6 90 14:37 15.12.2019
6427 Fog 4 1027 43 6437 1.33 143 14:18 15.12.2019
6428 Clear 4 1026 56 9656 2.6 70 13:58 15.12.2019
6429 Clear 4 1026 56 9656 2.6 70 13:37 15.12.2019
6430 Clear 4 1026 56 9656 2.6 70 13:19 15.12.2019
6431 Clear 5 1025 52 9656 2.1 50 12:57 15.12.2019
6432 Clear 5 1025 52 9656 2.1 50 12:39 15.12.2019
6433 Clear 5 1025 52 9656 2.1 50 12:39 15.12.2019
6434 Clear 5 1025 52 9656 2.1 50 12:20 15.12.2019
6435 Clear 7 1025 42 9656 1 80 11:56 15.12.2019
6436 Clear 7 1025 42 9656 1 80 11:36 15.12.2019
6437 Clear 6 1025 43 9656 1 80 11:18 15.12.2019
6438 Clear 6 1025 49 9656 1.5 60 10:55 15.12.2019
6439 Clear 6 1025 49 9656 1.5 60 10:36 15.12.2019
6440 Clear 7 1025 49 9656 1.5 60 10:18 15.12.2019
6441 Clear 6 1025 43 9656 2.1 80 09:40 15.12.2019
6442 Clear 6 1025 43 9656 2.1 80 09:20 15.12.2019
6443 Clear 7 1025 53 11265 2.6 60 08:58 15.12.2019
6444 Clear 7 1025 53 11265 2.6 60 08:39 15.12.2019
6445 Clear 7 1025 53 11265 2.6 60 08:20 15.12.2019
6446 Clear 9 1025 47 12874 1.5 200 07:56 15.12.2019
6447 Clear 11 1025 47 12874 1.5 200 07:34 15.12.2019
6448 Clear 11 1026 47 12874 1 200 06:51 15.12.2019
6449 Clear 12 1026 41 12874 3.1 210 06:20 15.12.2019
6450 Clear 13 1025 41 12874 3.1 110 05:26 15.12.2019
6451 Clear 14 1025 39 12874 2.1 160 04:47 15.12.2019
6452 Clear 17 1024 36 12874 3.6 140 03:29 15.12.2019
6453 Clear 17 1023 34 12874 4.1 120 02:34 15.12.2019
6454 Clear 18 1023 30 12874 4.6 120 01:47 15.12.2019
6455 Clear 19 1023 14 12874 3.6 90 01:28 15.12.2019
6456 Clear 24 1023 11 12874 1.86 74 00:57 15.12.2019
6457 Clear 24 1023 11 12874 1.86 74 00:38 15.12.2019
6458 Clear 23 1023 11 12874 1.86 74 00:20 15.12.2019
6459 Clear 24 1023 14 12874 2.1 60 23:39 14.12.2019
6460 Clear 24 1023 14 12874 2.1 60 23:19 14.12.2019
6461 Clear 23 1023 11 16093 2.6 100 22:57 14.12.2019
6462 Clear 23 1023 11 16093 2.6 100 22:39 14.12.2019
6463 Clear 23 1023 11 16093 2.6 100 22:20 14.12.2019
6464 Clear 23 1024 11 16093 1 200 21:55 14.12.2019
6465 Clear 23 1024 11 16093 1 200 21:37 14.12.2019
6466 Clear 23 1024 11 16093 1 200 21:18 14.12.2019
6467 Clear 22 1025 14 16093 3.6 110 20:55 14.12.2019
6468 Clear 22 1025 14 16093 3.6 110 20:37 14.12.2019
6469 Clear 22 1025 14 16093 3.6 110 20:18 14.12.2019
6470 Clear 18 1026 16 12874 2.1 300 19:40 14.12.2019
6471 Clear 18 1026 16 12874 2.1 300 19:21 14.12.2019
6472 Clear 19 1027 25 12874 2.6 340 18:57 14.12.2019
6473 Clear 19 1027 25 12874 2.6 340 18:39 14.12.2019
6474 Clear 19 1028 36 11265 2.6 110 18:21 14.12.2019
6475 Clear 16 1028 38 11265 2.1 80 17:59 14.12.2019
6476 Clear 16 1028 38 11265 2.1 80 17:41 14.12.2019
6477 Clear 16 1028 38 11265 2.1 80 17:22 14.12.2019
6478 Clear 13 1028 50 12874 2.6 90 16:41 14.12.2019
6479 Clear 12 1028 53 16093 2.6 70 16:19 14.12.2019
6480 Clear 9 1027 53 16093 1 60 15:56 14.12.2019
6481 Clear 9 1027 53 16093 1 60 15:38 14.12.2019
6482 Clear 9 1027 53 16093 1 60 15:19 14.12.2019
6483 Clear 7 1027 65 16093 2.1 80 14:56 14.12.2019
6484 Clear 7 1027 65 16093 2.1 80 14:37 14.12.2019
6485 Clear 7 1027 65 16093 2.1 80 14:37 14.12.2019
6486 Clear 7 1027 65 16093 2.1 80 14:18 14.12.2019
6487 Clear 7 1027 65 16093 2.1 80 14:18 14.12.2019
6488 Clear 5 1027 65 16093 2.6 70 13:44 14.12.2019
6489 Clear 5 1027 65 16093 2.6 70 13:19 14.12.2019
6490 Clear 5 1027 61 16093 2.1 80 12:58 14.12.2019
6491 Clear 4 1027 61 16093 2.1 80 12:39 14.12.2019
6492 Clear 4 1027 61 16093 2.1 80 12:20 14.12.2019
6493 Clear 5 1027 61 16093 1.04 23 11:58 14.12.2019
6494 Clear 5 1027 61 16093 1.04 23 11:39 14.12.2019
6495 Clear 7 1027 61 16093 1.62 9 11:19 14.12.2019
6496 Clear 7 1027 61 16093 2.6 70 10:56 14.12.2019
6497 Clear 7 1027 61 16093 2.6 70 10:38 14.12.2019
6498 Clear 7 1027 61 16093 2.6 70 10:20 14.12.2019
6499 Clear 6 1027 61 16093 3.1 70 09:43 14.12.2019
6500 Clear 7 1027 53 19312 2.1 70 09:23 14.12.2019
6501 Clear 7 1027 50 19312 1.62 9 08:59 14.12.2019
6502 Clear 7 1027 50 19312 1.62 9 08:59 14.12.2019
6503 Clear 9 1027 50 19312 1.62 9 08:40 14.12.2019
6504 Clear 10 1027 41 19312 2.6 280 08:19 14.12.2019
6505 Clear 11 1027 38 19312 3.1 280 07:40 14.12.2019
6506 Clear 12 1027 38 19312 3.1 280 07:21 14.12.2019
6507 Clear 12 1027 41 19312 2.6 320 06:55 14.12.2019
6508 Clear 12 1027 41 19312 2.6 320 06:36 14.12.2019
6509 Clear 15 1027 29 19312 3.6 40 05:52 14.12.2019
6510 Clear 16 1027 31 16093 2.6 60 04:29 14.12.2019
6511 Clear 20 1024 20 12874 4.6 10 02:24 14.12.2019
6512 Clouds 22 1024 21 12874 3.1 10 01:44 14.12.2019
6513 Clouds 22 1024 21 12874 3.1 10 01:20 14.12.2019
6514 Clouds 23 1024 19 11265 2.6 60 00:43 14.12.2019
6515 Clouds 23 1024 19 11265 2.6 60 00:22 14.12.2019
6516 Clouds 23 1024 24 11265 3.1 40 23:42 13.12.2019
6517 Clouds 23 1024 24 11265 3.1 40 23:20 13.12.2019
6518 Clear 23 1024 26 11265 3.1 360 22:59 13.12.2019
6519 Clear 23 1024 26 11265 3.1 360 22:40 13.12.2019
6520 Clear 23 1024 26 11265 3.1 360 22:18 13.12.2019
6521 Clear 23 1025 30 11265 3.1 20 21:46 13.12.2019
6522 Clear 22 1025 30 11265 3.1 20 21:22 13.12.2019
6523 Clear 22 1026 30 9656 2.1 340 20:59 13.12.2019
6524 Clear 22 1026 30 9656 2.1 340 20:40 13.12.2019
6525 Clear 22 1026 30 9656 2.1 340 20:40 13.12.2019
6526 Clear 19 1028 34 12874 2.1 350 20:21 13.12.2019
6527 Clear 21 1028 34 12874 2.1 350 19:57 13.12.2019
6528 Clear 20 1028 34 12874 2.1 350 19:39 13.12.2019
6529 Clear 20 1028 34 12874 2.1 350 19:20 13.12.2019
6530 Clear 19 1029 42 9656 1.5 80 18:56 13.12.2019
6531 Clear 19 1029 42 9656 1.5 80 18:38 13.12.2019
6532 Clear 19 1029 42 9656 1.5 80 18:38 13.12.2019
6533 Clear 19 1029 42 9656 1.5 80 18:18 13.12.2019
6534 Clear 19 1029 42 9656 1.5 80 18:18 13.12.2019
6535 Clear 16 1030 51 9656 2.1 80 17:41 13.12.2019
6536 Clear 16 1030 51 9656 2.1 80 17:19 13.12.2019
6537 Clear 16 1030 51 9656 2.1 80 17:19 13.12.2019
6538 Clouds 13 1029 58 12874 2.1 80 16:58 13.12.2019
6539 Clouds 13 1029 58 12874 2.1 80 16:39 13.12.2019
6540 Clouds 13 1029 58 12874 2.1 80 16:20 13.12.2019
6541 Clouds 11 1029 62 12874 2.1 50 15:43 13.12.2019
6542 Clouds 11 1029 62 12874 2.1 50 15:22 13.12.2019
6543 Clouds 9 1028 70 14484 2.6 80 14:57 13.12.2019
6544 Clouds 9 1028 70 14484 2.6 80 14:39 13.12.2019
6545 Clouds 9 1028 70 14484 2.6 80 14:20 13.12.2019
6546 Clouds 7 1028 70 12874 2.6 80 13:45 13.12.2019
6547 Clouds 7 1028 70 12874 2.6 80 13:27 13.12.2019
6548 Clouds 7 1028 75 12874 2.6 80 12:59 13.12.2019
6549 Clouds 8 1028 57 12874 2.1 360 12:41 13.12.2019
6550 Clouds 9 1028 57 12874 2.1 360 12:19 13.12.2019
6551 Clouds 8 1028 61 12874 2.6 60 11:45 13.12.2019
6552 Clouds 9 1028 61 12874 2.6 60 11:27 13.12.2019
6553 Clear 9 1028 62 12874 2.6 50 10:58 13.12.2019
6554 Clear 8 1028 62 12874 2.6 50 10:40 13.12.2019
6555 Clear 8 1028 62 12874 2.6 50 10:21 13.12.2019
6556 Clear 11 1028 62 12874 2.6 50 09:43 13.12.2019
6557 Clouds 12 1029 51 14484 2.6 300 09:22 13.12.2019
6558 Clouds 12 1029 47 14484 3.1 300 08:55 13.12.2019
6559 Clouds 13 1029 47 14484 3.1 300 08:37 13.12.2019
6560 Clouds 13 1029 47 14484 3.1 300 08:19 13.12.2019
6561 Clouds 14 1029 41 16093 1 330 07:43 13.12.2019
6562 Clouds 14 1029 44 16093 2.6 360 07:19 13.12.2019
6563 Clouds 14 1029 44 16093 2.6 360 06:46 13.12.2019
6564 Clouds 14 1029 44 16093 2.6 360 06:27 13.12.2019
6565 Clouds 14 1029 42 16093 2.6 20 05:41 13.12.2019
6566 Clouds 14 1029 42 16093 2.6 20 05:20 13.12.2019
6567 Clouds 16 1028 42 16093 3.6 30 04:29 13.12.2019
6568 Clouds 16 1028 42 16093 3.6 10 03:29 13.12.2019
6569 Clouds 19 1027 26 16093 2.6 330 02:31 13.12.2019
6570 Clouds 20 1026 23 12874 2.1 360 01:39 13.12.2019
6571 Clouds 21 1026 26 11265 2.1 20 00:51 13.12.2019
6572 Clouds 21 1026 26 11265 2.1 20 00:29 13.12.2019
6573 Clouds 23 1026 23 9656 2.66 20 23:46 12.12.2019
6574 Clouds 23 1026 23 9656 2.66 20 23:27 12.12.2019
6575 Clouds 23 1027 21 9656 2.6 60 22:57 12.12.2019
6576 Clouds 22 1027 21 9656 2.6 60 22:39 12.12.2019
6577 Clouds 22 1027 21 9656 2.6 60 22:21 12.12.2019
6578 Clouds 23 1027 19 9656 1.5 190 21:56 12.12.2019
6579 Clouds 23 1027 19 9656 1.5 190 21:38 12.12.2019
6580 Clouds 23 1027 19 9656 1.5 190 21:20 12.12.2019
6581 Clouds 23 1027 19 9656 1.5 190 21:20 12.12.2019
6582 Clouds 22 1029 32 8047 2.6 60 20:59 12.12.2019
6583 Clouds 21 1029 32 8047 2.6 60 20:40 12.12.2019
6584 Clouds 21 1029 32 8047 2.6 60 20:22 12.12.2019
6585 Clouds 21 1030 37 8047 1.5 330 19:56 12.12.2019
6586 Clear 20 1031 45 8047 1.5 140 19:38 12.12.2019
6587 Clear 20 1031 45 8047 1.5 140 19:20 12.12.2019
6588 Clear 19 1031 45 8047 2.1 160 18:56 12.12.2019
6589 Clouds 18 1032 51 8047 1.55 328 18:38 12.12.2019
6590 Clouds 17 1032 51 8047 1.55 328 18:19 12.12.2019
6591 Clouds 16 1032 58 8047 1.5 130 17:57 12.12.2019
6592 Clouds 15 1032 62 8047 1.5 80 17:38 12.12.2019
6593 Clouds 15 1032 62 8047 1.5 80 17:19 12.12.2019
6594 Clouds 12 1033 66 8047 1.5 70 16:55 12.12.2019
6595 Clouds 12 1033 66 8047 1.5 70 16:36 12.12.2019
6596 Clouds 12 1033 66 8047 1.5 70 16:18 12.12.2019
6597 Clouds 8 1031 81 8047 2.6 70 15:42 12.12.2019
6598 Clouds 8 1031 81 8047 2.6 70 15:20 12.12.2019
6599 Mist 8 1031 87 8047 2.6 40 14:59 12.12.2019
6600 Mist 8 1031 87 8047 2.6 40 14:38 12.12.2019
6601 Mist 8 1031 87 8047 2.6 40 14:19 12.12.2019
6602 Smoke 5 1030 87 8047 0.95 34 13:56 12.12.2019
6603 Smoke 5 1030 87 8047 0.95 34 13:38 12.12.2019
6604 Smoke 6 1030 87 8047 0.77 36 13:20 12.12.2019
6605 Smoke 6 1030 81 8047 1.5 70 12:56 12.12.2019
6606 Smoke 6 1030 81 8047 1.5 70 12:38 12.12.2019
6607 Smoke 7 1030 81 8047 1.5 70 12:19 12.12.2019
6608 Smoke 7 1030 81 8047 1.5 70 12:19 12.12.2019
6609 Clouds 6 1030 81 9656 3.1 70 11:54 12.12.2019
6610 Clouds 7 1030 81 9656 3.1 70 11:36 12.12.2019
6611 Clouds 7 1030 81 9656 3.1 70 11:18 12.12.2019
6612 Clouds 7 1031 81 11265 3.1 70 10:41 12.12.2019
6613 Clouds 7 1031 81 11265 3.1 70 10:23 12.12.2019
6614 Clouds 7 1031 81 11265 3.1 70 10:23 12.12.2019
6615 Clouds 7 1031 81 11265 3.6 60 09:59 12.12.2019
6616 Clouds 7 1031 81 11265 3.6 60 09:59 12.12.2019
6617 Clouds 8 1031 81 11265 3.6 60 09:41 12.12.2019
6618 Clouds 8 1031 81 11265 3.6 60 09:23 12.12.2019
6619 Smoke 9 1031 76 12874 2.6 60 08:55 12.12.2019
6620 Smoke 9 1031 76 12874 2.6 60 08:37 12.12.2019
6621 Smoke 9 1031 76 12874 2.6 60 08:18 12.12.2019
6622 Clouds 9 1031 66 12874 2.1 240 07:41 12.12.2019
6623 Clouds 10 1031 66 12874 2.1 240 07:23 12.12.2019
6624 Clouds 10 1031 62 12874 2.1 320 06:44 12.12.2019
6625 Clouds 10 1031 62 12874 2.1 320 06:24 12.12.2019
6626 Clouds 11 1031 58 12874 3.1 290 05:36 12.12.2019
6627 Clouds 12 1030 58 12874 3.6 290 04:51 12.12.2019
6628 Clouds 17 1028 42 11265 4.1 210 02:57 12.12.2019
6629 Clouds 17 1028 42 11265 4.1 210 02:37 12.12.2019
6630 Clouds 17 1028 42 11265 4.1 210 02:18 12.12.2019
6631 Clouds 19 1027 37 11265 4.1 190 01:37 12.12.2019
6632 Clouds 19 1027 37 11265 4.1 190 01:18 12.12.2019
6633 Clouds 21 1026 30 8047 5.1 140 00:40 12.12.2019
6634 Clouds 21 1026 30 8047 5.1 140 00:18 12.12.2019
6635 Clouds 21 1026 35 6437 3.1 70 23:42 11.12.2019
6636 Clouds 21 1026 35 6437 3.1 70 23:20 11.12.2019
6637 Clouds 22 1027 35 6437 2.1 160 22:57 11.12.2019
6638 Clouds 22 1027 35 6437 2.1 160 22:38 11.12.2019
6639 Clouds 22 1027 35 6437 2.1 160 22:19 11.12.2019
6640 Clouds 22 1028 40 6437 2.1 110 21:55 11.12.2019
6641 Clouds 22 1028 40 6437 2.1 110 21:37 11.12.2019
6642 Clouds 22 1028 40 6437 2.1 110 21:19 11.12.2019
6643 Clear 21 1028 40 6437 2.1 120 20:55 11.12.2019
6644 Clouds 21 1030 45 6437 0.86 48 20:37 11.12.2019
6645 Clouds 20 1030 45 6437 1.8 287 20:18 11.12.2019
6646 Clouds 20 1031 55 6437 3.6 50 19:43 11.12.2019
6647 Clouds 19 1031 55 6437 3.6 50 19:23 11.12.2019
6648 Clouds 18 1031 58 6437 3.1 350 19:00 11.12.2019
6649 Clouds 17 1031 58 6437 3.1 350 18:40 11.12.2019
6650 Clouds 17 1031 58 6437 3.1 350 18:20 11.12.2019
6651 Haze 16 1032 50 4828 2.6 170 17:57 11.12.2019
6652 Haze 16 1032 50 4828 2.6 170 17:38 11.12.2019
6653 Haze 16 1032 50 4828 2.6 170 17:18 11.12.2019
6654 Clouds 14 1031 62 6437 1.32 4 16:56 11.12.2019
6655 Clouds 13 1031 71 6437 2.1 180 16:37 11.12.2019
6656 Clouds 13 1031 71 6437 2.1 180 16:37 11.12.2019
6657 Clouds 13 1031 71 6437 2.1 180 16:19 11.12.2019
6658 Clouds 11 1030 76 6437 1.32 4 15:57 11.12.2019
6659 Clouds 11 1030 76 6437 1.32 4 15:37 11.12.2019
6660 Clouds 11 1030 76 6437 1.32 4 15:19 11.12.2019
6661 Clouds 9 1029 81 8047 3.1 60 14:55 11.12.2019
6662 Clouds 9 1029 81 8047 3.1 60 14:36 11.12.2019
6663 Clouds 9 1029 81 8047 3.1 60 14:18 11.12.2019
6664 Clouds 7 1029 87 8047 1.5 90 13:43 11.12.2019
6665 Clouds 7 1029 87 8047 1.5 90 13:23 11.12.2019
6666 Clouds 8 1029 81 8047 3.1 60 12:58 11.12.2019
6667 Clouds 8 1029 81 8047 3.1 60 12:39 11.12.2019
6668 Clouds 8 1029 81 8047 3.1 60 12:21 11.12.2019
6669 Clouds 8 1028 81 8047 2.6 60 11:58 11.12.2019
6670 Clouds 8 1028 81 8047 2.6 60 11:39 11.12.2019
6671 Clouds 8 1028 81 8047 2.6 60 11:19 11.12.2019
6672 Clouds 8 1028 81 8047 2.6 60 11:19 11.12.2019
6673 Clear 9 1028 76 8047 1.5 280 10:59 11.12.2019
6674 Clear 9 1028 76 8047 1.5 280 10:39 11.12.2019
6675 Clear 8 1028 76 8047 1.5 280 10:21 11.12.2019
6676 Clear 10 1029 71 9656 2.6 280 09:55 11.12.2019
6677 Clear 10 1029 71 9656 2.6 280 09:37 11.12.2019
6678 Clear 10 1029 71 9656 2.6 280 09:19 11.12.2019
6679 Clear 10 1028 71 9656 4.1 300 08:55 11.12.2019
6680 Clear 10 1028 71 9656 4.1 300 08:36 11.12.2019
6681 Clear 10 1028 71 9656 4.1 300 08:18 11.12.2019
6682 Clear 11 1028 67 9656 5.1 300 07:42 11.12.2019
6683 Clear 11 1028 67 9656 5.1 300 07:42 11.12.2019
6684 Clear 12 1028 67 9656 5.1 300 07:22 11.12.2019
6685 Clear 12 1028 58 9656 5.1 280 06:45 11.12.2019
6686 Clear 12 1028 58 9656 5.1 280 06:24 11.12.2019
6687 Clear 12 1028 54 9656 3.1 280 05:52 11.12.2019
6688 Clear 13 1028 39 11265 1.5 110 05:28 11.12.2019
6689 Clear 13 1027 44 12874 3.1 90 04:48 11.12.2019
6690 Clear 16 1026 29 12874 3.1 120 03:18 11.12.2019